# Wetter Temperatur Luftdruck Luftfeuchtigkeit Sichtweite Windgeschwindigkeit Windrichtung Zeit
1 Clear 10 1024 46 10000 2.57 340 13:20 22.04.2021
2 Clear 9 1024 46 10000 3.09 40 12:45 22.04.2021
3 Clear 9 1024 46 10000 3.09 40 12:20 22.04.2021
4 Clear 8 1024 49 10000 4.63 40 11:45 22.04.2021
5 Clear 8 1024 49 10000 5.14 40 11:23 22.04.2021
6 Clouds 7 1024 53 10000 5.14 30 10:45 22.04.2021
7 Clouds 7 1024 53 10000 5.66 30 10:24 22.04.2021
8 Clouds 6 1024 52 10000 7.2 20 09:47 22.04.2021
9 Clouds 5 1023 56 10000 7.2 10 09:24 22.04.2021
10 Clear 5 1023 60 10000 5.66 10 08:39 22.04.2021
11 Clear 5 1023 60 10000 5.66 10 08:21 22.04.2021
12 Clear 4 1022 60 10000 4.12 20 07:45 22.04.2021
13 Clouds 5 1022 65 10000 5.66 30 07:24 22.04.2021
14 Clouds 5 1021 65 10000 6.17 20 06:32 22.04.2021
15 Clear 6 1021 61 10000 5.66 20 05:26 22.04.2021
16 Clear 7 1020 65 10000 5.66 20 04:56 22.04.2021
17 Clear 11 1019 62 10000 6.17 20 01:39 22.04.2021
18 Clear 11 1017 66 10000 4.12 360 23:54 21.04.2021
19 Clear 10 1017 66 10000 4.12 360 23:34 21.04.2021
20 Clear 11 1016 62 10000 2.06 300 22:44 21.04.2021
21 Clear 11 1016 58 10000 2.06 300 22:24 21.04.2021
22 Clear 11 1016 58 10000 1.54 280 21:50 21.04.2021
23 Clear 13 1016 54 10000 1.54 300 21:25 21.04.2021
24 Clear 14 1015 51 10000 2.06 360 20:59 21.04.2021
25 Clear 15 1015 44 10000 2.57 10 20:21 21.04.2021
26 Clouds 16 1015 48 10000 2.57 30 19:45 21.04.2021
27 Clouds 16 1015 48 10000 2.57 20 19:26 21.04.2021
28 Clouds 16 1015 48 10000 4.63 40 18:49 21.04.2021
29 Clouds 16 1015 51 10000 5.66 60 18:31 21.04.2021
30 Clouds 16 1015 51 10000 3.6 40 17:49 21.04.2021
31 Clouds 16 1015 48 10000 5.14 30 17:25 21.04.2021
32 Rain 17 1015 42 10000 3.09 240 16:57 21.04.2021
33 Rain 17 1015 39 10000 3.6 250 16:30 21.04.2021
34 Clouds 18 1015 36 10000 2.57 130 15:43 21.04.2021
35 Clouds 17 1015 42 10000 2.57 150 15:18 21.04.2021
36 Clouds 17 1015 42 10000 2.57 150 15:18 21.04.2021
37 Clouds 17 1015 48 10000 4.12 200 14:44 21.04.2021
38 Clouds 18 1015 42 10000 4.63 0 14:23 21.04.2021
39 Clouds 17 1015 45 10000 2.57 350 13:45 21.04.2021
40 Clouds 18 1016 45 10000 2.06 0 13:21 21.04.2021
41 Clouds 16 1016 48 10000 2.06 0 12:40 21.04.2021
42 Clouds 16 1016 51 10000 1.03 0 11:59 21.04.2021
43 Clouds 15 1016 55 10000 1.03 0 11:41 21.04.2021
44 Clouds 15 1016 55 10000 1.03 0 11:22 21.04.2021
45 Clouds 14 1016 58 10000 0.51 0 10:38 21.04.2021
46 Clear 12 1016 66 10000 0.51 0 09:56 21.04.2021
47 Clear 10 1016 71 10000 0.51 0 09:20 21.04.2021
48 Clouds 11 1016 76 10000 1.03 0 08:42 21.04.2021
49 Clear 8 1016 87 10000 0.51 0 08:23 21.04.2021
50 Clear 6 1016 93 10000 0.51 0 07:50 21.04.2021
51 Clear 6 1015 93 10000 0.51 220 07:26 21.04.2021
52 Clear 5 1015 93 10000 1.03 200 05:53 21.04.2021
53 Clear 8 1016 71 10000 1.54 20 01:50 21.04.2021
54 Clear 9 1015 76 10000 0.51 0 00:20 21.04.2021
55 Clear 10 1015 66 10000 0.51 0 23:38 20.04.2021
56 Clear 10 1015 66 10000 1.54 240 22:46 20.04.2021
57 Clear 11 1015 62 10000 1.03 240 22:23 20.04.2021
58 Clear 11 1015 58 10000 1.03 210 21:56 20.04.2021
59 Clear 12 1015 54 10000 1.54 190 21:29 20.04.2021
60 Clear 14 1015 44 10000 2.06 190 20:59 20.04.2021
61 Clear 14 1015 44 10000 2.06 190 20:38 20.04.2021
62 Clear 15 1015 39 10000 1.54 230 20:18 20.04.2021
63 Clear 17 1015 32 10000 1.54 230 19:46 20.04.2021
64 Clouds 17 1015 34 10000 1.54 260 19:28 20.04.2021
65 Clouds 18 1015 32 10000 2.57 280 18:44 20.04.2021
66 Clear 18 1015 32 10000 3.09 250 18:23 20.04.2021
67 Clear 18 1015 34 10000 3.09 310 17:41 20.04.2021
68 Clear 17 1015 36 10000 3.6 210 16:50 20.04.2021
69 Clouds 17 1016 36 10000 2.57 150 16:25 20.04.2021
70 Clouds 17 1016 42 10000 2.57 290 15:36 20.04.2021
71 Clouds 17 1016 45 10000 2.06 0 15:18 20.04.2021
72 Clouds 16 1016 44 10000 1.54 0 14:39 20.04.2021
73 Clouds 15 1017 44 10000 1.03 0 14:20 20.04.2021
74 Clouds 16 1017 47 10000 1.03 0 13:27 20.04.2021
75 Clouds 15 1017 58 10000 1.03 0 12:53 20.04.2021
76 Clouds 14 1017 62 10000 1.03 0 12:24 20.04.2021
77 Clouds 14 1018 67 10000 1.03 0 11:46 20.04.2021
78 Clouds 12 1018 76 10000 1.54 100 11:25 20.04.2021
79 Clouds 11 1018 81 10000 1.54 90 10:47 20.04.2021
80 Clouds 10 1018 93 6000 2.06 100 10:24 20.04.2021
81 Fog 9 1018 93 800 1.54 90 09:47 20.04.2021
82 Fog 7 1018 100 250 1.54 100 09:18 20.04.2021
83 Fog 8 1018 100 300 1.54 30 08:42 20.04.2021
84 Fog 5 1018 100 300 1.54 30 07:53 20.04.2021
85 Fog 5 1018 100 300 1.54 80 07:22 20.04.2021
86 Clear 4 1018 100 10000 0.51 0 05:42 20.04.2021
87 Clear 5 1018 93 10000 1.03 120 04:43 20.04.2021
88 Clear 6 1018 93 10000 1.03 170 03:34 20.04.2021
89 Clear 6 1018 87 10000 0.51 0 00:50 20.04.2021
90 Clear 7 1018 93 10000 1.03 230 23:52 19.04.2021
91 Clouds 7 1018 87 10000 0.51 0 23:29 19.04.2021
92 Clouds 8 1018 81 10000 1.03 200 22:38 19.04.2021
93 Clouds 8 1018 87 10000 1.03 210 22:19 19.04.2021
94 Clouds 9 1018 76 10000 1.03 180 21:38 19.04.2021
95 Clouds 10 1018 76 10000 1.03 180 21:20 19.04.2021
96 Clouds 11 1018 66 10000 1.03 230 20:41 19.04.2021
97 Clouds 12 1018 62 10000 1.54 190 20:20 19.04.2021
98 Clouds 12 1018 58 10000 2.06 160 19:46 19.04.2021
99 Clouds 12 1018 62 10000 2.57 140 19:25 19.04.2021
100 Clouds 13 1018 54 10000 1.54 100 18:56 19.04.2021
101 Clouds 13 1018 54 10000 1.54 100 18:37 19.04.2021
102 Clouds 13 1018 58 10000 4.12 70 18:18 19.04.2021
103 Clouds 13 1018 58 10000 1.03 0 17:40 19.04.2021
104 Clouds 13 1018 62 10000 1.54 0 17:22 19.04.2021
105 Clouds 13 1018 66 10000 1.54 30 16:41 19.04.2021
106 Clouds 13 1019 71 10000 1.54 350 16:22 19.04.2021
107 Clouds 11 1019 71 10000 6.17 50 15:40 19.04.2021
108 Clouds 13 1019 58 10000 3.6 50 15:22 19.04.2021
109 Clouds 12 1019 62 10000 2.06 50 14:41 19.04.2021
110 Clouds 12 1019 62 10000 3.09 60 14:22 19.04.2021
111 Clouds 12 1019 66 10000 1.54 0 13:48 19.04.2021
112 Clouds 12 1019 71 10000 2.57 50 13:25 19.04.2021
113 Clouds 12 1019 71 10000 2.57 50 12:43 19.04.2021
114 Clouds 13 1019 71 10000 2.06 80 12:24 19.04.2021
115 Clouds 12 1019 71 10000 2.06 0 11:54 19.04.2021
116 Clouds 11 1019 81 10000 2.57 30 11:26 19.04.2021
117 Clouds 11 1019 76 10000 2.06 10 10:51 19.04.2021
118 Clouds 8 1019 81 10000 3.09 20 10:26 19.04.2021
119 Clouds 9 1019 81 10000 3.6 10 09:57 19.04.2021
120 Clouds 7 1019 87 10000 4.12 20 09:36 19.04.2021
121 Clouds 7 1019 87 10000 4.12 20 09:18 19.04.2021
122 Clouds 7 1019 81 10000 2.57 20 08:29 19.04.2021
123 Fog 8 1019 93 10000 2.57 20 07:49 19.04.2021
124 Clouds 7 1019 93 10000 1.54 10 07:20 19.04.2021
125 Clouds 7 1019 93 10000 1.54 10 06:38 19.04.2021
126 Rain 8 1019 93 10000 1.54 60 02:37 19.04.2021
127 Rain 9 1020 87 9000 1.03 40 01:29 19.04.2021
128 Rain 9 1020 87 10000 3.6 40 00:30 19.04.2021
129 Rain 9 1020 81 10000 2.57 260 23:19 18.04.2021
130 Rain 9 1020 76 10000 2.06 250 22:52 18.04.2021
131 Rain 8 1020 81 10000 2.57 250 22:31 18.04.2021
132 Clouds 9 1020 81 10000 2.06 220 21:45 18.04.2021
133 Clouds 10 1020 76 10000 2.57 270 21:23 18.04.2021
134 Clouds 10 1020 76 10000 2.57 270 21:23 18.04.2021
135 Clouds 11 1019 62 10000 2.06 250 20:40 18.04.2021
136 Clouds 11 1019 62 10000 2.06 250 20:21 18.04.2021
137 Clouds 11 1019 62 10000 3.09 260 19:49 18.04.2021
138 Clouds 13 1019 62 10000 2.57 260 19:30 18.04.2021
139 Clouds 13 1019 58 10000 1.03 0 18:54 18.04.2021
140 Clouds 13 1019 58 10000 1.03 0 18:31 18.04.2021
141 Clouds 12 1019 62 10000 2.06 330 17:59 18.04.2021
142 Clouds 12 1019 62 10000 2.06 330 17:41 18.04.2021
143 Clouds 12 1019 62 10000 2.57 350 17:23 18.04.2021
144 Clouds 12 1020 62 10000 2.06 330 16:41 18.04.2021
145 Clouds 11 1020 66 10000 2.57 10 16:18 18.04.2021
146 Clouds 11 1020 62 10000 2.57 340 15:39 18.04.2021
147 Clouds 11 1020 71 10000 2.57 300 15:20 18.04.2021
148 Clouds 11 1020 71 10000 2.06 0 14:42 18.04.2021
149 Clouds 10 1020 81 10000 2.57 290 14:19 18.04.2021
150 Clouds 9 1020 81 10000 1.54 0 13:54 18.04.2021
151 Clouds 9 1021 81 10000 1.03 0 13:31 18.04.2021
152 Clouds 8 1021 81 10000 1.03 0 12:44 18.04.2021
153 Clouds 8 1021 81 10000 1.03 0 12:44 18.04.2021
154 Clouds 8 1021 87 10000 1.03 320 12:23 18.04.2021
155 Clouds 8 1021 81 10000 1.54 0 11:41 18.04.2021
156 Rain 8 1021 81 10000 1.54 290 11:20 18.04.2021
157 Clouds 7 1021 81 10000 1.03 0 10:46 18.04.2021
158 Clouds 7 1021 87 10000 1.54 0 10:21 18.04.2021
159 Rain 6 1021 87 10000 1.54 320 09:45 18.04.2021
160 Rain 6 1021 81 10000 2.06 320 09:26 18.04.2021
161 Rain 6 1021 93 10000 1.54 330 08:54 18.04.2021
162 Rain 6 1021 87 10000 1.03 0 08:29 18.04.2021
163 Rain 5 1020 87 10000 1.03 250 07:53 18.04.2021
164 Rain 5 1020 87 10000 1.03 250 07:35 18.04.2021
165 Clouds 6 1020 70 10000 1.03 0 05:40 18.04.2021
166 Clouds 6 1020 70 10000 0.51 0 05:22 18.04.2021
167 Clouds 7 1021 65 10000 1.03 70 02:25 18.04.2021
168 Clouds 7 1021 57 10000 2.06 90 01:41 18.04.2021
169 Clouds 7 1021 61 10000 1.03 200 00:29 18.04.2021
170 Clouds 8 1021 53 10000 1.54 260 23:31 17.04.2021
171 Clouds 8 1022 53 10000 1.54 20 22:50 17.04.2021
172 Clouds 8 1022 49 10000 2.06 30 22:30 17.04.2021
173 Clouds 8 1022 49 10000 2.57 20 21:47 17.04.2021
174 Clear 8 1022 46 10000 3.09 30 21:28 17.04.2021
175 Clouds 9 1021 49 10000 3.6 20 20:47 17.04.2021
176 Clouds 9 1021 46 10000 4.63 20 20:25 17.04.2021
177 Clouds 9 1021 49 10000 3.6 10 19:44 17.04.2021
178 Clouds 9 1021 49 10000 3.09 20 19:20 17.04.2021
179 Clouds 9 1021 49 10000 4.63 10 18:55 17.04.2021
180 Clear 9 1021 46 10000 6.17 20 18:28 17.04.2021
181 Clear 9 1021 46 10000 6.69 10 17:56 17.04.2021
182 Clear 9 1021 46 10000 6.17 20 17:38 17.04.2021
183 Clear 9 1022 43 10000 5.66 10 16:42 17.04.2021
184 Clear 9 1022 46 10000 5.66 20 16:24 17.04.2021
185 Clear 10 1022 46 10000 6.69 20 15:39 17.04.2021
186 Clear 10 1022 40 10000 6.17 30 14:50 17.04.2021
187 Clear 10 1022 40 10000 6.17 40 14:29 17.04.2021
188 Clear 10 1022 40 10000 6.69 360 13:46 17.04.2021
189 Clear 10 1023 37 10000 7.2 20 13:19 17.04.2021
190 Clouds 10 1023 40 10000 6.17 20 12:36 17.04.2021
191 Clouds 9 1023 46 10000 6.17 20 11:59 17.04.2021
192 Clouds 9 1023 46 10000 6.17 30 11:39 17.04.2021
193 Clouds 9 1023 46 10000 6.17 20 11:39 17.04.2021
194 Clouds 9 1023 46 10000 6.17 30 11:20 17.04.2021
195 Clouds 8 1023 49 10000 5.66 20 10:41 17.04.2021
196 Clouds 8 1023 53 10000 5.66 20 10:22 17.04.2021
197 Clear 6 1024 53 10000 4.63 30 09:19 17.04.2021
198 Clear 5 1024 56 10000 4.63 20 08:34 17.04.2021
199 Clear 4 1023 65 10000 4.12 10 07:59 17.04.2021
200 Clear 3 1023 81 10000 2.57 20 06:42 17.04.2021
201 Clear 3 1024 81 10000 0.51 180 03:49 17.04.2021
202 Clear 4 1024 81 10000 1.03 210 02:28 17.04.2021
203 Clear 5 1025 75 10000 1.54 210 00:43 17.04.2021
204 Clear 5 1025 70 10000 1.54 220 00:21 17.04.2021
205 Clear 6 1025 70 10000 1.54 250 23:43 16.04.2021
206 Clear 6 1025 70 10000 1.03 240 23:20 16.04.2021
207 Clear 6 1025 61 10000 1.54 240 22:42 16.04.2021
208 Clear 6 1025 65 10000 0.51 0 22:20 16.04.2021
209 Clear 7 1025 61 10000 1.54 150 21:49 16.04.2021
210 Clear 8 1024 53 10000 1.54 130 21:28 16.04.2021
211 Clear 8 1024 53 10000 2.06 90 20:47 16.04.2021
212 Clear 8 1024 53 10000 3.6 40 20:24 16.04.2021
213 Clouds 8 1024 53 10000 2.57 40 19:50 16.04.2021
214 Clouds 8 1024 53 10000 3.6 30 19:27 16.04.2021
215 Clouds 8 1025 53 10000 4.63 50 18:28 16.04.2021
216 Clouds 9 1025 49 10000 4.12 30 17:55 16.04.2021
217 Clouds 8 1025 53 10000 5.66 50 17:21 16.04.2021
218 Clouds 8 1025 57 10000 4.63 40 16:58 16.04.2021
219 Clouds 8 1025 57 10000 4.63 40 16:40 16.04.2021
220 Clouds 9 1025 57 10000 5.66 20 16:21 16.04.2021
221 Clouds 9 1025 57 10000 5.66 20 15:42 16.04.2021
222 Rain 8 1026 49 10000 5.66 40 14:59 16.04.2021
223 Rain 8 1025 53 10000 4.63 20 14:40 16.04.2021
224 Rain 8 1025 53 10000 5.66 20 13:59 16.04.2021
225 Clouds 7 1025 49 10000 4.63 30 13:38 16.04.2021
226 Clouds 7 1025 49 10000 4.63 30 13:18 16.04.2021
227 Clouds 8 1026 53 10000 5.66 50 12:44 16.04.2021
228 Clouds 7 1026 57 10000 5.14 20 12:25 16.04.2021
229 Clouds 6 1026 61 10000 5.14 20 11:43 16.04.2021
230 Clouds 6 1026 61 10000 4.12 30 11:24 16.04.2021
231 Clouds 6 1026 61 10000 4.63 30 10:43 16.04.2021
232 Clouds 5 1026 65 10000 4.63 30 10:25 16.04.2021
233 Clouds 5 1026 65 10000 6.17 30 09:52 16.04.2021
234 Clouds 5 1026 60 10000 7.2 20 09:24 16.04.2021
235 Clouds 4 1027 74 10000 0.45 17 08:46 16.04.2021
236 Clouds 4 1026 65 10000 4.63 10 08:27 16.04.2021
237 Clouds 3 1026 65 10000 3.6 10 07:52 16.04.2021
238 Clouds 3 1026 65 10000 3.6 10 07:33 16.04.2021
239 Clouds 3 1026 75 10000 2.57 350 06:56 16.04.2021
240 Clouds 4 1026 70 10000 4.12 10 05:33 16.04.2021
241 Clouds 4 1026 70 10000 3.09 10 04:19 16.04.2021
242 Clear 3 1027 65 10000 3.6 20 00:54 16.04.2021
243 Clear 3 1027 65 10000 3.6 20 00:36 16.04.2021
244 Clear 3 1027 70 10000 3.09 10 00:18 16.04.2021
245 Clear 4 1027 65 10000 3.6 20 23:36 15.04.2021
246 Clouds 5 1027 60 10000 4.12 10 22:53 15.04.2021
247 Clouds 5 1027 60 10000 4.12 10 22:33 15.04.2021
248 Clouds 6 1027 49 10000 5.14 30 21:59 15.04.2021
249 Clouds 6 1027 49 10000 5.14 30 21:41 15.04.2021
250 Clear 7 1027 53 10000 5.14 20 21:20 15.04.2021
251 Clouds 7 1027 49 10000 5.66 20 20:42 15.04.2021
252 Clouds 8 1026 42 10000 4.63 20 20:21 15.04.2021
253 Clouds 8 1026 49 10000 5.14 10 19:44 15.04.2021
254 Clouds 8 1026 39 10000 6.69 20 19:24 15.04.2021
255 Clouds 9 1028 47 10000 1.34 27 18:42 15.04.2021
256 Clouds 10 1026 37 10000 6.17 20 18:21 15.04.2021
257 Clouds 9 1027 37 10000 6.17 10 17:55 15.04.2021
258 Clouds 9 1027 37 10000 6.17 10 17:55 15.04.2021
259 Clouds 10 1027 37 10000 7.2 360 17:36 15.04.2021
260 Clouds 10 1027 37 10000 7.2 360 17:36 15.04.2021
261 Clouds 9 1027 37 10000 7.2 20 16:58 15.04.2021
262 Clouds 9 1027 37 10000 7.2 20 16:40 15.04.2021
263 Clouds 9 1027 43 10000 6.69 350 16:21 15.04.2021
264 Clouds 9 1027 40 10000 5.14 20 15:44 15.04.2021
265 Clouds 9 1027 40 10000 5.66 50 15:25 15.04.2021
266 Clouds 9 1028 40 10000 4.63 30 14:41 15.04.2021
267 Clouds 9 1028 43 10000 5.14 60 14:22 15.04.2021
268 Clouds 8 1028 43 10000 5.66 50 13:42 15.04.2021
269 Clouds 9 1028 43 10000 3.6 10 13:18 15.04.2021
270 Clouds 8 1028 49 10000 4.12 0 12:41 15.04.2021
271 Clouds 8 1029 53 10000 4.12 40 12:21 15.04.2021
272 Clouds 8 1029 53 10000 5.14 30 11:46 15.04.2021
273 Clouds 7 1029 57 10000 5.14 30 11:23 15.04.2021
274 Clouds 6 1029 61 10000 4.63 20 10:55 15.04.2021
275 Clouds 5 1029 65 10000 5.14 30 10:28 15.04.2021
276 Clouds 5 1028 70 10000 4.63 40 09:50 15.04.2021
277 Clouds 3 1028 70 10000 4.63 20 09:28 15.04.2021
278 Clear 2 1028 75 10000 4.63 20 08:49 15.04.2021
279 Clear 1 1028 80 10000 3.09 10 08:23 15.04.2021
280 Clear 0 1028 86 10000 3.09 20 07:26 15.04.2021
281 Clear 0 1028 86 10000 3.09 30 06:50 15.04.2021
282 Clear 0 1028 86 10000 3.6 30 06:32 15.04.2021
283 Clear 0 1028 93 10000 3.09 40 04:53 15.04.2021
284 Clear 1 1028 75 10000 2.57 20 02:51 15.04.2021
285 Clear 2 1028 80 10000 2.57 360 23:47 14.04.2021
286 Clear 3 1028 75 10000 3.09 20 23:28 14.04.2021
287 Clear 3 1028 70 10000 4.12 20 22:47 14.04.2021
288 Clouds 4 1028 70 10000 3.09 330 22:27 14.04.2021
289 Clouds 4 1028 65 10000 2.57 300 21:53 14.04.2021
290 Clouds 5 1028 60 10000 2.57 300 21:32 14.04.2021
291 Clouds 5 1027 60 10000 3.09 360 20:58 14.04.2021
292 Clouds 6 1027 56 10000 3.09 360 20:36 14.04.2021
293 Clouds 6 1027 56 10000 3.09 360 20:18 14.04.2021
294 Clouds 7 1027 53 10000 5.66 360 19:38 14.04.2021
295 Clouds 7 1027 53 10000 5.66 360 19:18 14.04.2021
296 Clouds 8 1027 39 10000 3.6 350 18:49 14.04.2021
297 Clouds 9 1027 36 10000 1.54 80 18:18 14.04.2021
298 Clouds 8 1027 34 10000 1.54 0 17:51 14.04.2021
299 Clouds 8 1028 39 10000 5.14 350 17:23 14.04.2021
300 Clouds 9 1027 36 10000 3.09 360 16:43 14.04.2021
301 Clouds 9 1028 34 10000 5.14 360 16:22 14.04.2021
302 Clouds 8 1028 37 10000 1.54 0 15:40 14.04.2021
303 Clouds 8 1028 42 10000 3.09 10 15:18 14.04.2021
304 Clouds 8 1028 39 10000 5.14 360 14:42 14.04.2021
305 Clouds 9 1028 40 10000 2.06 30 14:21 14.04.2021
306 Clouds 8 1029 42 10000 1.54 0 13:47 14.04.2021
307 Clouds 8 1029 45 10000 4.63 40 12:54 14.04.2021
308 Clouds 8 1029 45 10000 4.63 40 12:32 14.04.2021
309 Clouds 8 1030 49 10000 5.14 40 11:42 14.04.2021
310 Clouds 7 1030 49 10000 4.63 40 11:23 14.04.2021
311 Clouds 7 1030 56 10000 5.66 40 10:35 14.04.2021
312 Clouds 6 1030 65 10000 5.14 30 09:59 14.04.2021
313 Clouds 4 1030 65 10000 4.12 20 09:41 14.04.2021
314 Clouds 3 1030 65 10000 4.12 20 09:18 14.04.2021
315 Clouds 2 1030 70 10000 3.6 20 08:33 14.04.2021
316 Clear 2 1030 80 10000 0.51 220 07:53 14.04.2021
317 Clear 0 1029 86 10000 0.51 0 06:46 14.04.2021
318 Clear 0 1029 86 10000 1.03 0 06:23 14.04.2021
319 Clear 0 1030 86 10000 1.03 210 03:58 14.04.2021
320 Clear 2 1030 80 10000 1.03 240 01:41 14.04.2021
321 Clear 3 1030 80 10000 1.03 0 00:34 14.04.2021
322 Clear 3 1031 80 10000 1.03 190 23:39 13.04.2021
323 Clear 4 1031 70 10000 1.03 0 22:59 13.04.2021
324 Clear 4 1031 70 10000 1.03 0 22:40 13.04.2021
325 Clear 4 1031 70 10000 1.54 340 22:18 13.04.2021
326 Clear 4 1031 60 10000 3.09 330 21:44 13.04.2021
327 Clouds 5 1030 60 10000 2.57 340 21:24 13.04.2021
328 Clouds 6 1030 56 10000 2.57 330 20:41 13.04.2021
329 Clouds 6 1030 56 10000 4.63 320 20:21 13.04.2021
330 Clouds 7 1030 49 10000 5.14 290 19:40 13.04.2021
331 Clouds 8 1030 43 10000 5.66 300 19:22 13.04.2021
332 Clouds 9 1030 34 10000 1.03 0 18:37 13.04.2021
333 Clouds 9 1030 37 10000 2.57 340 17:54 13.04.2021
334 Clouds 9 1030 37 10000 2.57 340 17:36 13.04.2021
335 Clouds 9 1030 40 10000 2.57 60 17:18 13.04.2021
336 Clouds 9 1030 40 10000 1.54 0 16:42 13.04.2021
337 Clouds 8 1031 46 10000 3.6 10 16:20 13.04.2021
338 Clouds 8 1031 46 10000 3.09 30 15:41 13.04.2021
339 Clouds 7 1031 53 10000 2.57 360 15:21 13.04.2021
340 Clouds 7 1031 53 10000 3.6 340 14:46 13.04.2021
341 Clouds 9 1031 49 10000 3.09 320 14:19 13.04.2021
342 Clouds 8 1031 45 10000 2.57 360 13:45 13.04.2021
343 Clouds 7 1031 49 10000 3.09 10 13:24 13.04.2021
344 Clouds 7 1031 52 10000 3.6 350 12:56 13.04.2021
345 Clouds 7 1032 53 10000 4.63 10 12:27 13.04.2021
346 Clouds 7 1032 53 10000 3.6 10 11:55 13.04.2021
347 Clouds 6 1032 56 10000 1.54 0 11:29 13.04.2021
348 Clouds 6 1032 56 10000 1.03 0 10:47 13.04.2021
349 Clouds 5 1032 65 10000 1.03 0 10:21 13.04.2021
350 Clouds 5 1032 65 10000 1.03 0 09:57 13.04.2021
351 Clouds 4 1032 81 10000 1.54 260 09:36 13.04.2021
352 Clouds 2 1031 86 10000 1.03 220 08:56 13.04.2021
353 Clouds 2 1031 86 10000 1.03 220 08:38 13.04.2021
354 Clouds 1 1031 86 10000 1.03 0 08:20 13.04.2021
355 Clouds -1 1031 93 10000 0.51 0 07:36 13.04.2021
356 Clear -1 1030 93 10000 1.03 0 06:31 13.04.2021
357 Clouds -1 1030 93 10000 1.03 200 04:49 13.04.2021
358 Clouds 0 1029 100 10000 1.54 240 02:25 13.04.2021
359 Clouds 0 1029 93 10000 1.54 220 00:26 13.04.2021
360 Clouds 1 1029 93 10000 1.54 250 23:48 12.04.2021
361 Clouds 1 1029 93 10000 1.54 300 23:25 12.04.2021
362 Clouds 2 1029 86 10000 1.03 220 22:39 12.04.2021
363 Clouds 2 1029 86 10000 1.03 220 22:18 12.04.2021
364 Clouds 3 1029 87 10000 1.54 230 21:45 12.04.2021
365 Clouds 3 1028 87 10000 1.54 290 21:19 12.04.2021
366 Clouds 5 1028 75 10000 3.6 260 20:41 12.04.2021
367 Clouds 5 1028 75 10000 2.57 240 20:22 12.04.2021
368 Clouds 6 1028 65 10000 2.06 250 19:55 12.04.2021
369 Clouds 6 1028 70 10000 2.57 310 19:37 12.04.2021
370 Clouds 6 1028 70 10000 2.57 310 19:18 12.04.2021
371 Snow 7 1028 70 10000 8.75 270 18:44 12.04.2021
372 Snow 7 1028 70 10000 8.75 270 18:25 12.04.2021
373 Clouds 8 1027 53 10000 4.63 230 17:43 12.04.2021
374 Clouds 8 1027 49 10000 4.63 240 17:23 12.04.2021
375 Clouds 7 1027 61 10000 3.09 260 16:47 12.04.2021
376 Clouds 7 1027 57 10000 3.09 280 16:27 12.04.2021
377 Clouds 7 1027 57 10000 3.09 280 16:27 12.04.2021
378 Clouds 7 1027 61 10000 6.17 250 15:49 12.04.2021
379 Clouds 8 1026 46 10000 3.09 280 15:27 12.04.2021
380 Clouds 9 1026 46 10000 4.63 240 14:50 12.04.2021
381 Clouds 8 1026 42 10000 2.06 0 14:30 12.04.2021
382 Clouds 7 1026 49 10000 3.09 300 13:49 12.04.2021
383 Clouds 8 1026 49 10000 3.6 290 13:29 12.04.2021
384 Clouds 6 1027 56 10000 4.12 320 12:51 12.04.2021
385 Clouds 6 1026 56 10000 3.09 330 12:27 12.04.2021
386 Clouds 6 1026 61 10000 4.12 280 11:59 12.04.2021
387 Clouds 5 1026 65 10000 4.12 320 11:24 12.04.2021
388 Clouds 5 1026 65 10000 4.12 330 10:47 12.04.2021
389 Clouds 5 1026 70 10000 4.12 290 10:27 12.04.2021
390 Clouds 4 1025 70 10000 4.63 300 09:50 12.04.2021
391 Clouds 4 1025 75 10000 3.6 300 09:21 12.04.2021
392 Clouds 4 1024 75 10000 4.63 290 08:39 12.04.2021
393 Clouds 3 1023 75 10000 5.14 280 07:42 12.04.2021
394 Clouds 3 1023 75 10000 4.12 290 07:22 12.04.2021
395 Clouds 4 1022 81 10000 3.09 290 06:27 12.04.2021
396 Rain 4 1022 81 10000 3.09 280 05:42 12.04.2021
397 Clouds 4 1019 87 10000 3.6 310 01:40 12.04.2021
398 Clouds 4 1018 87 10000 2.06 290 00:26 12.04.2021
399 Clouds 4 1018 93 10000 1.03 0 23:49 11.04.2021
400 Clouds 4 1017 87 10000 3.09 10 23:31 11.04.2021
401 Clouds 4 1017 93 10000 2.06 340 22:48 11.04.2021
402 Clouds 4 1017 93 10000 2.06 360 22:26 11.04.2021
403 Clouds 4 1016 93 10000 3.6 10 21:52 11.04.2021
404 Rain 4 1016 81 10000 3.09 20 21:32 11.04.2021
405 Rain 4 1015 87 10000 3.6 330 20:59 11.04.2021
406 Rain 4 1015 87 10000 3.6 330 20:39 11.04.2021
407 Rain 5 1014 87 10000 3.6 320 20:20 11.04.2021
408 Rain 5 1014 87 10000 5.14 320 19:40 11.04.2021
409 Rain 5 1013 93 10000 5.66 310 19:19 11.04.2021
410 Rain 5 1013 93 10000 5.66 310 19:19 11.04.2021
411 Rain 6 1013 87 10000 6.17 320 18:47 11.04.2021
412 Rain 6 1012 87 10000 5.14 310 18:27 11.04.2021
413 Rain 7 1011 87 10000 3.6 320 17:55 11.04.2021
414 Rain 7 1011 81 10000 5.66 310 17:37 11.04.2021
415 Rain 7 1011 81 10000 5.66 310 17:18 11.04.2021
416 Rain 8 1011 87 10000 3.6 300 16:40 11.04.2021
417 Rain 9 1010 81 10000 5.14 310 16:20 11.04.2021
418 Rain 10 1010 87 10000 5.14 320 15:43 11.04.2021
419 Rain 12 1010 76 10000 5.14 320 15:22 11.04.2021
420 Clouds 13 1009 71 10000 6.17 250 14:51 11.04.2021
421 Clouds 13 1009 67 10000 6.69 260 14:21 11.04.2021
422 Clouds 15 1009 62 10000 5.66 240 13:40 11.04.2021
423 Clouds 14 1008 62 10000 5.14 200 13:22 11.04.2021
424 Clouds 14 1008 62 10000 4.12 190 12:26 11.04.2021
425 Clouds 14 1008 58 10000 3.09 190 11:57 11.04.2021
426 Clouds 14 1008 58 10000 3.09 190 11:38 11.04.2021
427 Clouds 13 1008 62 10000 4.12 220 11:19 11.04.2021
428 Clouds 12 1008 67 10000 3.09 180 10:44 11.04.2021
429 Clouds 12 1008 67 10000 2.06 200 10:22 11.04.2021
430 Clouds 11 1008 76 10000 1.03 0 09:49 11.04.2021
431 Clouds 10 1008 81 10000 2.06 220 09:26 11.04.2021
432 Clouds 10 1008 81 10000 3.09 180 08:40 11.04.2021
433 Clouds 9 1008 81 10000 2.57 170 07:41 11.04.2021
434 Clouds 8 1008 87 10000 4.12 170 07:19 11.04.2021
435 Clouds 8 1008 93 10000 0.51 0 05:48 11.04.2021
436 Clouds 8 1008 93 10000 0.51 0 05:23 11.04.2021
437 Clouds 8 1008 100 10000 0.51 130 04:46 11.04.2021
438 Clouds 8 1008 100 10000 1.54 110 04:19 11.04.2021
439 Clouds 9 1009 93 10000 1.54 10 01:27 11.04.2021
440 Clouds 10 1010 87 10000 2.06 330 00:32 11.04.2021
441 Clouds 10 1010 87 10000 2.57 70 23:46 10.04.2021
442 Clouds 10 1010 87 10000 3.09 340 22:57 10.04.2021
443 Clouds 10 1011 81 10000 2.06 10 22:28 10.04.2021
444 Clouds 10 1011 81 10000 2.06 10 22:28 10.04.2021
445 Clouds 10 1011 81 10000 2.57 360 21:54 10.04.2021
446 Clouds 10 1011 87 10000 1.54 70 21:32 10.04.2021
447 Clouds 11 1011 82 10000 1.54 80 20:57 10.04.2021
448 Clouds 11 1011 82 10000 1.54 80 20:38 10.04.2021
449 Clouds 10 1011 82 10000 0.51 0 20:19 10.04.2021
450 Clouds 11 1011 71 10000 1.03 0 19:42 10.04.2021
451 Clouds 11 1011 71 10000 1.54 150 19:24 10.04.2021
452 Clouds 11 1012 71 10000 1.54 190 18:42 10.04.2021
453 Clouds 11 1012 71 10000 3.09 190 18:24 10.04.2021
454 Clouds 10 1012 82 10000 2.06 180 17:36 10.04.2021
455 Clouds 10 1013 82 10000 2.57 180 16:54 10.04.2021
456 Clouds 10 1013 82 10000 2.57 170 16:26 10.04.2021
457 Clouds 10 1013 87 10000 2.57 170 15:53 10.04.2021
458 Clouds 10 1014 87 10000 2.06 140 14:57 10.04.2021
459 Clouds 10 1014 87 10000 2.06 140 14:37 10.04.2021
460 Rain 10 1014 87 10000 2.06 160 13:59 10.04.2021
461 Rain 10 1014 87 10000 2.06 160 13:39 10.04.2021
462 Rain 9 1014 81 10000 2.06 220 12:49 10.04.2021
463 Clouds 9 1014 87 10000 3.6 240 12:26 10.04.2021
464 Rain 9 1014 87 10000 3.09 250 11:47 10.04.2021
465 Clouds 9 1014 93 10000 2.06 250 11:24 10.04.2021
466 Rain 9 1014 93 10000 2.57 210 10:52 10.04.2021
467 Rain 9 1014 93 5000 1.54 110 10:31 10.04.2021
468 Clouds 8 1013 93 8000 1.54 70 09:45 10.04.2021
469 Clouds 8 1013 93 7000 1.54 20 09:19 10.04.2021
470 Rain 8 1013 93 6000 1.54 20 08:46 10.04.2021
471 Rain 8 1013 93 6000 2.06 10 08:28 10.04.2021
472 Clouds 8 1012 93 9000 1.03 50 07:38 10.04.2021
473 Clouds 8 1012 93 10000 1.03 0 07:19 10.04.2021
474 Clouds 8 1011 93 10000 1.54 10 06:24 10.04.2021
475 Rain 10 1011 81 10000 1.54 0 03:49 10.04.2021
476 Clouds 10 1011 71 10000 1.03 320 02:50 10.04.2021
477 Clouds 10 1011 71 10000 2.06 180 02:21 10.04.2021
478 Clouds 10 1012 87 10000 0.51 0 00:43 10.04.2021
479 Rain 11 1012 71 10000 1.54 210 00:21 10.04.2021
480 Rain 11 1012 50 10000 3.09 170 23:40 09.04.2021
481 Clouds 11 1012 43 10000 2.06 240 22:58 09.04.2021
482 Clouds 12 1012 43 10000 2.06 240 22:38 09.04.2021
483 Rain 12 1012 41 10000 1.54 270 21:56 09.04.2021
484 Rain 12 1012 41 10000 1.54 270 21:38 09.04.2021
485 Rain 13 1012 38 10000 1.54 230 21:18 09.04.2021
486 Clear 13 1012 35 10000 2.57 190 20:42 09.04.2021
487 Clear 14 1012 31 10000 2.06 190 20:22 09.04.2021
488 Clear 15 1012 29 10000 4.12 210 19:54 09.04.2021
489 Clear 15 1012 29 10000 4.12 210 19:36 09.04.2021
490 Clear 15 1012 27 10000 4.63 220 19:18 09.04.2021
491 Clear 15 1012 27 10000 4.63 230 18:41 09.04.2021
492 Clear 16 1013 25 10000 7.72 230 18:19 09.04.2021
493 Clear 16 1013 27 10000 8.23 220 17:37 09.04.2021
494 Clear 16 1013 25 10000 7.72 220 16:56 09.04.2021
495 Clear 16 1013 25 10000 7.72 220 16:35 09.04.2021
496 Clouds 16 1014 33 10000 6.17 200 15:57 09.04.2021
497 Clouds 15 1014 33 10000 6.17 200 15:37 09.04.2021
498 Clear 14 1014 36 10000 4.12 190 15:18 09.04.2021
499 Clear 14 1014 38 10000 3.09 180 14:40 09.04.2021
500 Clear 13 1015 41 10000 5.66 220 13:53 09.04.2021
501 Clear 12 1016 40 10000 4.12 200 13:26 09.04.2021
502 Clear 12 1016 43 10000 3.6 220 12:54 09.04.2021
503 Clear 12 1016 43 10000 3.6 220 12:36 09.04.2021
504 Clear 10 1017 46 10000 4.12 200 11:46 09.04.2021
505 Clear 8 1017 53 10000 2.06 220 11:23 09.04.2021
506 Clear 9 1017 53 10000 2.06 220 11:23 09.04.2021
507 Clear 7 1017 53 10000 3.6 200 10:48 09.04.2021
508 Clear 7 1017 60 10000 3.6 190 10:30 09.04.2021
509 Clear 5 1017 65 10000 4.63 210 09:50 09.04.2021
510 Clear 4 1018 65 10000 3.09 210 09:24 09.04.2021
511 Clear 3 1018 69 10000 1.54 210 08:52 09.04.2021
512 Clear 2 1018 80 10000 1.03 0 08:18 09.04.2021
513 Clear 0 1018 86 10000 1.03 0 07:18 09.04.2021
514 Clear 1 1018 80 10000 0.51 0 06:21 09.04.2021
515 Clear 2 1019 74 10000 0.51 0 03:53 09.04.2021
516 Clear 2 1020 69 10000 0.51 0 02:18 09.04.2021
517 Clear 3 1021 69 10000 1.03 240 00:38 09.04.2021
518 Clear 3 1021 69 10000 1.54 280 00:19 09.04.2021
519 Clear 4 1021 60 10000 2.57 170 23:29 08.04.2021
520 Clear 3 1021 60 10000 2.06 170 22:46 08.04.2021
521 Clear 3 1022 56 10000 2.06 170 22:26 08.04.2021
522 Clear 4 1022 56 10000 2.06 180 21:57 08.04.2021
523 Clear 4 1022 56 10000 2.06 180 21:38 08.04.2021
524 Clear 5 1022 48 10000 2.06 190 21:19 08.04.2021
525 Clear 6 1022 42 10000 2.57 200 20:53 08.04.2021
526 Clear 7 1022 42 10000 2.57 200 20:32 08.04.2021
527 Clear 8 1022 37 10000 4.12 200 19:55 08.04.2021
528 Clear 9 1022 37 10000 2.57 190 19:24 08.04.2021
529 Clear 9 1022 37 10000 3.6 180 18:52 08.04.2021
530 Clear 9 1023 37 10000 4.63 170 18:23 08.04.2021
531 Clear 9 1023 37 10000 4.63 210 17:50 08.04.2021
532 Clear 9 1023 37 10000 2.06 230 17:26 08.04.2021
533 Clear 8 1024 39 10000 5.14 240 16:56 08.04.2021
534 Clear 8 1024 39 10000 5.14 240 16:35 08.04.2021
535 Clear 8 1024 39 10000 5.66 240 15:55 08.04.2021
536 Clear 8 1024 39 10000 5.66 240 15:36 08.04.2021
537 Clouds 7 1025 39 10000 4.63 220 15:18 08.04.2021
538 Clouds 8 1025 42 10000 5.66 220 14:39 08.04.2021
539 Clouds 7 1025 42 10000 4.63 250 14:19 08.04.2021
540 Clouds 7 1025 42 10000 4.63 220 13:43 08.04.2021
541 Clouds 6 1025 45 10000 3.6 230 13:23 08.04.2021
542 Clouds 6 1026 49 10000 3.09 260 12:49 08.04.2021
543 Clouds 6 1026 49 10000 3.09 230 12:30 08.04.2021
544 Clouds 6 1026 52 10000 3.6 260 11:56 08.04.2021
545 Clouds 6 1026 56 10000 2.57 240 11:21 08.04.2021
546 Clouds 5 1026 60 10000 3.09 250 10:43 08.04.2021
547 Clouds 4 1026 60 10000 2.57 200 10:24 08.04.2021
548 Clouds 4 1025 65 10000 3.09 200 09:43 08.04.2021
549 Clouds 3 1025 75 10000 3.09 200 08:54 08.04.2021
550 Clouds 2 1025 75 10000 3.09 200 08:36 08.04.2021
551 Clouds 1 1025 69 10000 2.06 200 08:18 08.04.2021
552 Clouds 1 1024 74 10000 2.06 210 07:42 08.04.2021
553 Clear 0 1023 69 10000 3.09 230 04:56 08.04.2021
554 Clear 3 1022 56 10000 4.63 270 01:25 08.04.2021
555 Clouds 3 1022 56 10000 6.17 270 00:30 08.04.2021
556 Clouds 3 1021 56 10000 5.66 270 23:47 07.04.2021
557 Clouds 3 1021 60 10000 6.69 260 23:25 07.04.2021
558 Clouds 3 1021 60 10000 5.66 260 22:56 07.04.2021
559 Clouds 3 1021 60 10000 5.66 260 22:38 07.04.2021
560 Clouds 4 1021 60 10000 7.2 270 22:19 07.04.2021
561 Clouds 4 1020 60 10000 6.17 270 21:34 07.04.2021
562 Clouds 4 1020 60 10000 6.69 260 20:52 07.04.2021
563 Clouds 4 1019 65 10000 8.23 250 20:29 07.04.2021
564 Clouds 4 1019 65 10000 6.69 250 19:52 07.04.2021
565 Clouds 4 1019 65 10000 6.69 250 19:33 07.04.2021
566 Clouds 4 1018 70 10000 7.72 240 18:59 07.04.2021
567 Clouds 4 1018 70 10000 7.72 240 18:41 07.04.2021
568 Clouds 4 1018 70 10000 6.17 250 18:18 07.04.2021
569 Clouds 3 1018 81 10000 5.14 230 17:45 07.04.2021
570 Clouds 2 1018 87 10000 6.17 220 17:26 07.04.2021
571 Clouds 2 1018 93 10000 6.69 220 16:45 07.04.2021
572 Clouds 3 1018 87 6000 7.72 230 16:21 07.04.2021
573 Snow 3 1018 75 7000 7.2 240 15:53 07.04.2021
574 Snow 4 1017 65 10000 8.75 240 15:34 07.04.2021
575 Clouds 4 1017 60 10000 9.26 240 14:47 07.04.2021
576 Clouds 4 1017 60 10000 10.29 240 14:24 07.04.2021
577 Clouds 4 1017 70 10000 9.26 240 13:45 07.04.2021
578 Clouds 4 1017 65 10000 10.29 240 13:20 07.04.2021
579 Snow 4 1017 56 10000 6.17 240 12:47 07.04.2021
580 Clouds 4 1017 56 10000 8.75 250 12:21 07.04.2021
581 Rain 4 1016 60 10000 7.72 240 11:45 07.04.2021
582 Clouds 3 1016 60 10000 7.2 250 11:24 07.04.2021
583 Clouds 3 1016 65 10000 5.66 230 10:50 07.04.2021
584 Rain 2 1016 64 10000 5.66 220 09:51 07.04.2021
585 Clouds 2 1016 64 10000 5.66 230 09:30 07.04.2021
586 Clouds 2 1016 64 10000 5.14 230 08:59 07.04.2021
587 Clouds 1 1016 69 10000 4.12 250 08:33 07.04.2021
588 Clouds 1 1015 69 10000 3.6 250 07:56 07.04.2021
589 Clouds 1 1015 69 10000 3.6 230 07:29 07.04.2021
590 Clouds 1 1014 69 10000 4.12 250 06:52 07.04.2021
591 Clouds 1 1014 69 10000 5.66 260 06:18 07.04.2021
592 Clouds 1 1013 69 10000 5.14 280 03:35 07.04.2021
593 Clouds 1 1012 80 10000 3.09 290 23:52 06.04.2021
594 Snow 1 1011 75 10000 6.17 270 23:23 06.04.2021
595 Clouds 1 1011 80 10000 4.63 250 22:59 06.04.2021
596 Clouds 1 1011 80 10000 4.63 270 22:22 06.04.2021
597 Clouds 1 1011 80 10000 5.14 260 21:59 06.04.2021
598 Clouds 1 1011 80 10000 5.14 260 21:59 06.04.2021
599 Clouds 1 1011 80 10000 5.14 260 21:39 06.04.2021
600 Snow 2 1011 93 3500 7.2 280 21:21 06.04.2021
601 Clouds 2 1011 86 4000 7.72 270 20:51 06.04.2021
602 Clouds 3 1011 52 10000 4.63 290 20:21 06.04.2021
603 Clouds 4 1010 52 10000 6.69 280 19:51 06.04.2021
604 Clouds 5 1010 52 10000 6.69 280 19:33 06.04.2021
605 Clouds 4 1010 56 10000 4.63 270 18:49 06.04.2021
606 Clouds 4 1010 65 10000 4.63 230 18:31 06.04.2021
607 Clouds 5 1010 45 10000 9.77 270 17:53 06.04.2021
608 Clouds 6 1010 42 10000 7.2 270 17:30 06.04.2021
609 Clouds 6 1010 52 10000 6.69 280 16:59 06.04.2021
610 Clouds 5 1010 52 10000 6.69 280 16:39 06.04.2021
611 Clouds 7 1010 42 10000 9.77 250 15:46 06.04.2021
612 Clouds 7 1011 42 10000 8.23 290 15:22 06.04.2021
613 Clouds 6 1011 45 10000 9.26 270 14:40 06.04.2021
614 Clouds 6 1011 45 10000 9.26 270 14:20 06.04.2021
615 Clouds 5 1012 52 9000 9.77 270 13:46 06.04.2021
616 Clouds 6 1012 45 10000 7.72 270 13:25 06.04.2021
617 Clouds 5 1012 45 10000 7.72 270 12:42 06.04.2021
618 Clouds 5 1012 48 10000 3.6 320 12:22 06.04.2021
619 Clouds 5 1013 56 10000 5.66 280 11:54 06.04.2021
620 Clouds 4 1013 56 10000 5.66 280 11:36 06.04.2021
621 Clouds 4 1012 56 10000 4.63 300 11:18 06.04.2021
622 Clouds 4 1013 60 10000 5.66 280 10:38 06.04.2021
623 Clouds 3 1012 65 10000 5.66 270 10:19 06.04.2021
624 Clouds 3 1012 65 10000 5.66 290 09:42 06.04.2021
625 Clouds 2 1012 69 10000 4.12 210 08:50 06.04.2021
626 Clouds 2 1012 75 10000 4.63 210 08:19 06.04.2021
627 Snow 1 1012 75 10000 5.14 170 06:57 06.04.2021
628 Clouds 1 1011 74 10000 6.69 170 06:24 06.04.2021
629 Clouds 0 1012 69 10000 6.69 180 03:54 06.04.2021
630 Clouds 0 1014 69 10000 4.12 200 00:49 06.04.2021
631 Clouds 1 1014 69 10000 3.09 150 00:22 06.04.2021
632 Clouds 0 1013 64 10000 2.57 230 23:50 05.04.2021
633 Clouds 0 1013 60 10000 3.6 270 23:28 05.04.2021
634 Snow 1 1013 64 10000 2.57 0 22:54 05.04.2021
635 Snow 1 1013 64 10000 2.57 0 22:35 05.04.2021
636 Clouds 1 1013 51 10000 4.12 320 21:48 05.04.2021
637 Clouds 1 1012 55 10000 4.12 300 21:27 05.04.2021
638 Clouds 2 1012 60 10000 3.09 280 20:49 05.04.2021
639 Clouds 2 1011 60 10000 7.2 310 20:30 05.04.2021
640 Clouds 3 1011 52 10000 8.75 330 19:55 05.04.2021
641 Clouds 3 1011 52 10000 8.75 330 19:36 05.04.2021
642 Clouds 3 1011 48 10000 6.17 300 19:18 05.04.2021
643 Clouds 3 1010 45 10000 6.69 300 18:40 05.04.2021
644 Clouds 4 1010 56 10000 7.2 310 18:19 05.04.2021
645 Clouds 3 1010 75 10000 7.72 320 17:47 05.04.2021
646 Clouds 4 1009 56 10000 8.23 300 17:23 05.04.2021
647 Clouds 3 1009 70 10000 7.72 300 16:45 05.04.2021
648 Clouds 3 1009 70 10000 7.72 300 16:45 05.04.2021
649 Clouds 3 1009 70 10000 7.72 300 16:45 05.04.2021
650 Clouds 4 1008 70 10000 7.72 300 16:22 05.04.2021
651 Rain 5 1008 70 10000 7.2 300 15:57 05.04.2021
652 Rain 4 1008 81 10000 8.75 310 15:32 05.04.2021
653 Rain 6 1007 75 10000 8.23 280 14:59 05.04.2021
654 Rain 6 1007 87 10000 8.23 260 14:36 05.04.2021
655 Rain 6 1006 76 10000 7.2 240 13:52 05.04.2021
656 Rain 7 1006 66 10000 8.75 240 13:27 05.04.2021
657 Rain 7 1006 66 10000 7.72 230 12:46 05.04.2021
658 Rain 8 1007 66 10000 6.17 220 12:25 05.04.2021
659 Rain 7 1007 70 10000 7.72 220 11:48 05.04.2021
660 Rain 7 1007 65 10000 8.23 220 11:28 05.04.2021
661 Rain 7 1007 65 10000 6.69 210 10:55 05.04.2021
662 Rain 7 1007 65 10000 6.69 210 10:35 05.04.2021
663 Clouds 7 1008 65 10000 7.72 220 09:48 05.04.2021
664 Clouds 6 1008 70 10000 4.63 210 09:26 05.04.2021
665 Clouds 6 1008 75 10000 4.12 190 08:47 05.04.2021
666 Clear 5 1008 81 10000 5.14 200 08:26 05.04.2021
667 Clear 5 1008 81 10000 5.14 190 07:57 05.04.2021
668 Clear 4 1009 87 10000 2.57 200 07:29 05.04.2021
669 Clear 3 1013 86 10000 1.54 220 03:42 05.04.2021
670 Clear 4 1016 86 10000 1.54 220 00:54 05.04.2021
671 Clear 5 1017 80 10000 1.03 210 00:19 05.04.2021
672 Clear 5 1017 75 10000 0.51 0 23:32 04.04.2021
673 Clear 7 1018 70 10000 3.6 320 22:58 04.04.2021
674 Clear 7 1018 70 10000 3.6 320 22:34 04.04.2021
675 Clear 7 1018 61 10000 2.57 310 21:57 04.04.2021
676 Clear 7 1018 61 10000 2.57 330 21:21 04.04.2021
677 Clear 8 1018 57 10000 3.09 340 20:43 04.04.2021
678 Clear 9 1019 53 10000 3.09 340 20:23 04.04.2021
679 Clear 10 1019 46 10000 3.6 350 19:40 04.04.2021
680 Clear 11 1019 46 10000 3.6 330 19:19 04.04.2021
681 Clear 11 1019 43 10000 2.57 270 18:51 04.04.2021
682 Clouds 11 1020 43 10000 3.09 260 18:25 04.04.2021
683 Clouds 12 1020 43 10000 4.12 250 17:59 04.04.2021
684 Clouds 12 1020 43 10000 4.63 250 17:25 04.04.2021
685 Clouds 12 1021 47 10000 3.09 280 16:57 04.04.2021
686 Clouds 11 1021 47 10000 3.09 280 16:38 04.04.2021
687 Clouds 11 1022 46 10000 4.63 270 15:54 04.04.2021
688 Clouds 11 1022 46 10000 4.12 340 15:32 04.04.2021
689 Clouds 10 1023 50 10000 4.12 320 14:40 04.04.2021
690 Clouds 10 1023 50 10000 3.6 320 14:21 04.04.2021
691 Clouds 10 1023 50 10000 3.09 320 13:27 04.04.2021
692 Clouds 10 1024 50 10000 2.06 280 12:52 04.04.2021
693 Clouds 10 1024 50 10000 1.54 0 12:28 04.04.2021
694 Clouds 10 1024 50 10000 1.54 0 11:50 04.04.2021
695 Clouds 8 1024 57 10000 1.54 0 11:30 04.04.2021
696 Clouds 9 1024 57 10000 1.54 40 10:54 04.04.2021
697 Clouds 7 1024 57 10000 1.54 40 10:32 04.04.2021
698 Clouds 7 1024 65 10000 1.54 0 09:52 04.04.2021
699 Clouds 4 1024 70 10000 1.03 0 09:23 04.04.2021
700 Clouds 4 1024 87 10000 0.51 0 08:49 04.04.2021
701 Clouds 6 1024 87 10000 0.51 0 08:49 04.04.2021
702 Clouds 1 1024 80 10000 1.03 0 08:31 04.04.2021
703 Clouds 0 1024 86 10000 1.54 280 07:22 04.04.2021
704 Clouds 1 1024 86 10000 1.54 290 06:34 04.04.2021
705 Clear 3 1024 74 10000 1.03 220 04:34 04.04.2021
706 Clear 3 1025 64 10000 2.57 220 01:21 04.04.2021
707 Clear 5 1025 56 10000 2.06 10 00:19 04.04.2021
708 Clear 6 1025 52 10000 1.54 20 23:47 03.04.2021
709 Clear 6 1025 52 10000 2.57 350 23:23 03.04.2021
710 Clear 6 1025 49 10000 2.57 360 22:50 03.04.2021
711 Clear 7 1025 46 10000 3.09 10 22:20 03.04.2021
712 Clear 8 1025 40 10000 3.09 10 21:47 03.04.2021
713 Clear 8 1024 37 10000 4.12 20 21:23 03.04.2021
714 Clear 9 1024 37 10000 5.14 40 20:49 03.04.2021
715 Clear 11 1024 35 10000 5.14 40 20:27 03.04.2021
716 Clear 10 1024 32 10000 6.17 20 19:50 03.04.2021
717 Clear 11 1024 32 10000 6.69 30 19:24 03.04.2021
718 Clear 12 1024 32 10000 6.17 40 18:51 03.04.2021
719 Clear 12 1024 35 10000 6.69 40 18:32 03.04.2021
720 Clear 12 1024 32 10000 4.63 20 17:53 03.04.2021
721 Clear 12 1024 32 10000 5.66 40 17:25 03.04.2021
722 Clear 12 1024 35 10000 3.6 10 16:51 03.04.2021
723 Clear 12 1024 35 10000 5.66 20 16:22 03.04.2021
724 Clear 12 1024 33 10000 4.12 40 15:50 03.04.2021
725 Clear 12 1025 35 10000 5.14 40 15:23 03.04.2021
726 Clear 12 1025 32 10000 5.66 40 14:44 03.04.2021
727 Clear 11 1025 40 10000 5.14 50 14:25 03.04.2021
728 Clouds 11 1025 43 10000 7.2 40 13:53 03.04.2021
729 Clouds 11 1025 40 10000 7.2 30 13:25 03.04.2021
730 Clouds 10 1025 46 10000 4.12 20 12:57 03.04.2021
731 Clouds 9 1025 46 10000 4.12 20 12:32 03.04.2021
732 Clouds 8 1025 49 10000 3.6 40 11:40 03.04.2021
733 Clouds 7 1025 53 10000 4.12 30 11:19 03.04.2021
734 Clouds 7 1025 57 10000 4.63 30 10:45 03.04.2021
735 Clouds 6 1025 57 10000 5.66 10 10:25 03.04.2021
736 Clouds 5 1025 65 10000 3.6 20 09:29 03.04.2021
737 Clouds 6 1024 65 10000 4.63 40 08:59 03.04.2021
738 Clouds 5 1024 65 10000 4.63 40 08:32 03.04.2021
739 Clouds 5 1023 65 10000 2.06 340 07:30 03.04.2021
740 Clouds 5 1023 65 10000 3.09 340 06:56 03.04.2021
741 Clouds 6 1022 61 10000 4.12 310 03:54 03.04.2021
742 Clouds 7 1023 53 10000 4.12 300 02:55 03.04.2021
743 Clouds 7 1023 53 10000 3.09 310 02:28 03.04.2021
744 Clouds 6 1023 53 10000 7.72 350 00:32 03.04.2021
745 Clouds 6 1023 57 10000 3.6 360 23:59 02.04.2021
746 Clouds 7 1023 57 10000 5.14 350 23:38 02.04.2021
747 Clouds 6 1023 57 10000 5.14 350 23:18 02.04.2021
748 Clouds 6 1022 57 10000 6.69 360 22:43 02.04.2021
749 Clouds 6 1022 57 10000 6.69 360 22:24 02.04.2021
750 Clear 7 1022 53 10000 6.69 350 21:41 02.04.2021
751 Clear 8 1021 53 10000 6.17 330 21:19 02.04.2021
752 Clear 9 1021 49 10000 7.2 320 20:42 02.04.2021
753 Clear 10 1020 50 10000 7.72 320 20:20 02.04.2021
754 Clear 12 1020 47 10000 7.2 320 19:42 02.04.2021
755 Clear 13 1019 47 10000 1.54 30 19:22 02.04.2021
756 Clear 13 1019 47 10000 3.09 60 18:48 02.04.2021
757 Clear 13 1019 47 10000 2.57 50 18:30 02.04.2021
758 Clear 13 1020 47 10000 1.54 0 17:56 02.04.2021
759 Clear 13 1020 44 10000 2.06 350 17:30 02.04.2021
760 Clouds 12 1020 44 10000 2.06 100 16:37 02.04.2021
761 Clouds 12 1021 50 10000 3.09 40 15:47 02.04.2021
762 Clouds 11 1021 50 10000 4.12 350 15:25 02.04.2021
763 Clouds 10 1022 57 10000 3.6 360 14:33 02.04.2021
764 Clouds 10 1022 53 10000 3.09 20 13:50 02.04.2021
765 Clouds 9 1022 57 10000 4.12 20 13:28 02.04.2021
766 Clouds 10 1022 57 10000 5.14 30 12:59 02.04.2021
767 Clouds 9 1022 57 10000 5.14 30 12:38 02.04.2021
768 Clouds 8 1023 61 10000 5.14 10 12:19 02.04.2021
769 Clouds 8 1023 61 10000 5.66 10 11:48 02.04.2021
770 Clouds 9 1023 61 10000 5.66 10 11:19 02.04.2021
771 Clouds 8 1022 61 10000 6.17 10 10:43 02.04.2021
772 Clouds 8 1022 61 10000 6.17 10 10:23 02.04.2021
773 Clouds 8 1022 61 10000 4.63 20 09:51 02.04.2021
774 Clouds 7 1022 61 10000 5.14 30 09:24 02.04.2021
775 Clouds 7 1022 65 10000 6.69 30 08:46 02.04.2021
776 Clouds 7 1022 65 10000 5.14 20 08:27 02.04.2021
777 Clouds 6 1022 65 10000 4.63 20 07:22 02.04.2021
778 Clouds 6 1021 65 10000 5.14 10 06:40 02.04.2021
779 Clear 6 1021 66 10000 4.63 10 03:46 02.04.2021
780 Clear 9 1021 57 10000 6.69 30 01:49 02.04.2021
781 Clear 11 1021 54 10000 5.66 30 00:44 02.04.2021
782 Clear 14 1020 58 10000 7.2 30 23:48 01.04.2021
783 Clear 13 1019 58 10000 7.2 20 23:27 01.04.2021
784 Clear 16 1019 58 10000 7.72 30 22:51 01.04.2021
785 Clear 16 1019 48 10000 6.17 10 22:18 01.04.2021
786 Clear 17 1018 48 10000 4.12 360 21:45 01.04.2021
787 Clear 19 1018 45 10000 5.66 330 21:24 01.04.2021
788 Clear 19 1017 40 10000 5.14 320 20:43 01.04.2021
789 Clear 20 1017 37 10000 5.66 320 20:24 01.04.2021
790 Clear 21 1017 35 10000 4.63 320 19:46 01.04.2021
791 Clear 22 1017 33 10000 6.17 310 19:27 01.04.2021
792 Clear 22 1017 28 10000 5.14 320 18:45 01.04.2021
793 Clear 23 1017 28 10000 6.17 310 18:18 01.04.2021
794 Clear 23 1017 25 10000 6.17 320 17:51 01.04.2021
795 Clear 24 1017 25 10000 6.17 320 17:32 01.04.2021
796 Clear 24 1017 23 10000 4.63 310 16:51 01.04.2021
797 Clear 24 1017 27 10000 5.14 340 16:27 01.04.2021
798 Clear 24 1017 23 10000 5.66 330 15:46 01.04.2021
799 Clear 24 1017 25 10000 3.6 260 15:19 01.04.2021
800 Clear 24 1017 25 10000 3.6 260 15:19 01.04.2021
801 Clear 23 1018 23 10000 4.12 260 14:45 01.04.2021
802 Clear 23 1018 31 10000 2.06 90 14:26 01.04.2021
803 Clear 22 1018 35 10000 1.54 0 13:55 01.04.2021
804 Clear 21 1019 37 10000 1.03 0 13:30 01.04.2021
805 Clear 21 1019 42 10000 1.03 0 12:51 01.04.2021
806 Clear 19 1019 45 10000 1.03 0 12:32 01.04.2021
807 Clear 17 1019 55 10000 1.03 0 11:49 01.04.2021
808 Clear 15 1019 58 10000 1.54 310 11:24 01.04.2021
809 Clear 16 1019 58 10000 1.03 0 10:56 01.04.2021
810 Clear 14 1019 58 10000 1.03 0 10:37 01.04.2021
811 Clear 13 1019 66 10000 0.51 0 09:56 01.04.2021
812 Clear 12 1019 81 10000 1.03 0 09:27 01.04.2021
813 Clear 10 1019 87 10000 1.03 220 08:33 01.04.2021
814 Clear 10 1019 93 10000 1.03 0 07:59 01.04.2021
815 Clear 10 1019 81 10000 1.03 200 07:20 01.04.2021
816 Clear 10 1019 81 10000 1.03 210 06:49 01.04.2021
817 Clear 11 1019 81 10000 1.54 190 03:52 01.04.2021
818 Clear 12 1019 71 10000 0.51 0 01:52 01.04.2021
819 Clear 14 1019 58 10000 1.03 0 23:51 31.03.2021
820 Clear 15 1019 54 10000 1.54 0 23:32 31.03.2021
821 Clear 16 1019 51 10000 0.51 0 22:42 31.03.2021
822 Clear 17 1019 47 10000 1.54 280 22:21 31.03.2021
823 Clear 17 1019 44 10000 1.03 0 21:47 31.03.2021
824 Clear 18 1019 42 10000 0.51 190 21:24 31.03.2021
825 Clear 18 1019 37 10000 1.54 220 20:58 31.03.2021
826 Clear 19 1019 37 10000 1.54 220 20:40 31.03.2021
827 Clear 20 1019 30 10000 2.06 210 20:19 31.03.2021
828 Clear 23 1019 25 10000 1.54 250 19:42 31.03.2021
829 Clear 23 1019 23 10000 2.06 230 19:19 31.03.2021
830 Clear 24 1020 23 10000 1.54 210 18:52 31.03.2021
831 Clear 24 1020 23 10000 1.54 0 18:26 31.03.2021
832 Clear 24 1020 25 10000 2.06 210 17:38 31.03.2021
833 Clear 24 1020 27 10000 1.54 210 17:19 31.03.2021
834 Clear 24 1021 25 10000 2.06 230 16:49 31.03.2021
835 Clear 24 1021 25 10000 2.57 220 16:30 31.03.2021
836 Clear 24 1022 27 10000 2.06 190 15:52 31.03.2021
837 Clear 23 1022 28 10000 3.6 220 15:20 31.03.2021
838 Clear 23 1022 28 10000 3.6 220 15:20 31.03.2021
839 Clear 22 1022 30 10000 3.6 210 14:46 31.03.2021
840 Clear 21 1023 28 10000 3.6 220 14:24 31.03.2021
841 Clear 22 1023 32 10000 2.57 230 13:43 31.03.2021
842 Clear 21 1024 32 10000 2.06 220 13:19 31.03.2021
843 Clear 20 1024 30 10000 2.57 220 12:37 31.03.2021
844 Clear 19 1024 32 10000 2.57 210 12:18 31.03.2021
845 Clear 16 1025 41 10000 1.03 0 11:22 31.03.2021
846 Clear 15 1025 47 10000 0.51 0 10:48 31.03.2021
847 Clear 14 1025 47 10000 1.03 0 10:27 31.03.2021
848 Clear 12 1025 50 10000 1.03 0 09:45 31.03.2021
849 Clear 12 1025 54 10000 0.51 0 09:27 31.03.2021
850 Clear 8 1025 66 10000 1.03 0 08:43 31.03.2021
851 Clear 9 1025 65 10000 2.06 20 08:25 31.03.2021
852 Clear 9 1025 65 10000 1.54 70 07:33 31.03.2021
853 Clear 10 1026 66 10000 2.57 80 04:34 31.03.2021
854 Clear 12 1026 53 10000 2.06 360 02:37 31.03.2021
855 Clear 12 1027 54 10000 1.03 0 00:54 31.03.2021
856 Clear 13 1027 50 10000 2.06 50 00:22 31.03.2021
857 Clear 13 1027 47 10000 1.03 0 23:54 30.03.2021
858 Clear 14 1027 47 10000 2.06 350 23:24 30.03.2021
859 Clear 14 1027 44 10000 0.51 0 22:49 30.03.2021
860 Clear 15 1027 41 10000 1.54 70 22:30 30.03.2021
861 Clear 15 1027 36 10000 1.54 10 21:56 30.03.2021
862 Clear 17 1027 36 10000 1.54 10 21:29 30.03.2021
863 Clear 16 1028 34 10000 2.57 360 20:59 30.03.2021
864 Clear 18 1028 30 10000 2.57 350 20:31 30.03.2021
865 Clear 20 1028 26 10000 3.6 350 19:56 30.03.2021
866 Clear 21 1028 26 10000 3.6 350 19:37 30.03.2021
867 Clear 22 1028 21 10000 1.54 330 18:57 30.03.2021
868 Clear 23 1028 23 10000 1.54 310 18:27 30.03.2021
869 Clear 23 1029 23 10000 2.06 310 17:47 30.03.2021
870 Clear 23 1029 23 10000 1.54 0 17:29 30.03.2021
871 Clear 23 1029 25 10000 2.57 290 16:47 30.03.2021
872 Clear 23 1030 23 10000 1.03 0 16:27 30.03.2021
873 Clear 23 1030 23 10000 1.03 0 15:38 30.03.2021
874 Clear 22 1030 26 10000 2.06 280 15:19 30.03.2021
875 Clear 22 1031 26 10000 0.51 0 14:45 30.03.2021
876 Clear 21 1031 30 10000 1.54 20 14:20 30.03.2021
877 Clear 20 1032 30 10000 1.54 350 13:49 30.03.2021
878 Clear 20 1032 32 10000 1.03 0 13:24 30.03.2021
879 Clear 20 1032 34 10000 1.03 0 12:41 30.03.2021
880 Clear 19 1032 34 10000 1.03 0 12:41 30.03.2021
881 Clear 20 1032 34 10000 1.03 0 12:41 30.03.2021
882 Clear 18 1032 42 10000 1.54 0 12:21 30.03.2021
883 Clear 17 1033 41 10000 1.54 0 11:47 30.03.2021
884 Clear 15 1033 47 10000 1.03 0 11:19 30.03.2021
885 Clear 13 1033 50 10000 1.03 0 10:42 30.03.2021
886 Clear 12 1033 58 10000 1.03 0 10:19 30.03.2021
887 Clear 11 1033 62 10000 1.03 0 09:41 30.03.2021
888 Clear 10 1033 66 10000 2.06 80 09:21 30.03.2021
889 Clear 8 1032 75 10000 0.51 0 08:43 30.03.2021
890 Clear 6 1032 87 10000 0.51 0 07:56 30.03.2021
891 Clear 6 1032 80 10000 0.51 0 07:31 30.03.2021
892 Clear 6 1032 87 10000 0.51 210 06:30 30.03.2021
893 Clear 7 1031 81 10000 0.51 0 05:25 30.03.2021
894 Clear 10 1031 65 10000 1.03 190 01:47 30.03.2021
895 Clear 11 1031 53 10000 0.51 0 23:54 29.03.2021
896 Clear 11 1031 53 10000 1.54 0 23:22 29.03.2021
897 Clear 12 1031 46 10000 1.03 0 22:43 29.03.2021
898 Clear 13 1031 41 10000 1.54 200 21:57 29.03.2021
899 Clear 14 1030 36 10000 3.09 190 21:35 29.03.2021
900 Clear 16 1030 33 10000 3.09 180 20:51 29.03.2021
901 Clear 17 1030 33 10000 3.09 180 20:33 29.03.2021
902 Clear 19 1030 24 10000 3.09 190 19:56 29.03.2021
903 Clear 20 1030 23 10000 3.6 190 19:32 29.03.2021
904 Clear 21 1030 23 10000 3.6 200 18:57 29.03.2021
905 Clear 21 1030 23 10000 3.6 200 18:38 29.03.2021
906 Clear 21 1030 24 10000 3.6 220 18:19 29.03.2021
907 Clear 21 1030 24 10000 4.12 200 17:37 29.03.2021
908 Clear 21 1030 28 10000 4.12 220 16:55 29.03.2021
909 Clear 21 1030 28 10000 4.12 220 16:34 29.03.2021
910 Clear 21 1031 28 10000 4.63 220 15:47 29.03.2021
911 Clear 20 1031 30 10000 5.66 220 15:28 29.03.2021
912 Clear 19 1031 30 10000 5.66 240 14:49 29.03.2021
913 Clear 19 1031 34 10000 5.14 220 14:31 29.03.2021
914 Clear 18 1032 36 10000 5.14 230 13:47 29.03.2021
915 Clear 17 1032 42 10000 4.12 210 13:24 29.03.2021
916 Clear 17 1032 41 10000 5.14 200 12:50 29.03.2021
917 Clear 14 1032 44 10000 5.14 210 11:49 29.03.2021
918 Clear 14 1032 50 10000 4.63 210 11:30 29.03.2021
919 Clear 13 1032 54 10000 4.63 220 10:55 29.03.2021
920 Clear 12 1032 58 10000 3.6 210 10:34 29.03.2021
921 Clear 10 1032 57 10000 3.6 210 09:42 29.03.2021
922 Clear 8 1031 76 10000 1.03 180 08:52 29.03.2021
923 Clear 7 1031 75 10000 1.54 130 08:28 29.03.2021
924 Clear 7 1030 75 10000 1.54 240 07:28 29.03.2021
925 Clear 8 1030 70 10000 2.06 260 06:27 29.03.2021
926 Clear 8 1030 75 10000 1.03 0 03:51 29.03.2021
927 Clear 9 1030 70 10000 1.54 210 01:54 29.03.2021
928 Clear 10 1029 61 10000 1.03 0 00:22 29.03.2021
929 Clear 10 1029 61 10000 2.06 200 23:44 28.03.2021
930 Clear 11 1029 57 10000 2.57 230 23:19 28.03.2021
931 Clear 11 1029 50 10000 3.09 220 22:41 28.03.2021
932 Clear 11 1029 50 10000 3.6 180 22:21 28.03.2021
933 Clear 13 1029 44 10000 3.09 200 21:42 28.03.2021
934 Clear 13 1029 44 10000 3.6 200 21:23 28.03.2021
935 Clear 14 1028 41 10000 4.63 210 20:50 28.03.2021
936 Clear 14 1028 41 10000 5.14 210 20:31 28.03.2021
937 Clear 14 1028 38 10000 6.17 210 19:46 28.03.2021
938 Clear 14 1028 38 10000 5.14 210 19:23 28.03.2021
939 Clear 15 1027 38 10000 6.17 200 18:58 28.03.2021
940 Clear 15 1027 38 10000 6.17 200 18:32 28.03.2021
941 Clear 15 1028 36 10000 6.69 230 17:55 28.03.2021
942 Clear 15 1028 36 10000 6.69 230 17:34 28.03.2021
943 Clear 15 1028 38 10000 6.17 230 16:55 28.03.2021
944 Clear 15 1028 38 10000 7.72 230 16:24 28.03.2021
945 Clear 15 1028 38 10000 6.69 240 15:48 28.03.2021
946 Clear 14 1029 41 10000 7.72 220 15:22 28.03.2021
947 Clear 14 1029 41 10000 6.69 230 14:38 28.03.2021
948 Clear 14 1029 41 10000 7.2 210 13:55 28.03.2021
949 Clear 14 1029 41 10000 7.2 210 13:34 28.03.2021
950 Clouds 12 1030 47 10000 5.66 220 12:55 28.03.2021
951 Clouds 13 1030 47 10000 5.66 220 12:34 28.03.2021
952 Clouds 12 1030 58 10000 3.6 160 11:50 28.03.2021
953 Clouds 11 1030 58 10000 3.6 160 11:32 28.03.2021
954 Clear 9 1030 66 10000 3.6 210 10:47 28.03.2021
955 Clouds 9 1030 66 10000 3.09 200 10:28 28.03.2021
956 Clear 7 1030 76 10000 3.09 210 09:50 28.03.2021
957 Clear 6 1030 93 10000 1.54 170 09:27 28.03.2021
958 Clouds 5 1030 87 10000 0.51 210 08:48 28.03.2021
959 Clouds 5 1029 93 10000 1.03 0 08:23 28.03.2021
960 Clouds 4 1029 93 10000 1.03 220 07:38 28.03.2021
961 Clear 4 1029 93 10000 1.03 250 05:39 28.03.2021
962 Clear 4 1029 87 10000 0.51 0 03:26 28.03.2021
963 Clear 4 1029 87 10000 1.54 220 00:35 28.03.2021
964 Clear 4 1029 87 10000 2.06 220 23:51 27.03.2021
965 Clear 5 1029 87 10000 2.57 200 23:33 27.03.2021
966 Clear 4 1029 87 10000 2.57 220 22:40 27.03.2021
967 Clear 4 1028 81 10000 2.57 210 22:21 27.03.2021
968 Clear 5 1028 87 10000 3.09 220 21:42 27.03.2021
969 Clear 5 1028 81 10000 4.12 210 21:21 27.03.2021
970 Clouds 5 1028 81 10000 4.63 220 20:56 27.03.2021
971 Clouds 6 1028 81 10000 3.6 200 20:37 27.03.2021
972 Clouds 6 1028 81 10000 3.6 200 20:37 27.03.2021
973 Clouds 7 1027 75 10000 3.6 220 19:56 27.03.2021
974 Clouds 7 1027 75 10000 3.6 220 19:37 27.03.2021
975 Clouds 7 1027 70 10000 3.6 220 19:18 27.03.2021
976 Clouds 8 1026 65 10000 5.14 220 18:41 27.03.2021
977 Clouds 9 1026 61 10000 8.75 260 18:20 27.03.2021
978 Clouds 9 1025 57 10000 7.2 250 17:29 27.03.2021
979 Clouds 9 1025 61 10000 7.2 240 16:58 27.03.2021
980 Clouds 8 1025 66 10000 7.2 240 16:38 27.03.2021
981 Clouds 9 1025 66 10000 7.2 240 16:20 27.03.2021
982 Clouds 7 1025 75 10000 9.26 270 15:45 27.03.2021
983 Rain 9 1024 46 10000 11.32 230 14:59 27.03.2021
984 Rain 10 1024 46 10000 11.32 230 14:38 27.03.2021
985 Clouds 9 1024 57 10000 10.29 240 13:39 27.03.2021
986 Clouds 10 1024 53 10000 12.35 230 13:19 27.03.2021
987 Clouds 10 1023 50 10000 10.8 240 12:43 27.03.2021
988 Clouds 8 1023 70 10000 13.38 240 11:50 27.03.2021
989 Clouds 9 1022 53 10000 10.29 250 11:31 27.03.2021
990 Clouds 9 1022 53 10000 10.29 240 10:57 27.03.2021
991 Clouds 9 1022 53 10000 10.29 240 10:38 27.03.2021
992 Clouds 8 1021 53 10000 10.8 230 09:50 27.03.2021
993 Clouds 8 1021 53 10000 8.75 230 09:21 27.03.2021
994 Clouds 8 1021 57 10000 9.26 230 08:40 27.03.2021
995 Clouds 7 1020 65 10000 7.72 240 07:54 27.03.2021
996 Clouds 7 1019 65 10000 7.2 240 07:18 27.03.2021
997 Clouds 7 1019 65 10000 7.2 240 06:42 27.03.2021
998 Clouds 10 1015 66 10000 8.75 250 04:42 27.03.2021
999 Clear 10 1013 66 10000 5.66 190 02:45 27.03.2021
1000 Clear 10 1014 71 10000 3.6 150 00:44 27.03.2021
1001 Clear 11 1015 66 10000 3.09 170 00:25 27.03.2021
1002 Clear 11 1015 58 10000 2.57 200 23:37 26.03.2021
1003 Clear 12 1015 58 10000 3.6 220 22:40 26.03.2021
1004 Clear 13 1015 54 10000 3.09 210 21:53 26.03.2021
1005 Clear 13 1015 51 10000 3.6 210 21:24 26.03.2021
1006 Clear 14 1015 51 10000 3.6 200 20:58 26.03.2021
1007 Clear 14 1015 51 10000 3.09 190 20:31 26.03.2021
1008 Clear 14 1015 51 10000 3.09 180 19:53 26.03.2021
1009 Clear 15 1015 47 10000 2.57 190 19:34 26.03.2021
1010 Clear 15 1015 44 10000 3.09 180 18:55 26.03.2021
1011 Clear 15 1015 44 10000 3.09 180 18:55 26.03.2021
1012 Clear 15 1015 44 10000 4.12 170 18:36 26.03.2021
1013 Clear 16 1015 44 10000 4.12 170 18:18 26.03.2021
1014 Clear 16 1015 41 10000 3.6 170 17:41 26.03.2021
1015 Clear 17 1016 42 10000 4.12 200 16:50 26.03.2021
1016 Clear 17 1016 44 10000 3.6 170 16:23 26.03.2021
1017 Clear 17 1016 44 10000 3.6 170 16:23 26.03.2021
1018 Clear 17 1017 44 10000 3.6 210 15:43 26.03.2021
1019 Clear 16 1018 44 10000 6.17 200 14:54 26.03.2021
1020 Clouds 16 1018 45 10000 5.14 220 14:20 26.03.2021
1021 Clouds 16 1019 51 10000 3.6 190 13:33 26.03.2021
1022 Clouds 15 1019 47 10000 5.14 200 12:46 26.03.2021
1023 Clouds 14 1020 54 10000 4.12 210 11:50 26.03.2021
1024 Clouds 13 1020 58 10000 5.14 200 11:31 26.03.2021
1025 Clouds 13 1021 58 10000 3.6 180 10:45 26.03.2021
1026 Clouds 13 1021 62 10000 2.57 220 10:24 26.03.2021
1027 Clouds 11 1021 66 10000 3.09 210 09:41 26.03.2021
1028 Clear 10 1021 71 10000 2.57 210 08:51 26.03.2021
1029 Clear 9 1021 76 10000 2.57 200 08:31 26.03.2021
1030 Clouds 9 1021 81 10000 2.57 200 07:58 26.03.2021
1031 Clouds 8 1021 81 10000 1.54 230 07:22 26.03.2021
1032 Clouds 8 1021 81 10000 2.57 190 06:57 26.03.2021
1033 Clouds 8 1021 87 10000 2.06 200 06:26 26.03.2021
1034 Clouds 7 1021 81 10000 1.03 0 05:21 26.03.2021
1035 Clouds 8 1021 76 10000 1.54 160 01:50 26.03.2021
1036 Clouds 9 1021 71 10000 2.06 200 00:23 26.03.2021
1037 Clouds 9 1021 71 10000 2.06 210 23:44 25.03.2021
1038 Clear 10 1021 66 10000 3.09 210 22:51 25.03.2021
1039 Clear 10 1021 62 10000 2.57 200 22:28 25.03.2021
1040 Clouds 11 1021 57 10000 4.12 210 21:49 25.03.2021
1041 Clouds 12 1021 54 10000 3.6 190 21:31 25.03.2021
1042 Clear 13 1020 50 10000 3.09 220 20:43 25.03.2021
1043 Clear 12 1020 47 10000 4.12 250 20:25 25.03.2021
1044 Clear 12 1020 47 10000 6.17 230 19:45 25.03.2021
1045 Clear 12 1020 47 10000 6.17 230 19:45 25.03.2021
1046 Clear 13 1020 50 10000 6.69 230 19:27 25.03.2021
1047 Clear 14 1019 44 10000 5.66 220 18:47 25.03.2021
1048 Clear 15 1019 44 10000 6.17 210 18:26 25.03.2021
1049 Clear 16 1019 44 10000 5.66 220 17:51 25.03.2021
1050 Clear 16 1019 44 10000 5.66 220 17:33 25.03.2021
1051 Clear 16 1019 44 10000 3.6 200 16:51 25.03.2021
1052 Clear 16 1019 44 10000 3.6 200 16:51 25.03.2021
1053 Clear 16 1019 48 10000 5.14 220 16:30 25.03.2021
1054 Clouds 16 1019 44 10000 5.14 200 15:45 25.03.2021
1055 Clouds 16 1019 48 10000 4.12 210 15:21 25.03.2021
1056 Clouds 15 1019 48 10000 4.12 240 14:46 25.03.2021
1057 Clouds 15 1020 51 10000 4.63 230 13:56 25.03.2021
1058 Clear 14 1020 54 10000 4.12 230 13:24 25.03.2021
1059 Clear 13 1020 54 10000 4.63 220 12:45 25.03.2021
1060 Clear 13 1020 54 10000 4.63 230 12:21 25.03.2021
1061 Clear 13 1020 58 10000 2.57 200 11:53 25.03.2021
1062 Clear 12 1021 62 10000 2.57 200 11:30 25.03.2021
1063 Clear 11 1021 66 10000 2.57 220 10:57 25.03.2021
1064 Clear 10 1021 66 10000 2.57 220 10:38 25.03.2021
1065 Clear 10 1021 61 10000 2.57 220 10:18 25.03.2021
1066 Clear 10 1021 61 10000 2.57 220 10:18 25.03.2021
1067 Clear 8 1021 70 10000 2.57 220 09:42 25.03.2021
1068 Clear 7 1021 81 10000 0.51 0 08:58 25.03.2021
1069 Clear 6 1021 87 10000 0.51 0 08:30 25.03.2021
1070 Clear 4 1020 93 10000 0.51 0 07:26 25.03.2021
1071 Clear 4 1020 93 10000 1.54 80 06:27 25.03.2021
1072 Clear 4 1020 93 10000 0.51 0 05:49 25.03.2021
1073 Clear 4 1020 93 10000 0.51 0 04:42 25.03.2021
1074 Clear 6 1021 81 10000 0.51 0 00:46 25.03.2021
1075 Clear 6 1021 81 10000 0.51 0 00:18 25.03.2021
1076 Clear 6 1021 81 10000 0.51 0 23:39 24.03.2021
1077 Clear 6 1021 81 10000 1.54 220 23:18 24.03.2021
1078 Clear 7 1021 75 10000 1.03 0 22:39 24.03.2021
1079 Clear 8 1022 70 10000 1.03 0 21:51 24.03.2021
1080 Clear 8 1022 70 10000 1.03 0 21:32 24.03.2021
1081 Clear 8 1022 66 10000 1.54 190 20:56 24.03.2021
1082 Clear 9 1022 66 10000 2.06 190 20:38 24.03.2021
1083 Clear 9 1022 66 10000 2.06 190 20:18 24.03.2021
1084 Clear 10 1021 57 10000 1.03 0 19:33 24.03.2021
1085 Clear 10 1021 57 10000 1.03 0 19:33 24.03.2021
1086 Clear 13 1021 47 10000 1.54 180 18:53 24.03.2021
1087 Clear 14 1022 44 10000 2.57 220 18:24 24.03.2021
1088 Clear 14 1022 44 10000 2.57 220 18:24 24.03.2021
1089 Clear 14 1022 41 10000 2.57 200 17:53 24.03.2021
1090 Clear 15 1022 41 10000 3.6 220 17:32 24.03.2021
1091 Clear 15 1022 41 10000 3.09 180 16:57 24.03.2021
1092 Clear 15 1022 41 10000 2.57 200 16:39 24.03.2021
1093 Clear 15 1022 41 10000 2.57 200 16:19 24.03.2021
1094 Clear 14 1023 44 10000 3.6 230 15:37 24.03.2021
1095 Clear 14 1023 47 10000 3.09 190 15:18 24.03.2021
1096 Clear 13 1024 47 10000 2.57 160 14:29 24.03.2021
1097 Clear 14 1024 47 10000 3.09 210 13:58 24.03.2021
1098 Clear 13 1024 50 10000 3.09 240 13:28 24.03.2021
1099 Clear 13 1025 50 10000 2.57 160 12:50 24.03.2021
1100 Clear 11 1025 54 10000 3.09 210 12:30 24.03.2021
1101 Clear 11 1025 57 10000 2.57 200 11:54 24.03.2021
1102 Clear 10 1026 57 10000 2.06 210 11:36 24.03.2021
1103 Clear 9 1026 61 10000 2.57 200 10:49 24.03.2021
1104 Clear 8 1026 70 10000 2.06 210 10:28 24.03.2021
1105 Clear 6 1026 75 10000 1.54 240 09:54 24.03.2021
1106 Clear 5 1026 81 7000 1.54 220 09:29 24.03.2021
1107 Clear 4 1026 81 7000 0.51 0 08:57 24.03.2021
1108 Clear 4 1026 81 7000 0.51 0 08:38 24.03.2021
1109 Clear 2 1026 86 7000 0.51 0 07:48 24.03.2021
1110 Clear 1 1026 86 7000 0.51 180 07:19 24.03.2021
1111 Clear 1 1025 86 7000 0.51 0 06:43 24.03.2021
1112 Clear 3 1026 93 10000 0.51 110 02:18 24.03.2021
1113 Clear 4 1026 86 10000 0.51 240 00:40 24.03.2021
1114 Clear 4 1026 86 10000 1.03 210 23:52 23.03.2021
1115 Clear 4 1026 80 10000 1.54 250 23:19 23.03.2021
1116 Clear 5 1026 87 10000 1.03 0 22:50 23.03.2021
1117 Clear 5 1026 81 10000 1.03 0 22:24 23.03.2021
1118 Clear 5 1026 81 10000 1.03 0 21:45 23.03.2021
1119 Clear 6 1026 75 10000 1.03 200 21:26 23.03.2021
1120 Clouds 6 1026 70 10000 1.54 190 20:46 23.03.2021
1121 Clouds 7 1026 65 10000 1.54 180 20:25 23.03.2021
1122 Clouds 7 1026 61 10000 1.54 190 19:48 23.03.2021
1123 Clouds 8 1025 57 10000 2.06 150 19:26 23.03.2021
1124 Clouds 8 1025 57 10000 1.54 180 18:46 23.03.2021
1125 Clouds 9 1025 57 10000 1.03 0 18:22 23.03.2021
1126 Clouds 9 1025 57 10000 1.03 0 18:22 23.03.2021
1127 Clouds 9 1025 57 10000 1.54 200 17:48 23.03.2021
1128 Clouds 9 1025 57 10000 2.06 260 17:21 23.03.2021
1129 Clouds 9 1025 57 10000 1.54 260 16:42 23.03.2021
1130 Clouds 10 1025 53 10000 1.03 0 16:24 23.03.2021
1131 Clouds 10 1026 53 10000 0.51 0 15:46 23.03.2021
1132 Clouds 10 1026 53 10000 2.57 270 15:18 23.03.2021
1133 Clouds 10 1026 53 10000 1.54 0 14:39 23.03.2021
1134 Clouds 10 1026 53 10000 2.57 260 14:18 23.03.2021
1135 Clouds 8 1026 57 10000 3.6 250 13:43 23.03.2021
1136 Clouds 8 1026 57 10000 3.09 260 13:21 23.03.2021
1137 Clouds 8 1026 57 10000 2.57 250 12:43 23.03.2021
1138 Clouds 7 1027 57 10000 3.09 240 12:21 23.03.2021
1139 Clouds 7 1027 57 10000 3.09 240 12:21 23.03.2021
1140 Clouds 7 1027 61 10000 3.6 250 11:47 23.03.2021
1141 Clouds 7 1027 61 10000 3.6 250 11:47 23.03.2021
1142 Clouds 7 1027 61 10000 3.09 260 10:56 23.03.2021
1143 Clouds 7 1027 61 10000 3.09 260 10:38 23.03.2021
1144 Clouds 7 1027 61 10000 3.6 250 10:20 23.03.2021
1145 Clouds 7 1027 61 10000 3.09 260 09:42 23.03.2021
1146 Clouds 6 1027 65 10000 3.09 270 09:21 23.03.2021
1147 Clouds 6 1026 70 10000 1.54 230 08:40 23.03.2021
1148 Clouds 6 1026 70 10000 1.54 210 08:22 23.03.2021
1149 Clouds 5 1026 70 10000 2.06 290 07:48 23.03.2021
1150 Clouds 6 1026 65 10000 2.06 300 07:20 23.03.2021
1151 Clouds 4 1025 75 10000 2.06 280 06:41 23.03.2021
1152 Clouds 5 1025 75 10000 2.57 330 03:23 23.03.2021
1153 Clouds 6 1025 75 10000 3.09 320 02:21 23.03.2021
1154 Clouds 6 1025 75 10000 3.09 310 23:44 22.03.2021
1155 Clouds 6 1025 70 10000 3.6 300 22:59 22.03.2021
1156 Clouds 6 1025 70 10000 3.6 300 22:39 22.03.2021
1157 Clouds 6 1025 70 10000 3.6 320 22:20 22.03.2021
1158 Clouds 7 1025 65 10000 3.09 0 21:43 22.03.2021
1159 Clouds 7 1025 65 10000 3.09 0 21:24 22.03.2021
1160 Clouds 7 1025 65 10000 4.12 340 20:42 22.03.2021
1161 Clouds 7 1025 65 10000 2.57 320 20:22 22.03.2021
1162 Clouds 7 1024 65 10000 2.57 310 19:57 22.03.2021
1163 Clouds 7 1024 65 10000 2.57 310 19:37 22.03.2021
1164 Clouds 7 1024 70 10000 3.6 320 19:19 22.03.2021
1165 Clouds 7 1024 70 10000 3.6 330 18:40 22.03.2021
1166 Clouds 7 1023 70 10000 4.12 310 18:21 22.03.2021
1167 Clouds 8 1023 65 10000 5.14 310 17:48 22.03.2021
1168 Clouds 8 1023 66 10000 3.6 310 17:22 22.03.2021
1169 Clouds 8 1023 66 10000 4.12 320 16:47 22.03.2021
1170 Clouds 8 1023 66 10000 6.17 310 16:22 22.03.2021
1171 Clouds 8 1023 66 10000 3.09 320 15:39 22.03.2021
1172 Clouds 8 1023 61 10000 2.57 0 15:20 22.03.2021
1173 Clouds 8 1023 61 10000 2.06 0 14:57 22.03.2021
1174 Clouds 8 1023 61 10000 2.06 0 14:34 22.03.2021
1175 Clouds 7 1023 65 10000 1.54 350 13:50 22.03.2021
1176 Clouds 7 1023 65 10000 1.54 350 13:29 22.03.2021
1177 Clouds 7 1023 65 10000 3.6 300 12:57 22.03.2021
1178 Clouds 7 1023 65 10000 3.6 300 12:26 22.03.2021
1179 Clouds 6 1023 65 10000 4.12 320 11:51 22.03.2021
1180 Clouds 6 1023 65 10000 4.12 320 11:51 22.03.2021
1181 Clouds 6 1023 65 10000 4.12 320 11:29 22.03.2021
1182 Clouds 6 1023 70 10000 4.12 310 10:57 22.03.2021
1183 Clouds 6 1023 70 10000 4.12 310 10:37 22.03.2021
1184 Clouds 6 1023 65 10000 4.12 310 10:18 22.03.2021
1185 Clouds 5 1022 70 10000 5.14 310 09:34 22.03.2021
1186 Clouds 4 1022 75 10000 4.12 300 08:57 22.03.2021
1187 Clouds 5 1022 75 10000 4.12 300 08:57 22.03.2021
1188 Clouds 4 1022 75 10000 4.12 290 08:39 22.03.2021
1189 Clouds 5 1022 75 10000 4.12 290 08:20 22.03.2021
1190 Clouds 4 1021 75 10000 3.6 290 07:42 22.03.2021
1191 Clouds 4 1021 70 10000 4.12 290 06:52 22.03.2021
1192 Clouds 4 1021 65 10000 4.12 290 05:19 22.03.2021
1193 Clouds 4 1021 70 10000 2.06 280 00:55 22.03.2021
1194 Clouds 5 1021 70 10000 1.54 340 00:21 22.03.2021
1195 Clouds 5 1021 65 10000 2.57 330 23:52 21.03.2021
1196 Clouds 5 1021 61 10000 2.06 350 23:19 21.03.2021
1197 Clouds 5 1021 61 10000 2.06 320 22:54 21.03.2021
1198 Clouds 5 1021 61 10000 2.57 310 21:56 21.03.2021
1199 Clouds 5 1021 61 10000 2.57 310 21:38 21.03.2021
1200 Clouds 6 1020 61 10000 3.6 320 21:20 21.03.2021
1201 Clouds 6 1020 57 10000 3.6 300 20:41 21.03.2021
1202 Clouds 6 1020 57 10000 4.12 310 20:22 21.03.2021
1203 Clouds 7 1020 57 10000 4.12 310 19:50 21.03.2021
1204 Clouds 7 1020 57 10000 4.12 310 19:50 21.03.2021
1205 Clouds 7 1019 53 10000 4.12 310 19:21 21.03.2021
1206 Clouds 8 1019 53 10000 5.14 310 18:46 21.03.2021
1207 Clouds 8 1019 53 10000 5.66 310 18:27 21.03.2021
1208 Clouds 9 1019 49 10000 7.2 310 17:45 21.03.2021
1209 Clouds 9 1019 53 10000 7.72 310 17:20 21.03.2021
1210 Clouds 9 1019 53 10000 7.2 310 16:57 21.03.2021
1211 Clouds 9 1019 53 10000 6.69 310 16:30 21.03.2021
1212 Clouds 10 1019 50 10000 7.2 310 15:58 21.03.2021
1213 Clouds 10 1019 50 10000 7.2 310 15:38 21.03.2021
1214 Clouds 10 1019 50 10000 7.2 320 15:19 21.03.2021
1215 Clouds 9 1019 53 10000 7.72 320 14:42 21.03.2021
1216 Clouds 9 1019 57 10000 5.66 310 14:24 21.03.2021
1217 Clouds 9 1019 57 10000 6.69 320 13:52 21.03.2021
1218 Clouds 9 1020 66 10000 6.17 300 12:46 21.03.2021
1219 Clouds 9 1020 71 10000 4.63 310 12:27 21.03.2021
1220 Clouds 8 1020 76 10000 4.12 280 11:53 21.03.2021
1221 Clouds 7 1020 81 10000 5.14 280 11:28 21.03.2021
1222 Clouds 7 1020 76 10000 5.14 280 10:59 21.03.2021
1223 Clouds 7 1020 76 10000 5.14 280 10:41 21.03.2021
1224 Clouds 6 1020 75 10000 5.14 290 10:21 21.03.2021
1225 Clouds 6 1020 81 10000 3.6 230 09:44 21.03.2021
1226 Clouds 6 1020 81 10000 4.12 240 09:26 21.03.2021
1227 Clouds 5 1021 75 10000 5.14 250 08:39 21.03.2021
1228 Clouds 5 1021 75 10000 4.63 260 08:20 21.03.2021
1229 Clouds 4 1021 75 10000 3.6 210 07:37 21.03.2021
1230 Rain 3 1021 75 10000 3.09 210 06:50 21.03.2021
1231 Clouds 3 1022 70 10000 0.51 0 05:25 21.03.2021
1232 Clouds 3 1024 60 10000 2.06 190 01:54 21.03.2021
1233 Clear 3 1024 60 10000 1.54 190 00:41 21.03.2021
1234 Clear 3 1024 60 10000 2.57 190 00:21 21.03.2021
1235 Clear 3 1025 60 10000 2.06 210 23:47 20.03.2021
1236 Clear 3 1025 60 10000 2.57 180 23:20 20.03.2021
1237 Clear 4 1025 56 10000 2.06 200 22:55 20.03.2021
1238 Clouds 4 1025 48 10000 2.06 190 22:22 20.03.2021
1239 Clear 4 1025 41 10000 2.06 200 21:46 20.03.2021
1240 Clear 4 1025 45 10000 1.54 200 21:24 20.03.2021
1241 Clear 4 1025 38 10000 1.54 170 20:45 20.03.2021
1242 Clear 5 1025 42 10000 1.54 150 20:23 20.03.2021
1243 Clear 5 1025 38 10000 2.06 150 19:51 20.03.2021
1244 Clear 5 1025 38 10000 2.57 150 19:28 20.03.2021
1245 Clear 6 1025 36 10000 1.54 130 18:50 20.03.2021
1246 Clear 6 1026 39 10000 2.06 50 18:27 20.03.2021
1247 Clear 6 1026 36 10000 2.06 30 17:56 20.03.2021
1248 Clear 6 1026 36 10000 2.57 0 17:33 20.03.2021
1249 Clear 6 1026 36 10000 2.06 50 16:56 20.03.2021
1250 Clear 6 1026 36 10000 2.06 50 16:37 20.03.2021
1251 Clear 6 1026 39 10000 2.06 0 16:18 20.03.2021
1252 Clear 6 1027 36 10000 3.09 20 15:39 20.03.2021
1253 Clear 6 1027 39 10000 3.09 20 15:39 20.03.2021
1254 Clear 5 1027 33 10000 3.09 10 14:53 20.03.2021
1255 Clear 6 1027 31 10000 5.14 10 14:31 20.03.2021
1256 Clear 5 1028 36 10000 3.09 10 13:56 20.03.2021
1257 Clear 5 1028 33 10000 3.6 20 13:24 20.03.2021
1258 Clear 4 1028 35 10000 3.6 10 12:28 20.03.2021
1259 Clouds 3 1028 41 10000 2.57 0 11:55 20.03.2021
1260 Clouds 3 1028 41 10000 2.57 0 11:36 20.03.2021
1261 Clouds 3 1029 41 10000 3.6 60 11:18 20.03.2021
1262 Clouds 2 1029 41 10000 2.57 40 10:38 20.03.2021
1263 Clouds 2 1029 48 10000 4.12 60 10:19 20.03.2021
1264 Clouds 1 1029 48 10000 4.12 60 09:43 20.03.2021
1265 Clouds 1 1028 51 10000 4.63 60 09:21 20.03.2021
1266 Clouds 0 1028 51 10000 6.17 60 08:49 20.03.2021
1267 Clouds 0 1028 59 10000 5.14 60 07:58 20.03.2021
1268 Clouds -1 1028 59 10000 5.14 60 07:39 20.03.2021
1269 Clouds -1 1027 55 10000 4.63 50 07:20 20.03.2021
1270 Clouds -1 1027 59 10000 5.14 40 06:34 20.03.2021
1271 Clouds -1 1027 69 10000 4.12 10 05:27 20.03.2021
1272 Clear 0 1026 69 10000 3.09 10 03:43 20.03.2021
1273 Clouds 0 1026 69 10000 5.66 30 00:48 20.03.2021
1274 Clouds 0 1026 69 10000 3.6 20 23:46 19.03.2021
1275 Clouds 1 1025 69 10000 3.6 10 23:19 19.03.2021
1276 Clouds 1 1025 80 10000 3.09 20 22:42 19.03.2021
1277 Clouds 2 1025 80 10000 2.57 20 22:22 19.03.2021
1278 Clouds 2 1025 80 10000 1.54 340 21:39 19.03.2021
1279 Clear 2 1024 75 10000 2.57 340 21:20 19.03.2021
1280 Clouds 3 1024 75 10000 3.09 360 20:45 19.03.2021
1281 Clouds 4 1024 70 10000 3.6 360 20:26 19.03.2021
1282 Clouds 3 1024 70 10000 3.6 360 19:48 19.03.2021
1283 Clouds 3 1024 70 10000 4.63 360 19:22 19.03.2021
1284 Clouds 3 1023 70 10000 3.09 350 18:49 19.03.2021
1285 Clouds 5 1023 65 10000 4.12 360 18:27 19.03.2021
1286 Clouds 6 1023 65 10000 4.63 30 17:58 19.03.2021
1287 Clouds 6 1023 65 10000 4.63 30 17:38 19.03.2021
1288 Clouds 6 1022 56 10000 8.23 30 17:18 19.03.2021
1289 Clouds 7 1022 56 10000 5.14 40 16:44 19.03.2021
1290 Clouds 6 1022 65 10000 4.63 20 16:24 19.03.2021
1291 Clouds 6 1022 49 10000 7.2 10 15:34 19.03.2021
1292 Clouds 6 1022 52 10000 6.17 30 14:53 19.03.2021
1293 Clouds 6 1021 52 10000 7.72 30 14:33 19.03.2021
1294 Clouds 5 1022 56 10000 7.72 20 13:50 19.03.2021
1295 Clouds 5 1021 52 10000 7.72 10 13:19 19.03.2021
1296 Clouds 5 1021 56 10000 7.72 20 12:42 19.03.2021
1297 Clouds 4 1021 56 10000 6.17 30 12:18 19.03.2021
1298 Clouds 4 1021 56 10000 6.17 30 12:18 19.03.2021
1299 Clouds 4 1021 60 10000 7.2 30 11:33 19.03.2021
1300 Clouds 4 1020 65 10000 8.23 20 10:47 19.03.2021
1301 Clouds 4 1020 65 10000 7.2 20 10:23 19.03.2021
1302 Clouds 4 1020 65 10000 6.69 20 09:44 19.03.2021
1303 Clouds 3 1019 65 10000 7.72 20 09:26 19.03.2021
1304 Clouds 2 1019 75 10000 6.69 20 08:52 19.03.2021
1305 Clouds 2 1019 80 10000 4.12 10 08:29 19.03.2021
1306 Clouds 2 1019 80 10000 5.14 10 07:50 19.03.2021
1307 Clouds 2 1018 80 10000 5.14 10 07:32 19.03.2021
1308 Clouds 1 1017 87 10000 4.63 20 05:54 19.03.2021
1309 Clouds 2 1017 93 10000 2.06 320 02:36 19.03.2021
1310 Rain 3 1017 93 10000 1.54 170 23:57 18.03.2021
1311 Rain 3 1018 93 10000 1.54 210 23:30 18.03.2021
1312 Rain 3 1018 93 10000 1.54 210 23:30 18.03.2021
1313 Clouds 3 1018 93 10000 2.06 290 22:58 18.03.2021
1314 Clouds 4 1018 75 10000 2.57 290 22:27 18.03.2021
1315 Rain 4 1018 81 10000 1.54 0 21:56 18.03.2021
1316 Rain 4 1018 75 10000 1.03 0 21:38 18.03.2021
1317 Clouds 5 1018 70 10000 2.06 300 20:43 18.03.2021
1318 Rain 5 1019 70 10000 2.06 320 20:23 18.03.2021
1319 Rain 4 1019 65 10000 0.51 110 19:45 18.03.2021
1320 Clouds 5 1019 61 10000 2.57 340 19:25 18.03.2021
1321 Clouds 5 1019 65 10000 1.03 0 18:54 18.03.2021
1322 Clouds 6 1019 65 10000 2.06 160 18:27 18.03.2021
1323 Clouds 6 1019 65 10000 2.57 0 17:49 18.03.2021
1324 Rain 6 1020 65 10000 3.6 170 17:25 18.03.2021
1325 Clouds 6 1020 65 10000 3.09 150 16:46 18.03.2021
1326 Clouds 7 1021 70 10000 3.6 110 16:26 18.03.2021
1327 Clouds 7 1021 70 10000 2.57 100 15:45 18.03.2021
1328 Clouds 6 1021 75 10000 2.57 140 15:23 18.03.2021
1329 Clouds 7 1022 70 10000 4.12 140 14:53 18.03.2021
1330 Clouds 6 1022 70 10000 4.12 140 14:32 18.03.2021
1331 Clouds 7 1022 53 10000 2.57 270 13:53 18.03.2021
1332 Rain 7 1023 53 10000 2.57 270 13:26 18.03.2021
1333 Clouds 7 1023 53 10000 2.57 230 12:44 18.03.2021
1334 Clouds 7 1023 53 10000 2.57 230 12:25 18.03.2021
1335 Clouds 7 1024 65 10000 1.54 150 11:52 18.03.2021
1336 Clouds 7 1024 65 10000 1.54 150 11:32 18.03.2021
1337 Clouds 6 1024 75 10000 0.51 0 10:46 18.03.2021
1338 Clouds 5 1024 80 10000 1.03 0 10:27 18.03.2021
1339 Clouds 4 1024 80 10000 1.54 200 09:56 18.03.2021
1340 Clouds 3 1025 80 10000 1.54 140 09:29 18.03.2021
1341 Clouds 3 1025 86 10000 1.54 140 08:52 18.03.2021
1342 Clouds 2 1025 86 10000 1.54 140 08:32 18.03.2021
1343 Clouds 1 1025 93 10000 0.51 0 08:32 18.03.2021
1344 Clear 1 1024 93 10000 1.03 180 07:54 18.03.2021
1345 Clear 0 1025 93 10000 1.54 230 07:25 18.03.2021
1346 Clear -1 1025 93 10000 0.51 0 06:37 18.03.2021
1347 Clear -1 1025 86 10000 1.03 210 06:18 18.03.2021
1348 Clear 0 1025 93 10000 0.51 210 03:41 18.03.2021
1349 Clear 1 1026 80 10000 1.03 250 00:38 18.03.2021
1350 Clear 1 1025 80 10000 2.06 340 22:59 17.03.2021
1351 Clear 1 1025 80 10000 2.06 340 22:36 17.03.2021
1352 Clear 2 1025 69 10000 2.06 10 22:18 17.03.2021
1353 Clear 2 1025 69 10000 2.57 40 21:47 17.03.2021
1354 Clear 3 1025 60 10000 2.57 20 21:29 17.03.2021
1355 Clear 3 1025 60 10000 2.57 20 20:45 17.03.2021
1356 Clear 3 1025 60 10000 2.57 10 20:25 17.03.2021
1357 Clear 3 1025 56 10000 4.12 10 19:54 17.03.2021
1358 Clouds 4 1024 56 10000 4.12 10 19:25 17.03.2021
1359 Clouds 4 1024 60 10000 5.66 20 18:59 17.03.2021
1360 Clouds 4 1024 60 10000 5.66 20 18:59 17.03.2021
1361 Clouds 5 1024 60 10000 5.66 20 18:40 17.03.2021
1362 Clouds 6 1023 60 10000 3.6 10 17:59 17.03.2021
1363 Clouds 5 1023 60 10000 4.63 360 17:32 17.03.2021
1364 Clouds 6 1023 65 10000 5.66 10 16:57 17.03.2021
1365 Clouds 5 1023 65 10000 5.66 10 16:38 17.03.2021
1366 Clouds 6 1023 65 10000 3.6 350 16:19 17.03.2021
1367 Clouds 6 1023 75 10000 2.57 330 15:40 17.03.2021
1368 Clouds 5 1022 65 10000 1.54 360 14:46 17.03.2021
1369 Clouds 5 1023 65 10000 2.57 50 14:28 17.03.2021
1370 Clouds 5 1023 81 10000 2.57 60 13:58 17.03.2021
1371 Clouds 5 1023 81 10000 2.57 60 13:40 17.03.2021
1372 Clouds 4 1023 87 5000 4.12 20 13:18 17.03.2021
1373 Clouds 6 1023 87 10000 6.69 40 12:36 17.03.2021
1374 Clouds 6 1023 81 10000 4.63 40 12:18 17.03.2021
1375 Clouds 6 1023 65 10000 5.14 50 11:37 17.03.2021
1376 Clouds 5 1023 70 10000 4.12 290 11:18 17.03.2021
1377 Rain 6 1023 75 10000 4.12 260 10:40 17.03.2021
1378 Clouds 4 1023 81 10000 3.09 270 09:59 17.03.2021
1379 Clouds 4 1023 81 10000 3.09 270 09:41 17.03.2021
1380 Clouds 4 1023 87 10000 3.6 290 09:20 17.03.2021
1381 Clouds 3 1023 87 10000 3.09 290 08:45 17.03.2021
1382 Clouds 3 1023 87 10000 1.54 220 08:25 17.03.2021
1383 Clouds 2 1023 93 10000 0.51 0 07:38 17.03.2021
1384 Fog 2 1022 93 10000 1.54 310 06:48 17.03.2021
1385 Clouds 3 1022 87 10000 1.54 270 05:28 17.03.2021
1386 Rain 3 1022 93 10000 3.6 320 03:32 17.03.2021
1387 Clouds 4 1021 87 10000 2.06 250 01:58 17.03.2021
1388 Clouds 4 1022 81 10000 1.54 240 00:33 17.03.2021
1389 Clouds 5 1022 81 10000 3.6 280 23:27 16.03.2021
1390 Clouds 5 1022 75 10000 2.57 280 22:45 16.03.2021
1391 Clouds 5 1022 75 10000 4.12 270 22:27 16.03.2021
1392 Clouds 5 1022 75 10000 4.12 270 21:44 16.03.2021
1393 Clouds 6 1022 75 10000 3.09 280 21:26 16.03.2021
1394 Clouds 6 1022 75 10000 3.6 280 20:57 16.03.2021
1395 Clouds 6 1022 75 10000 3.09 270 20:20 16.03.2021
1396 Clouds 6 1022 75 10000 3.09 270 20:20 16.03.2021
1397 Clouds 6 1022 75 10000 3.6 290 19:51 16.03.2021
1398 Clouds 6 1022 70 10000 4.12 270 19:29 16.03.2021
1399 Clouds 6 1022 65 10000 4.12 300 18:57 16.03.2021
1400 Clouds 6 1022 65 10000 4.12 300 18:57 16.03.2021
1401 Clouds 7 1022 65 10000 4.12 300 18:39 16.03.2021
1402 Clouds 7 1022 65 10000 2.57 230 18:20 16.03.2021
1403 Clouds 8 1022 66 10000 4.12 270 17:41 16.03.2021
1404 Clouds 8 1022 66 10000 5.14 270 17:22 16.03.2021
1405 Clouds 8 1022 61 10000 5.14 280 16:49 16.03.2021
1406 Clouds 8 1022 57 10000 4.63 270 16:25 16.03.2021
1407 Clouds 9 1022 61 10000 4.12 290 15:46 16.03.2021
1408 Clouds 9 1022 53 10000 5.66 320 15:21 16.03.2021
1409 Clouds 8 1022 46 10000 5.14 280 14:57 16.03.2021
1410 Clouds 8 1022 46 10000 5.14 280 14:39 16.03.2021
1411 Clouds 8 1022 49 10000 6.17 270 14:19 16.03.2021
1412 Clouds 8 1022 49 10000 6.17 270 14:19 16.03.2021
1413 Clouds 8 1022 57 10000 4.12 270 13:45 16.03.2021
1414 Clouds 8 1023 53 10000 2.57 230 13:23 16.03.2021
1415 Clouds 7 1023 61 10000 4.12 250 12:48 16.03.2021
1416 Clouds 7 1023 61 10000 4.63 270 12:29 16.03.2021
1417 Clouds 7 1023 61 10000 4.63 290 11:41 16.03.2021
1418 Clouds 7 1023 61 10000 2.06 280 11:21 16.03.2021
1419 Clouds 7 1023 70 10000 4.63 310 10:27 16.03.2021
1420 Clouds 6 1023 70 10000 2.57 300 09:49 16.03.2021
1421 Clouds 6 1023 70 10000 2.57 290 09:29 16.03.2021
1422 Clouds 5 1022 75 10000 2.57 260 08:59 16.03.2021
1423 Clouds 5 1022 75 10000 2.57 260 08:40 16.03.2021
1424 Clouds 4 1022 87 10000 2.57 190 08:20 16.03.2021
1425 Clouds 4 1021 87 10000 2.57 180 07:36 16.03.2021
1426 Clouds 4 1021 75 10000 3.6 280 06:40 16.03.2021
1427 Clouds 4 1020 75 10000 3.6 290 05:52 16.03.2021
1428 Clouds 4 1020 75 10000 3.6 290 05:34 16.03.2021
1429 Clouds 5 1019 70 10000 3.09 280 02:45 16.03.2021
1430 Clouds 5 1019 75 10000 3.09 280 02:24 16.03.2021
1431 Clouds 5 1017 70 10000 3.6 270 23:59 15.03.2021
1432 Clouds 6 1017 70 10000 5.66 280 23:29 15.03.2021
1433 Clouds 6 1017 70 10000 6.69 280 22:55 15.03.2021
1434 Clouds 6 1017 70 10000 6.69 280 22:36 15.03.2021
1435 Clouds 6 1016 70 10000 5.66 300 21:58 15.03.2021
1436 Clouds 6 1016 70 10000 5.66 300 21:38 15.03.2021
1437 Clouds 6 1016 70 10000 7.2 300 21:20 15.03.2021
1438 Clouds 6 1016 75 10000 6.17 270 20:43 15.03.2021
1439 Clouds 6 1016 75 10000 6.17 270 20:43 15.03.2021
1440 Clouds 7 1016 75 10000 5.66 280 20:24 15.03.2021
1441 Clouds 6 1015 81 10000 4.63 290 19:53 15.03.2021
1442 Clouds 7 1015 81 10000 4.12 320 19:34 15.03.2021
1443 Clouds 7 1014 81 10000 6.69 290 18:57 15.03.2021
1444 Clouds 7 1014 81 10000 6.69 290 18:33 15.03.2021
1445 Rain 8 1013 57 10000 7.2 290 17:57 15.03.2021
1446 Rain 9 1013 57 10000 7.2 290 17:39 15.03.2021
1447 Clouds 9 1013 57 10000 7.72 290 17:21 15.03.2021
1448 Clouds 9 1012 61 10000 6.17 300 16:42 15.03.2021
1449 Clouds 8 1013 76 10000 8.23 270 15:55 15.03.2021
1450 Clouds 9 1012 61 10000 3.6 300 15:28 15.03.2021
1451 Clouds 9 1012 61 10000 3.6 300 15:28 15.03.2021
1452 Clouds 7 1012 75 10000 8.75 290 14:55 15.03.2021
1453 Clouds 7 1012 75 10000 8.75 290 14:36 15.03.2021
1454 Clouds 8 1012 65 10000 5.66 330 14:18 15.03.2021
1455 Clouds 8 1012 65 10000 5.66 330 13:41 15.03.2021
1456 Clouds 9 1012 61 10000 5.14 320 13:23 15.03.2021
1457 Clouds 8 1012 61 10000 4.12 320 12:45 15.03.2021
1458 Clouds 8 1012 61 10000 5.66 300 12:18 15.03.2021
1459 Clouds 8 1011 65 10000 5.66 320 11:41 15.03.2021
1460 Clouds 7 1011 70 10000 7.2 320 11:21 15.03.2021
1461 Clouds 6 1010 76 10000 5.66 310 10:41 15.03.2021
1462 Clouds 5 1010 93 10000 2.57 260 10:22 15.03.2021
1463 Rain 5 1010 87 10000 2.57 210 09:41 15.03.2021
1464 Rain 5 1009 93 10000 4.63 210 09:22 15.03.2021
1465 Clouds 4 1009 93 10000 5.14 210 08:45 15.03.2021
1466 Clouds 4 1009 87 10000 6.17 220 08:25 15.03.2021
1467 Clouds 4 1009 93 10000 4.63 200 07:40 15.03.2021
1468 Rain 4 1009 93 8000 4.63 200 07:22 15.03.2021
1469 Rain 4 1010 93 10000 4.12 180 05:42 15.03.2021
1470 Clouds 4 1012 87 10000 3.09 180 03:21 15.03.2021
1471 Clouds 4 1013 87 10000 2.06 210 00:42 15.03.2021
1472 Clear 4 1014 87 10000 3.09 180 23:24 14.03.2021
1473 Clear 4 1014 87 10000 2.06 180 22:57 14.03.2021
1474 Clear 4 1014 87 10000 2.06 180 22:37 14.03.2021
1475 Clouds 4 1014 87 10000 2.06 200 22:18 14.03.2021
1476 Clouds 4 1014 87 10000 2.06 200 22:18 14.03.2021
1477 Clouds 4 1014 81 10000 3.6 210 21:39 14.03.2021
1478 Clouds 4 1014 81 10000 4.63 220 21:18 14.03.2021
1479 Clouds 5 1014 81 10000 3.6 230 20:42 14.03.2021
1480 Clouds 5 1013 87 10000 3.6 220 20:23 14.03.2021
1481 Clouds 5 1013 81 10000 2.57 220 19:42 14.03.2021
1482 Clouds 6 1013 81 10000 3.6 220 19:20 14.03.2021
1483 Clouds 6 1012 75 10000 5.14 260 18:41 14.03.2021
1484 Clouds 6 1012 76 10000 4.63 260 17:58 14.03.2021
1485 Clouds 6 1012 76 10000 4.63 260 17:38 14.03.2021
1486 Clouds 6 1012 81 10000 3.6 250 17:19 14.03.2021
1487 Clouds 6 1012 87 10000 4.12 230 16:42 14.03.2021
1488 Clouds 7 1011 65 10000 5.66 240 16:23 14.03.2021
1489 Clouds 8 1011 66 10000 6.17 240 15:49 14.03.2021
1490 Clouds 8 1011 61 10000 6.17 230 15:24 14.03.2021
1491 Clouds 7 1011 65 10000 7.72 230 14:40 14.03.2021
1492 Clouds 7 1011 65 10000 8.23 220 14:20 14.03.2021
1493 Clouds 7 1011 65 10000 7.72 220 13:45 14.03.2021
1494 Clouds 7 1012 70 10000 7.2 230 13:26 14.03.2021
1495 Clouds 7 1011 61 10000 6.69 210 12:43 14.03.2021
1496 Clouds 7 1011 65 10000 7.2 220 12:23 14.03.2021
1497 Clouds 7 1011 61 10000 8.23 220 11:42 14.03.2021
1498 Clouds 7 1011 61 10000 7.2 220 11:23 14.03.2021
1499 Clouds 7 1011 70 10000 6.17 220 10:38 14.03.2021
1500 Clouds 6 1011 65 10000 6.17 230 10:20 14.03.2021
1501 Clouds 6 1010 65 10000 7.72 220 09:59 14.03.2021
1502 Clouds 6 1010 65 10000 7.72 220 09:41 14.03.2021
1503 Clouds 6 1010 70 10000 6.17 220 09:20 14.03.2021
1504 Clouds 5 1010 75 10000 5.66 220 08:40 14.03.2021
1505 Clouds 4 1008 81 10000 4.63 220 07:59 14.03.2021
1506 Clouds 4 1008 81 10000 4.63 220 07:34 14.03.2021
1507 Clouds 4 1006 81 10000 3.09 200 05:42 14.03.2021
1508 Clouds 5 1003 75 10000 5.14 200 01:35 14.03.2021
1509 Clouds 5 1003 75 10000 4.63 200 00:49 14.03.2021
1510 Clouds 6 1002 70 10000 5.14 230 00:18 14.03.2021
1511 Clouds 6 1002 70 10000 5.66 230 23:42 13.03.2021
1512 Clouds 6 1002 70 10000 5.66 210 23:20 13.03.2021
1513 Clouds 6 1002 70 10000 4.12 220 22:49 13.03.2021
1514 Clouds 6 1002 81 10000 4.12 190 22:25 13.03.2021
1515 Clouds 6 1002 81 10000 4.12 200 21:40 13.03.2021
1516 Clouds 6 1002 81 10000 4.12 200 21:40 13.03.2021
1517 Clouds 7 1002 70 10000 5.14 220 21:19 13.03.2021
1518 Clouds 7 1002 65 10000 5.66 240 20:48 13.03.2021
1519 Rain 7 1002 65 10000 6.17 230 20:28 13.03.2021
1520 Clouds 7 1001 70 10000 8.23 250 19:45 13.03.2021
1521 Clouds 7 1001 61 10000 7.72 220 19:27 13.03.2021
1522 Clouds 8 1000 66 10000 6.17 210 18:43 13.03.2021
1523 Clouds 8 1000 66 10000 6.69 230 18:21 13.03.2021
1524 Clouds 8 1000 61 10000 9.77 220 17:56 13.03.2021
1525 Clouds 9 1000 61 10000 9.77 210 17:34 13.03.2021
1526 Clouds 9 1000 66 10000 9.26 200 16:57 13.03.2021
1527 Clouds 9 1000 61 10000 10.8 220 16:39 13.03.2021
1528 Clouds 9 1000 71 10000 8.75 230 15:58 13.03.2021
1529 Clouds 8 999 71 10000 10.8 210 15:22 13.03.2021
1530 Rain 8 1000 66 10000 11.32 220 14:46 13.03.2021
1531 Clouds 8 1000 76 10000 9.26 210 14:25 13.03.2021
1532 Clouds 7 1000 70 10000 8.75 210 13:46 13.03.2021
1533 Rain 8 1000 76 10000 8.23 230 13:23 13.03.2021
1534 Rain 8 1000 76 10000 12.86 230 12:43 13.03.2021
1535 Rain 8 1000 81 8000 13.89 230 12:18 13.03.2021
1536 Rain 9 998 71 10000 13.89 200 11:43 13.03.2021
1537 Clouds 9 998 71 10000 11.83 210 11:24 13.03.2021
1538 Clouds 9 999 66 10000 11.83 210 10:49 13.03.2021
1539 Clouds 9 999 66 10000 11.83 210 10:25 13.03.2021
1540 Clouds 8 1000 66 10000 11.32 200 09:42 13.03.2021
1541 Rain 7 1000 76 10000 8.75 190 08:58 13.03.2021
1542 Rain 7 1001 76 10000 9.26 190 08:39 13.03.2021
1543 Clouds 7 1001 76 10000 9.26 190 08:19 13.03.2021
1544 Clouds 7 1001 81 10000 8.23 190 07:41 13.03.2021
1545 Rain 6 1004 87 10000 6.69 190 05:50 13.03.2021
1546 Clouds 6 1006 81 10000 6.17 190 02:54 13.03.2021
1547 Clouds 5 1007 87 10000 3.6 180 00:50 13.03.2021
1548 Clouds 5 1008 81 10000 5.66 220 23:54 12.03.2021
1549 Clouds 5 1008 81 10000 5.66 220 23:32 12.03.2021
1550 Clouds 5 1007 87 10000 6.17 220 22:42 12.03.2021
1551 Clouds 5 1007 87 10000 6.17 220 22:23 12.03.2021
1552 Rain 6 1007 87 10000 6.17 210 21:44 12.03.2021
1553 Rain 6 1007 87 10000 6.17 210 21:44 12.03.2021
1554 Rain 6 1007 87 10000 6.69 220 21:25 12.03.2021
1555 Rain 7 1008 87 4000 7.2 260 20:55 12.03.2021
1556 Rain 7 1008 87 4000 7.2 260 20:32 12.03.2021
1557 Clouds 8 1007 81 6000 9.26 240 19:58 12.03.2021
1558 Clouds 9 1007 81 6000 9.26 240 19:39 12.03.2021
1559 Rain 10 1007 50 10000 8.23 210 19:18 12.03.2021
1560 Clouds 10 1007 50 10000 9.77 210 18:35 12.03.2021
1561 Clouds 11 1007 50 10000 7.2 210 17:50 12.03.2021
1562 Clouds 11 1008 50 10000 9.26 210 17:30 12.03.2021
1563 Clouds 11 1008 46 10000 9.26 210 16:59 12.03.2021
1564 Clouds 11 1008 50 10000 9.26 220 16:36 12.03.2021
1565 Clouds 10 1009 46 10000 9.26 220 15:52 12.03.2021
1566 Clouds 10 1009 57 10000 9.26 210 15:31 12.03.2021
1567 Clouds 9 1010 66 10000 10.29 220 14:48 12.03.2021
1568 Clouds 9 1010 57 10000 10.29 220 14:21 12.03.2021
1569 Clouds 9 1011 66 10000 12.35 220 13:44 12.03.2021
1570 Clouds 10 1011 46 10000 9.26 230 13:23 12.03.2021
1571 Clouds 10 1011 53 10000 11.32 230 12:57 12.03.2021
1572 Clouds 9 1011 53 10000 10.29 230 12:38 12.03.2021
1573 Clouds 9 1011 53 10000 10.29 230 12:19 12.03.2021
1574 Clouds 9 1011 53 10000 11.32 230 11:50 12.03.2021
1575 Clouds 9 1012 53 10000 10.8 230 11:22 12.03.2021
1576 Clouds 8 1012 61 10000 8.23 220 10:50 12.03.2021
1577 Clouds 8 1012 61 10000 9.26 220 10:25 12.03.2021
1578 Clouds 7 1012 61 10000 6.69 220 09:54 12.03.2021
1579 Clouds 7 1011 70 10000 6.69 210 09:24 12.03.2021
1580 Clouds 6 1011 70 10000 7.72 210 08:44 12.03.2021
1581 Clouds 5 1011 75 10000 6.69 210 07:57 12.03.2021
1582 Clouds 5 1011 75 10000 6.69 210 07:32 12.03.2021
1583 Clouds 5 1010 70 10000 6.69 210 06:49 12.03.2021
1584 Clouds 5 1010 65 10000 7.2 230 06:26 12.03.2021
1585 Clouds 7 1007 70 10000 9.26 230 02:21 12.03.2021
1586 Clouds 8 1005 76 10000 6.69 210 00:19 12.03.2021
1587 Clouds 8 1005 81 10000 5.14 210 23:30 11.03.2021
1588 Clouds 8 1005 81 10000 5.14 230 22:49 11.03.2021
1589 Clouds 8 1005 87 10000 5.14 200 22:29 11.03.2021
1590 Clouds 8 1004 81 10000 5.66 220 21:51 11.03.2021
1591 Clouds 8 1004 81 10000 5.66 230 21:30 11.03.2021
1592 Clouds 9 1003 87 10000 4.63 230 20:54 11.03.2021
1593 Clouds 9 1003 87 10000 3.6 260 20:35 11.03.2021
1594 Rain 10 1002 81 9000 6.17 240 19:59 11.03.2021
1595 Rain 10 1002 81 9000 6.17 240 19:41 11.03.2021
1596 Rain 11 1002 62 10000 6.69 240 19:22 11.03.2021
1597 Rain 11 1001 62 10000 7.2 260 18:46 11.03.2021
1598 Clouds 12 1001 58 10000 9.77 230 18:28 11.03.2021
1599 Rain 13 1001 58 10000 9.26 220 17:43 11.03.2021
1600 Clouds 13 1001 67 10000 10.29 220 16:47 11.03.2021
1601 Clouds 13 1001 62 10000 11.32 220 16:27 11.03.2021
1602 Clouds 15 1001 55 10000 11.32 230 15:48 11.03.2021
1603 Clouds 15 1001 58 10000 10.8 220 15:21 11.03.2021
1604 Clouds 13 1001 67 10000 9.77 220 14:46 11.03.2021
1605 Clouds 13 1001 76 10000 9.77 210 14:19 11.03.2021
1606 Clouds 13 1002 71 10000 11.32 220 13:49 11.03.2021
1607 Clouds 12 1002 71 10000 10.8 220 13:30 11.03.2021
1608 Rain 11 1002 71 10000 10.29 210 12:58 11.03.2021
1609 Clouds 11 1002 71 10000 10.29 210 12:38 11.03.2021
1610 Clouds 11 1002 76 10000 9.77 200 12:20 11.03.2021
1611 Clouds 10 1003 81 10000 7.2 200 11:43 11.03.2021
1612 Clouds 10 1003 76 10000 6.69 200 11:21 11.03.2021
1613 Rain 10 1003 76 10000 8.23 200 10:42 11.03.2021
1614 Rain 9 1004 81 10000 9.26 200 10:20 11.03.2021
1615 Clouds 9 1004 76 10000 9.26 210 09:41 11.03.2021
1616 Clouds 9 1005 76 10000 10.29 210 09:22 11.03.2021
1617 Clouds 9 1005 76 10000 10.29 210 08:47 11.03.2021
1618 Clouds 9 1005 71 10000 10.29 210 08:19 11.03.2021
1619 Clouds 9 1005 66 10000 7.72 210 07:29 11.03.2021
1620 Clouds 9 1005 66 10000 6.69 200 06:50 11.03.2021
1621 Clouds 9 1006 66 10000 7.2 200 06:30 11.03.2021
1622 -273 0 0 0 0 0 03:46 11.03.2021
1623 Rain 8 1011 76 10000 5.14 220 01:18 11.03.2021
1624 Rain 8 1012 57 10000 5.14 200 23:32 10.03.2021
1625 Rain 8 1012 57 10000 5.14 200 23:32 10.03.2021
1626 Rain 8 1013 57 10000 4.12 180 22:59 10.03.2021
1627 Rain 8 1013 57 10000 4.12 180 22:33 10.03.2021
1628 Rain 9 1014 57 10000 5.14 170 21:47 10.03.2021
1629 Rain 9 1014 57 10000 4.12 170 21:26 10.03.2021
1630 Rain 9 1015 53 10000 4.63 170 20:51 10.03.2021
1631 Rain 9 1015 61 10000 3.6 170 20:33 10.03.2021
1632 Rain 9 1016 57 10000 3.6 170 19:54 10.03.2021
1633 Rain 9 1016 57 10000 3.6 170 19:33 10.03.2021
1634 Clouds 9 1016 53 10000 4.12 180 18:56 10.03.2021
1635 Rain 9 1016 53 10000 4.12 180 18:37 10.03.2021
1636 Clouds 10 1016 53 10000 3.09 170 18:18 10.03.2021
1637 Clouds 10 1016 53 10000 4.12 170 17:41 10.03.2021
1638 Clouds 10 1017 53 10000 3.6 180 17:19 10.03.2021
1639 Clouds 10 1017 53 10000 4.12 210 16:48 10.03.2021
1640 Clouds 10 1017 53 10000 4.63 180 16:25 10.03.2021
1641 Clouds 10 1017 53 10000 5.14 200 15:54 10.03.2021
1642 Clouds 10 1017 53 10000 5.14 200 15:36 10.03.2021
1643 Clouds 10 1018 57 10000 4.63 210 15:18 10.03.2021
1644 Clouds 10 1019 57 10000 5.66 240 14:23 10.03.2021
1645 Clouds 10 1019 57 10000 4.63 220 13:58 10.03.2021
1646 Clouds 8 1019 61 10000 4.12 210 13:31 10.03.2021
1647 Clouds 9 1019 66 10000 4.12 220 12:53 10.03.2021
1648 Clouds 8 1020 66 10000 3.09 230 12:32 10.03.2021
1649 Clouds 8 1020 66 10000 3.09 250 11:56 10.03.2021
1650 Clouds 8 1020 66 10000 3.09 260 11:29 10.03.2021
1651 Clouds 7 1020 70 10000 2.57 220 10:56 10.03.2021
1652 Clouds 7 1020 70 10000 2.57 220 10:34 10.03.2021
1653 Clouds 6 1020 75 10000 2.06 230 09:57 10.03.2021
1654 Clouds 6 1020 75 10000 2.06 230 09:39 10.03.2021
1655 Clouds 5 1020 81 10000 2.57 210 09:19 10.03.2021
1656 Clouds 5 1020 87 10000 2.06 200 08:45 10.03.2021
1657 Clouds 4 1019 87 10000 1.54 200 08:27 10.03.2021
1658 Clouds 3 1019 93 10000 1.54 200 07:46 10.03.2021
1659 Clouds 3 1019 93 10000 1.03 0 07:25 10.03.2021
1660 Clouds 3 1019 93 10000 1.03 240 06:52 10.03.2021
1661 Clouds 4 1018 93 10000 1.03 0 03:29 10.03.2021
1662 Clouds 4 1018 87 10000 2.57 200 00:42 10.03.2021
1663 Clouds 5 1018 87 10000 1.54 200 23:47 09.03.2021
1664 Clouds 5 1018 81 10000 2.06 200 22:58 09.03.2021
1665 Clouds 5 1018 81 10000 2.06 200 22:38 09.03.2021
1666 Clouds 5 1018 81 10000 2.57 200 22:18 09.03.2021
1667 Clouds 5 1018 81 10000 2.57 210 21:44 09.03.2021
1668 Clouds 6 1018 75 10000 2.57 210 21:24 09.03.2021
1669 Clouds 6 1018 75 10000 2.57 230 20:56 09.03.2021
1670 Clouds 6 1018 75 10000 2.57 230 20:38 09.03.2021
1671 Clouds 6 1018 75 10000 2.57 240 20:19 09.03.2021
1672 Clouds 6 1018 75 10000 4.63 260 19:45 09.03.2021
1673 Rain 6 1018 70 10000 2.57 260 19:25 09.03.2021
1674 Clouds 6 1017 70 10000 3.6 250 18:42 09.03.2021
1675 Clouds 6 1017 70 10000 4.63 260 18:23 09.03.2021
1676 Clouds 6 1017 70 10000 5.14 250 17:49 09.03.2021
1677 Clouds 6 1017 70 10000 4.63 260 17:28 09.03.2021
1678 Clouds 7 1017 61 10000 5.14 260 16:41 09.03.2021
1679 Clouds 7 1017 57 10000 5.66 230 16:23 09.03.2021
1680 Clouds 7 1017 57 10000 5.14 220 15:59 09.03.2021
1681 Clouds 7 1017 57 10000 5.14 220 15:36 09.03.2021
1682 Clouds 7 1017 57 10000 4.63 230 15:18 09.03.2021
1683 Clouds 8 1017 53 10000 4.12 210 14:28 09.03.2021
1684 Clouds 8 1018 57 10000 4.12 230 13:47 09.03.2021
1685 Clouds 7 1018 53 10000 4.63 220 13:22 09.03.2021
1686 Clouds 7 1018 53 10000 3.09 220 12:59 09.03.2021
1687 Clouds 8 1018 53 10000 3.09 220 12:38 09.03.2021
1688 Clouds 7 1018 53 10000 2.57 220 12:18 09.03.2021
1689 Clouds 6 1019 57 10000 2.06 170 11:41 09.03.2021
1690 Clouds 6 1019 61 10000 2.06 230 11:20 09.03.2021
1691 Clouds 5 1019 65 10000 1.03 0 10:47 09.03.2021
1692 Clouds 4 1019 70 10000 0.51 0 10:23 09.03.2021
1693 Clouds 3 1019 70 10000 0.51 0 09:58 09.03.2021
1694 Clouds 4 1019 70 10000 0.51 0 09:40 09.03.2021
1695 Clouds 3 1019 75 10000 0.51 0 09:22 09.03.2021
1696 Clouds 3 1019 80 10000 1.03 70 08:36 09.03.2021
1697 Clouds 2 1019 86 10000 2.06 80 07:52 09.03.2021
1698 Clouds 1 1019 86 10000 2.57 70 07:31 09.03.2021
1699 Clouds 0 1019 86 10000 2.57 80 06:59 09.03.2021
1700 Clouds 1 1019 80 10000 1.54 90 05:54 09.03.2021
1701 Clouds 1 1019 86 10000 0.51 0 05:34 09.03.2021
1702 Clear 2 1021 80 10000 1.03 60 00:21 09.03.2021
1703 Clear 2 1021 80 10000 1.54 80 23:42 08.03.2021
1704 Clear 3 1021 75 10000 2.06 80 23:23 08.03.2021
1705 Clear 3 1021 70 10000 2.57 20 22:44 08.03.2021
1706 Clear 3 1021 70 10000 2.57 20 22:26 08.03.2021
1707 Clear 4 1021 70 10000 2.06 20 21:55 08.03.2021
1708 Clear 4 1021 70 10000 2.06 360 21:35 08.03.2021
1709 Clear 4 1021 70 10000 1.03 70 20:47 08.03.2021
1710 Clear 4 1021 70 10000 1.54 70 20:26 08.03.2021
1711 Clear 5 1021 65 10000 2.06 70 19:59 08.03.2021
1712 Clear 5 1021 65 10000 2.06 70 19:36 08.03.2021
1713 Clouds 6 1021 61 10000 3.09 60 18:42 08.03.2021
1714 Clouds 6 1021 61 10000 3.09 60 18:23 08.03.2021
1715 Clouds 6 1021 61 10000 3.09 60 17:51 08.03.2021
1716 Clouds 6 1021 61 10000 3.09 60 17:51 08.03.2021
1717 Clouds 7 1021 61 10000 3.09 60 17:32 08.03.2021
1718 Clouds 6 1021 61 10000 3.09 70 16:55 08.03.2021
1719 Clouds 7 1021 57 10000 3.09 80 16:29 08.03.2021
1720 Clouds 7 1021 57 10000 3.6 70 15:52 08.03.2021
1721 Clouds 7 1021 53 10000 3.09 70 15:30 08.03.2021
1722 Clouds 7 1022 57 10000 3.09 20 14:51 08.03.2021
1723 Clouds 7 1022 56 10000 2.57 30 14:20 08.03.2021
1724 Clouds 7 1022 56 10000 1.54 90 13:44 08.03.2021
1725 Clouds 6 1022 56 10000 1.54 40 13:22 08.03.2021
1726 Clouds 5 1023 56 10000 2.06 50 12:49 08.03.2021
1727 Clouds 5 1023 56 10000 1.54 0 12:29 08.03.2021
1728 Clouds 6 1023 60 10000 1.54 70 11:44 08.03.2021
1729 Clouds 5 1023 60 10000 0.51 0 11:20 08.03.2021
1730 Clear 4 1023 60 10000 0.51 0 10:45 08.03.2021
1731 Clear 4 1023 65 10000 1.03 0 10:27 08.03.2021
1732 Clear 3 1023 64 10000 0.51 0 09:45 08.03.2021
1733 Clear 2 1023 69 10000 0.51 0 09:25 08.03.2021
1734 Clear 0 1022 80 10000 0.51 0 08:31 08.03.2021
1735 Clear 0 1022 86 10000 1.03 170 07:51 08.03.2021
1736 Clear -2 1022 86 10000 0.51 0 07:21 08.03.2021
1737 Clear -1 1021 86 10000 1.03 200 05:20 08.03.2021
1738 Clear 1 1022 74 10000 2.06 20 01:45 08.03.2021
1739 Clear 1 1022 64 10000 2.57 20 00:41 08.03.2021
1740 Clear 2 1022 64 10000 4.12 20 23:53 07.03.2021
1741 Clear 2 1022 64 10000 4.12 30 23:21 07.03.2021
1742 Clear 2 1022 64 10000 4.63 20 22:47 07.03.2021
1743 Clear 2 1021 60 10000 5.14 30 22:27 07.03.2021
1744 Clear 2 1021 60 10000 5.14 30 22:27 07.03.2021
1745 Clear 3 1021 60 10000 5.14 20 21:53 07.03.2021
1746 Clear 3 1021 60 10000 5.14 20 21:32 07.03.2021
1747 Clear 3 1021 56 10000 5.14 10 20:58 07.03.2021
1748 Clear 3 1020 52 10000 1.54 340 20:40 07.03.2021
1749 Clear 3 1020 52 10000 1.54 340 20:18 07.03.2021
1750 Clear 4 1020 52 10000 1.03 0 19:40 07.03.2021
1751 Clear 5 1020 48 10000 1.03 30 19:22 07.03.2021
1752 Clear 6 1020 42 10000 2.06 30 18:54 07.03.2021
1753 Clear 7 1020 34 10000 2.57 20 18:21 07.03.2021
1754 Clear 9 1020 34 10000 1.54 360 17:59 07.03.2021
1755 Clear 9 1020 34 10000 1.54 360 17:38 07.03.2021
1756 Clear 9 1020 34 10000 2.06 0 17:19 07.03.2021
1757 Clear 9 1020 34 10000 1.54 350 16:43 07.03.2021
1758 Clear 9 1020 31 10000 2.06 10 16:21 07.03.2021
1759 Clear 9 1021 34 10000 1.03 0 15:51 07.03.2021
1760 Clear 9 1021 34 10000 1.03 0 15:31 07.03.2021
1761 Clear 8 1021 31 10000 1.54 0 14:56 07.03.2021
1762 Clear 8 1022 31 10000 1.54 0 14:29 07.03.2021
1763 Clear 8 1022 34 10000 1.03 0 13:51 07.03.2021
1764 Clear 8 1023 34 10000 1.54 0 13:30 07.03.2021
1765 Clear 7 1023 34 10000 2.57 90 12:59 07.03.2021
1766 Clear 7 1023 34 10000 2.57 90 12:40 07.03.2021
1767 Clear 7 1023 39 10000 3.6 50 12:20 07.03.2021
1768 Clear 6 1024 45 10000 3.09 100 11:24 07.03.2021
1769 Clear 5 1025 52 10000 3.09 70 10:56 07.03.2021
1770 Clear 4 1025 52 10000 3.09 70 10:38 07.03.2021
1771 Clear 4 1025 52 10000 3.09 70 10:38 07.03.2021
1772 Clear 3 1025 60 10000 2.06 40 09:58 07.03.2021
1773 Clear 2 1025 60 10000 2.06 40 09:39 07.03.2021
1774 Clear 1 1025 64 10000 2.06 30 09:19 07.03.2021
1775 Clear 1 1025 74 10000 2.57 70 08:45 07.03.2021
1776 Clear -1 1026 74 10000 2.57 70 08:22 07.03.2021
1777 Clear -2 1026 80 10000 2.57 70 07:23 07.03.2021
1778 Clear -1 1027 69 10000 2.57 40 02:40 07.03.2021
1779 Clear 1 1028 64 10000 3.09 80 00:36 07.03.2021
1780 Clear 1 1029 60 10000 3.6 10 23:41 06.03.2021
1781 Clear 1 1029 60 10000 3.6 10 23:22 06.03.2021
1782 Clear 1 1029 59 10000 3.09 10 22:47 06.03.2021
1783 Clear 2 1030 60 10000 4.12 30 22:25 06.03.2021
1784 Clear 1 1029 64 10000 1.54 60 21:54 06.03.2021
1785 Clear 1 1029 64 10000 0.51 0 21:21 06.03.2021
1786 Clear 3 1029 60 10000 1.54 60 20:48 06.03.2021
1787 Clear 3 1029 52 10000 2.57 40 20:26 06.03.2021
1788 Clear 4 1029 48 10000 3.09 30 19:49 06.03.2021
1789 Clear 5 1029 42 10000 3.09 10 19:20 06.03.2021
1790 Clear 6 1029 39 10000 3.6 10 18:45 06.03.2021
1791 Clear 6 1029 39 10000 3.6 40 18:24 06.03.2021
1792 Clear 8 1029 36 10000 3.6 50 17:56 06.03.2021
1793 Clear 8 1029 36 10000 3.6 50 17:56 06.03.2021
1794 Clear 8 1030 31 10000 3.6 10 17:38 06.03.2021
1795 Clear 8 1030 31 10000 3.6 10 17:18 06.03.2021
1796 Clear 8 1030 34 10000 3.09 10 16:41 06.03.2021
1797 Clear 8 1030 34 10000 3.09 10 16:41 06.03.2021
1798 Clear 8 1030 34 10000 4.12 60 16:21 06.03.2021
1799 Clear 8 1031 31 10000 2.57 40 15:47 06.03.2021
1800 Clear 8 1031 36 10000 2.57 30 15:29 06.03.2021
1801 Clear 7 1031 36 10000 4.63 40 14:51 06.03.2021
1802 Clear 7 1032 33 10000 4.12 40 14:28 06.03.2021
1803 Clear 7 1032 31 10000 5.14 70 13:40 06.03.2021
1804 Clear 6 1033 31 10000 5.66 80 13:20 06.03.2021
1805 Clear 6 1033 36 10000 4.12 70 12:44 06.03.2021
1806 Clear 5 1033 42 10000 4.12 90 12:20 06.03.2021
1807 Clear 5 1033 45 10000 4.12 70 11:54 06.03.2021
1808 Clear 5 1033 52 10000 3.6 60 11:21 06.03.2021
1809 Clear 4 1033 52 10000 3.09 70 10:48 06.03.2021
1810 Clear 3 1033 56 10000 3.6 70 10:24 06.03.2021
1811 Clear 3 1033 60 10000 3.6 60 09:47 06.03.2021
1812 Clear 1 1033 69 10000 3.6 60 09:20 06.03.2021
1813 Clear 1 1033 80 10000 2.57 70 08:46 06.03.2021
1814 Clear -1 1033 74 10000 1.54 20 07:59 06.03.2021
1815 Clear -1 1033 74 10000 1.54 20 07:41 06.03.2021
1816 Clear -2 1033 80 10000 1.54 60 07:20 06.03.2021
1817 Clear -1 1032 74 10000 1.54 70 05:38 06.03.2021
1818 Clear -1 1032 86 10000 2.57 70 02:39 06.03.2021
1819 Clear 0 1032 80 10000 2.57 80 01:27 06.03.2021
1820 Clear 1 1032 74 10000 1.54 80 00:39 06.03.2021
1821 Clear 2 1032 64 10000 2.06 70 23:31 05.03.2021
1822 Clear 1 1031 64 10000 2.06 30 22:58 05.03.2021
1823 Clear 2 1031 64 10000 3.09 20 22:39 05.03.2021
1824 Clear 2 1031 64 10000 3.09 20 22:20 05.03.2021
1825 Clear 2 1031 60 10000 3.09 20 21:41 05.03.2021
1826 Clear 2 1030 60 10000 3.09 10 21:22 05.03.2021
1827 Clear 2 1030 64 10000 3.09 40 20:42 05.03.2021
1828 Clear 2 1030 60 10000 4.12 60 20:23 05.03.2021
1829 Clouds 4 1030 56 10000 4.63 40 19:44 05.03.2021
1830 Clouds 4 1029 52 10000 4.12 40 19:22 05.03.2021
1831 Clouds 5 1029 52 10000 5.14 40 18:44 05.03.2021
1832 Clouds 5 1028 52 10000 5.14 30 18:25 05.03.2021
1833 Clouds 6 1028 49 10000 6.17 20 17:49 05.03.2021
1834 Clouds 6 1027 49 10000 7.2 20 17:31 05.03.2021
1835 Clouds 6 1027 49 10000 6.69 20 16:42 05.03.2021
1836 Clouds 6 1027 49 10000 5.66 20 16:23 05.03.2021
1837 Clouds 6 1027 52 10000 5.66 30 15:54 05.03.2021
1838 Clouds 6 1026 56 10000 7.2 30 15:27 05.03.2021
1839 Clouds 6 1026 52 10000 6.17 20 14:43 05.03.2021
1840 Clouds 6 1026 56 10000 5.66 20 14:24 05.03.2021
1841 Clouds 6 1025 53 10000 5.14 20 13:43 05.03.2021
1842 Clouds 5 1025 56 10000 4.63 30 13:21 05.03.2021
1843 Clouds 5 1025 56 10000 6.17 10 12:43 05.03.2021
1844 Clouds 5 1025 65 10000 7.2 30 11:40 05.03.2021
1845 Clouds 5 1025 65 10000 7.72 20 11:19 05.03.2021
1846 Clouds 4 1024 70 10000 5.66 20 10:57 05.03.2021
1847 Clouds 4 1024 70 10000 5.66 20 10:37 05.03.2021
1848 Clouds 4 1024 75 10000 5.66 10 10:18 05.03.2021
1849 Clouds 4 1024 75 10000 4.63 20 09:38 05.03.2021
1850 Clouds 4 1023 75 10000 5.66 360 09:20 05.03.2021
1851 Clouds 4 1023 75 10000 4.12 360 08:39 05.03.2021
1852 Clouds 4 1022 81 10000 2.06 320 08:20 05.03.2021
1853 Clouds 3 1022 87 10000 2.06 310 07:34 05.03.2021
1854 Clouds 4 1022 81 10000 2.06 330 06:43 05.03.2021
1855 Clouds 4 1021 81 10000 2.57 340 06:25 05.03.2021
1856 Clouds 4 1020 87 10000 2.06 320 01:35 05.03.2021
1857 Rain 5 1019 87 10000 5.14 320 23:55 04.03.2021
1858 Rain 6 1018 87 10000 5.14 320 23:25 04.03.2021
1859 Rain 7 1017 81 10000 4.63 310 22:31 04.03.2021
1860 Clouds 8 1017 76 10000 5.14 320 21:55 04.03.2021
1861 Rain 8 1017 81 10000 7.2 310 21:33 04.03.2021
1862 Rain 8 1017 81 10000 4.12 310 20:58 04.03.2021
1863 Rain 8 1017 81 10000 4.12 310 20:39 04.03.2021
1864 Rain 8 1017 81 10000 3.6 300 20:21 04.03.2021
1865 Clouds 8 1017 81 10000 3.09 280 19:50 04.03.2021
1866 Rain 8 1016 81 10000 3.09 250 19:23 04.03.2021
1867 Clouds 9 1016 81 10000 3.09 340 18:52 04.03.2021
1868 Clouds 9 1016 81 10000 3.09 340 18:52 04.03.2021
1869 Clouds 10 1016 81 10000 4.12 320 18:30 04.03.2021
1870 Rain 11 1016 76 9000 4.12 200 17:50 04.03.2021
1871 Rain 11 1016 82 10000 2.57 190 17:31 04.03.2021
1872 Clouds 11 1016 82 10000 3.09 200 16:56 04.03.2021
1873 Clouds 11 1016 82 10000 3.09 200 16:38 04.03.2021
1874 Clouds 11 1016 82 10000 3.09 210 16:19 04.03.2021
1875 Rain 11 1017 76 10000 5.14 230 15:45 04.03.2021
1876 Clouds 13 1017 58 10000 4.12 280 15:25 04.03.2021
1877 Clouds 13 1017 58 10000 3.6 260 14:42 04.03.2021
1878 Clouds 13 1017 54 10000 3.6 260 14:18 04.03.2021
1879 Clouds 13 1018 51 10000 3.09 230 13:40 04.03.2021
1880 Clouds 13 1018 51 10000 3.09 230 13:19 04.03.2021
1881 Clear 12 1018 54 10000 3.6 250 12:42 04.03.2021
1882 Clear 11 1019 62 10000 4.12 230 11:52 04.03.2021
1883 Clear 11 1019 62 10000 4.12 230 11:32 04.03.2021
1884 Clear 10 1019 62 10000 3.6 210 10:58 04.03.2021
1885 Clear 10 1019 62 10000 3.6 210 10:36 04.03.2021
1886 Clear 9 1020 71 10000 2.57 200 09:55 04.03.2021
1887 Clear 7 1020 76 10000 1.54 230 09:28 04.03.2021
1888 Clear 6 1020 81 10000 2.06 190 08:53 04.03.2021
1889 Clouds 6 1020 81 10000 2.06 220 08:28 04.03.2021
1890 Clouds 6 1020 81 10000 2.57 210 07:37 04.03.2021
1891 Clear 5 1021 87 10000 0.51 0 06:48 04.03.2021
1892 Clear 5 1021 87 10000 1.03 0 06:21 04.03.2021
1893 Clear 7 1023 81 10000 2.06 220 02:39 04.03.2021
1894 Clear 8 1024 81 10000 1.03 230 00:21 04.03.2021
1895 Clear 8 1025 76 10000 1.03 220 22:39 03.03.2021
1896 Rain 8 1025 81 10000 1.03 230 22:21 03.03.2021
1897 Clear 9 1025 81 10000 1.54 230 21:41 03.03.2021
1898 Clear 9 1025 81 10000 1.54 230 21:23 03.03.2021
1899 Clear 9 1026 76 10000 1.03 230 20:55 03.03.2021
1900 Clear 10 1026 71 10000 0.51 0 20:36 03.03.2021
1901 Clear 10 1026 71 10000 0.51 0 20:36 03.03.2021
1902 Clear 10 1026 71 10000 0.51 0 20:36 03.03.2021
1903 Clear 11 1026 66 10000 1.03 0 19:54 03.03.2021
1904 Clear 10 1026 66 10000 1.03 0 19:36 03.03.2021
1905 Clear 11 1026 66 10000 1.54 180 19:18 03.03.2021
1906 Clear 12 1026 58 10000 1.54 230 18:40 03.03.2021
1907 Rain 13 1026 54 10000 0.51 0 17:58 03.03.2021
1908 Clear 13 1026 54 10000 0.51 0 17:36 03.03.2021
1909 Clear 13 1026 54 10000 2.06 220 17:18 03.03.2021
1910 Clear 14 1027 47 10000 2.57 200 16:39 03.03.2021
1911 Clear 14 1027 47 10000 2.57 200 16:21 03.03.2021
1912 Clear 14 1028 50 10000 2.06 200 15:33 03.03.2021
1913 Clear 14 1028 50 10000 2.06 200 14:52 03.03.2021
1914 Clear 13 1028 50 10000 2.06 210 14:28 03.03.2021
1915 Clear 12 1029 54 10000 1.54 210 13:52 03.03.2021
1916 Clear 11 1029 58 10000 2.06 180 13:30 03.03.2021
1917 Clear 11 1029 62 10000 3.09 200 12:44 03.03.2021
1918 Clear 11 1030 66 10000 2.57 210 12:24 03.03.2021
1919 Clear 9 1030 76 10000 0.51 0 11:46 03.03.2021
1920 Clear 8 1030 75 10000 1.03 0 11:28 03.03.2021
1921 Clear 7 1030 81 10000 1.54 220 10:48 03.03.2021
1922 Clear 6 1030 93 10000 1.03 0 10:26 03.03.2021
1923 Clear 4 1030 93 10000 1.54 190 09:48 03.03.2021
1924 Clear 5 1030 93 10000 1.54 150 09:24 03.03.2021
1925 Clear 4 1030 93 10000 1.03 0 08:39 03.03.2021
1926 Clear 3 1030 93 10000 1.54 180 08:20 03.03.2021
1927 Clear 3 1030 93 10000 1.54 210 07:41 03.03.2021
1928 Clear 3 1030 93 10000 0.51 0 06:51 03.03.2021
1929 Clear 4 1030 93 10000 1.54 40 05:46 03.03.2021
1930 Clear 4 1030 93 10000 1.03 0 04:58 03.03.2021
1931 Clear 4 1030 93 10000 0.51 160 04:26 03.03.2021
1932 Clear 4 1031 93 10000 1.54 70 01:54 03.03.2021
1933 Clear 5 1031 87 10000 0.51 0 23:57 02.03.2021
1934 Clear 6 1031 81 10000 1.54 70 23:28 02.03.2021
1935 Clear 5 1031 81 10000 2.06 70 22:42 02.03.2021
1936 Clear 6 1031 81 10000 0.51 0 22:19 02.03.2021
1937 Clear 6 1031 81 10000 1.03 0 21:41 02.03.2021
1938 Clear 6 1031 75 10000 0.51 0 21:22 02.03.2021
1939 Clear 7 1031 75 10000 0.51 290 20:48 02.03.2021
1940 Clear 8 1031 75 10000 0.51 0 20:23 02.03.2021
1941 Clear 8 1031 70 10000 1.54 220 19:57 02.03.2021
1942 Clear 8 1031 70 10000 1.54 220 19:39 02.03.2021
1943 Clear 9 1031 61 10000 1.03 0 19:20 02.03.2021
1944 Clear 10 1030 57 10000 1.54 260 18:41 02.03.2021
1945 Clear 11 1030 50 10000 1.03 240 18:21 02.03.2021
1946 Clear 14 1030 41 10000 0.51 0 17:49 02.03.2021
1947 Clear 14 1030 41 10000 1.54 300 17:30 02.03.2021
1948 Clear 14 1030 41 10000 1.54 300 17:30 02.03.2021
1949 Clear 14 1030 41 10000 1.54 300 17:30 02.03.2021
1950 Clear 14 1030 41 10000 1.54 300 17:30 02.03.2021
1951 Clear 14 1030 41 10000 1.54 300 17:30 02.03.2021
1952 Clear 14 1031 41 10000 0.51 0 16:54 02.03.2021
1953 Clear 14 1031 41 10000 1.03 0 16:23 02.03.2021
1954 Clear 14 1031 41 10000 1.03 0 15:51 02.03.2021
1955 Clear 13 1031 44 10000 1.03 0 15:25 02.03.2021
1956 Clear 13 1031 44 10000 1.54 0 14:24 02.03.2021
1957 Clear 13 1032 47 10000 2.06 40 13:54 02.03.2021
1958 Clear 13 1032 47 10000 2.06 40 13:36 02.03.2021
1959 Clear 12 1032 47 10000 1.54 0 13:18 02.03.2021
1960 Clear 11 1033 54 10000 2.06 90 12:30 02.03.2021
1961 Clear 10 1033 57 10000 2.57 70 11:54 02.03.2021
1962 Clear 10 1033 57 10000 2.57 70 11:36 02.03.2021
1963 Clear 10 1032 57 10000 3.09 60 11:18 02.03.2021
1964 Clear 8 1032 65 10000 3.6 50 10:33 02.03.2021
1965 Clear 7 1032 65 10000 4.12 50 09:59 02.03.2021
1966 Clear 7 1032 65 10000 4.12 50 09:40 02.03.2021
1967 Clear 6 1032 70 10000 3.6 40 09:19 02.03.2021
1968 Clear 5 1032 75 10000 3.6 30 08:38 02.03.2021
1969 Clear 3 1032 81 10000 3.6 30 07:58 02.03.2021
1970 Clear 4 1032 81 10000 3.6 30 07:38 02.03.2021
1971 Clear 3 1032 87 10000 3.6 30 06:35 02.03.2021
1972 Clear 3 1031 87 10000 4.63 10 05:46 02.03.2021
1973 Clear 3 1031 87 10000 4.63 10 05:46 02.03.2021
1974 Clear 3 1031 87 10000 3.09 10 05:28 02.03.2021
1975 Clear 5 1031 81 10000 1.54 70 01:46 02.03.2021
1976 Clear 5 1031 81 10000 1.54 80 01:28 02.03.2021
1977 Clear 6 1031 87 10000 2.57 80 00:51 02.03.2021
1978 Clear 7 1031 76 10000 3.6 40 23:28 01.03.2021
1979 Clear 7 1031 76 10000 3.6 30 22:42 01.03.2021
1980 Clear 8 1031 71 10000 4.63 30 22:22 01.03.2021
1981 Clear 7 1031 71 10000 4.12 30 21:50 01.03.2021
1982 Clear 7 1031 71 10000 5.66 30 21:24 01.03.2021
1983 Clear 8 1031 71 10000 5.14 30 20:49 01.03.2021
1984 Clear 8 1031 71 10000 4.12 30 20:28 01.03.2021
1985 Clear 9 1031 66 10000 3.6 40 19:56 01.03.2021
1986 Clear 9 1031 66 10000 3.6 40 19:34 01.03.2021
1987 Clear 9 1031 66 10000 4.12 40 18:59 01.03.2021
1988 Clear 11 1030 58 10000 4.12 30 18:36 01.03.2021
1989 Clear 11 1030 58 10000 4.12 30 18:18 01.03.2021
1990 Clear 12 1030 54 10000 4.63 20 17:41 01.03.2021
1991 Clear 12 1031 54 10000 4.63 10 17:19 01.03.2021
1992 Clear 13 1031 50 10000 4.63 10 16:44 01.03.2021
1993 Clear 13 1031 50 10000 3.6 30 16:26 01.03.2021
1994 Clear 13 1031 47 10000 3.6 40 15:42 01.03.2021
1995 Clear 12 1031 50 10000 4.12 40 15:21 01.03.2021
1996 Clear 12 1032 50 10000 4.12 30 14:49 01.03.2021
1997 Clear 12 1032 50 10000 4.63 60 14:30 01.03.2021
1998 Clear 10 1033 57 10000 3.6 30 13:43 01.03.2021
1999 Clear 10 1033 57 10000 3.6 30 13:25 01.03.2021
2000 Clear 10 1033 57 10000 3.6 30 13:24 01.03.2021
2001 Clear 9 1033 57 10000 4.63 20 12:58 01.03.2021
2002 Clear 9 1033 57 10000 4.63 30 12:38 01.03.2021
2003 Clear 9 1033 57 10000 4.63 30 12:19 01.03.2021
2004 Clear 7 1033 61 10000 4.63 30 11:42 01.03.2021
2005 Clear 6 1034 70 10000 5.66 60 10:45 01.03.2021
2006 Clear 5 1034 75 10000 4.12 40 10:23 01.03.2021
2007 Clear 4 1034 81 10000 4.63 40 09:59 01.03.2021
2008 Clear 4 1034 81 10000 4.63 40 09:41 01.03.2021
2009 Clear 3 1034 87 10000 4.63 40 09:21 01.03.2021
2010 Clear 3 1033 81 10000 4.12 40 08:52 01.03.2021
2011 Clear 2 1033 87 10000 3.6 40 08:21 01.03.2021
2012 Clear 1 1033 86 10000 3.09 80 06:54 01.03.2021
2013 Clear 1 1033 86 10000 3.09 60 05:39 01.03.2021
2014 Clear 3 1033 87 10000 1.54 80 02:26 01.03.2021
2015 Clear 4 1033 81 10000 2.57 50 23:41 28.02.2021
2016 Clear 5 1033 81 10000 1.54 60 22:55 28.02.2021
2017 Clear 6 1033 70 10000 3.09 20 22:26 28.02.2021
2018 Clear 7 1033 70 10000 4.12 30 21:55 28.02.2021
2019 Clear 7 1033 61 10000 3.09 10 21:33 28.02.2021
2020 Clear 7 1033 61 10000 3.09 60 20:58 28.02.2021
2021 Clear 7 1033 61 10000 3.09 60 20:38 28.02.2021
2022 Clear 7 1033 65 10000 3.09 60 20:18 28.02.2021
2023 Clear 7 1033 61 10000 2.57 60 19:45 28.02.2021
2024 Clear 8 1033 61 10000 2.06 30 19:24 28.02.2021
2025 Clear 9 1033 53 10000 2.57 30 18:43 28.02.2021
2026 Clear 10 1033 50 10000 2.57 20 18:25 28.02.2021
2027 Clear 11 1033 50 10000 3.6 30 17:51 28.02.2021
2028 Clear 12 1033 46 10000 3.6 30 17:28 28.02.2021
2029 Clear 11 1033 46 10000 3.6 30 16:56 28.02.2021
2030 Clear 11 1033 50 10000 4.63 30 16:38 28.02.2021
2031 Clear 11 1033 50 10000 4.63 30 16:18 28.02.2021
2032 Clear 11 1034 53 10000 4.12 20 15:47 28.02.2021
2033 Clear 10 1034 53 10000 4.63 40 15:24 28.02.2021
2034 Clear 10 1034 50 10000 5.66 60 14:52 28.02.2021
2035 Clear 9 1035 53 10000 5.66 50 14:29 28.02.2021
2036 Clear 9 1035 53 10000 4.63 50 13:52 28.02.2021
2037 Clear 8 1036 53 10000 4.12 30 13:21 28.02.2021
2038 Clear 8 1036 53 10000 4.12 30 13:21 28.02.2021
2039 Clear 8 1036 53 10000 4.63 30 12:59 28.02.2021
2040 Clear 8 1036 53 10000 4.63 30 12:40 28.02.2021
2041 Clouds 7 1036 57 10000 4.63 30 12:22 28.02.2021
2042 Clouds 7 1037 61 10000 4.63 40 11:53 28.02.2021
2043 Clouds 6 1037 61 10000 4.63 40 11:26 28.02.2021
2044 Clouds 6 1037 61 10000 5.14 70 10:59 28.02.2021
2045 Clouds 6 1037 65 10000 5.14 70 10:29 28.02.2021
2046 Clouds 5 1037 65 10000 5.14 50 09:57 28.02.2021
2047 Clouds 5 1037 65 10000 5.14 50 09:35 28.02.2021
2048 Clouds 3 1037 75 10000 4.12 50 08:59 28.02.2021
2049 Clouds 3 1037 75 10000 4.12 50 08:37 28.02.2021
2050 Clouds 1 1037 75 10000 3.09 70 08:19 28.02.2021
2051 Clouds 1 1037 80 10000 4.12 50 07:43 28.02.2021
2052 Clouds 1 1037 80 10000 4.12 50 07:43 28.02.2021
2053 Clouds 1 1037 86 10000 4.12 40 07:24 28.02.2021
2054 Clear 1 1037 80 10000 4.12 50 06:23 28.02.2021
2055 Clouds 2 1037 80 10000 3.6 60 05:19 28.02.2021
2056 Clouds 5 1038 70 10000 3.09 10 02:26 28.02.2021
2057 Clouds 5 1038 70 10000 4.12 30 01:23 28.02.2021
2058 Clouds 5 1038 70 10000 3.6 20 00:39 28.02.2021
2059 Clouds 5 1038 70 10000 4.12 20 23:50 27.02.2021
2060 Clouds 5 1038 70 10000 4.63 20 23:22 27.02.2021
2061 Clouds 5 1038 70 10000 4.12 20 22:50 27.02.2021
2062 Clouds 5 1038 75 10000 4.12 10 22:24 27.02.2021
2063 Clouds 5 1038 75 10000 4.63 20 21:59 27.02.2021
2064 Clouds 5 1038 75 10000 4.63 20 21:38 27.02.2021
2065 Clouds 5 1038 75 10000 5.14 20 21:18 27.02.2021
2066 Clouds 5 1038 75 10000 6.17 30 20:46 27.02.2021
2067 Clouds 6 1038 75 10000 6.17 30 20:25 27.02.2021
2068 Clouds 6 1038 70 10000 6.69 30 19:43 27.02.2021
2069 Clouds 6 1038 70 10000 6.17 30 19:24 27.02.2021
2070 Clouds 6 1037 65 10000 5.14 30 18:42 27.02.2021
2071 Clouds 7 1037 65 10000 5.14 30 18:21 27.02.2021
2072 Clouds 8 1037 65 10000 5.14 30 17:45 27.02.2021
2073 Clouds 8 1037 61 10000 5.66 20 17:21 27.02.2021
2074 Clouds 8 1037 61 10000 5.66 30 16:59 27.02.2021
2075 Clouds 8 1037 61 10000 5.66 30 16:41 27.02.2021
2076 Clouds 8 1038 61 10000 6.69 20 16:23 27.02.2021
2077 Clouds 8 1038 61 10000 6.69 20 15:39 27.02.2021
2078 Clouds 8 1038 61 10000 6.17 30 14:52 27.02.2021
2079 Clouds 8 1038 61 10000 6.17 30 14:33 27.02.2021
2080 Clouds 8 1039 61 10000 7.2 20 13:56 27.02.2021
2081 Clouds 8 1039 66 10000 7.2 40 13:37 27.02.2021
2082 Clouds 8 1039 66 10000 6.17 30 12:58 27.02.2021
2083 Clouds 8 1039 66 10000 6.17 30 12:38 27.02.2021
2084 Clouds 7 1039 66 10000 6.17 40 12:19 27.02.2021
2085 Clouds 8 1039 66 10000 5.66 30 11:42 27.02.2021
2086 Clouds 7 1039 65 10000 5.66 40 11:24 27.02.2021
2087 Clouds 6 1039 75 10000 5.14 40 10:47 27.02.2021
2088 Clouds 6 1039 70 10000 4.63 50 10:28 27.02.2021
2089 Clouds 5 1039 81 10000 4.12 30 09:51 27.02.2021
2090 Clouds 4 1038 81 10000 4.12 30 09:26 27.02.2021
2091 Clouds 3 1038 87 10000 3.09 10 08:42 27.02.2021
2092 Clouds 2 1038 93 10000 2.57 10 08:21 27.02.2021
2093 Clouds 1 1038 93 10000 2.06 20 07:42 27.02.2021
2094 Clear 2 1037 93 10000 0.51 0 06:21 27.02.2021
2095 Clear 3 1036 93 10000 0.51 180 01:18 27.02.2021
2096 Clear 3 1035 93 10000 0.51 0 23:58 26.02.2021
2097 Clear 3 1035 93 10000 0.51 240 23:40 26.02.2021
2098 Clear 3 1035 93 10000 0.51 240 23:18 26.02.2021
2099 Clouds 3 1035 100 10000 0.51 0 22:31 26.02.2021
2100 Clear 4 1034 93 10000 0.51 220 21:49 26.02.2021
2101 Clear 4 1034 87 10000 1.03 0 21:31 26.02.2021
2102 Clear 5 1034 93 10000 0.51 0 20:45 26.02.2021
2103 Clear 5 1034 93 10000 0.51 0 20:24 26.02.2021
2104 Clouds 6 1034 93 10000 0.51 0 19:53 26.02.2021
2105 Clear 6 1033 87 10000 1.54 180 19:26 26.02.2021
2106 Clouds 6 1033 81 10000 1.03 0 18:49 26.02.2021
2107 Clouds 7 1033 76 10000 1.03 0 18:24 26.02.2021
2108 Clouds 7 1033 76 10000 1.54 0 17:48 26.02.2021
2109 Clouds 7 1033 81 10000 2.06 40 17:30 26.02.2021
2110 Clouds 8 1033 81 10000 3.09 30 16:58 26.02.2021
2111 Clouds 8 1033 81 10000 3.09 30 16:40 26.02.2021
2112 Clouds 8 1033 81 10000 3.09 30 16:40 26.02.2021
2113 Clouds 8 1033 76 10000 3.09 20 16:22 26.02.2021
2114 Clouds 7 1032 76 10000 5.14 10 15:43 26.02.2021
2115 Clouds 7 1033 81 10000 5.14 360 15:23 26.02.2021
2116 Rain 7 1032 76 10000 6.17 20 14:52 26.02.2021
2117 Rain 7 1032 76 10000 6.17 20 14:34 26.02.2021
2118 Rain 7 1032 81 10000 6.69 20 13:49 26.02.2021
2119 Rain 7 1032 87 10000 5.14 20 13:30 26.02.2021
2120 Clouds 8 1032 87 10000 6.17 20 12:50 26.02.2021
2121 Rain 8 1032 87 10000 2.57 10 12:26 26.02.2021
2122 Clouds 8 1031 81 10000 3.6 20 11:42 26.02.2021
2123 Clouds 8 1030 81 10000 1.03 0 10:58 26.02.2021
2124 Clouds 8 1030 76 10000 0.51 0 10:25 26.02.2021
2125 Clouds 8 1030 81 10000 1.03 0 09:47 26.02.2021
2126 Clouds 7 1030 81 10000 1.03 0 09:27 26.02.2021
2127 Clear 8 1030 81 10000 1.54 300 08:36 26.02.2021
2128 Clear 7 1029 87 10000 0.51 0 07:57 26.02.2021
2129 Clear 6 1029 87 10000 1.03 0 07:22 26.02.2021
2130 Clear 6 1028 87 10000 1.03 0 06:32 26.02.2021
2131 Clear 6 1028 93 10000 3.09 190 05:19 26.02.2021
2132 Clear 6 1028 87 10000 2.06 220 02:39 26.02.2021
2133 Clear 7 1028 87 10000 0.51 0 00:33 26.02.2021
2134 Clear 8 1028 87 10000 1.03 0 23:40 25.02.2021
2135 Clear 8 1028 81 10000 1.54 200 23:19 25.02.2021
2136 Clear 9 1027 76 10000 1.03 150 22:38 25.02.2021
2137 Clear 9 1027 76 10000 0.51 0 21:54 25.02.2021
2138 Clear 9 1027 76 10000 0.51 0 21:54 25.02.2021
2139 Clear 10 1027 71 10000 1.03 190 21:33 25.02.2021
2140 Clear 10 1028 76 10000 0.51 0 20:57 25.02.2021
2141 Clear 10 1028 76 10000 0.51 0 20:37 25.02.2021
2142 Clear 11 1027 71 10000 1.03 0 20:19 25.02.2021
2143 Clear 12 1027 66 10000 0.51 140 19:49 25.02.2021
2144 Clear 13 1027 58 10000 1.54 280 19:21 25.02.2021
2145 Clear 13 1027 54 10000 1.03 0 18:48 25.02.2021
2146 Clear 15 1027 47 10000 2.06 170 18:19 25.02.2021
2147 Clear 16 1027 42 10000 1.03 170 17:42 25.02.2021
2148 Clear 17 1027 37 10000 2.57 210 17:23 25.02.2021
2149 Clear 17 1027 37 10000 2.06 220 16:42 25.02.2021
2150 Clear 17 1027 37 10000 3.09 210 16:24 25.02.2021
2151 Clear 17 1027 36 10000 3.09 220 15:30 25.02.2021
2152 Clear 17 1027 36 10000 3.6 230 14:49 25.02.2021
2153 Clear 17 1028 36 10000 2.57 230 14:22 25.02.2021
2154 Clear 16 1028 39 10000 2.06 220 13:50 25.02.2021
2155 Clear 16 1028 42 10000 2.57 200 13:25 25.02.2021
2156 Clear 16 1029 44 10000 2.06 200 12:50 25.02.2021
2157 Clear 15 1029 47 10000 2.57 220 12:21 25.02.2021
2158 Clear 14 1029 58 10000 3.09 190 11:45 25.02.2021
2159 Clear 13 1029 62 10000 3.09 210 11:19 25.02.2021
2160 Clear 11 1029 71 10000 2.57 220 10:44 25.02.2021
2161 Clear 10 1029 87 10000 1.03 0 09:59 25.02.2021
2162 Clear 10 1029 87 10000 1.03 0 09:40 25.02.2021
2163 Clear 7 1029 93 10000 0.51 0 08:54 25.02.2021
2164 Clear 6 1029 93 10000 0.51 0 08:23 25.02.2021
2165 Clouds 5 1028 93 10000 0.51 0 07:52 25.02.2021
2166 Clouds 5 1028 93 10000 1.03 0 07:29 25.02.2021
2167 Clear 5 1029 100 10000 0.51 0 06:51 25.02.2021
2168 Clear 8 1029 100 10000 1.03 230 01:57 25.02.2021
2169 Clear 8 1029 100 10000 1.03 230 01:37 25.02.2021
2170 Clear 9 1029 100 10000 1.03 0 00:39 25.02.2021
2171 Clear 9 1029 93 10000 1.03 90 23:51 24.02.2021
2172 Clear 10 1029 93 10000 0.51 280 23:24 24.02.2021
2173 Clear 11 1029 93 10000 0.51 0 22:44 24.02.2021
2174 Clear 10 1029 87 10000 1.03 0 22:25 24.02.2021
2175 Clear 11 1029 87 10000 1.03 0 21:45 24.02.2021
2176 Clear 12 1030 81 10000 0.51 310 20:56 24.02.2021
2177 Clear 12 1030 76 10000 0.51 0 20:37 24.02.2021
2178 Clear 12 1030 76 10000 0.51 0 20:18 24.02.2021
2179 Clear 13 1030 76 10000 0.51 0 19:29 24.02.2021
2180 Clear 14 1030 67 10000 0.51 0 18:59 24.02.2021
2181 Clear 14 1030 67 10000 0.51 0 18:34 24.02.2021
2182 Clear 17 1030 52 10000 0.51 270 17:56 24.02.2021
2183 Clear 17 1030 52 10000 0.51 270 17:37 24.02.2021
2184 Clear 17 1030 52 10000 1.54 190 17:18 24.02.2021
2185 Clear 17 1030 48 10000 2.06 200 16:43 24.02.2021
2186 Clear 17 1030 52 10000 2.57 180 16:19 24.02.2021
2187 Clear 17 1031 52 10000 3.09 210 15:40 24.02.2021
2188 Clear 17 1031 52 10000 1.54 230 14:55 24.02.2021
2189 Clear 17 1031 52 10000 1.54 230 14:35 24.02.2021
2190 Clear 17 1032 55 10000 3.09 210 13:58 24.02.2021
2191 Clear 17 1032 55 10000 3.09 210 13:39 24.02.2021
2192 Clear 17 1032 55 10000 1.54 220 13:21 24.02.2021
2193 Clear 16 1033 59 10000 1.54 0 12:44 24.02.2021
2194 Clear 16 1033 59 10000 1.54 0 12:44 24.02.2021
2195 Clear 15 1033 58 10000 2.06 240 12:24 24.02.2021
2196 Clear 14 1033 62 10000 2.06 200 11:46 24.02.2021
2197 Clear 13 1034 66 10000 4.12 190 10:57 24.02.2021
2198 Clear 12 1034 66 10000 4.12 190 10:32 24.02.2021
2199 Clear 10 1034 81 10000 2.06 190 09:46 24.02.2021
2200 Clear 8 1034 93 10000 1.03 0 09:20 24.02.2021
2201 Clear 7 1034 93 10000 1.03 180 08:34 24.02.2021
2202 Clear 7 1033 100 10000 1.03 280 07:57 24.02.2021
2203 Clear 6 1033 100 10000 0.51 0 07:20 24.02.2021
2204 Clear 6 1034 100 10000 0.51 0 06:31 24.02.2021
2205 Clear 7 1034 100 10000 1.03 90 03:31 24.02.2021
2206 Clear 9 1033 87 10000 0.51 0 00:37 24.02.2021
2207 Clear 10 1034 87 10000 0.51 0 23:29 23.02.2021
2208 Clear 10 1034 81 10000 0.51 0 22:40 23.02.2021
2209 Clear 10 1034 81 10000 0.51 0 22:40 23.02.2021
2210 Clear 10 1034 81 10000 1.54 330 22:20 23.02.2021
2211 Clear 10 1034 81 10000 1.54 330 22:20 23.02.2021
2212 Clear 11 1033 76 10000 1.54 0 21:44 23.02.2021
2213 Clear 11 1033 71 10000 3.09 180 21:24 23.02.2021
2214 Clear 12 1033 67 10000 3.09 190 20:49 23.02.2021
2215 Clear 13 1033 62 10000 4.12 180 20:30 23.02.2021
2216 Clear 13 1033 62 10000 4.12 180 20:30 23.02.2021
2217 Clear 14 1033 62 10000 3.6 180 19:49 23.02.2021
2218 Clear 13 1032 62 10000 3.6 170 19:29 23.02.2021
2219 Clear 15 1032 55 10000 3.09 170 18:59 23.02.2021
2220 Clear 15 1032 55 10000 3.09 170 18:41 23.02.2021
2221 Clear 15 1032 55 10000 3.09 180 18:20 23.02.2021
2222 Clear 16 1032 55 10000 2.57 180 17:46 23.02.2021
2223 Clear 17 1032 52 10000 3.6 190 17:18 23.02.2021
2224 Clear 18 1032 48 10000 3.6 190 16:43 23.02.2021
2225 Clear 18 1032 48 10000 4.12 200 16:20 23.02.2021
2226 Clear 17 1032 52 10000 3.6 190 15:42 23.02.2021
2227 Clear 17 1032 48 10000 3.6 180 15:23 23.02.2021
2228 Clear 17 1033 51 10000 2.06 190 14:46 23.02.2021
2229 Clear 17 1033 51 10000 3.6 210 14:26 23.02.2021
2230 Clear 16 1033 55 10000 3.09 220 13:56 23.02.2021
2231 Clear 15 1033 55 10000 3.09 220 13:34 23.02.2021
2232 Clear 14 1034 58 10000 2.57 210 12:56 23.02.2021
2233 Clear 13 1034 62 10000 3.6 210 12:23 23.02.2021
2234 Clear 12 1034 66 10000 2.57 220 11:51 23.02.2021
2235 Clear 11 1034 66 10000 4.12 200 11:25 23.02.2021
2236 Clear 10 1033 71 10000 3.6 200 10:53 23.02.2021
2237 Clear 9 1033 76 10000 3.09 210 10:35 23.02.2021
2238 Clear 8 1033 87 10000 1.54 200 09:55 23.02.2021
2239 Clear 8 1033 87 10000 1.54 200 09:36 23.02.2021
2240 Clear 6 1033 87 10000 0.51 0 09:18 23.02.2021
2241 Clear 6 1033 87 10000 1.03 210 08:40 23.02.2021
2242 Clear 5 1033 93 10000 0.51 0 08:20 23.02.2021
2243 Clear 5 1032 87 10000 0.51 0 06:52 23.02.2021
2244 Clear 5 1031 87 10000 1.42 196 05:22 23.02.2021
2245 Clear 5 1030 87 10000 2.06 60 02:37 23.02.2021
2246 Clear 5 1030 87 10000 1.54 70 01:55 23.02.2021
2247 Clear 5 1029 87 10000 1.03 90 00:19 23.02.2021
2248 Clear 6 1028 87 10000 2.06 50 23:25 22.02.2021
2249 Clear 6 1028 87 10000 1.54 60 22:42 22.02.2021
2250 Clear 6 1027 87 10000 3.09 60 22:21 22.02.2021
2251 Clear 7 1027 81 10000 2.06 60 21:56 22.02.2021
2252 Clear 7 1027 81 10000 2.06 60 21:37 22.02.2021
2253 Clear 6 1026 87 10000 3.09 70 21:19 22.02.2021
2254 Clear 7 1026 76 10000 2.57 60 20:42 22.02.2021
2255 Clear 7 1026 76 10000 2.57 60 20:23 22.02.2021
2256 Clear 8 1026 76 10000 3.09 50 19:39 22.02.2021
2257 Clear 8 1025 76 10000 2.57 70 19:21 22.02.2021
2258 Clear 8 1025 71 10000 3.09 70 18:46 22.02.2021
2259 Clear 9 1024 71 10000 4.12 60 18:28 22.02.2021
2260 Clear 10 1024 66 10000 3.09 90 17:48 22.02.2021
2261 Clear 11 1024 62 10000 3.09 90 17:19 22.02.2021
2262 Clear 11 1024 66 10000 3.09 90 16:48 22.02.2021
2263 Clear 12 1023 62 10000 2.57 80 16:29 22.02.2021
2264 Clear 11 1023 66 10000 2.06 70 15:31 22.02.2021
2265 Clear 11 1023 66 10000 2.57 70 14:53 22.02.2021
2266 Clear 11 1023 62 10000 2.06 70 14:35 22.02.2021
2267 Clear 10 1023 66 10000 2.06 80 13:51 22.02.2021
2268 Clear 10 1023 66 10000 2.06 90 13:31 22.02.2021
2269 Clear 9 1023 66 10000 2.57 70 12:47 22.02.2021
2270 Clear 9 1023 66 10000 2.57 50 12:23 22.02.2021
2271 Clear 9 1023 71 10000 3.09 80 11:51 22.02.2021
2272 Clear 8 1023 76 10000 3.09 70 11:29 22.02.2021
2273 Clear 7 1023 76 10000 4.12 90 10:54 22.02.2021
2274 Clear 7 1023 76 10000 4.12 90 10:36 22.02.2021
2275 Clear 7 1022 81 10000 3.09 70 10:18 22.02.2021
2276 Clear 6 1022 81 10000 2.57 50 09:37 22.02.2021
2277 Clear 6 1022 81 10000 2.57 50 09:18 22.02.2021
2278 Clear 4 1022 87 10000 3.09 50 08:44 22.02.2021
2279 Clear 4 1021 87 10000 3.09 40 08:20 22.02.2021
2280 Clear 3 1021 93 10000 2.06 30 07:42 22.02.2021
2281 Clear 3 1021 93 10000 2.57 40 07:20 22.02.2021
2282 Clear 3 1020 87 10000 2.06 50 06:25 22.02.2021
2283 Clear 5 1019 81 10000 3.6 40 03:49 22.02.2021
2284 Clear 5 1019 76 10000 4.12 10 03:22 22.02.2021
2285 Clear 6 1018 76 10000 5.14 30 00:54 22.02.2021
2286 Clear 7 1017 71 10000 4.12 20 00:28 22.02.2021
2287 Clear 8 1017 66 10000 3.6 10 23:55 21.02.2021
2288 Clear 8 1017 71 10000 3.09 10 23:23 21.02.2021
2289 Clear 9 1017 71 10000 3.6 30 22:28 21.02.2021
2290 Clear 9 1017 71 10000 3.6 20 21:52 21.02.2021
2291 Clear 10 1017 66 10000 3.09 30 21:33 21.02.2021
2292 Clear 10 1017 71 10000 3.6 20 20:58 21.02.2021
2293 Clear 11 1017 66 10000 4.12 40 20:36 21.02.2021
2294 Clear 11 1017 66 10000 4.12 40 20:18 21.02.2021
2295 Clear 11 1016 62 10000 3.6 60 19:43 21.02.2021
2296 Clear 12 1016 54 10000 3.6 70 19:23 21.02.2021
2297 Clear 13 1016 47 10000 3.09 60 18:29 21.02.2021
2298 Clear 14 1016 44 10000 1.54 20 17:59 21.02.2021
2299 Clear 15 1016 39 10000 2.06 40 17:27 21.02.2021
2300 Clear 16 1016 39 10000 2.57 30 16:53 21.02.2021
2301 Clear 16 1016 39 10000 1.54 70 16:32 21.02.2021
2302 Clear 16 1016 39 10000 1.54 40 15:47 21.02.2021
2303 Clear 15 1017 42 10000 0.51 0 15:20 21.02.2021
2304 Clear 15 1017 48 10000 1.03 0 14:42 21.02.2021
2305 Clear 14 1017 47 10000 1.03 0 14:21 21.02.2021
2306 Clear 13 1018 51 10000 2.06 30 13:46 21.02.2021
2307 Clear 13 1018 54 10000 1.54 320 13:23 21.02.2021
2308 Clear 13 1018 58 10000 1.54 210 12:31 21.02.2021
2309 Clear 11 1018 66 10000 2.57 200 11:45 21.02.2021
2310 Clear 9 1019 71 10000 1.54 80 10:59 21.02.2021
2311 Clear 8 1018 76 10000 1.54 110 10:24 21.02.2021
2312 Clear 7 1018 87 10000 1.03 0 09:57 21.02.2021
2313 Clear 6 1018 93 10000 1.03 0 09:31 21.02.2021
2314 Clear 4 1018 93 10000 0.51 0 08:59 21.02.2021
2315 Clear 3 1018 100 10000 1.03 250 08:30 21.02.2021
2316 Clear 3 1017 93 10000 0.51 0 07:37 21.02.2021
2317 Clear 4 1017 93 10000 0.51 0 06:59 21.02.2021
2318 Clear 5 1017 93 10000 1.03 80 04:44 21.02.2021
2319 Clear 6 1017 93 10000 0.51 0 02:31 21.02.2021
2320 Clear 6 1017 93 10000 0.51 0 00:47 21.02.2021
2321 Clear 6 1017 93 10000 1.54 60 00:20 21.02.2021
2322 Clear 7 1016 87 10000 1.03 0 23:28 20.02.2021
2323 Clear 7 1016 87 10000 0.51 0 22:47 20.02.2021
2324 Clear 7 1016 93 10000 1.54 0 22:27 20.02.2021
2325 Clear 7 1016 81 10000 1.03 220 21:45 20.02.2021
2326 Clear 8 1016 81 10000 0.51 0 21:26 20.02.2021
2327 Clear 9 1016 81 10000 1.03 360 20:51 20.02.2021
2328 Clear 9 1016 76 10000 1.03 0 20:30 20.02.2021
2329 Clear 9 1016 76 10000 1.03 0 19:53 20.02.2021
2330 Clear 9 1016 76 10000 1.03 0 19:33 20.02.2021
2331 Clear 11 1016 66 10000 1.03 0 18:46 20.02.2021
2332 Clear 13 1015 54 10000 2.06 0 18:27 20.02.2021
2333 Clear 14 1016 54 10000 3.09 160 17:43 20.02.2021
2334 Clear 14 1016 48 10000 3.6 180 17:25 20.02.2021
2335 Clear 16 1016 48 10000 3.6 170 16:44 20.02.2021
2336 Clear 15 1016 48 10000 3.09 180 16:22 20.02.2021
2337 Clear 14 1016 51 10000 4.12 170 15:38 20.02.2021
2338 Clear 14 1016 51 10000 3.09 170 14:50 20.02.2021
2339 Clear 14 1017 55 10000 3.09 200 14:25 20.02.2021
2340 Clear 13 1017 58 10000 2.06 220 13:53 20.02.2021
2341 Clear 13 1017 62 10000 2.06 160 13:28 20.02.2021
2342 Clear 12 1018 67 10000 3.09 140 12:53 20.02.2021
2343 Clear 11 1018 66 10000 3.6 140 12:33 20.02.2021
2344 Clear 10 1019 71 10000 1.03 0 11:49 20.02.2021
2345 Clear 10 1019 71 10000 0.51 0 11:30 20.02.2021
2346 Clear 10 1019 76 10000 0.51 0 10:50 20.02.2021
2347 Clear 9 1019 81 10000 0.51 0 10:21 20.02.2021
2348 Clear 7 1019 87 10000 0.51 0 09:46 20.02.2021
2349 Clear 5 1019 100 10000 0.51 0 08:56 20.02.2021
2350 Clear 4 1018 93 10000 1.03 0 08:24 20.02.2021
2351 Clear 5 1018 93 10000 1.03 0 05:45 20.02.2021
2352 Clear 6 1018 93 10000 1.03 70 02:32 20.02.2021
2353 Clear 6 1018 93 10000 1.03 0 01:56 20.02.2021
2354 Clear 5 1018 93 10000 1.03 90 01:18 20.02.2021
2355 Clear 5 1018 93 10000 1.03 90 01:18 20.02.2021
2356 Clear 6 1018 87 10000 1.03 60 00:37 20.02.2021
2357 Clear 6 1018 100 10000 1.03 30 23:30 19.02.2021
2358 Clear 5 1018 93 10000 1.03 0 22:47 19.02.2021
2359 Clear 6 1018 93 10000 0.51 230 22:20 19.02.2021
2360 Clear 4 1018 93 10000 0.51 0 21:44 19.02.2021
2361 Clear 6 1018 87 10000 1.03 0 21:25 19.02.2021
2362 Clear 5 1018 87 10000 1.03 0 20:44 19.02.2021
2363 Clear 5 1018 87 10000 0.51 0 20:26 19.02.2021
2364 Clear 7 1018 87 10000 2.06 140 19:49 19.02.2021
2365 Clear 7 1018 81 10000 2.06 140 19:20 19.02.2021
2366 Clouds 8 1018 81 10000 1.03 160 18:51 19.02.2021
2367 Clouds 9 1018 71 10000 1.54 190 18:28 19.02.2021
2368 Clouds 9 1018 66 10000 1.54 150 17:45 19.02.2021
2369 Clouds 10 1018 62 10000 4.12 180 16:46 19.02.2021
2370 Clouds 11 1018 66 10000 3.09 170 16:23 19.02.2021
2371 Clouds 11 1018 62 10000 3.09 200 15:56 19.02.2021
2372 Clouds 11 1018 62 10000 2.57 200 15:30 19.02.2021
2373 Clouds 11 1019 66 10000 3.09 180 14:55 19.02.2021
2374 Clouds 11 1019 66 10000 3.09 180 14:35 19.02.2021
2375 Clouds 11 1019 62 10000 3.6 210 13:57 19.02.2021
2376 Clouds 11 1019 62 10000 3.6 210 13:37 19.02.2021
2377 Clouds 10 1020 62 10000 3.09 200 12:59 19.02.2021
2378 Clouds 10 1020 62 10000 3.09 200 12:41 19.02.2021
2379 Clouds 9 1020 71 10000 2.06 0 12:20 19.02.2021
2380 Clouds 9 1020 66 10000 2.06 290 11:44 19.02.2021
2381 Clouds 8 1020 71 10000 1.54 0 11:19 19.02.2021
2382 Clouds 7 1020 81 10000 0.51 0 10:38 19.02.2021
2383 Clouds 7 1020 76 10000 1.03 0 10:19 19.02.2021
2384 Clouds 6 1020 81 10000 1.03 0 09:37 19.02.2021
2385 Clouds 6 1020 81 10000 1.03 0 09:37 19.02.2021
2386 Clouds 6 1020 81 10000 1.03 0 09:37 19.02.2021
2387 Clear 4 1020 87 10000 1.54 260 09:18 19.02.2021
2388 Clear 3 1019 93 10000 2.06 200 08:42 19.02.2021
2389 Clear 2 1019 100 10000 1.54 220 08:21 19.02.2021
2390 Clear 3 1019 93 10000 1.54 200 07:47 19.02.2021
2391 Clear 2 1019 93 10000 2.06 170 07:26 19.02.2021
2392 Clear 1 1019 100 10000 3.09 160 06:47 19.02.2021
2393 Clear 4 1017 87 10000 2.06 310 04:42 19.02.2021
2394 Clear 6 1017 81 10000 4.63 230 03:32 19.02.2021
2395 Clear 7 1015 81 10000 3.6 230 01:46 19.02.2021
2396 Clouds 9 1014 81 10000 5.66 250 00:36 19.02.2021
2397 Clouds 9 1013 81 10000 4.12 230 23:50 18.02.2021
2398 Rain 9 1013 81 10000 4.12 230 23:32 18.02.2021
2399 Clouds 8 1012 87 10000 4.63 210 22:44 18.02.2021
2400 Clouds 6 1011 93 10000 2.57 210 22:26 18.02.2021
2401 Rain 7 1011 93 10000 1.03 0 21:45 18.02.2021
2402 Clear 5 1010 93 10000 1.03 0 21:24 18.02.2021
2403 Clear 5 1010 93 10000 0.51 0 20:41 18.02.2021
2404 Clear 5 1010 93 10000 1.03 200 20:23 18.02.2021
2405 Clear 5 1011 93 10000 1.54 240 19:46 18.02.2021
2406 Clear 6 1010 93 10000 1.03 0 19:25 18.02.2021
2407 Clear 7 1011 87 10000 1.03 0 18:52 18.02.2021
2408 Clear 8 1011 87 10000 1.54 340 18:27 18.02.2021
2409 Clear 8 1011 87 10000 1.54 310 17:52 18.02.2021
2410 Clouds 8 1012 87 10000 0.51 0 17:25 18.02.2021
2411 Clouds 8 1012 76 10000 1.54 320 16:52 18.02.2021
2412 Clouds 8 1012 76 10000 1.54 320 16:34 18.02.2021
2413 Rain 9 1012 71 10000 1.54 40 15:55 18.02.2021
2414 Clear 10 1013 66 10000 1.54 40 15:36 18.02.2021
2415 Clear 10 1013 66 10000 1.54 40 15:18 18.02.2021
2416 Clear 9 1013 71 10000 2.57 40 14:42 18.02.2021
2417 Clear 9 1014 66 10000 1.54 80 14:23 18.02.2021
2418 Clear 9 1015 66 10000 1.03 0 13:44 18.02.2021
2419 Clear 9 1015 71 10000 1.03 0 13:18 18.02.2021
2420 Clear 8 1015 76 10000 1.03 0 12:44 18.02.2021
2421 Clear 7 1015 81 10000 1.03 0 12:22 18.02.2021
2422 Clear 7 1016 87 10000 1.03 0 11:46 18.02.2021
2423 Clear 6 1016 81 10000 1.54 100 11:25 18.02.2021
2424 Clear 6 1016 93 10000 1.54 50 10:45 18.02.2021
2425 Clear 5 1016 87 10000 2.06 60 10:27 18.02.2021
2426 Clouds 4 1017 93 10000 0.51 0 09:46 18.02.2021
2427 Clouds 3 1017 93 10000 0.51 0 09:24 18.02.2021
2428 Clouds 3 1017 93 10000 1.03 60 08:47 18.02.2021
2429 Clouds 2 1017 100 10000 1.54 350 08:25 18.02.2021
2430 Clouds 2 1017 93 10000 1.54 230 07:34 18.02.2021
2431 Clouds 2 1017 100 10000 0.51 340 06:54 18.02.2021
2432 Clouds 3 1019 93 10000 1.03 70 03:31 18.02.2021
2433 Clear 4 1020 100 10000 1.03 0 23:56 17.02.2021
2434 Clear 4 1020 93 10000 1.54 150 23:30 17.02.2021
2435 Clouds 5 1020 100 10000 1.03 0 22:53 17.02.2021
2436 Clouds 6 1020 93 10000 0.51 340 22:27 17.02.2021
2437 Clouds 6 1020 93 10000 1.03 0 21:57 17.02.2021
2438 Clouds 7 1020 87 10000 2.06 200 21:22 17.02.2021
2439 Clouds 7 1020 81 10000 3.6 210 20:52 17.02.2021
2440 Clouds 7 1020 81 10000 4.12 200 20:32 17.02.2021
2441 Clouds 8 1020 81 10000 3.6 190 19:52 17.02.2021
2442 Clouds 8 1020 81 10000 3.6 190 19:34 17.02.2021
2443 Clouds 8 1020 76 10000 4.12 200 18:50 17.02.2021
2444 Clouds 9 1020 76 10000 2.06 180 18:31 17.02.2021
2445 Clouds 9 1020 66 10000 3.6 220 17:46 17.02.2021
2446 Clouds 10 1020 66 10000 3.6 220 17:21 17.02.2021
2447 Clouds 10 1019 62 10000 5.14 220 16:51 17.02.2021
2448 Clouds 10 1019 62 10000 6.17 230 16:29 17.02.2021
2449 Clouds 10 1019 62 10000 5.66 230 15:46 17.02.2021
2450 Clouds 11 1019 62 10000 5.66 220 15:27 17.02.2021
2451 Clouds 11 1019 62 10000 6.69 230 14:59 17.02.2021
2452 Clouds 11 1019 62 10000 6.69 230 14:39 17.02.2021
2453 Clouds 11 1019 58 10000 6.69 230 14:21 17.02.2021
2454 Clouds 11 1020 66 10000 5.66 220 13:40 17.02.2021
2455 Clouds 10 1020 71 10000 5.66 200 12:58 17.02.2021
2456 Clouds 9 1020 76 10000 5.66 200 12:26 17.02.2021
2457 Clouds 9 1020 76 10000 5.66 210 11:48 17.02.2021
2458 Clouds 8 1020 76 10000 5.66 200 11:29 17.02.2021
2459 Clouds 8 1020 81 10000 5.14 190 10:57 17.02.2021
2460 Clouds 8 1020 81 10000 5.14 190 10:39 17.02.2021
2461 Clouds 7 1020 81 10000 3.6 200 10:20 17.02.2021
2462 Clouds 7 1019 87 10000 4.63 190 09:40 17.02.2021
2463 Clouds 6 1019 87 10000 3.09 210 08:58 17.02.2021
2464 Clouds 6 1019 87 10000 3.09 210 08:37 17.02.2021
2465 Clouds 6 1018 87 10000 2.57 190 08:19 17.02.2021
2466 Clouds 6 1018 93 10000 3.09 190 07:23 17.02.2021
2467 Clouds 6 1016 87 10000 5.14 210 03:54 17.02.2021
2468 Clouds 6 1016 93 10000 5.14 210 02:33 17.02.2021
2469 Clouds 5 1015 93 10000 2.57 210 01:37 17.02.2021
2470 Rain 5 1014 87 10000 4.12 220 00:29 17.02.2021
2471 Rain 5 1014 75 10000 4.12 210 23:50 16.02.2021
2472 Rain 5 1014 75 10000 3.6 210 23:32 16.02.2021
2473 Clear 4 1014 81 10000 3.09 220 22:42 16.02.2021
2474 Clear 3 1014 87 10000 3.6 200 22:23 16.02.2021
2475 Clear 2 1014 93 10000 2.06 210 21:41 16.02.2021
2476 Clear 2 1014 93 10000 1.54 170 21:22 16.02.2021
2477 Clear 3 1014 93 10000 1.54 320 20:58 16.02.2021
2478 Clear 3 1014 93 10000 1.54 320 20:39 16.02.2021
2479 Clear 3 1014 93 10000 0.51 0 20:20 16.02.2021
2480 Clear 4 1015 87 10000 0.51 0 19:40 16.02.2021
2481 Clear 4 1015 87 10000 1.03 0 19:22 16.02.2021
2482 Clear 5 1015 81 10000 1.03 240 18:40 16.02.2021
2483 Clear 5 1015 81 10000 1.03 240 18:21 16.02.2021
2484 Clear 6 1015 75 10000 1.03 0 17:50 16.02.2021
2485 Clear 7 1015 71 10000 1.03 110 17:25 16.02.2021
2486 Clear 9 1016 66 10000 2.06 180 16:51 16.02.2021
2487 Clear 8 1016 62 10000 2.57 170 16:29 16.02.2021
2488 Clear 10 1017 62 10000 2.06 160 15:47 16.02.2021
2489 Clear 8 1018 62 10000 2.57 150 15:26 16.02.2021
2490 Clear 8 1018 62 10000 2.06 130 14:51 16.02.2021
2491 Clear 8 1018 66 10000 2.06 210 14:32 16.02.2021
2492 Clouds 8 1019 66 10000 1.03 0 13:58 16.02.2021
2493 Clouds 8 1019 66 10000 1.03 0 13:35 16.02.2021
2494 Clouds 7 1020 71 10000 1.54 210 12:47 16.02.2021
2495 Clouds 6 1020 76 10000 1.54 220 12:26 16.02.2021
2496 Clouds 5 1021 75 10000 1.54 210 11:55 16.02.2021
2497 Clouds 5 1021 75 10000 1.54 210 11:55 16.02.2021
2498 Clouds 6 1021 75 10000 1.54 210 11:37 16.02.2021
2499 Clouds 5 1021 81 10000 1.03 0 11:18 16.02.2021
2500 Clouds 3 1021 87 10000 1.03 0 10:45 16.02.2021
2501 Clouds 3 1021 93 10000 1.03 300 10:25 16.02.2021
2502 Clouds 3 1022 93 10000 1.54 220 09:48 16.02.2021
2503 Clouds 2 1022 93 8000 0.51 230 09:26 16.02.2021
2504 Clouds 1 1022 100 6000 1.54 240 08:48 16.02.2021
2505 Rain 1 1022 93 6000 1.03 0 08:26 16.02.2021
2506 Rain 1 1022 93 5000 0.51 0 07:32 16.02.2021
2507 Mist 2 1023 93 5000 1.54 260 06:24 16.02.2021
2508 Clouds 2 1025 86 10000 2.06 260 01:52 16.02.2021
2509 Clouds 1 1025 93 10000 2.06 220 23:47 15.02.2021
2510 Rain 1 1025 93 10000 1.03 240 23:26 15.02.2021
2511 Clouds 1 1025 93 10000 1.54 240 22:47 15.02.2021
2512 Rain 1 1026 93 10000 1.03 0 22:25 15.02.2021
2513 Rain 1 1026 93 10000 2.06 330 21:42 15.02.2021
2514 Rain 1 1026 93 10000 1.03 330 21:24 15.02.2021
2515 Rain 1 1026 93 10000 1.03 330 21:24 15.02.2021
2516 Clouds 1 1026 93 10000 2.06 330 20:53 15.02.2021
2517 Rain 1 1026 93 10000 1.03 330 20:35 15.02.2021
2518 Rain 1 1026 93 10000 1.54 350 19:50 15.02.2021
2519 Rain 1 1026 93 10000 1.54 350 19:50 15.02.2021
2520 Rain 1 1026 93 10000 1.54 350 19:50 15.02.2021
2521 Rain 0 1026 93 10000 1.54 310 19:25 15.02.2021
2522 Rain 0 1026 86 10000 1.03 0 18:51 15.02.2021
2523 Rain 1 1026 86 10000 3.15 199 18:27 15.02.2021
2524 Clouds 1 1027 86 10000 1.54 230 17:57 15.02.2021
2525 Rain 0 1027 80 10000 0.51 0 17:39 15.02.2021
2526 Rain 1 1027 80 10000 0.51 0 17:20 15.02.2021
2527 Rain 0 1027 80 10000 1.54 170 16:37 15.02.2021
2528 Snow 0 1028 74 10000 2.06 130 16:18 15.02.2021
2529 Snow 1 1028 60 10000 1.54 170 15:42 15.02.2021
2530 Snow 1 1029 60 10000 2.06 190 15:19 15.02.2021
2531 Snow 1 1029 60 10000 2.57 170 14:44 15.02.2021
2532 Snow 2 1029 51 10000 4.12 180 14:20 15.02.2021
2533 Snow 1 1030 48 10000 3.09 180 13:49 15.02.2021
2534 Snow 1 1030 44 10000 3.6 180 13:20 15.02.2021
2535 Clear 0 1031 44 10000 2.06 190 12:47 15.02.2021
2536 Clear 0 1031 47 10000 1.03 0 12:25 15.02.2021
2537 Snow -1 1031 47 10000 1.03 0 11:51 15.02.2021
2538 Clear -2 1032 51 10000 1.03 0 11:25 15.02.2021
2539 Snow -2 1032 54 10000 1.54 100 10:50 15.02.2021
2540 Snow -2 1032 54 10000 1.54 70 10:30 15.02.2021
2541 Snow -2 1032 54 10000 1.03 0 09:59 15.02.2021
2542 Snow -2 1032 54 10000 1.03 0 09:41 15.02.2021
2543 Snow -2 1032 54 10000 2.06 60 09:22 15.02.2021
2544 Clear -4 1032 54 10000 2.06 50 08:22 15.02.2021
2545 Clear -3 1032 58 10000 2.57 40 07:18 15.02.2021
2546 Clear -3 1032 54 10000 2.57 30 06:41 15.02.2021
2547 Clear -3 1034 68 10000 3.6 60 03:33 15.02.2021
2548 Clear -3 1035 59 10000 3.6 60 02:21 15.02.2021
2549 Clear -2 1036 59 10000 3.09 50 00:19 15.02.2021
2550 Clear -2 1036 59 10000 3.6 50 23:25 14.02.2021
2551 Clear -2 1036 59 10000 4.63 50 22:46 14.02.2021
2552 Clear -2 1036 64 10000 5.14 50 22:27 14.02.2021
2553 Clear -1 1036 64 10000 3.6 60 21:53 14.02.2021
2554 Clear -1 1037 64 10000 3.6 50 21:31 14.02.2021
2555 Clear -1 1037 59 10000 3.09 40 20:55 14.02.2021
2556 Clear -1 1037 55 10000 3.6 60 20:31 14.02.2021
2557 Clear -1 1037 55 10000 3.6 70 19:53 14.02.2021
2558 Clear -1 1037 55 10000 3.6 70 19:35 14.02.2021
2559 Clear 0 1037 51 10000 3.6 90 18:43 14.02.2021
2560 Clear 0 1037 47 10000 4.12 80 18:24 14.02.2021
2561 Clear 1 1037 47 10000 5.14 90 17:45 14.02.2021
2562 Clear 1 1037 44 10000 5.66 80 17:25 14.02.2021
2563 Clear 2 1038 41 10000 6.69 80 16:40 14.02.2021
2564 Clear 3 1038 38 10000 7.2 80 16:21 14.02.2021
2565 Clear 3 1038 38 10000 6.17 80 15:44 14.02.2021
2566 Clear 3 1039 38 10000 5.66 100 14:59 14.02.2021
2567 Clear 3 1039 38 10000 5.66 100 14:33 14.02.2021
2568 Clear 2 1039 41 10000 5.66 80 13:58 14.02.2021
2569 Clear 1 1039 41 10000 5.66 80 13:32 14.02.2021
2570 Clear 0 1040 51 10000 5.66 80 12:58 14.02.2021
2571 Clear -2 1041 55 10000 5.14 80 12:22 14.02.2021
2572 Clear -2 1041 59 10000 4.63 70 11:52 14.02.2021
2573 Clear -3 1041 59 10000 3.6 70 11:26 14.02.2021
2574 Clear -4 1041 63 10000 5.14 60 10:57 14.02.2021
2575 Clear -5 1040 73 10000 5.14 60 09:59 14.02.2021
2576 Clear -6 1041 73 10000 3.6 30 09:40 14.02.2021
2577 Clear -6 1041 73 10000 3.6 30 09:21 14.02.2021
2578 Clear -7 1041 79 10000 2.57 70 08:52 14.02.2021
2579 Clear -7 1040 79 10000 2.06 60 07:58 14.02.2021
2580 Clear -7 1040 79 10000 2.57 70 06:54 14.02.2021
2581 Clear -8 1040 79 10000 3.6 30 05:43 14.02.2021
2582 Clear -7 1040 73 10000 5.14 10 03:51 14.02.2021
2583 Clear -6 1040 79 10000 4.63 70 02:29 14.02.2021
2584 Clear -6 1041 68 10000 5.14 20 00:54 14.02.2021
2585 Clear -6 1041 68 10000 5.14 20 00:34 14.02.2021
2586 Clear -5 1040 68 10000 4.12 360 23:44 13.02.2021
2587 Clear -5 1040 74 10000 4.12 10 23:25 13.02.2021
2588 Clear -5 1040 68 10000 3.6 10 22:49 13.02.2021
2589 Clear -5 1040 63 10000 3.6 20 22:21 13.02.2021
2590 Clear -5 1040 68 10000 4.12 50 21:49 13.02.2021
2591 Clear -5 1040 68 10000 3.6 60 21:22 13.02.2021
2592 Clear -4 1040 63 10000 3.6 60 20:43 13.02.2021
2593 Clear -4 1040 63 10000 3.6 50 20:22 13.02.2021
2594 Clear -3 1039 54 10000 3.09 50 19:47 13.02.2021
2595 Clear -2 1039 50 10000 3.09 70 19:23 13.02.2021
2596 Clear -1 1039 47 10000 2.57 90 18:49 13.02.2021
2597 Clear -1 1038 47 10000 2.57 90 18:24 13.02.2021
2598 Clear -1 1038 47 10000 3.6 110 17:43 13.02.2021
2599 Clear 0 1038 43 10000 4.63 110 17:23 13.02.2021
2600 Clear 0 1038 40 10000 5.14 100 16:48 13.02.2021
2601 Clear 1 1038 40 10000 5.66 90 16:30 13.02.2021
2602 Clouds 1 1038 40 10000 5.66 80 15:43 13.02.2021
2603 Clouds 0 1038 40 10000 5.66 70 15:24 13.02.2021
2604 Clouds 0 1038 43 10000 5.66 70 14:34 13.02.2021
2605 Clouds -1 1039 43 10000 6.17 80 13:49 13.02.2021
2606 Clouds -1 1039 47 10000 6.69 90 13:26 13.02.2021
2607 Clouds -2 1039 51 10000 6.69 50 12:52 13.02.2021
2608 Clouds -2 1039 50 10000 5.66 70 12:21 13.02.2021
2609 Clouds -2 1039 54 10000 5.14 60 11:47 13.02.2021
2610 Clouds -4 1039 59 10000 5.14 50 11:21 13.02.2021
2611 Clear -3 1039 58 10000 4.12 50 10:58 13.02.2021
2612 Clear -3 1039 58 10000 4.12 50 10:40 13.02.2021
2613 Clear -5 1039 63 10000 4.12 40 10:21 13.02.2021
2614 Clear -5 1038 68 10000 3.6 40 09:45 13.02.2021
2615 Clear -7 1038 68 10000 3.09 20 09:22 13.02.2021
2616 Clear -7 1038 68 10000 3.6 20 08:42 13.02.2021
2617 Clear -7 1038 67 10000 3.09 20 07:56 13.02.2021
2618 Clear -8 1038 67 10000 3.09 20 06:50 13.02.2021
2619 Clear -7 1038 67 10000 3.6 20 06:22 13.02.2021
2620 Clear -7 1037 67 10000 2.57 20 04:27 13.02.2021
2621 Clear -7 1036 73 10000 4.63 30 02:25 13.02.2021
2622 Clear -7 1036 68 10000 5.14 40 00:54 13.02.2021
2623 Clear -7 1036 68 10000 5.14 40 00:54 13.02.2021
2624 Clear -7 1035 63 10000 6.17 50 23:55 12.02.2021
2625 Clear -6 1035 63 10000 6.17 50 23:34 12.02.2021
2626 Clear -5 1035 68 10000 5.66 50 22:59 12.02.2021
2627 Clear -5 1034 63 10000 6.69 40 22:30 12.02.2021
2628 Clear -5 1034 63 10000 6.69 40 21:56 12.02.2021
2629 Clear -6 1034 63 10000 6.69 40 21:37 12.02.2021
2630 Clear -5 1034 63 10000 6.69 50 21:18 12.02.2021
2631 Clear -5 1033 63 10000 6.17 50 20:39 12.02.2021
2632 Clear -5 1033 63 10000 6.17 50 20:20 12.02.2021
2633 Clear -4 1033 63 10000 6.17 50 19:49 12.02.2021
2634 Clouds -4 1033 54 10000 6.69 60 19:26 12.02.2021
2635 Clouds -3 1032 50 10000 5.14 70 18:31 12.02.2021
2636 Clouds -2 1032 46 10000 7.2 80 17:53 12.02.2021
2637 Clouds -2 1032 46 10000 7.2 80 17:35 12.02.2021
2638 Clouds -1 1031 47 10000 6.69 80 16:43 12.02.2021
2639 Clouds -1 1031 47 10000 8.75 70 15:48 12.02.2021
2640 Clouds -1 1031 47 10000 8.23 60 15:24 12.02.2021
2641 Clouds -1 1031 51 10000 8.23 60 14:59 12.02.2021
2642 Clouds -2 1031 50 10000 5.66 90 14:32 12.02.2021
2643 Clouds -2 1031 51 10000 8.23 70 13:47 12.02.2021
2644 Clouds -3 1031 54 10000 7.72 60 13:28 12.02.2021
2645 Clouds -3 1031 59 10000 6.69 70 12:53 12.02.2021
2646 Clouds -3 1031 59 10000 6.69 70 12:35 12.02.2021
2647 Clouds -3 1031 59 10000 6.69 60 11:47 12.02.2021
2648 Clouds -4 1031 63 10000 5.66 60 11:20 12.02.2021
2649 Clouds -5 1031 63 10000 5.66 50 10:47 12.02.2021
2650 Clouds -6 1031 63 10000 5.14 50 09:59 12.02.2021
2651 Clouds -6 1031 63 10000 5.14 50 09:39 12.02.2021
2652 Clouds -6 1031 68 10000 5.14 50 09:21 12.02.2021
2653 Clouds -6 1031 73 10000 5.14 50 08:44 12.02.2021
2654 Clouds -7 1031 79 10000 4.63 50 08:21 12.02.2021
2655 Clouds -7 1030 73 10000 3.6 30 07:51 12.02.2021
2656 Clouds -7 1030 73 10000 3.6 30 07:51 12.02.2021
2657 Clouds -7 1030 79 10000 4.12 50 07:21 12.02.2021
2658 Clouds -6 1030 73 10000 4.12 50 06:49 12.02.2021
2659 Clouds -6 1031 74 10000 3.6 50 05:29 12.02.2021
2660 Clouds -6 1030 73 10000 4.12 30 03:35 12.02.2021
2661 Clouds -6 1030 74 10000 4.63 10 00:32 12.02.2021
2662 Clouds -6 1030 68 10000 4.12 20 23:38 11.02.2021
2663 Clouds -6 1030 68 10000 4.63 20 23:18 11.02.2021
2664 Clouds -5 1030 68 10000 4.63 20 22:42 11.02.2021
2665 Clouds -5 1030 68 10000 4.63 20 22:22 11.02.2021
2666 Clouds -5 1030 68 10000 3.6 20 21:43 11.02.2021
2667 Clouds -5 1030 74 10000 3.09 60 21:24 11.02.2021
2668 Clouds -5 1030 74 10000 2.57 60 20:56 11.02.2021
2669 Clouds -5 1030 74 10000 2.57 30 20:37 11.02.2021
2670 Clouds -5 1030 74 10000 2.57 30 20:18 11.02.2021
2671 Clouds -4 1030 74 10000 3.09 20 19:46 11.02.2021
2672 Clouds -3 1030 63 10000 2.57 20 19:25 11.02.2021
2673 Clouds -3 1030 68 10000 2.57 40 18:42 11.02.2021
2674 Clouds -2 1029 64 10000 2.57 70 18:20 11.02.2021
2675 Clouds -2 1029 64 10000 3.09 80 17:47 11.02.2021
2676 Clouds -1 1029 59 10000 3.6 70 17:21 11.02.2021
2677 Clouds -1 1029 59 10000 3.09 50 16:45 11.02.2021
2678 Clouds -1 1029 59 10000 3.6 30 16:26 11.02.2021
2679 Clouds -1 1029 59 10000 3.6 40 15:45 11.02.2021
2680 Clouds -1 1028 59 10000 3.6 50 15:26 11.02.2021
2681 Clouds -1 1028 64 10000 3.6 50 14:56 11.02.2021
2682 Clouds -1 1028 69 10000 3.09 60 14:31 11.02.2021
2683 Clouds -2 1028 64 10000 3.09 60 13:44 11.02.2021
2684 Clouds -2 1028 69 10000 2.57 60 13:21 11.02.2021
2685 Clouds -2 1028 69 10000 2.57 50 12:56 11.02.2021
2686 Clouds -3 1029 74 10000 2.57 50 12:35 11.02.2021
2687 Clouds -4 1028 68 10000 2.57 90 11:49 11.02.2021
2688 Clouds -4 1028 74 10000 1.03 0 11:29 11.02.2021
2689 Clouds -5 1028 80 10000 0.51 0 10:57 11.02.2021
2690 Clouds -5 1028 80 10000 0.51 240 10:39 11.02.2021
2691 Clouds -5 1028 80 10000 0.51 240 10:21 11.02.2021
2692 Clouds -7 1028 79 10000 1.03 90 09:38 11.02.2021
2693 Clouds -8 1027 86 10000 1.03 70 09:19 11.02.2021
2694 Clouds -8 1027 86 10000 1.03 70 09:19 11.02.2021
2695 Clouds -8 1027 86 10000 1.54 100 08:46 11.02.2021
2696 Clouds -8 1026 86 10000 0.51 0 07:53 11.02.2021
2697 Snow -8 1025 86 4800 0.51 0 06:46 11.02.2021
2698 Snow -8 1025 86 10000 1.03 90 06:23 11.02.2021
2699 Snow -8 1023 86 10000 1.03 0 03:47 11.02.2021
2700 Clouds -7 1021 86 10000 1.54 220 02:26 11.02.2021
2701 Clouds -7 1020 86 10000 0.51 0 00:24 11.02.2021
2702 Clouds -7 1019 86 10000 1.03 0 23:59 10.02.2021
2703 Clouds -8 1019 86 10000 1.03 0 23:35 10.02.2021
2704 Clouds -7 1019 86 10000 1.54 20 22:48 10.02.2021
2705 Clouds -7 1018 79 10000 2.57 20 22:25 10.02.2021
2706 Clouds -6 1017 79 10000 3.09 30 21:40 10.02.2021
2707 Clouds -6 1017 79 10000 3.09 30 21:40 10.02.2021
2708 Clouds -5 1017 68 10000 3.6 30 21:22 10.02.2021
2709 Clouds -5 1016 68 10000 4.12 20 20:58 10.02.2021
2710 Clouds -5 1016 68 10000 4.12 20 20:39 10.02.2021
2711 Clouds -5 1016 68 10000 2.57 360 20:19 10.02.2021
2712 Clouds -5 1016 68 10000 3.6 30 19:42 10.02.2021
2713 Clouds -5 1015 68 10000 4.12 360 19:21 10.02.2021
2714 Clouds -4 1014 68 10000 5.14 10 18:39 10.02.2021
2715 Clouds -4 1014 68 10000 5.14 10 18:18 10.02.2021
2716 Clouds -5 1013 63 10000 5.66 20 17:49 10.02.2021
2717 Clouds -4 1013 58 10000 6.17 10 17:21 10.02.2021
2718 Clouds -4 1012 58 10000 6.69 30 16:49 10.02.2021
2719 Clouds -4 1012 58 10000 6.69 30 16:29 10.02.2021
2720 Clouds -5 1011 58 10000 7.72 10 15:44 10.02.2021
2721 Clouds -5 1011 58 10000 7.72 10 15:22 10.02.2021
2722 Clouds -5 1010 58 10000 7.72 20 14:41 10.02.2021
2723 Clouds -5 1010 58 10000 7.72 20 14:19 10.02.2021
2724 Clouds -6 1010 63 10000 7.72 30 13:50 10.02.2021
2725 Clouds -6 1009 58 10000 7.72 20 13:27 10.02.2021
2726 Clouds -7 1009 63 10000 6.17 20 12:46 10.02.2021
2727 Clouds -8 1009 67 10000 7.2 20 12:28 10.02.2021
2728 Clear -7 1009 62 10000 7.72 20 11:47 10.02.2021
2729 Clear -8 1008 67 10000 6.69 30 11:28 10.02.2021
2730 Clear -8 1008 67 10000 6.69 30 10:47 10.02.2021
2731 Clear -9 1007 67 10000 5.66 30 10:19 10.02.2021
2732 Clouds -9 1007 73 10000 7.2 30 09:43 10.02.2021
2733 Clouds -9 1007 67 10000 7.2 30 09:21 10.02.2021
2734 Clouds -9 1006 67 10000 6.17 40 08:50 10.02.2021
2735 Clouds -10 1006 67 10000 5.66 40 08:29 10.02.2021
2736 Clouds -10 1006 67 10000 5.66 20 07:18 10.02.2021
2737 Clouds -10 1005 67 10000 5.66 30 04:47 10.02.2021
2738 Clouds -10 1007 67 10000 4.63 30 00:51 10.02.2021
2739 Clouds -9 1007 67 10000 4.12 10 23:40 09.02.2021
2740 Clouds -9 1007 67 10000 4.12 10 23:19 09.02.2021
2741 Clouds -9 1007 67 10000 4.63 10 22:41 09.02.2021
2742 Clouds -8 1007 67 10000 3.6 10 22:23 09.02.2021
2743 Clouds -7 1007 62 10000 3.09 30 21:40 09.02.2021
2744 Clouds -8 1007 62 10000 3.6 30 21:19 09.02.2021
2745 Clouds -8 1008 62 10000 3.6 50 20:41 09.02.2021
2746 Clouds -7 1007 67 10000 4.12 40 20:23 09.02.2021
2747 Clouds -7 1007 63 10000 4.12 20 19:40 09.02.2021
2748 Clouds -7 1007 68 10000 5.66 30 19:21 09.02.2021
2749 Clouds -7 1007 63 10000 5.14 40 18:43 09.02.2021
2750 Clouds -6 1007 68 10000 5.14 40 18:25 09.02.2021
2751 Snow -6 1007 63 10000 5.14 40 17:47 09.02.2021
2752 Clouds -6 1007 63 10000 4.12 30 17:26 09.02.2021
2753 Clouds -6 1006 63 10000 4.12 30 16:52 09.02.2021
2754 Clouds -6 1007 63 10000 4.12 30 16:19 09.02.2021
2755 Clouds -6 1006 63 10000 4.12 50 15:51 09.02.2021
2756 Clouds -6 1006 58 10000 4.12 20 15:29 09.02.2021
2757 Clouds -6 1006 58 10000 3.09 30 14:59 09.02.2021
2758 Clouds -6 1006 54 10000 3.09 30 14:36 09.02.2021
2759 Clouds -6 1006 54 10000 3.09 30 14:18 09.02.2021
2760 Clouds -6 1006 58 10000 3.6 30 13:40 09.02.2021
2761 Clouds -7 1006 58 10000 4.63 40 13:20 09.02.2021
2762 Clouds -7 1006 63 10000 4.12 40 12:43 09.02.2021
2763 Clouds -7 1006 63 10000 4.63 20 12:23 09.02.2021
2764 Clouds -6 1006 63 10000 4.63 30 11:44 09.02.2021
2765 Clouds -7 1005 63 10000 4.63 40 11:21 09.02.2021
2766 Clouds -7 1005 62 10000 5.14 10 10:57 09.02.2021
2767 Clouds -8 1005 63 10000 4.63 30 10:20 09.02.2021
2768 Clouds -8 1005 67 10000 4.63 10 09:52 09.02.2021
2769 Clouds -8 1005 67 10000 4.12 10 09:26 09.02.2021
2770 Clouds -8 1004 73 10000 4.63 10 08:56 09.02.2021
2771 Clouds -8 1004 73 10000 4.63 20 08:29 09.02.2021
2772 Clouds -8 1004 73 10000 5.14 30 07:41 09.02.2021
2773 Clouds -7 1002 73 10000 4.63 30 05:35 09.02.2021
2774 Snow -7 1002 73 10000 4.63 30 03:49 09.02.2021
2775 Snow -7 1002 79 10000 4.12 40 01:52 09.02.2021
2776 Snow -7 1001 73 10000 3.6 30 00:31 09.02.2021
2777 Snow -6 1001 73 10000 3.6 40 23:40 08.02.2021
2778 Snow -6 1000 73 10000 4.63 40 23:18 08.02.2021
2779 Snow -6 1000 73 10000 3.6 30 22:42 08.02.2021
2780 Snow -6 1000 73 10000 4.12 30 22:22 08.02.2021
2781 Snow -6 1000 79 10000 4.63 40 21:46 08.02.2021
2782 Snow -6 1000 79 10000 4.12 20 21:22 08.02.2021
2783 Snow -6 1000 86 7000 3.6 20 20:44 08.02.2021
2784 Snow -5 1000 80 7000 4.63 30 20:25 08.02.2021
2785 Snow -5 999 80 5000 3.6 20 19:59 08.02.2021
2786 Snow -5 999 80 5000 3.6 20 19:41 08.02.2021
2787 Snow -4 999 80 4500 3.09 30 19:21 08.02.2021
2788 Snow -4 999 80 4500 4.12 20 18:42 08.02.2021
2789 Snow -4 998 80 3800 4.63 20 18:19 08.02.2021
2790 Snow -4 998 86 3200 4.63 20 17:43 08.02.2021
2791 Snow -4 998 86 4500 5.66 20 17:23 08.02.2021
2792 Snow -3 998 86 3000 5.14 20 16:42 08.02.2021
2793 Snow -3 998 80 3800 4.63 20 16:21 08.02.2021
2794 Snow -3 997 74 8000 5.14 20 15:42 08.02.2021
2795 Snow -3 997 74 8000 5.14 30 15:20 08.02.2021
2796 Clouds -3 997 74 10000 4.63 30 14:51 08.02.2021
2797 Clouds -3 997 74 10000 6.17 30 14:31 08.02.2021
2798 Clouds -3 998 80 10000 5.66 20 13:56 08.02.2021
2799 Clouds -3 998 74 10000 5.14 20 13:32 08.02.2021
2800 Clouds -3 998 74 10000 5.14 20 12:53 08.02.2021
2801 Clouds -3 998 74 10000 4.63 30 12:35 08.02.2021
2802 Snow -5 999 74 10000 4.63 20 11:47 08.02.2021
2803 Clouds -5 998 80 10000 5.66 20 11:21 08.02.2021
2804 Clouds -5 998 80 10000 6.69 30 10:44 08.02.2021
2805 Clouds -5 999 80 10000 5.14 30 10:24 08.02.2021
2806 Clouds -5 999 80 10000 5.14 30 10:24 08.02.2021
2807 Clouds -5 998 80 10000 6.17 30 09:51 08.02.2021
2808 Clouds -4 998 80 10000 6.17 30 09:30 08.02.2021
2809 Clouds -5 998 80 10000 5.66 30 08:46 08.02.2021
2810 Clouds -5 999 80 10000 5.14 30 08:20 08.02.2021
2811 Snow -5 998 80 7000 5.66 30 07:22 08.02.2021
2812 Snow -4 998 80 10000 6.69 30 05:59 08.02.2021
2813 Snow -3 999 86 10000 5.66 40 02:29 08.02.2021
2814 Snow -3 998 86 7000 7.2 30 01:47 08.02.2021
2815 Snow -2 998 24 10000 5.66 40 00:21 08.02.2021
2816 Snow -1 999 86 8000 5.14 40 23:49 07.02.2021
2817 Snow -2 998 86 6000 6.17 30 23:20 07.02.2021
2818 Snow -2 999 26 7000 5.14 30 22:45 07.02.2021
2819 Snow -2 999 86 7000 3.6 30 22:26 07.02.2021
2820 Snow -1 999 86 4000 4.63 30 21:53 07.02.2021
2821 Snow -1 999 93 4000 6.17 40 21:28 07.02.2021
2822 Snow -1 998 86 10000 5.14 40 20:59 07.02.2021
2823 Snow -1 998 93 10000 6.17 30 20:40 07.02.2021
2824 Snow -1 998 93 10000 6.17 30 20:22 07.02.2021
2825 Snow -1 998 93 10000 6.69 40 19:42 07.02.2021
2826 Snow -1 998 86 10000 4.12 30 19:22 07.02.2021
2827 Snow -1 997 93 10000 4.12 40 18:43 07.02.2021
2828 Rain 0 997 93 8000 4.63 30 18:25 07.02.2021
2829 Rain 0 997 93 7000 4.63 20 17:44 07.02.2021
2830 Rain 1 997 93 7000 5.14 20 17:22 07.02.2021
2831 Rain 1 997 93 7000 4.63 30 16:58 07.02.2021
2832 Rain 1 997 93 7000 4.63 30 16:39 07.02.2021
2833 Rain 1 997 93 7000 4.63 30 16:19 07.02.2021
2834 Rain 2 997 93 7000 5.66 20 15:42 07.02.2021
2835 Rain 2 997 93 4800 5.14 20 15:21 07.02.2021
2836 Rain 2 996 93 6000 4.12 20 14:43 07.02.2021
2837 Mist 2 996 100 4000 5.14 20 14:25 07.02.2021
2838 Drizzle 2 997 100 3300 5.66 20 13:43 07.02.2021
2839 Drizzle 2 997 100 3300 5.66 20 13:25 07.02.2021
2840 Drizzle 3 997 93 3100 5.14 20 12:39 07.02.2021
2841 Drizzle 3 997 100 3600 4.63 20 12:20 07.02.2021
2842 Drizzle 3 997 93 5000 5.14 30 11:42 07.02.2021
2843 Clouds 3 997 93 6000 5.66 40 11:24 07.02.2021
2844 Rain 2 997 93 10000 6.17 50 10:30 07.02.2021
2845 Clouds 3 997 93 10000 5.66 40 09:57 07.02.2021
2846 Clouds 3 997 93 10000 5.66 40 09:38 07.02.2021
2847 Rain 3 996 93 9000 6.17 40 09:20 07.02.2021
2848 Clouds 3 997 93 6000 6.17 50 08:19 07.02.2021
2849 Clouds 3 997 93 10000 6.69 40 06:33 07.02.2021
2850 Rain 3 998 93 10000 6.17 40 05:56 07.02.2021
2851 Clouds 3 999 93 10000 7.2 50 02:53 07.02.2021
2852 Clouds 4 1002 93 10000 6.17 40 00:58 07.02.2021
2853 Rain 4 1002 100 10000 6.17 30 00:28 07.02.2021
2854 Rain 4 1003 100 8000 5.14 20 23:42 06.02.2021
2855 Rain 4 1003 93 10000 5.66 20 22:33 06.02.2021
2856 Clouds 4 1003 93 7000 5.14 20 21:39 06.02.2021
2857 Clouds 5 1003 93 7000 5.14 20 21:21 06.02.2021
2858 Rain 5 1004 93 10000 4.63 20 20:47 06.02.2021
2859 Rain 5 1003 93 10000 5.14 30 20:24 06.02.2021
2860 Rain 5 1003 93 10000 5.66 20 19:55 06.02.2021
2861 Rain 4 1004 93 10000 5.66 30 19:29 06.02.2021
2862 Rain 4 1004 93 10000 5.66 30 18:46 06.02.2021
2863 Rain 5 1004 93 10000 6.17 40 18:28 06.02.2021
2864 Rain 5 1004 93 10000 5.66 30 17:45 06.02.2021
2865 Clouds 5 1005 93 10000 5.66 20 17:22 06.02.2021
2866 Rain 5 1005 93 10000 6.17 20 16:58 06.02.2021
2867 Clouds 5 1005 93 10000 6.17 20 16:37 06.02.2021
2868 Clouds 5 1006 93 10000 6.17 30 16:19 06.02.2021
2869 Clouds 5 1006 87 10000 6.17 20 15:41 06.02.2021
2870 Clouds 5 1006 87 10000 6.17 20 15:20 06.02.2021
2871 Clouds 5 1006 93 10000 4.63 30 14:45 06.02.2021
2872 Clouds 5 1007 93 10000 4.63 20 14:24 06.02.2021
2873 Clouds 5 1007 100 10000 4.63 30 13:48 06.02.2021
2874 Rain 6 1007 93 6000 6.69 40 12:57 06.02.2021
2875 Rain 6 1008 93 10000 6.17 40 12:21 06.02.2021
2876 Rain 6 1008 93 10000 5.14 40 11:47 06.02.2021
2877 Clouds 6 1008 93 10000 5.66 30 11:22 06.02.2021
2878 Clouds 5 1008 93 10000 5.14 40 10:57 06.02.2021
2879 Clouds 5 1008 93 10000 5.14 40 10:39 06.02.2021
2880 Rain 5 1009 100 10000 4.63 30 09:59 06.02.2021
2881 Rain 5 1009 100 10000 4.63 30 09:37 06.02.2021
2882 Rain 5 1009 100 10000 5.66 30 09:18 06.02.2021
2883 Rain 5 1009 100 10000 5.66 30 09:18 06.02.2021
2884 Rain 5 1009 93 4600 5.14 30 08:39 06.02.2021
2885 Rain 5 1009 100 7000 4.63 20 08:20 06.02.2021
2886 Rain 6 1010 100 9000 4.12 20 05:44 06.02.2021
2887 Rain 5 1010 93 10000 2.57 30 04:36 06.02.2021
2888 Rain 6 1011 100 9000 3.09 50 02:34 06.02.2021
2889 Rain 5 1011 100 7000 3.6 60 00:48 06.02.2021
2890 Rain 5 1011 100 7000 3.6 60 00:48 06.02.2021
2891 Clouds 6 1011 100 6000 4.12 60 00:20 06.02.2021
2892 Clouds 6 1012 93 6000 3.09 80 23:46 05.02.2021
2893 Clouds 6 1012 93 6000 3.6 60 23:26 05.02.2021
2894 Mist 6 1012 93 5000 3.6 50 22:48 05.02.2021
2895 Mist 7 1012 93 5000 2.57 50 22:24 05.02.2021
2896 Mist 7 1012 93 5000 2.57 50 21:51 05.02.2021
2897 Clouds 7 1013 93 6000 2.57 20 21:29 05.02.2021
2898 Clouds 7 1013 93 7000 2.57 20 20:48 05.02.2021
2899 Clouds 7 1013 93 9000 1.54 340 19:57 05.02.2021
2900 Clouds 7 1013 100 9000 1.03 0 19:25 05.02.2021
2901 Clouds 7 1013 93 10000 1.03 0 18:55 05.02.2021
2902 Clouds 7 1012 93 10000 1.54 60 18:29 05.02.2021
2903 Clouds 7 1012 93 10000 1.54 60 17:56 05.02.2021
2904 Clouds 7 1012 93 10000 1.54 60 17:34 05.02.2021
2905 Clouds 7 1013 93 9000 1.54 0 16:58 05.02.2021
2906 Clouds 7 1013 93 9000 1.54 0 16:39 05.02.2021
2907 Clouds 8 1013 93 9000 1.54 90 16:20 05.02.2021
2908 Rain 7 1013 93 9000 1.54 100 15:40 05.02.2021
2909 Rain 7 1013 93 10000 1.03 0 15:20 05.02.2021
2910 Rain 7 1013 93 10000 2.06 80 14:38 05.02.2021
2911 Rain 7 1013 93 10000 1.54 120 14:38 05.02.2021
2912 Clouds 7 1013 93 10000 2.06 80 14:19 05.02.2021
2913 Rain 6 1013 93 10000 1.54 30 13:43 05.02.2021
2914 Rain 6 1013 93 7000 1.54 30 13:24 05.02.2021
2915 Rain 6 1013 93 7000 1.03 0 12:42 05.02.2021
2916 Rain 6 1014 93 8000 1.03 0 12:21 05.02.2021
2917 Rain 6 1014 93 9000 0.51 0 11:39 05.02.2021
2918 Rain 5 1013 93 10000 0.51 80 11:20 05.02.2021
2919 Rain 5 1013 93 10000 1.03 70 10:48 05.02.2021
2920 Rain 5 1013 93 10000 1.03 0 10:25 05.02.2021
2921 Rain 5 1013 93 10000 1.03 60 09:43 05.02.2021
2922 Rain 5 1013 87 10000 1.03 80 09:24 05.02.2021
2923 Rain 5 1013 87 10000 1.03 0 08:42 05.02.2021
2924 Rain 5 1013 93 10000 1.54 40 07:45 05.02.2021
2925 Rain 5 1013 87 10000 1.03 0 07:26 05.02.2021
2926 Rain 4 1012 87 10000 1.03 0 06:41 05.02.2021
2927 Clouds 4 1012 87 10000 2.57 60 05:35 05.02.2021
2928 Clouds 5 1013 81 10000 3.09 10 02:26 05.02.2021
2929 Clouds 5 1013 87 10000 1.03 0 01:59 05.02.2021
2930 Clouds 5 1013 87 10000 4.12 20 00:38 05.02.2021
2931 Clouds 5 1014 87 10000 3.09 10 00:19 05.02.2021
2932 Clouds 5 1014 87 10000 2.57 20 23:55 04.02.2021
2933 Clouds 5 1014 87 10000 2.57 20 23:36 04.02.2021
2934 Clouds 5 1014 87 10000 3.09 80 23:18 04.02.2021
2935 Clouds 5 1014 87 10000 3.09 40 22:43 04.02.2021
2936 Clouds 6 1014 81 10000 3.09 70 22:25 04.02.2021
2937 Clouds 6 1014 76 10000 2.06 50 21:42 04.02.2021
2938 Clouds 6 1014 81 10000 2.57 10 21:19 04.02.2021
2939 Clouds 6 1014 87 10000 2.57 50 20:46 04.02.2021
2940 Clouds 6 1014 87 10000 1.03 0 20:26 04.02.2021
2941 Clouds 7 1014 87 10000 1.54 70 19:42 04.02.2021
2942 Clouds 7 1015 81 10000 0.51 0 18:51 04.02.2021
2943 Clouds 7 1015 81 10000 1.54 140 18:25 04.02.2021
2944 Clouds 8 1015 76 10000 1.54 170 17:53 04.02.2021
2945 Clouds 9 1015 71 10000 1.03 0 17:25 04.02.2021
2946 Clouds 10 1015 57 10000 0.51 0 16:56 04.02.2021
2947 Clouds 11 1015 62 10000 1.03 0 16:38 04.02.2021
2948 Clouds 11 1015 62 10000 1.03 0 16:18 04.02.2021
2949 Clouds 10 1015 58 10000 1.03 0 15:39 04.02.2021
2950 Clouds 10 1015 62 10000 1.54 310 15:20 04.02.2021
2951 Clouds 10 1015 62 10000 2.57 240 14:42 04.02.2021
2952 Clouds 10 1015 66 10000 3.6 260 14:20 04.02.2021
2953 Clouds 10 1016 62 10000 5.14 260 13:45 04.02.2021
2954 Clouds 10 1016 62 10000 5.14 210 13:24 04.02.2021
2955 Clouds 10 1016 66 10000 5.66 220 12:52 04.02.2021
2956 Clouds 9 1016 71 10000 4.63 220 11:57 04.02.2021
2957 Clouds 9 1015 71 10000 4.63 220 11:37 04.02.2021
2958 Clouds 8 1015 76 10000 4.63 220 10:58 04.02.2021
2959 Clouds 8 1015 76 10000 4.63 220 10:34 04.02.2021
2960 Clouds 7 1015 81 10000 3.09 220 09:45 04.02.2021
2961 Clouds 6 1014 81 10000 2.57 220 09:22 04.02.2021
2962 Clouds 6 1014 81 10000 2.57 220 09:22 04.02.2021
2963 Clouds 6 1014 81 10000 3.09 210 08:51 04.02.2021
2964 Clouds 6 1013 81 10000 3.09 220 08:26 04.02.2021
2965 Clouds 6 1013 87 10000 4.12 220 07:56 04.02.2021
2966 Clouds 7 1013 81 10000 4.63 220 07:33 04.02.2021
2967 Clouds 7 1012 76 10000 4.63 220 06:45 04.02.2021
2968 Clouds 7 1012 81 10000 4.12 230 05:52 04.02.2021
2969 Clouds 9 1009 76 10000 6.17 210 02:40 04.02.2021
2970 Clouds 9 1008 81 10000 6.69 230 02:21 04.02.2021
2971 Clouds 10 1004 76 10000 8.75 230 00:24 04.02.2021
2972 Clouds 10 1003 76 10000 8.75 230 23:34 03.02.2021
2973 Clouds 10 1000 87 10000 5.66 200 22:40 03.02.2021
2974 Clouds 10 1000 87 10000 5.66 200 22:21 03.02.2021
2975 Clouds 10 1000 87 10000 5.66 230 21:55 03.02.2021
2976 Clouds 10 999 87 10000 6.17 210 21:25 03.02.2021
2977 Clouds 10 999 87 10000 6.17 200 20:57 03.02.2021
2978 Rain 10 999 87 10000 6.17 200 20:36 03.02.2021
2979 Clouds 10 999 87 9000 3.6 220 19:57 03.02.2021
2980 Rain 10 999 87 9000 3.6 220 19:36 03.02.2021
2981 Rain 10 998 87 10000 2.06 190 19:18 03.02.2021
2982 Rain 10 998 87 10000 5.14 220 18:39 03.02.2021
2983 Rain 11 998 87 7000 5.66 230 18:19 03.02.2021
2984 Rain 11 998 87 7000 5.66 230 18:19 03.02.2021
2985 Rain 12 998 76 10000 8.23 210 17:48 03.02.2021
2986 Rain 12 998 76 10000 9.77 210 17:29 03.02.2021
2987 Clouds 12 998 76 10000 8.23 210 16:52 03.02.2021
2988 Clouds 12 997 76 10000 8.75 210 16:27 03.02.2021
2989 Clouds 12 997 82 10000 6.69 200 15:45 03.02.2021
2990 Clouds 11 997 87 10000 5.66 200 15:25 03.02.2021
2991 Rain 11 997 87 10000 4.63 190 14:53 03.02.2021
2992 Rain 11 997 93 10000 6.17 200 14:25 03.02.2021
2993 Rain 11 997 100 9000 6.69 200 13:53 03.02.2021
2994 Rain 10 997 93 4300 3.09 180 13:26 03.02.2021
2995 Rain 10 998 100 3800 0.51 200 12:47 03.02.2021
2996 Rain 10 998 93 3400 1.54 210 12:24 03.02.2021
2997 Rain 10 999 93 9000 2.57 160 11:49 03.02.2021
2998 Rain 10 999 100 10000 3.6 160 11:28 03.02.2021
2999 Rain 10 1000 93 10000 3.6 170 10:54 03.02.2021
3000 Rain 10 1000 93 10000 3.6 170 10:22 03.02.2021
3001 Rain 10 1001 93 8000 4.12 180 09:47 03.02.2021
3002 Rain 10 1001 93 10000 3.09 180 09:28 03.02.2021
3003 Rain 10 1001 93 10000 4.12 180 08:53 03.02.2021
3004 Rain 10 1001 93 10000 4.12 190 08:27 03.02.2021
3005 Rain 10 1001 93 10000 4.12 180 07:39 03.02.2021
3006 Rain 10 1002 93 10000 4.63 200 06:41 03.02.2021
3007 Clouds 10 1003 93 10000 3.6 190 04:54 03.02.2021
3008 Clouds 10 1003 93 10000 4.63 180 04:31 03.02.2021
3009 Clouds 10 1003 93 10000 4.12 190 03:39 03.02.2021
3010 Clouds 10 1003 93 10000 4.12 200 02:37 03.02.2021
3011 Clouds 10 1003 87 10000 6.17 200 00:46 03.02.2021
3012 Clouds 9 1003 87 10000 2.06 190 23:59 02.02.2021
3013 Clouds 9 1003 87 10000 2.06 190 23:40 02.02.2021
3014 Rain 9 1003 93 10000 2.06 200 23:22 02.02.2021
3015 Clouds 9 1003 93 10000 3.6 190 22:37 02.02.2021
3016 Clouds 9 1002 93 10000 3.09 210 22:18 02.02.2021
3017 Rain 9 1003 93 10000 3.6 210 21:39 02.02.2021
3018 Rain 9 1002 93 10000 3.09 210 21:21 02.02.2021
3019 Clouds 9 1002 100 10000 3.6 210 20:47 02.02.2021
3020 Clouds 9 1002 93 10000 3.09 220 20:20 02.02.2021
3021 Clouds 9 1002 100 10000 2.57 250 19:48 02.02.2021
3022 Clouds 9 1001 100 10000 1.54 260 19:30 02.02.2021
3023 Clouds 9 1001 100 10000 1.54 260 19:30 02.02.2021
3024 Clouds 9 1001 100 10000 1.54 260 19:30 02.02.2021
3025 Drizzle 9 1001 100 10000 2.57 280 18:46 02.02.2021
3026 Clouds 9 1001 100 10000 2.57 230 18:26 02.02.2021
3027 Clouds 9 1001 100 10000 2.57 230 18:26 02.02.2021
3028 Clouds 9 1001 100 10000 3.09 220 17:52 02.02.2021
3029 Clouds 9 1000 93 10000 1.54 240 17:24 02.02.2021
3030 Clouds 9 1000 93 6000 2.06 230 16:58 02.02.2021
3031 Clouds 9 1000 93 6000 2.06 230 16:38 02.02.2021
3032 Clouds 9 1000 93 6000 2.06 230 16:38 02.02.2021
3033 Clouds 9 1000 100 10000 2.57 240 16:18 02.02.2021
3034 Drizzle 9 1000 93 10000 2.57 220 15:42 02.02.2021
3035 Clouds 8 1000 100 10000 3.09 220 15:22 02.02.2021
3036 Clouds 8 1000 100 8000 4.12 200 14:49 02.02.2021
3037 Drizzle 7 1000 93 4000 3.6 210 14:28 02.02.2021
3038 Drizzle 7 1001 100 3200 3.09 220 13:55 02.02.2021
3039 Drizzle 7 1001 100 3200 3.09 220 13:37 02.02.2021
3040 Rain 6 1001 100 2500 1.54 240 13:18 02.02.2021
3041 Rain 6 1001 93 2600 1.03 0 12:41 02.02.2021
3042 Rain 6 1002 93 5000 1.54 90 11:45 02.02.2021
3043 Rain 6 1002 93 7000 2.06 140 11:24 02.02.2021
3044 Rain 6 1002 93 10000 2.57 140 10:56 02.02.2021
3045 Rain 6 1003 93 10000 2.06 150 10:27 02.02.2021
3046 Rain 6 1003 87 10000 2.06 180 09:47 02.02.2021
3047 Rain 5 1003 87 10000 3.6 160 09:26 02.02.2021
3048 Clouds 5 1004 87 10000 2.57 180 08:59 02.02.2021
3049 Clouds 5 1004 87 10000 2.57 180 08:32 02.02.2021
3050 Clouds 5 1004 87 10000 4.12 200 07:37 02.02.2021
3051 Clouds 5 1004 87 10000 5.14 210 06:43 02.02.2021
3052 Clouds 5 1004 93 10000 4.12 200 06:21 02.02.2021
3053 Clouds 5 1004 93 10000 4.12 220 05:46 02.02.2021
3054 Clouds 4 1003 100 10000 2.06 200 02:46 02.02.2021
3055 Clouds 4 1003 100 10000 1.03 200 02:23 02.02.2021
3056 Drizzle 4 1002 100 8000 1.03 260 00:37 02.02.2021
3057 Clouds 4 1001 100 10000 1.03 220 23:45 01.02.2021
3058 Clouds 4 1000 93 10000 1.54 200 22:52 01.02.2021
3059 Clouds 4 1000 93 8000 1.54 200 22:34 01.02.2021
3060 Clouds 4 1000 93 7000 1.03 210 21:57 01.02.2021
3061 Clouds 4 1000 93 7000 1.03 210 21:39 01.02.2021
3062 Clouds 4 999 93 7000 1.03 190 21:20 01.02.2021
3063 Clouds 4 999 100 7000 1.54 170 20:41 01.02.2021
3064 Clouds 4 999 100 6000 1.54 230 20:23 01.02.2021
3065 Mist 4 998 100 4700 1.54 170 19:42 01.02.2021
3066 Mist 4 998 100 4200 1.54 200 19:21 01.02.2021
3067 Mist 4 997 100 3200 2.06 240 18:51 01.02.2021
3068 Drizzle 4 997 100 3200 2.06 230 18:29 01.02.2021
3069 Drizzle 4 996 100 2700 1.54 240 17:48 01.02.2021
3070 Mist 4 996 100 2700 1.54 250 17:26 01.02.2021
3071 Drizzle 4 995 100 2400 0.51 0 16:58 01.02.2021
3072 Drizzle 4 995 100 2200 1.03 0 16:33 01.02.2021
3073 Drizzle 4 995 100 2400 2.06 330 15:50 01.02.2021
3074 Drizzle 4 994 93 2600 2.06 360 15:21 01.02.2021
3075 Drizzle 4 994 93 2800 2.57 350 14:54 01.02.2021
3076 Drizzle 4 994 93 2500 3.09 10 14:35 01.02.2021
3077 Drizzle 4 994 93 2800 2.06 30 13:56 01.02.2021
3078 Drizzle 4 994 93 2800 2.06 30 13:38 01.02.2021
3079 Drizzle 4 993 93 2800 2.06 10 13:19 01.02.2021
3080 Clouds 3 993 93 4500 3.09 30 12:44 01.02.2021
3081 Clouds 3 993 93 4500 3.09 30 12:23 01.02.2021
3082 Clouds 3 993 93 4500 3.09 30 11:42 01.02.2021
3083 Clouds 3 993 93 4500 3.6 40 11:20 01.02.2021
3084 Clouds 3 993 93 6000 3.6 30 10:46 01.02.2021
3085 Clouds 2 992 93 5000 3.6 40 10:20 01.02.2021
3086 Clouds 2 992 93 4800 4.12 40 09:44 01.02.2021
3087 Clouds 2 992 93 4800 3.6 40 09:24 01.02.2021
3088 Rain 2 992 93 4800 4.12 40 08:51 01.02.2021
3089 Rain 2 992 93 4800 3.6 40 07:53 01.02.2021
3090 Rain 2 992 93 7000 4.63 50 06:34 01.02.2021
3091 Rain 2 993 93 10000 4.63 50 04:21 01.02.2021
3092 Rain 2 994 93 9000 4.63 40 01:41 01.02.2021
3093 Rain 1 996 93 8000 4.63 60 23:45 31.01.2021
3094 Rain 1 997 100 5000 3.6 60 22:44 31.01.2021
3095 Snow 1 997 93 4500 4.63 50 22:25 31.01.2021
3096 Snow 1 997 93 5000 4.63 60 21:56 31.01.2021
3097 Snow 1 997 93 5000 4.63 60 21:37 31.01.2021
3098 Snow 1 998 93 5000 4.63 50 21:18 31.01.2021
3099 Snow 1 999 93 10000 4.12 60 20:40 31.01.2021
3100 Snow 1 999 93 10000 4.12 60 20:18 31.01.2021
3101 Snow 1 999 86 10000 4.12 50 19:37 31.01.2021
3102 Snow 2 999 80 10000 4.12 50 19:19 31.01.2021
3103 Clouds 2 1000 80 10000 4.12 50 18:44 31.01.2021
3104 Clouds 2 1000 80 10000 4.12 50 18:24 31.01.2021
3105 Clouds 2 1000 80 10000 4.63 50 17:49 31.01.2021
3106 Clouds 2 1001 80 10000 4.63 60 17:24 31.01.2021
3107 Clouds 2 1001 80 10000 4.63 60 16:59 31.01.2021
3108 Clouds 2 1001 80 10000 4.63 60 16:39 31.01.2021
3109 Clouds 2 1001 80 10000 3.6 70 16:19 31.01.2021
3110 Clouds 2 1001 80 10000 4.63 70 15:48 31.01.2021
3111 Clouds 2 1002 75 10000 4.63 70 14:55 31.01.2021
3112 Clouds 2 1003 75 10000 3.6 60 14:28 31.01.2021
3113 Clouds 2 1003 75 10000 4.12 60 13:59 31.01.2021
3114 Clouds 1 1003 75 10000 4.12 60 13:38 31.01.2021
3115 Clouds 1 1003 80 10000 3.6 60 13:18 31.01.2021
3116 Clouds 2 1003 80 10000 3.6 50 12:45 31.01.2021
3117 Clouds 1 1004 80 10000 3.09 50 12:20 31.01.2021
3118 Clouds 0 1004 80 10000 3.09 10 11:39 31.01.2021
3119 Clouds 0 1004 80 10000 3.09 10 11:19 31.01.2021
3120 Clouds 0 1003 80 10000 2.57 30 10:45 31.01.2021
3121 Clouds 0 1004 80 10000 3.09 20 10:26 31.01.2021
3122 Clouds 0 1004 80 10000 3.6 30 09:39 31.01.2021
3123 Clouds 0 1003 80 10000 5.14 30 08:34 31.01.2021
3124 Clouds 0 1003 80 10000 5.14 30 08:34 31.01.2021
3125 Clouds 0 1003 80 10000 5.14 30 08:34 31.01.2021
3126 Clouds 0 1003 80 10000 4.63 30 07:55 31.01.2021
3127 Clouds 0 1003 80 10000 5.14 30 06:36 31.01.2021
3128 Clouds 0 1002 86 10000 5.14 30 03:46 31.01.2021
3129 Snow 1 1001 86 10000 6.17 40 00:28 31.01.2021
3130 Snow 1 1001 86 9000 5.66 30 23:52 30.01.2021
3131 Snow 1 1001 86 7000 6.17 30 23:24 30.01.2021
3132 Snow 1 1001 93 5000 5.14 30 22:40 30.01.2021
3133 Snow 1 1001 93 5000 5.14 30 22:22 30.01.2021
3134 Snow 1 1000 93 6000 5.14 30 21:39 30.01.2021
3135 Snow 1 1000 93 8000 6.69 30 21:18 30.01.2021
3136 Snow 1 1000 93 7000 6.17 40 20:41 30.01.2021
3137 Snow 1 1000 93 7000 5.66 40 20:23 30.01.2021
3138 Snow 1 1000 93 8000 6.69 50 19:40 30.01.2021
3139 Snow 1 1000 93 8000 6.69 50 19:22 30.01.2021
3140 Snow 1 1000 93 5000 5.14 50 18:40 30.01.2021
3141 Snow 1 999 93 4500 5.66 40 18:21 30.01.2021
3142 Snow 1 999 93 4000 5.14 30 17:53 30.01.2021
3143 Snow 1 999 93 2500 5.14 30 17:19 30.01.2021
3144 Snow 1 999 93 2300 5.14 30 16:43 30.01.2021
3145 Snow 1 999 93 2000 4.63 30 16:23 30.01.2021
3146 Snow 2 999 93 3800 5.14 20 15:50 30.01.2021
3147 Snow 1 999 93 4800 5.66 20 15:25 30.01.2021
3148 Snow 2 999 87 10000 5.66 40 14:59 30.01.2021
3149 Snow 1 999 87 10000 5.66 40 14:40 30.01.2021
3150 Snow 1 1000 87 10000 5.66 30 14:19 30.01.2021
3151 Snow 1 1000 93 4800 5.66 30 13:25 30.01.2021
3152 Snow 1 1001 93 3800 5.14 30 12:48 30.01.2021
3153 Snow 1 1001 93 4000 6.17 30 12:28 30.01.2021
3154 Snow 2 1001 87 9000 5.66 30 11:54 30.01.2021
3155 Snow 2 1001 93 10000 7.2 30 11:24 30.01.2021
3156 Snow 3 1001 93 3800 8.75 30 10:46 30.01.2021
3157 Rain 6 1000 93 9000 4.12 250 09:44 30.01.2021
3158 Rain 6 1000 93 7000 5.14 230 09:26 30.01.2021
3159 Clouds 7 1000 93 10000 5.66 230 08:47 30.01.2021
3160 Clouds 7 1000 87 10000 4.12 210 07:45 30.01.2021
3161 Clouds 7 1000 87 10000 5.66 210 06:48 30.01.2021
3162 Clouds 7 1000 76 10000 5.14 200 04:29 30.01.2021
3163 Clouds 8 1001 71 10000 5.66 210 03:34 30.01.2021
3164 Clouds 8 1000 76 10000 6.69 210 02:23 30.01.2021
3165 Clouds 8 1000 76 10000 7.2 220 01:29 30.01.2021
3166 Clouds 8 1000 71 10000 6.69 210 00:37 30.01.2021
3167 Clouds 8 1000 71 10000 6.69 210 00:18 30.01.2021
3168 Clouds 8 1000 81 10000 5.66 200 23:44 29.01.2021
3169 Clouds 8 1000 87 10000 5.66 220 23:21 29.01.2021
3170 Clouds 8 1000 93 10000 4.12 210 22:44 29.01.2021
3171 Clouds 8 999 87 10000 4.12 220 22:19 29.01.2021
3172 Clouds 8 999 81 10000 4.63 220 21:28 29.01.2021
3173 Clouds 8 999 81 10000 5.14 210 20:46 29.01.2021
3174 Clouds 8 999 76 10000 5.14 220 20:28 29.01.2021
3175 Clouds 8 998 76 10000 6.17 210 19:57 29.01.2021
3176 Clouds 8 998 76 10000 6.17 210 19:38 29.01.2021
3177 Clouds 8 998 76 10000 5.66 200 19:18 29.01.2021
3178 Clouds 9 998 71 10000 8.23 220 18:28 29.01.2021
3179 Clouds 9 997 66 10000 7.72 230 17:40 29.01.2021
3180 Clouds 10 997 66 10000 7.72 230 17:21 29.01.2021
3181 Clouds 10 997 66 10000 7.72 230 17:21 29.01.2021
3182 Clouds 10 997 66 10000 8.75 230 16:45 29.01.2021
3183 Clouds 10 997 66 10000 9.26 240 16:23 29.01.2021
3184 Clouds 10 997 66 10000 6.69 240 15:51 29.01.2021
3185 Clouds 10 997 66 10000 7.72 240 15:31 29.01.2021
3186 Rain 10 997 66 10000 9.77 240 14:47 29.01.2021
3187 Clouds 11 997 66 10000 9.77 240 14:18 29.01.2021
3188 Clouds 11 997 66 10000 9.26 240 13:41 29.01.2021
3189 Clouds 11 998 66 10000 6.69 240 13:22 29.01.2021
3190 Clouds 10 997 66 10000 10.8 250 12:28 29.01.2021
3191 Clouds 10 997 71 10000 9.26 240 11:50 29.01.2021
3192 Clouds 10 996 76 10000 9.26 240 11:20 29.01.2021
3193 Clouds 9 996 76 10000 8.23 230 10:51 29.01.2021
3194 Clouds 9 996 87 10000 8.23 220 10:33 29.01.2021
3195 Rain 9 996 87 10000 6.69 220 09:49 29.01.2021
3196 Rain 9 995 87 10000 8.75 230 09:28 29.01.2021
3197 Rain 9 995 87 10000 7.72 240 08:46 29.01.2021
3198 Rain 10 994 87 10000 10.8 230 08:22 29.01.2021
3199 Clouds 10 993 100 4200 6.17 200 07:42 29.01.2021
3200 Clouds 9 994 100 5000 6.17 190 07:22 29.01.2021
3201 Rain 9 996 93 8000 5.14 190 05:38 29.01.2021
3202 Rain 9 1000 87 10000 3.6 180 03:52 29.01.2021
3203 Clouds 9 1003 81 10000 6.69 230 00:46 29.01.2021
3204 Clouds 9 1003 81 10000 5.14 230 00:22 29.01.2021
3205 Clouds 9 1003 81 10000 5.66 210 23:47 28.01.2021
3206 Clouds 9 1003 81 10000 4.12 190 23:27 28.01.2021
3207 Clouds 9 1003 76 10000 4.63 220 22:57 28.01.2021
3208 Clouds 9 1003 76 10000 4.63 220 22:38 28.01.2021
3209 Clouds 9 1003 76 10000 5.14 220 22:18 28.01.2021
3210 Clouds 9 1003 82 10000 6.17 220 21:41 28.01.2021
3211 Clouds 9 1003 76 10000 4.63 210 21:20 28.01.2021
3212 Clouds 9 1002 76 10000 5.66 230 20:40 28.01.2021
3213 Clouds 9 1002 76 10000 5.66 230 20:19 28.01.2021
3214 Clouds 9 1001 76 10000 8.75 260 19:49 28.01.2021
3215 Clouds 9 1001 82 10000 7.2 250 19:27 28.01.2021
3216 Clouds 9 1001 82 10000 6.69 250 18:49 28.01.2021
3217 Clouds 10 1000 87 10000 6.17 240 18:30 28.01.2021
3218 Clouds 9 1000 93 10000 4.12 230 17:54 28.01.2021
3219 Clouds 9 1000 93 10000 4.12 230 17:34 28.01.2021
3220 Clouds 7 999 93 5000 2.57 230 16:58 28.01.2021
3221 Rain 7 999 93 5000 2.57 230 16:39 28.01.2021
3222 Clouds 7 999 93 6000 1.54 250 16:20 28.01.2021
3223 Clouds 6 999 100 6000 2.57 210 15:32 28.01.2021
3224 Mist 6 999 100 4800 2.57 230 14:49 28.01.2021
3225 Clouds 6 1000 93 6000 3.09 220 14:27 28.01.2021
3226 Mist 5 1000 100 4500 4.12 220 13:59 28.01.2021
3227 Clouds 5 1001 100 5000 2.06 230 13:25 28.01.2021
3228 Clouds 5 1001 93 6000 2.57 210 12:50 28.01.2021
3229 Clouds 5 1001 93 6000 2.57 210 12:32 28.01.2021
3230 Rain 4 1002 100 7000 2.57 190 11:58 28.01.2021
3231 Rain 4 1002 100 7000 2.57 190 11:39 28.01.2021
3232 Rain 4 1003 100 5000 2.06 180 11:18 28.01.2021
3233 Rain 4 1003 93 7000 2.06 190 10:49 28.01.2021
3234 Rain 4 1004 93 6000 2.06 170 10:26 28.01.2021
3235 Rain 4 1005 93 5000 3.09 180 09:44 28.01.2021
3236 Rain 4 1005 93 4800 3.09 190 09:21 28.01.2021
3237 Rain 3 1006 100 4600 2.57 180 08:48 28.01.2021
3238 Rain 3 1007 100 3700 2.06 180 07:55 28.01.2021
3239 Rain 3 1007 100 3700 2.06 180 07:36 28.01.2021
3240 Rain 3 1008 93 3700 3.09 190 06:48 28.01.2021
3241 Clouds 3 1010 93 7000 4.12 190 04:33 28.01.2021
3242 Clouds 3 1011 93 9000 3.09 180 03:49 28.01.2021
3243 Clouds 3 1013 93 10000 3.6 200 00:57 28.01.2021
3244 Clouds 2 1013 93 8000 3.6 190 23:47 27.01.2021
3245 Clouds 2 1014 93 8000 2.57 200 23:23 27.01.2021
3246 Clouds 2 1013 93 8000 3.09 200 22:41 27.01.2021
3247 Clouds 2 1014 93 7000 2.57 190 22:21 27.01.2021
3248 Rain 2 1013 93 6000 2.57 200 21:42 27.01.2021
3249 Drizzle 2 1013 93 6000 3.09 200 21:22 27.01.2021
3250 Clouds 2 1013 93 8000 3.09 200 20:50 27.01.2021
3251 Drizzle 2 1013 93 7000 3.6 200 20:20 27.01.2021
3252 Drizzle 2 1013 93 7000 3.09 200 19:49 27.01.2021
3253 Drizzle 2 1013 93 8000 3.6 190 19:22 27.01.2021
3254 Drizzle 2 1013 93 10000 3.6 200 18:45 27.01.2021
3255 Drizzle 2 1013 93 10000 3.09 190 18:24 27.01.2021
3256 Drizzle 1 1013 100 10000 4.63 190 17:52 27.01.2021
3257 Drizzle 1 1013 100 10000 4.63 190 17:34 27.01.2021
3258 Snow 1 1013 100 7000 4.63 190 16:57 27.01.2021
3259 Rain 1 1013 100 7000 4.63 190 16:38 27.01.2021
3260 Snow 1 1013 100 4400 5.14 200 16:20 27.01.2021
3261 Snow 1 1013 93 4200 5.14 200 15:49 27.01.2021
3262 Snow 1 1013 93 4200 5.14 200 15:49 27.01.2021
3263 Snow 1 1013 93 4400 5.14 190 15:29 27.01.2021
3264 Snow 1 1013 93 9000 5.14 190 14:24 27.01.2021
3265 Snow 1 1013 93 9000 5.66 190 13:53 27.01.2021
3266 Snow 1 1014 93 6000 5.66 190 13:35 27.01.2021
3267 Snow 1 1014 93 2800 6.17 180 12:42 27.01.2021
3268 Snow 1 1015 93 7000 5.14 190 12:24 27.01.2021
3269 Snow 1 1015 93 4000 5.14 180 11:48 27.01.2021
3270 Snow 1 1015 93 2800 6.17 170 11:26 27.01.2021
3271 Snow 1 1015 93 6000 4.63 180 10:48 27.01.2021
3272 Snow 0 1015 93 4800 5.14 170 10:26 27.01.2021
3273 Snow 0 1015 100 4500 4.12 170 09:56 27.01.2021
3274 Snow 0 1016 93 2200 3.6 160 09:28 27.01.2021
3275 Snow 0 1016 93 4500 3.09 170 08:47 27.01.2021
3276 Snow 0 1016 93 4500 2.57 180 07:58 27.01.2021
3277 Snow 0 1016 93 4500 2.57 180 07:38 27.01.2021
3278 Clouds 0 1016 86 10000 2.57 190 06:45 27.01.2021
3279 Clear 0 1017 86 10000 2.06 200 05:56 27.01.2021
3280 Clear 0 1017 86 10000 2.06 200 05:34 27.01.2021
3281 Clear 0 1019 80 10000 2.57 200 02:46 27.01.2021
3282 Clear 0 1019 80 10000 3.09 200 02:20 27.01.2021
3283 Clear 0 1019 93 10000 2.57 190 01:46 27.01.2021
3284 Clear 1 1020 86 10000 4.63 230 00:29 27.01.2021
3285 Clear 1 1020 80 10000 4.63 220 23:40 26.01.2021
3286 Clear 1 1020 80 10000 3.09 180 23:21 26.01.2021
3287 Clear 2 1020 80 10000 3.6 190 22:40 26.01.2021
3288 Clear 2 1020 80 10000 5.14 210 22:19 26.01.2021
3289 Clouds 2 1020 75 10000 4.12 210 21:52 26.01.2021
3290 Clouds 2 1020 75 10000 4.63 220 21:25 26.01.2021
3291 Clouds 3 1020 75 10000 4.12 210 20:56 26.01.2021
3292 Clouds 2 1020 75 10000 4.12 210 20:36 26.01.2021
3293 Clouds 2 1020 75 10000 2.57 210 20:18 26.01.2021
3294 Clouds 3 1020 70 10000 2.57 210 19:42 26.01.2021
3295 Clouds 3 1020 70 10000 2.57 220 19:19 26.01.2021
3296 Clouds 3 1019 75 10000 3.09 210 18:43 26.01.2021
3297 Clouds 4 1019 70 10000 4.12 250 18:23 26.01.2021
3298 Clouds 4 1019 75 10000 4.12 270 17:48 26.01.2021
3299 Clouds 4 1018 75 10000 4.12 270 17:25 26.01.2021
3300 Clouds 4 1018 75 10000 5.14 270 16:53 26.01.2021
3301 Clouds 4 1018 75 10000 5.66 260 16:22 26.01.2021
3302 Clouds 4 1018 75 10000 6.69 260 15:57 26.01.2021
3303 Clouds 4 1018 75 10000 6.69 260 15:38 26.01.2021
3304 Clouds 4 1017 70 10000 5.66 260 15:18 26.01.2021
3305 Clouds 4 1017 70 10000 5.66 260 14:34 26.01.2021
3306 Clouds 4 1017 75 10000 6.17 250 13:59 26.01.2021
3307 Clouds 4 1017 75 10000 5.66 250 13:29 26.01.2021
3308 Clouds 4 1017 81 10000 5.66 250 12:55 26.01.2021
3309 Clouds 4 1017 81 10000 5.66 250 12:37 26.01.2021
3310 Clouds 4 1016 70 10000 5.66 240 12:19 26.01.2021
3311 Clouds 4 1016 70 10000 6.17 230 11:49 26.01.2021
3312 Clouds 3 1016 70 10000 5.66 230 11:18 26.01.2021
3313 Clouds 3 1015 75 10000 6.17 230 10:34 26.01.2021
3314 Clouds 3 1015 75 10000 6.69 220 09:57 26.01.2021
3315 Clouds 3 1015 75 10000 6.69 220 09:39 26.01.2021
3316 Clouds 3 1015 75 10000 6.69 210 09:21 26.01.2021
3317 Clouds 3 1014 80 10000 7.2 210 08:44 26.01.2021
3318 Clouds 3 1013 80 10000 7.2 210 07:56 26.01.2021
3319 Clouds 2 1013 80 10000 8.23 210 06:58 26.01.2021
3320 Clouds 1 1013 80 10000 4.12 200 05:51 26.01.2021
3321 Clouds 1 1013 80 10000 4.63 200 05:32 26.01.2021
3322 Clouds 0 1013 86 10000 5.66 200 03:32 26.01.2021
3323 Snow 0 1013 86 10000 3.09 200 00:59 26.01.2021
3324 Clouds 0 1013 86 10000 2.57 190 00:24 26.01.2021
3325 Clouds -1 1012 86 10000 3.09 190 23:31 25.01.2021
3326 Clouds 0 1012 93 10000 1.54 220 22:50 25.01.2021
3327 Clouds 0 1012 93 10000 2.06 210 22:29 25.01.2021
3328 Clouds 0 1011 86 10000 2.57 300 21:46 25.01.2021
3329 Clouds 0 1011 86 10000 4.63 270 21:19 25.01.2021
3330 Clouds 1 1010 80 10000 3.09 270 20:43 25.01.2021
3331 Clouds 1 1010 86 10000 3.6 280 20:23 25.01.2021
3332 Clouds 1 1009 80 10000 4.12 290 19:48 25.01.2021
3333 Clouds 1 1009 87 10000 3.6 300 19:23 25.01.2021
3334 Clouds 2 1008 87 10000 1.54 300 18:46 25.01.2021
3335 Clouds 1 1008 100 10000 1.03 0 18:24 25.01.2021
3336 Clouds 1 1007 93 10000 2.06 10 17:49 25.01.2021
3337 Clouds 1 1007 93 10000 2.06 10 17:49 25.01.2021
3338 Clouds 2 1007 87 10000 1.54 290 17:25 25.01.2021
3339 Clouds 2 1006 93 10000 2.57 250 16:57 25.01.2021
3340 Clouds 2 1006 93 10000 2.57 250 16:39 25.01.2021
3341 Clouds 2 1006 93 10000 2.57 250 16:20 25.01.2021
3342 Snow 2 1005 93 10000 1.54 250 15:41 25.01.2021
3343 Snow 2 1005 87 10000 2.06 240 15:21 25.01.2021
3344 Snow 1 1004 87 10000 2.57 230 14:39 25.01.2021
3345 Snow 1 1004 87 10000 2.57 230 14:18 25.01.2021
3346 Snow 1 1004 93 10000 2.06 230 13:44 25.01.2021
3347 Snow 1 1004 93 7000 1.54 230 13:22 25.01.2021
3348 Snow 1 1003 93 8000 2.06 220 12:44 25.01.2021
3349 Clouds 1 1003 86 8000 1.54 210 12:19 25.01.2021
3350 Snow 1 1002 93 5000 1.03 0 11:31 25.01.2021
3351 Snow 0 1002 86 3500 0.07 264 10:53 25.01.2021
3352 Snow 0 1002 93 1300 0.51 0 10:23 25.01.2021
3353 Snow 0 1001 93 1800 0.51 0 09:54 25.01.2021
3354 Snow 0 1001 93 1800 0.51 0 09:34 25.01.2021
3355 Snow 0 1000 93 6000 1.03 0 08:53 25.01.2021
3356 Snow 0 1000 93 4000 1.54 70 08:23 25.01.2021
3357 Snow 0 1000 93 6000 2.06 60 07:30 25.01.2021
3358 Snow 0 999 93 4800 2.06 50 06:52 25.01.2021
3359 Snow 0 999 93 10000 1.03 0 03:23 25.01.2021
3360 Clouds 0 1000 80 10000 2.06 40 00:52 25.01.2021
3361 Clouds 0 1000 93 10000 1.54 50 23:40 24.01.2021
3362 Clouds -1 1000 93 10000 1.54 50 23:19 24.01.2021
3363 Clouds 0 1001 86 10000 2.57 140 22:42 24.01.2021
3364 Clouds 0 1001 80 10000 2.57 150 22:20 24.01.2021
3365 Clouds 1 1001 80 10000 3.09 170 21:46 24.01.2021
3366 Clouds 1 1001 75 10000 2.57 160 21:24 24.01.2021
3367 Clouds 1 1001 80 10000 2.06 190 20:44 24.01.2021
3368 Clouds 1 1001 75 10000 2.57 210 20:21 24.01.2021
3369 Clouds 1 1001 75 10000 3.09 210 19:52 24.01.2021
3370 Clouds 2 1001 69 10000 3.6 220 19:27 24.01.2021
3371 Clouds 2 1001 75 10000 5.14 220 18:58 24.01.2021
3372 Clouds 2 1001 75 10000 5.14 220 18:39 24.01.2021
3373 Clouds 2 1001 75 10000 6.69 220 18:20 24.01.2021
3374 Clouds 3 1001 70 10000 4.63 230 17:50 24.01.2021
3375 Clouds 3 1001 70 10000 4.12 240 17:28 24.01.2021
3376 Clouds 3 1001 75 10000 5.14 250 16:58 24.01.2021
3377 Clouds 3 1001 75 10000 5.66 260 16:39 24.01.2021
3378 Clouds 3 1001 75 10000 5.66 260 16:19 24.01.2021
3379 Clouds 3 1001 75 10000 5.14 250 15:43 24.01.2021
3380 Clouds 4 1000 75 10000 5.66 250 15:19 24.01.2021
3381 Clouds 3 1000 75 10000 6.17 260 14:43 24.01.2021
3382 Clouds 2 999 87 10000 7.2 250 13:52 24.01.2021
3383 Clouds 3 999 87 10000 6.69 250 13:34 24.01.2021
3384 Clouds 2 999 87 10000 7.2 250 12:51 24.01.2021
3385 Clouds 2 998 93 10000 6.17 250 12:22 24.01.2021
3386 Snow 2 998 87 10000 6.69 240 11:54 24.01.2021
3387 Snow 1 997 93 4500 7.2 240 11:25 24.01.2021
3388 Snow 1 997 93 2800 7.2 240 10:59 24.01.2021
3389 Snow 1 996 93 2500 7.72 240 10:30 24.01.2021
3390 Snow 1 996 93 4000 9.26 230 09:47 24.01.2021
3391 Snow 1 995 93 6000 8.23 220 09:19 24.01.2021
3392 Snow 1 995 93 5000 8.23 220 08:38 24.01.2021
3393 Snow 2 991 100 2600 4.63 220 03:51 24.01.2021
3394 Snow 3 991 93 9000 3.6 190 02:19 24.01.2021
3395 Clouds 3 991 93 10000 3.6 100 00:57 24.01.2021
3396 Snow 3 992 93 10000 2.06 120 00:21 24.01.2021
3397 Rain 3 992 93 10000 3.09 110 23:41 23.01.2021
3398 Rain 3 992 93 10000 3.09 100 23:20 23.01.2021
3399 Rain 3 992 87 10000 3.6 90 22:41 23.01.2021
3400 Rain 3 992 87 10000 3.6 90 22:41 23.01.2021
3401 Rain 4 992 81 10000 3.09 90 22:20 23.01.2021
3402 Clouds 3 993 81 10000 3.6 90 21:24 23.01.2021
3403 Clouds 3 993 81 10000 2.57 100 20:59 23.01.2021
3404 Clouds 4 993 81 10000 2.57 100 20:39 23.01.2021
3405 Clouds 4 993 81 10000 4.12 90 20:21 23.01.2021
3406 Clouds 4 994 87 10000 3.09 110 19:45 23.01.2021
3407 Rain 4 994 81 10000 2.57 130 19:20 23.01.2021
3408 Clouds 4 994 87 10000 4.12 110 18:43 23.01.2021
3409 Clouds 4 994 87 10000 4.12 110 18:24 23.01.2021
3410 Clouds 4 995 87 10000 3.09 120 17:45 23.01.2021
3411 Clouds 4 995 87 10000 3.6 120 17:26 23.01.2021
3412 Clouds 5 995 81 10000 3.6 130 16:46 23.01.2021
3413 Clouds 5 995 81 10000 3.09 150 16:24 23.01.2021
3414 Clouds 5 995 87 10000 2.57 160 15:31 23.01.2021
3415 Clouds 5 996 87 10000 3.09 160 14:58 23.01.2021
3416 Clouds 5 996 87 10000 2.06 180 14:30 23.01.2021
3417 Clouds 4 997 93 10000 2.57 180 13:52 23.01.2021
3418 Clouds 4 997 93 10000 2.57 180 13:34 23.01.2021
3419 Drizzle 3 998 87 10000 3.09 170 12:49 23.01.2021
3420 Clouds 3 998 93 10000 2.57 160 12:27 23.01.2021
3421 Drizzle 3 998 93 7000 2.57 180 11:45 23.01.2021
3422 Drizzle 3 999 93 10000 2.57 190 11:24 23.01.2021
3423 Clouds 3 999 93 10000 2.06 160 10:46 23.01.2021
3424 Clouds 3 999 93 10000 2.57 150 10:18 23.01.2021
3425 Clouds 2 999 93 10000 3.6 160 09:44 23.01.2021
3426 Clouds 2 999 93 10000 3.09 210 08:54 23.01.2021
3427 Clouds 2 999 100 10000 3.09 190 08:30 23.01.2021
3428 Clear 2 999 93 10000 3.09 180 07:25 23.01.2021
3429 Rain 3 998 93 10000 3.09 220 03:36 23.01.2021
3430 Rain 3 997 100 10000 1.54 220 00:42 23.01.2021
3431 Rain 3 997 93 10000 1.03 0 23:39 22.01.2021
3432 Rain 3 997 93 10000 2.06 290 22:57 22.01.2021
3433 Rain 3 997 93 10000 2.57 290 22:38 22.01.2021
3434 Rain 3 996 93 10000 1.54 280 21:46 22.01.2021
3435 Rain 3 996 93 10000 1.54 280 21:46 22.01.2021
3436 Rain 3 996 93 10000 1.54 280 21:46 22.01.2021
3437 Rain 3 996 93 10000 2.57 350 21:27 22.01.2021
3438 Clouds 2 996 100 10000 2.06 10 20:57 22.01.2021
3439 Clouds 2 996 100 10000 2.06 10 20:38 22.01.2021
3440 Clouds 4 996 93 10000 2.57 50 19:55 22.01.2021
3441 Clouds 3 996 93 10000 2.57 60 19:22 22.01.2021
3442 Clouds 3 996 87 10000 1.54 60 18:57 22.01.2021
3443 Clouds 3 996 87 10000 1.54 60 18:39 22.01.2021
3444 Clouds 3 996 93 10000 2.06 100 18:20 22.01.2021
3445 Clouds 4 996 93 10000 2.57 110 17:42 22.01.2021
3446 Clouds 4 995 93 10000 1.54 110 16:59 22.01.2021
3447 Clouds 4 995 93 10000 1.54 110 16:38 22.01.2021
3448 Clouds 4 995 93 10000 1.03 0 16:18 22.01.2021
3449 Clouds 4 995 87 10000 1.54 150 15:28 22.01.2021
3450 Rain 4 995 87 10000 3.09 140 14:54 22.01.2021
3451 Rain 4 995 93 10000 3.09 140 14:29 22.01.2021
3452 Clouds 4 995 93 10000 1.54 140 13:47 22.01.2021
3453 Rain 4 995 93 10000 2.06 120 13:27 22.01.2021
3454 Rain 5 995 87 10000 2.06 90 12:45 22.01.2021
3455 Rain 5 995 93 10000 1.54 280 12:22 22.01.2021
3456 Rain 5 995 93 10000 2.57 280 11:46 22.01.2021
3457 Rain 5 994 93 10000 2.57 280 10:55 22.01.2021
3458 Rain 5 994 93 10000 2.57 280 10:35 22.01.2021
3459 Rain 6 993 87 10000 3.6 340 09:58 22.01.2021
3460 Rain 6 992 87 10000 3.09 340 09:29 22.01.2021
3461 Rain 7 992 87 10000 4.12 320 08:50 22.01.2021
3462 Rain 8 991 87 10000 4.63 220 08:25 22.01.2021
3463 Rain 10 990 76 10000 8.75 210 07:31 22.01.2021
3464 Clouds 10 991 76 10000 7.2 180 03:38 22.01.2021
3465 Clouds 11 992 76 10000 8.75 180 00:39 22.01.2021
3466 Clouds 10 992 76 10000 7.2 190 23:52 21.01.2021
3467 Clouds 10 993 81 10000 7.72 180 23:32 21.01.2021
3468 Clouds 10 993 81 10000 9.77 180 22:53 21.01.2021
3469 Clouds 10 993 81 10000 9.77 180 22:35 21.01.2021
3470 Rain 9 993 76 10000 7.72 180 21:44 21.01.2021
3471 Clouds 9 994 76 10000 6.17 170 21:22 21.01.2021
3472 Rain 8 995 81 10000 5.66 180 20:51 21.01.2021
3473 Rain 8 995 87 10000 4.63 170 20:31 21.01.2021
3474 Rain 8 995 87 10000 4.63 170 20:31 21.01.2021
3475 Rain 8 996 87 10000 5.14 170 19:56 21.01.2021
3476 Rain 8 996 87 10000 5.14 170 19:38 21.01.2021
3477 Clouds 8 996 81 10000 5.14 170 19:19 21.01.2021
3478 Rain 8 997 81 10000 5.14 170 18:40 21.01.2021
3479 Rain 8 997 81 10000 5.14 170 18:20 21.01.2021
3480 Rain 8 997 76 10000 4.12 160 17:53 21.01.2021
3481 Clouds 8 998 71 10000 4.12 180 17:21 21.01.2021
3482 Clouds 8 998 71 10000 3.09 180 16:54 21.01.2021
3483 Clouds 8 998 71 10000 3.09 180 16:36 21.01.2021
3484 Clouds 9 998 61 10000 7.2 220 16:18 21.01.2021
3485 Clouds 8 999 61 10000 7.2 220 15:39 21.01.2021
3486 Clouds 8 999 71 10000 7.2 210 15:21 21.01.2021
3487 Clouds 8 999 71 10000 8.75 220 14:39 21.01.2021
3488 Clouds 8 999 71 10000 8.75 220 14:21 21.01.2021
3489 Clouds 8 999 76 10000 6.69 210 13:42 21.01.2021
3490 Clouds 8 999 87 10000 4.12 190 13:22 21.01.2021
3491 Clouds 8 999 87 10000 3.6 190 12:42 21.01.2021
3492 Clouds 8 999 87 10000 5.14 220 12:23 21.01.2021
3493 Clouds 9 999 93 10000 6.69 240 11:51 21.01.2021
3494 Rain 10 997 71 9000 8.23 200 11:28 21.01.2021
3495 Rain 10 997 66 10000 8.23 190 10:52 21.01.2021
3496 Clouds 10 997 66 10000 8.23 190 10:33 21.01.2021
3497 Clouds 10 996 62 10000 8.75 190 09:45 21.01.2021
3498 Rain 10 996 57 10000 7.72 180 09:25 21.01.2021
3499 Clouds 10 996 57 10000 7.2 180 08:45 21.01.2021
3500 Clouds 10 996 57 10000 7.72 190 08:25 21.01.2021
3501 Clouds 9 996 53 10000 7.2 180 07:28 21.01.2021
3502 Clouds 9 996 53 10000 6.69 190 06:58 21.01.2021
3503 Clear 8 996 49 10000 8.23 180 05:22 21.01.2021
3504 Clear 7 998 57 10000 6.17 190 02:59 21.01.2021
3505 Clear 7 999 53 10000 3.6 190 01:21 21.01.2021
3506 Clear 7 1000 57 10000 4.12 190 23:56 20.01.2021
3507 Clear 7 1000 57 10000 2.57 190 23:36 20.01.2021
3508 Clear 7 1000 57 10000 2.57 190 23:18 20.01.2021
3509 Clear 7 1000 57 10000 4.12 190 22:46 20.01.2021
3510 Clear 7 1001 57 10000 3.6 180 22:28 20.01.2021
3511 Clear 7 1001 61 10000 3.6 190 21:43 20.01.2021
3512 Clear 7 1001 61 10000 4.63 180 21:22 20.01.2021
3513 Clear 8 1001 57 10000 4.63 180 20:50 20.01.2021
3514 Clear 8 1002 57 10000 5.14 170 20:21 20.01.2021
3515 Clear 7 1002 57 10000 4.12 180 19:47 20.01.2021
3516 Clear 7 1002 61 10000 3.09 180 19:27 20.01.2021
3517 Clear 8 1002 65 10000 4.12 150 18:43 20.01.2021
3518 Clear 8 1002 61 10000 3.6 170 18:20 20.01.2021
3519 Clear 7 1002 61 10000 3.09 170 17:44 20.01.2021
3520 Clear 8 1003 61 10000 1.03 0 17:26 20.01.2021
3521 Clear 9 1003 57 10000 2.57 210 16:47 20.01.2021
3522 Clear 9 1003 57 10000 3.6 190 16:22 20.01.2021
3523 Clear 9 1003 57 10000 4.12 180 15:38 20.01.2021
3524 Clear 9 1004 57 10000 3.6 170 14:58 20.01.2021
3525 Clear 9 1004 57 10000 3.6 170 14:39 20.01.2021
3526 Clear 8 1004 61 10000 4.12 180 14:19 20.01.2021
3527 Clear 8 1005 61 10000 3.6 180 13:37 20.01.2021
3528 Clear 8 1006 61 10000 2.57 190 12:56 20.01.2021
3529 Clear 7 1006 61 10000 2.57 220 12:22 20.01.2021
3530 Clear 7 1006 61 10000 2.57 220 12:22 20.01.2021
3531 Clear 5 1007 65 10000 1.54 250 11:41 20.01.2021
3532 Clear 5 1007 65 10000 1.54 250 11:20 20.01.2021
3533 Clear 5 1007 70 10000 1.54 260 10:49 20.01.2021
3534 Clear 4 1007 70 10000 1.03 240 10:25 20.01.2021
3535 Clear 4 1008 75 10000 1.54 220 09:38 20.01.2021
3536 Clear 4 1008 70 10000 2.06 210 09:19 20.01.2021
3537 Clear 4 1008 65 10000 3.6 200 08:44 20.01.2021
3538 Clear 4 1008 65 10000 5.14 200 08:23 20.01.2021
3539 Clear 4 1008 65 10000 5.66 200 07:53 20.01.2021
3540 Clear 4 1008 65 10000 5.66 200 07:24 20.01.2021
3541 Clear 3 1009 75 10000 2.57 220 04:44 20.01.2021
3542 Clear 3 1010 75 10000 3.09 220 02:57 20.01.2021
3543 Clear 3 1011 70 10000 6.17 200 00:58 20.01.2021
3544 Clear 3 1011 75 10000 5.14 210 23:59 19.01.2021
3545 Clear 3 1011 75 10000 5.14 210 23:41 19.01.2021
3546 Clear 3 1011 75 10000 6.69 200 23:18 19.01.2021
3547 Clouds 3 1011 80 10000 6.17 210 22:41 19.01.2021
3548 Clouds 3 1012 87 10000 4.63 220 22:21 19.01.2021
3549 Clouds 3 1012 87 10000 6.17 210 21:58 19.01.2021
3550 Clouds 3 1012 87 10000 6.17 210 21:39 19.01.2021
3551 Clouds 4 1013 75 10000 6.69 200 20:55 19.01.2021
3552 Clouds 4 1013 75 10000 6.69 200 20:36 19.01.2021
3553 Clouds 4 1013 81 10000 4.63 210 20:18 19.01.2021
3554 Clouds 4 1012 81 10000 7.2 200 19:41 19.01.2021
3555 Clouds 4 1012 81 10000 7.72 200 19:19 19.01.2021
3556 Clouds 5 1012 81 10000 7.72 200 18:39 19.01.2021
3557 Clouds 5 1012 81 10000 7.72 200 18:21 19.01.2021
3558 Clouds 5 1012 81 10000 9.26 210 17:45 19.01.2021
3559 Clouds 5 1012 81 10000 6.69 200 17:24 19.01.2021
3560 Clouds 4 1012 81 10000 6.17 190 16:48 19.01.2021
3561 Clouds 4 1012 87 10000 7.2 200 16:25 19.01.2021
3562 Clouds 4 1011 87 10000 8.23 200 15:57 19.01.2021
3563 Clouds 4 1011 87 10000 8.23 200 15:35 19.01.2021
3564 Rain 4 1011 87 10000 8.23 200 14:57 19.01.2021
3565 Rain 4 1011 87 10000 8.23 200 14:37 19.01.2021
3566 Rain 3 1011 93 10000 6.17 200 14:18 19.01.2021
3567 Snow 3 1012 87 10000 6.69 200 13:39 19.01.2021
3568 Snow 3 1012 87 10000 7.72 200 13:20 19.01.2021
3569 Snow 3 1012 87 9000 7.2 200 12:42 19.01.2021
3570 Snow 3 1013 81 9000 6.17 190 12:21 19.01.2021
3571 Rain 2 1013 81 10000 6.17 190 11:43 19.01.2021
3572 Snow 2 1014 87 10000 6.17 190 11:23 19.01.2021
3573 Snow 2 1014 93 3800 6.69 180 10:50 19.01.2021
3574 Snow 2 1015 80 5000 5.66 190 10:31 19.01.2021
3575 Snow 3 1015 80 10000 6.69 190 09:52 19.01.2021
3576 Snow 3 1016 80 10000 7.2 190 09:26 19.01.2021
3577 Rain 3 1016 75 10000 7.2 190 08:52 19.01.2021
3578 Clouds 3 1016 75 10000 6.69 190 08:19 19.01.2021
3579 Clouds 3 1017 75 10000 7.72 190 07:38 19.01.2021
3580 Clouds 3 1017 75 10000 6.69 190 06:50 19.01.2021
3581 Clouds 3 1021 81 10000 4.63 200 02:31 19.01.2021
3582 Clouds 3 1022 75 10000 5.14 200 00:49 19.01.2021
3583 Clouds 4 1022 75 10000 5.66 210 23:58 18.01.2021
3584 Clouds 4 1022 75 10000 6.17 210 23:31 18.01.2021
3585 Clouds 3 1022 75 10000 6.17 220 22:51 18.01.2021
3586 Clouds 4 1022 75 10000 6.17 220 22:25 18.01.2021
3587 Clouds 4 1023 75 10000 6.69 230 21:55 18.01.2021
3588 Clouds 4 1023 75 10000 6.69 230 21:37 18.01.2021
3589 Clouds 4 1023 75 10000 6.69 230 21:19 18.01.2021
3590 Clouds 3 1023 75 10000 7.2 220 20:42 18.01.2021
3591 Clouds 4 1023 75 10000 6.69 220 20:22 18.01.2021
3592 Clouds 4 1023 75 10000 7.2 220 19:48 18.01.2021
3593 Clouds 4 1023 75 10000 6.17 220 19:30 18.01.2021
3594 Clouds 4 1023 75 10000 6.17 210 18:47 18.01.2021
3595 Clouds 4 1023 75 10000 5.66 200 18:23 18.01.2021
3596 Clouds 4 1023 75 10000 5.14 220 17:44 18.01.2021
3597 Clouds 4 1023 70 10000 6.69 220 17:22 18.01.2021
3598 Clouds 4 1023 70 10000 5.66 220 16:46 18.01.2021
3599 Clouds 5 1023 75 10000 4.63 210 16:21 18.01.2021
3600 Clouds 5 1023 75 10000 5.66 220 15:48 18.01.2021
3601 Rain 5 1023 75 10000 5.66 220 15:25 18.01.2021
3602 Clouds 5 1023 70 10000 6.69 230 14:44 18.01.2021
3603 Clouds 5 1023 70 10000 5.66 230 14:26 18.01.2021
3604 Clouds 5 1024 75 10000 6.17 230 13:47 18.01.2021
3605 Clouds 4 1024 81 10000 5.66 230 13:28 18.01.2021
3606 Clouds 4 1025 81 10000 4.63 240 12:55 18.01.2021
3607 Clouds 4 1025 81 10000 5.66 230 12:21 18.01.2021
3608 Clouds 4 1025 81 10000 5.14 220 11:57 18.01.2021
3609 Clouds 4 1025 81 10000 5.14 220 11:39 18.01.2021
3610 Clouds 3 1025 75 10000 5.14 220 11:20 18.01.2021
3611 Clouds 3 1025 81 10000 4.12 200 10:46 18.01.2021
3612 Clouds 2 1025 87 10000 3.6 180 09:50 18.01.2021
3613 Clouds 2 1025 87 10000 3.6 180 09:32 18.01.2021
3614 Clouds 3 1024 81 10000 6.17 230 08:55 18.01.2021
3615 Clouds 3 1024 81 10000 6.17 230 08:25 18.01.2021
3616 Clouds 2 1024 87 10000 3.09 200 07:38 18.01.2021
3617 Clouds 3 1023 93 10000 1.03 0 05:49 18.01.2021
3618 Clouds 2 1023 93 10000 2.06 200 04:41 18.01.2021
3619 Clouds 2 1023 100 10000 2.06 180 04:20 18.01.2021
3620 Clouds 2 1023 93 9000 2.57 210 03:45 18.01.2021
3621 Clouds 2 1023 93 8000 3.09 190 03:23 18.01.2021
3622 Mist 1 1023 93 5000 2.06 200 02:51 18.01.2021
3623 Snow 1 1023 93 5000 1.03 0 02:18 18.01.2021
3624 Mist 1 1023 100 4500 0.51 0 00:39 18.01.2021
3625 Snow 0 1023 100 4000 2.06 200 23:51 17.01.2021
3626 Mist 0 1023 100 4500 1.54 150 23:24 17.01.2021
3627 Mist 1 1023 100 4500 2.06 180 22:50 17.01.2021
3628 Mist 0 1022 100 4500 2.06 200 22:22 17.01.2021
3629 Mist 0 1022 100 4500 3.09 200 21:43 17.01.2021
3630 Mist 0 1022 100 4500 2.57 220 21:24 17.01.2021
3631 Mist 0 1022 100 4500 2.06 200 20:51 17.01.2021
3632 Mist 0 1022 100 5000 2.57 220 20:32 17.01.2021
3633 Snow 0 1022 93 5000 2.57 220 19:53 17.01.2021
3634 Snow 0 1022 93 5000 2.57 220 19:34 17.01.2021
3635 Mist 0 1022 93 5000 2.57 220 18:54 17.01.2021
3636 Snow 0 1021 93 5000 2.06 210 18:29 17.01.2021
3637 Clouds 0 1021 93 6000 1.03 0 17:51 17.01.2021
3638 Snow 0 1021 93 6000 1.54 200 17:29 17.01.2021
3639 Snow 0 1020 93 6000 2.06 200 16:45 17.01.2021
3640 Snow 0 1020 93 7000 1.54 190 16:25 17.01.2021
3641 Snow 1 1019 93 3100 2.06 220 15:54 17.01.2021
3642 Snow 1 1019 86 7000 2.57 230 15:27 17.01.2021
3643 Snow 0 1019 86 6000 2.06 220 14:59 17.01.2021
3644 Snow 1 1019 86 6000 2.06 220 14:39 17.01.2021
3645 Snow 0 1018 93 5000 2.06 210 14:21 17.01.2021
3646 Snow 0 1019 86 5000 1.54 210 13:43 17.01.2021
3647 Snow 0 1019 86 6000 1.54 220 13:24 17.01.2021
3648 Snow 0 1019 86 6000 1.54 210 12:45 17.01.2021
3649 Snow 0 1019 86 5000 1.54 200 12:25 17.01.2021
3650 Snow -1 1018 93 4500 2.06 200 11:26 17.01.2021
3651 Snow -1 1018 93 4200 2.57 210 10:57 17.01.2021
3652 Snow -1 1018 93 4200 2.57 210 10:37 17.01.2021
3653 Mist -1 1018 93 4200 2.06 210 10:18 17.01.2021
3654 Mist -1 1017 100 3500 2.06 210 09:18 17.01.2021
3655 Drizzle -1 1016 93 3500 1.54 160 08:41 17.01.2021
3656 Snow -2 1016 93 5000 2.06 190 04:39 17.01.2021
3657 Snow -2 1016 93 5000 2.57 170 04:20 17.01.2021
3658 Snow -2 1018 93 4000 2.57 170 01:37 17.01.2021
3659 Snow -1 1019 93 2500 2.57 180 00:21 17.01.2021
3660 Snow -1 1020 93 2500 2.57 190 23:54 16.01.2021
3661 Snow -1 1020 93 3500 2.57 190 23:26 16.01.2021
3662 Snow -1 1020 93 2500 3.6 200 22:58 16.01.2021
3663 Snow -1 1020 80 7000 3.6 180 22:27 16.01.2021
3664 Snow -1 1020 80 10000 3.6 170 21:58 16.01.2021
3665 Clouds -1 1021 80 10000 4.12 170 21:24 16.01.2021
3666 Clouds -1 1021 80 10000 4.12 170 20:53 16.01.2021
3667 Clouds -1 1021 74 10000 3.09 180 20:29 16.01.2021
3668 Clouds -1 1022 69 10000 2.57 170 19:50 16.01.2021
3669 Clouds -1 1022 69 10000 2.57 160 19:31 16.01.2021
3670 Clouds -1 1022 69 10000 2.06 150 18:47 16.01.2021
3671 Clouds -1 1023 69 10000 2.06 150 18:28 16.01.2021
3672 Clouds -1 1023 69 10000 2.06 0 17:59 16.01.2021
3673 Clouds -1 1023 69 10000 2.06 0 17:39 16.01.2021
3674 Clouds 0 1023 64 10000 2.06 170 17:21 16.01.2021
3675 Clouds 0 1024 59 10000 2.57 170 16:42 16.01.2021
3676 Clouds 0 1024 59 10000 2.57 180 16:20 16.01.2021
3677 Clouds 1 1024 59 10000 3.09 180 15:43 16.01.2021
3678 Clouds 0 1025 64 10000 2.06 160 14:39 16.01.2021
3679 Clouds 0 1026 64 10000 2.06 190 13:54 16.01.2021
3680 Clouds 1 1026 64 10000 2.57 210 13:34 16.01.2021
3681 Clouds 1 1026 59 10000 1.03 0 12:58 16.01.2021
3682 Clouds 0 1026 59 10000 1.03 0 12:37 16.01.2021
3683 Clouds 0 1027 59 10000 1.03 0 12:19 16.01.2021
3684 Clouds 0 1027 59 10000 0.51 0 11:45 16.01.2021
3685 Clouds 0 1027 55 10000 1.54 0 11:20 16.01.2021
3686 Clouds 0 1028 59 10000 1.54 340 10:42 16.01.2021
3687 Clouds 0 1027 59 10000 2.57 20 09:57 16.01.2021
3688 Clouds 0 1028 59 10000 2.57 10 09:31 16.01.2021
3689 Clouds 0 1028 64 10000 2.06 10 08:32 16.01.2021
3690 Clouds -1 1028 69 10000 1.03 180 07:28 16.01.2021
3691 Clouds -1 1028 64 10000 1.54 310 05:46 16.01.2021
3692 Clouds -1 1028 69 10000 3.6 330 04:38 16.01.2021
3693 Clouds 0 1028 69 10000 4.63 320 02:55 16.01.2021
3694 Clouds 0 1028 69 10000 2.06 290 00:49 16.01.2021
3695 Clouds 1 1028 75 10000 1.54 300 00:26 16.01.2021
3696 Clouds 1 1028 75 10000 2.06 290 23:49 15.01.2021
3697 Clouds 1 1028 75 10000 2.57 290 22:56 15.01.2021
3698 Clouds 1 1028 75 10000 2.06 300 22:24 15.01.2021
3699 Clouds 0 1028 75 10000 2.06 310 21:46 15.01.2021
3700 Clouds 0 1028 75 10000 2.57 300 20:59 15.01.2021
3701 Clouds 0 1028 75 10000 2.57 300 20:40 15.01.2021
3702 Clouds 1 1027 75 10000 1.54 280 20:21 15.01.2021
3703 Clouds 1 1027 80 10000 1.54 310 19:40 15.01.2021
3704 Clouds 1 1027 75 10000 1.03 0 19:22 15.01.2021
3705 Clouds 1 1027 75 10000 2.06 320 18:43 15.01.2021
3706 Clouds 1 1027 80 10000 2.57 320 18:19 15.01.2021
3707 Snow 1 1027 80 10000 2.57 330 17:51 15.01.2021
3708 Clouds 1 1026 69 10000 3.6 360 17:26 15.01.2021
3709 Clouds 1 1026 69 10000 4.12 360 16:54 15.01.2021
3710 Clouds 2 1026 75 10000 4.12 10 16:25 15.01.2021
3711 Clouds 2 1026 75 10000 3.6 360 15:43 15.01.2021
3712 Clouds 2 1025 75 10000 3.6 360 15:23 15.01.2021
3713 Clouds 2 1025 75 10000 4.12 10 14:56 15.01.2021
3714 Clouds 2 1025 75 10000 4.12 10 14:37 15.01.2021
3715 Clouds 2 1025 75 10000 4.12 10 14:18 15.01.2021
3716 Clouds 2 1025 75 10000 4.12 20 13:40 15.01.2021
3717 Clouds 1 1025 75 10000 4.12 20 13:19 15.01.2021
3718 Clouds 1 1025 75 10000 3.6 20 12:40 15.01.2021
3719 Clouds 1 1025 75 10000 4.63 20 12:21 15.01.2021
3720 Clear 1 1025 69 10000 3.6 20 11:42 15.01.2021
3721 Clear 1 1025 69 10000 3.6 20 11:42 15.01.2021
3722 Clear 0 1024 69 10000 3.6 20 10:59 15.01.2021
3723 Clear 0 1024 69 10000 3.6 20 10:41 15.01.2021
3724 Clear -1 1024 74 10000 4.12 20 10:21 15.01.2021
3725 Clear -1 1023 80 10000 3.6 10 09:48 15.01.2021
3726 Clouds -1 1023 80 10000 3.6 10 09:29 15.01.2021
3727 Clouds 0 1022 74 10000 4.63 20 08:28 15.01.2021
3728 Clouds -1 1022 80 10000 4.63 20 07:44 15.01.2021
3729 Clouds -1 1022 80 10000 4.12 20 07:23 15.01.2021
3730 Clouds -1 1022 74 10000 4.12 20 06:36 15.01.2021
3731 Clouds -1 1019 74 10000 3.6 10 02:45 15.01.2021
3732 Clouds -2 1019 93 10000 3.6 50 00:47 15.01.2021
3733 Clouds 0 1019 74 10000 5.14 50 23:31 14.01.2021
3734 Clouds 0 1019 80 10000 4.63 50 22:58 14.01.2021
3735 Clouds 0 1019 80 10000 4.63 50 22:38 14.01.2021
3736 Clouds -1 1019 80 10000 4.12 60 22:20 14.01.2021
3737 Clouds 0 1019 80 10000 3.6 70 21:41 14.01.2021
3738 Clouds 1 1019 74 10000 3.09 80 21:20 14.01.2021
3739 Clouds 0 1019 80 10000 3.09 80 20:48 14.01.2021
3740 Clouds 0 1019 80 10000 3.6 60 20:22 14.01.2021
3741 Clouds 0 1019 86 10000 3.6 50 19:41 14.01.2021
3742 Clouds 0 1019 80 10000 3.6 50 19:23 14.01.2021
3743 Clouds 0 1019 80 10000 3.6 60 18:49 14.01.2021
3744 Clouds 0 1019 80 10000 3.09 60 18:19 14.01.2021
3745 Clouds 1 1019 80 10000 2.06 60 17:45 14.01.2021
3746 Clouds 1 1019 75 10000 2.57 70 17:26 14.01.2021
3747 Clouds 1 1019 75 10000 4.12 60 16:40 14.01.2021
3748 Clouds 2 1019 69 10000 3.6 70 15:57 14.01.2021
3749 Clouds 2 1019 69 10000 3.6 70 15:39 14.01.2021
3750 Clouds 2 1019 69 10000 2.57 90 14:59 14.01.2021
3751 Clouds 2 1019 69 10000 2.57 90 14:38 14.01.2021
3752 Clouds 2 1019 65 10000 1.03 0 14:19 14.01.2021
3753 Clouds 2 1019 65 10000 2.57 80 13:52 14.01.2021
3754 Clouds 2 1019 65 10000 3.6 60 13:21 14.01.2021
3755 Clouds 2 1020 64 10000 3.09 20 12:48 14.01.2021
3756 Clouds 2 1020 60 10000 2.57 20 12:20 14.01.2021
3757 Clouds 2 1020 64 10000 2.57 10 11:43 14.01.2021
3758 Clouds 2 1020 64 10000 2.57 30 11:21 14.01.2021
3759 Clouds 2 1019 69 10000 3.09 20 10:52 14.01.2021
3760 Clouds 2 1019 69 10000 1.54 350 10:29 14.01.2021
3761 Clouds 2 1018 69 10000 1.54 330 09:48 14.01.2021
3762 Clouds 1 1018 75 10000 2.06 290 09:23 14.01.2021
3763 Clouds 2 1017 69 10000 2.57 290 08:52 14.01.2021
3764 Clouds 1 1017 75 10000 2.06 260 08:28 14.01.2021
3765 Clear 2 1017 69 10000 2.06 310 07:50 14.01.2021
3766 Clouds 2 1016 69 10000 3.6 310 06:59 14.01.2021
3767 Clouds 2 1016 69 10000 4.12 320 06:19 14.01.2021
3768 Clouds 3 1014 70 10000 4.63 250 01:55 14.01.2021
3769 Clouds 3 1013 75 10000 4.12 250 23:56 13.01.2021
3770 Clouds 3 1013 81 10000 3.6 230 23:24 13.01.2021
3771 Clouds 3 1013 81 10000 3.6 220 22:40 13.01.2021
3772 Clouds 2 1013 81 10000 3.6 220 22:18 13.01.2021
3773 Clouds 2 1013 80 10000 4.63 220 21:42 13.01.2021
3774 Clouds 2 1013 80 10000 4.63 220 21:19 13.01.2021
3775 Clouds 2 1013 80 10000 4.63 210 20:43 13.01.2021
3776 Clouds 2 1013 80 10000 4.63 200 20:21 13.01.2021
3777 Clouds 2 1013 80 10000 4.63 210 19:46 13.01.2021
3778 Clouds 2 1014 80 10000 4.63 210 19:23 13.01.2021
3779 Clouds 2 1014 75 10000 4.63 210 18:44 13.01.2021
3780 Clouds 2 1014 80 10000 4.63 210 18:22 13.01.2021
3781 Clouds 3 1014 80 10000 5.14 210 17:41 13.01.2021
3782 Clouds 3 1015 75 10000 5.14 220 17:18 13.01.2021
3783 Clouds 4 1015 70 10000 5.14 220 16:41 13.01.2021
3784 Clouds 4 1015 70 10000 6.69 230 16:21 13.01.2021
3785 Clouds 4 1015 60 10000 5.66 250 15:40 13.01.2021
3786 Clouds 5 1016 65 10000 7.72 240 14:59 13.01.2021
3787 Clouds 5 1016 65 10000 7.2 230 14:28 13.01.2021
3788 Clouds 4 1016 70 10000 5.66 230 13:46 13.01.2021
3789 Clouds 4 1017 70 10000 6.69 220 13:21 13.01.2021
3790 Clouds 3 1017 75 10000 6.17 230 12:46 13.01.2021
3791 Clouds 3 1018 75 10000 6.17 220 12:24 13.01.2021
3792 Clouds 3 1018 75 10000 7.2 220 11:51 13.01.2021
3793 Clouds 3 1018 75 10000 5.66 230 11:33 13.01.2021
3794 Clouds 2 1018 80 10000 4.12 210 10:49 13.01.2021
3795 Clouds 0 1018 86 10000 4.63 220 10:28 13.01.2021
3796 Clouds 0 1018 86 10000 3.09 190 09:49 13.01.2021
3797 Clouds 0 1018 86 10000 3.09 200 09:26 13.01.2021
3798 Clouds 1 1018 86 10000 2.57 200 08:46 13.01.2021
3799 Clouds 1 1017 86 10000 2.06 180 08:23 13.01.2021
3800 Clouds 0 1017 86 10000 1.54 0 07:29 13.01.2021
3801 Clouds 1 1017 86 10000 1.03 0 06:26 13.01.2021
3802 Clouds 1 1017 93 10000 1.03 170 04:19 13.01.2021
3803 Clouds 0 1017 93 10000 2.57 180 03:44 13.01.2021
3804 Clouds 0 1017 93 10000 1.54 170 03:23 13.01.2021
3805 Clouds 0 1016 100 10000 1.54 170 00:54 13.01.2021
3806 Clouds 1 1015 86 10000 2.06 180 23:52 12.01.2021
3807 Clouds 2 1015 80 10000 3.6 280 23:20 12.01.2021
3808 Clouds 2 1014 80 10000 5.66 280 22:45 12.01.2021
3809 Clouds 2 1014 75 10000 6.69 260 22:23 12.01.2021
3810 Clouds 2 1013 81 10000 6.69 270 21:49 12.01.2021
3811 Clouds 2 1013 81 10000 6.17 270 21:28 12.01.2021
3812 Clouds 2 1013 81 10000 6.17 280 20:49 12.01.2021
3813 Clouds 3 1012 81 10000 7.72 290 20:27 12.01.2021
3814 Clouds 3 1012 81 10000 6.69 290 19:48 12.01.2021
3815 Clouds 3 1011 87 10000 5.66 290 19:27 12.01.2021
3816 Clouds 3 1011 81 10000 5.66 280 18:44 12.01.2021
3817 Clouds 4 1010 93 10000 4.63 280 18:24 12.01.2021
3818 Rain 4 1009 100 10000 4.63 220 17:43 12.01.2021
3819 Rain 4 1009 100 10000 3.6 210 17:24 12.01.2021
3820 Clouds 4 1009 87 7000 5.14 230 16:43 12.01.2021
3821 Drizzle 4 1008 87 10000 6.69 220 16:24 12.01.2021
3822 Rain 4 1007 87 10000 8.23 210 15:41 12.01.2021
3823 Rain 4 1007 87 10000 8.23 210 15:21 12.01.2021
3824 Rain 4 1007 87 10000 7.2 210 14:43 12.01.2021
3825 Clouds 3 1007 87 10000 7.2 210 14:23 12.01.2021
3826 Clouds 3 1007 87 10000 6.69 200 13:52 12.01.2021
3827 Clouds 3 1008 87 10000 7.72 210 13:18 12.01.2021
3828 Rain 3 1008 87 10000 8.75 210 12:26 12.01.2021
3829 Rain 2 1008 93 10000 7.72 200 11:41 12.01.2021
3830 Rain 2 1009 100 10000 6.69 200 10:55 12.01.2021
3831 Rain 2 1009 100 10000 6.69 200 10:55 12.01.2021
3832 Rain 2 1009 100 10000 6.69 200 10:55 12.01.2021
3833 Clouds 2 1009 93 8000 6.69 200 10:26 12.01.2021
3834 Snow 1 1009 100 4000 5.14 200 09:58 12.01.2021
3835 Snow 1 1009 100 4000 5.14 200 09:39 12.01.2021
3836 Snow 1 1009 100 1500 5.14 200 09:20 12.01.2021
3837 Snow 1 1010 100 1500 5.66 200 08:26 12.01.2021
3838 Snow 1 1010 100 1500 6.17 200 07:37 12.01.2021
3839 Snow 0 1011 100 2000 5.14 190 06:59 12.01.2021
3840 Snow 1 1012 93 3000 6.69 200 05:35 12.01.2021
3841 Rain 1 1014 75 10000 7.72 200 03:33 12.01.2021
3842 Snow 1 1015 75 10000 7.2 200 02:21 12.01.2021
3843 Clouds 1 1016 75 10000 6.69 200 01:36 12.01.2021
3844 Clouds 1 1017 75 10000 4.63 190 00:30 12.01.2021
3845 Clouds 1 1017 75 10000 5.14 190 23:39 11.01.2021
3846 Clouds 1 1017 69 10000 5.66 200 23:18 11.01.2021
3847 Clouds 1 1018 69 10000 4.63 190 22:45 11.01.2021
3848 Clouds 1 1018 69 10000 4.12 200 22:27 11.01.2021
3849 Clouds 1 1018 69 10000 4.63 200 21:44 11.01.2021
3850 Clouds 1 1018 69 10000 5.14 200 21:25 11.01.2021
3851 Clouds 1 1019 69 10000 4.63 200 20:56 11.01.2021
3852 Clouds 1 1019 69 10000 4.63 200 20:36 11.01.2021
3853 Clouds 1 1019 69 10000 4.63 200 20:18 11.01.2021
3854 Clouds 1 1019 69 10000 4.12 190 19:41 11.01.2021
3855 Clouds 1 1020 69 10000 3.6 190 19:21 11.01.2021
3856 Clouds 1 1020 69 10000 4.63 190 18:42 11.01.2021
3857 Clouds 1 1020 69 10000 4.63 200 18:23 11.01.2021
3858 Clouds 1 1020 69 10000 4.12 180 17:42 11.01.2021
3859 Clear 1 1020 69 10000 3.09 190 17:24 11.01.2021
3860 Clear 1 1021 69 10000 3.09 190 16:48 11.01.2021
3861 Clear 1 1021 69 10000 3.09 190 16:29 11.01.2021
3862 Clouds 1 1021 75 10000 3.09 190 15:54 11.01.2021
3863 Clouds 1 1021 75 10000 3.09 190 15:34 11.01.2021
3864 Clouds 1 1021 69 10000 4.63 220 14:51 11.01.2021
3865 Clouds 1 1021 69 10000 4.63 220 14:32 11.01.2021
3866 Snow 1 1022 75 10000 4.12 200 13:46 11.01.2021
3867 Clouds 1 1023 75 10000 3.6 200 13:22 11.01.2021
3868 Clouds 0 1023 80 10000 3.6 210 12:44 11.01.2021
3869 Clouds 0 1023 86 10000 3.6 210 12:25 11.01.2021
3870 Clouds 0 1023 86 10000 3.6 210 12:25 11.01.2021
3871 Clear 0 1024 80 10000 2.06 210 11:47 11.01.2021
3872 Clear -1 1024 86 10000 2.57 200 11:18 11.01.2021
3873 Clouds -1 1024 93 10000 2.06 210 10:42 11.01.2021
3874 Clouds -2 1023 93 10000 1.54 190 10:21 11.01.2021
3875 Clear -4 1023 86 10000 1.54 200 09:37 11.01.2021
3876 Clear -4 1023 86 10000 1.54 200 09:19 11.01.2021
3877 Clouds -4 1023 86 10000 1.54 160 08:38 11.01.2021
3878 Clouds -4 1023 86 10000 1.03 0 07:51 11.01.2021
3879 Clouds -4 1023 93 10000 0.51 0 07:25 11.01.2021
3880 Clouds -4 1023 93 10000 1.03 190 06:50 11.01.2021
3881 Clouds -3 1024 93 10000 0.51 220 03:22 11.01.2021
3882 Clear -2 1024 93 10000 0.51 200 01:29 11.01.2021
3883 Clear -2 1024 93 10000 0.51 0 23:53 10.01.2021
3884 Clear -2 1024 93 10000 0.51 120 23:30 10.01.2021
3885 Clear -3 1024 93 10000 1.54 140 22:48 10.01.2021
3886 Clouds -3 1024 93 10000 0.51 0 22:23 10.01.2021
3887 Clouds -2 1024 93 10000 0.51 0 21:44 10.01.2021
3888 Clouds -3 1024 93 10000 0.51 0 21:20 10.01.2021
3889 Clear -3 1024 86 10000 1.03 250 20:53 10.01.2021
3890 Clear -3 1024 86 10000 0.51 0 20:32 10.01.2021
3891 Clouds -2 1024 93 10000 0.51 220 19:43 10.01.2021
3892 Clouds -3 1024 86 10000 0.51 0 19:25 10.01.2021
3893 Clouds -2 1024 86 10000 0.51 0 18:49 10.01.2021
3894 Clouds -1 1024 80 10000 0.51 0 18:21 10.01.2021
3895 Clouds 0 1024 80 10000 1.03 0 17:41 10.01.2021
3896 Clouds 0 1024 74 10000 0.51 0 17:20 10.01.2021
3897 Clouds 2 1024 60 10000 1.03 0 16:33 10.01.2021
3898 Clouds 2 1024 60 10000 1.03 0 16:33 10.01.2021
3899 Clouds 3 1024 56 10000 0.51 0 15:57 10.01.2021
3900 Clouds 4 1023 56 10000 0.51 0 15:25 10.01.2021
3901 Clouds 3 1023 56 10000 0.51 0 14:50 10.01.2021
3902 Clouds 3 1024 60 10000 0.51 0 14:32 10.01.2021
3903 Clouds 3 1024 60 10000 1.03 0 13:55 10.01.2021
3904 Clouds 2 1024 60 10000 1.03 0 13:37 10.01.2021
3905 Clouds 3 1024 65 10000 1.03 0 13:18 10.01.2021
3906 Clear 2 1024 65 10000 1.03 0 12:50 10.01.2021
3907 Clear 2 1025 69 10000 0.51 0 12:31 10.01.2021
3908 Clear 1 1025 69 10000 1.03 0 11:40 10.01.2021
3909 Clear 0 1025 75 10000 1.54 0 11:19 10.01.2021
3910 Clear 0 1025 75 10000 1.54 0 11:19 10.01.2021
3911 Clouds -1 1025 93 10000 1.03 110 10:42 10.01.2021
3912 Clouds -1 1025 93 10000 1.03 0 10:21 10.01.2021
3913 Clear -2 1025 93 10000 0.51 0 09:28 10.01.2021
3914 Clear -3 1025 93 10000 1.03 160 08:22 10.01.2021
3915 Clear -3 1024 100 10000 0.51 0 07:33 10.01.2021
3916 Clear -2 1024 93 10000 0.51 290 06:20 10.01.2021
3917 Clouds -2 1024 93 10000 1.54 290 05:38 10.01.2021
3918 Clear -2 1024 86 10000 1.03 130 03:55 10.01.2021
3919 Clear -2 1024 93 10000 0.51 0 01:29 10.01.2021
3920 Clouds -1 1024 93 10000 0.63 3 23:55 09.01.2021
3921 Clouds -1 1024 93 10000 0.63 3 23:36 09.01.2021
3922 Clouds -1 1024 80 10000 1.03 0 22:50 09.01.2021
3923 Clouds -1 1024 86 10000 0.51 0 22:19 09.01.2021
3924 Clouds -1 1024 86 10000 0.51 0 21:58 09.01.2021
3925 Clouds -1 1024 86 10000 1.03 260 21:39 09.01.2021
3926 Clouds -1 1024 86 10000 1.03 260 21:20 09.01.2021
3927 Clouds -1 1024 86 10000 0.51 240 20:46 09.01.2021
3928 Clouds -1 1024 86 10000 0.51 0 20:27 09.01.2021
3929 Clouds 0 1023 74 10000 0.51 0 19:39 09.01.2021
3930 Clouds 0 1023 74 10000 0.51 0 19:19 09.01.2021
3931 Clouds 0 1023 69 10000 1.54 80 18:36 09.01.2021
3932 Clouds 1 1023 75 10000 3.09 80 17:51 09.01.2021
3933 Clouds 2 1023 69 10000 2.06 70 17:32 09.01.2021
3934 Clouds 2 1023 69 10000 3.6 70 16:56 09.01.2021
3935 Clouds 2 1023 60 10000 3.6 40 16:22 09.01.2021
3936 Clouds 2 1023 64 10000 2.06 350 15:41 09.01.2021
3937 Clouds 2 1023 64 10000 3.09 10 15:21 09.01.2021
3938 Clouds 2 1023 65 10000 4.63 20 14:37 09.01.2021
3939 Clouds 2 1022 69 10000 4.63 360 14:19 09.01.2021
3940 Clouds 2 1022 60 10000 3.6 20 13:44 09.01.2021
3941 Clouds 2 1022 60 10000 4.12 360 13:25 09.01.2021
3942 Clouds 3 1022 70 10000 3.6 20 12:28 09.01.2021
3943 Clouds 2 1022 70 10000 3.09 10 11:58 09.01.2021
3944 Clouds 3 1022 70 10000 3.09 10 11:38 09.01.2021
3945 Clouds 2 1022 70 10000 3.09 0 11:18 09.01.2021
3946 Clouds 1 1022 75 10000 2.57 360 10:43 09.01.2021
3947 Clouds 1 1022 80 10000 2.06 20 10:23 09.01.2021
3948 Clouds 0 1022 93 10000 2.06 20 09:44 09.01.2021
3949 Clouds 0 1021 93 10000 0.51 230 09:21 09.01.2021
3950 Clouds 0 1021 86 10000 1.03 0 08:19 09.01.2021
3951 Clouds 1 1020 80 10000 3.09 330 06:54 09.01.2021
3952 Clouds 1 1020 80 10000 3.09 330 06:36 09.01.2021
3953 Clear 1 1020 80 10000 2.06 300 04:25 09.01.2021
3954 Clouds 1 1019 93 10000 2.57 360 02:47 09.01.2021
3955 Clear 1 1019 93 10000 1.54 300 02:28 09.01.2021
3956 Clear 1 1019 86 10000 2.06 310 01:35 09.01.2021
3957 Clouds 1 1019 86 10000 1.54 240 00:34 09.01.2021
3958 Clouds 2 1018 80 10000 1.54 260 23:50 08.01.2021
3959 Clouds 2 1018 80 10000 1.54 220 22:54 08.01.2021
3960 Clouds 1 1018 86 10000 2.57 210 21:58 08.01.2021
3961 Clouds 1 1018 86 10000 2.57 210 21:34 08.01.2021
3962 Clouds 2 1017 80 10000 2.06 220 20:42 08.01.2021
3963 Clouds 2 1017 80 10000 2.06 220 20:23 08.01.2021
3964 Clouds 2 1017 80 10000 1.03 0 19:44 08.01.2021
3965 Clouds 2 1017 80 10000 2.57 230 19:21 08.01.2021
3966 Clouds 2 1016 80 10000 3.09 230 18:34 08.01.2021
3967 Clouds 3 1016 75 10000 3.09 270 17:56 08.01.2021
3968 Clouds 3 1016 75 10000 3.09 270 17:35 08.01.2021
3969 Clouds 3 1015 75 10000 2.57 280 16:56 08.01.2021
3970 Clouds 3 1015 75 10000 3.09 270 16:26 08.01.2021
3971 Clouds 3 1015 75 10000 3.09 270 16:26 08.01.2021
3972 Clouds 3 1014 75 10000 4.12 280 15:40 08.01.2021
3973 Clouds 3 1014 81 10000 5.14 280 14:45 08.01.2021
3974 Clouds 3 1014 75 10000 4.12 290 14:26 08.01.2021
3975 Clouds 3 1014 81 10000 3.6 260 13:39 08.01.2021
3976 Clouds 3 1014 81 10000 3.6 250 13:18 08.01.2021
3977 Clouds 3 1014 81 10000 3.6 250 12:42 08.01.2021
3978 Clouds 3 1014 81 10000 4.12 250 12:19 08.01.2021
3979 Snow 2 1014 87 10000 4.63 250 11:42 08.01.2021
3980 Snow 2 1014 87 10000 4.63 250 11:22 08.01.2021
3981 Snow 2 1014 87 10000 4.12 240 10:48 08.01.2021
3982 Snow 2 1013 87 10000 4.12 230 10:26 08.01.2021
3983 Snow 1 1013 93 10000 4.12 240 09:44 08.01.2021
3984 Snow 2 1013 93 10000 4.63 230 09:25 08.01.2021
3985 Snow 1 1012 93 10000 4.12 210 08:23 08.01.2021
3986 Snow 1 1012 93 5000 3.6 190 07:25 08.01.2021
3987 Clouds 1 1012 86 10000 3.6 180 04:47 08.01.2021
3988 Snow 1 1012 86 10000 4.63 220 23:46 07.01.2021
3989 Snow 1 1012 86 10000 4.63 220 23:46 07.01.2021
3990 Clouds 1 1012 93 10000 4.12 210 23:28 07.01.2021
3991 Snow 1 1013 93 10000 4.12 210 22:44 07.01.2021
3992 Snow 1 1013 93 10000 4.12 210 22:25 07.01.2021
3993 Snow 1 1012 93 10000 4.63 210 21:42 07.01.2021
3994 Snow 1 1012 93 10000 4.63 210 21:24 07.01.2021
3995 Snow 1 1012 93 10000 4.63 210 20:46 07.01.2021
3996 Snow 1 1012 93 10000 4.63 210 20:28 07.01.2021
3997 Snow 2 1012 93 10000 3.6 200 19:43 07.01.2021
3998 Clouds 2 1012 87 10000 3.6 210 19:20 07.01.2021
3999 Snow 2 1012 87 10000 3.6 190 18:30 07.01.2021
4000 Snow 2 1012 87 10000 3.6 190 18:30 07.01.2021
4001 Clouds 2 1012 80 10000 4.12 220 17:47 07.01.2021
4002 Clouds 2 1012 75 10000 3.6 220 17:27 07.01.2021
4003 Clouds 2 1012 75 10000 3.6 210 16:53 07.01.2021
4004 Clouds 2 1012 75 10000 4.63 210 16:28 07.01.2021
4005 Clouds 3 1012 75 10000 3.6 220 15:41 07.01.2021
4006 Snow 3 1012 75 10000 4.12 220 15:22 07.01.2021
4007 Clouds 3 1012 70 10000 4.63 220 14:27 07.01.2021
4008 Clouds 2 1012 75 10000 4.63 210 13:46 07.01.2021
4009 Clouds 2 1013 80 10000 3.6 210 13:18 07.01.2021
4010 Clouds 2 1014 80 10000 3.1 220 12:43 07.01.2021
4011 Clouds 2 1014 80 10000 3.1 220 11:57 07.01.2021
4012 Clouds 2 1014 80 10000 2.6 220 11:37 07.01.2021
4013 Snow 2 1014 80 10000 2.6 210 10:51 07.01.2021
4014 Snow 2 1014 80 10000 2.6 210 10:32 07.01.2021
4015 Clouds 1 1014 86 10000 1.5 190 09:48 07.01.2021
4016 Clouds 1 1014 86 10000 2.1 190 09:22 07.01.2021
4017 Clouds 1 1013 86 10000 2.6 210 08:30 07.01.2021
4018 Clouds 1 1013 86 10000 2.6 200 07:54 07.01.2021
4019 Clouds 1 1013 86 10000 2.6 200 07:35 07.01.2021
4020 Clouds 1 1014 86 10000 1.5 220 05:44 07.01.2021
4021 Clouds 2 1013 95 10000 3.1 260 00:58 07.01.2021
4022 Clouds 3 1014 74 10000 3.1 270 23:52 06.01.2021
4023 Clouds 3 1013 74 10000 3.1 270 22:50 06.01.2021
4024 Clouds 3 1013 74 10000 2.6 260 22:19 06.01.2021
4025 Clouds 3 1014 74 10000 2.6 280 21:41 06.01.2021
4026 Clouds 3 1014 74 10000 2.6 280 21:22 06.01.2021
4027 Clouds 3 1014 74 10000 2.6 280 21:22 06.01.2021
4028 Clouds 3 1014 74 10000 2.6 300 20:42 06.01.2021
4029 Clouds 3 1013 89 10000 4.1 280 20:22 06.01.2021
4030 Clouds 3 1013 89 10000 3.6 270 19:42 06.01.2021
4031 Clouds 3 1013 87 10000 3.6 270 19:24 06.01.2021
4032 Clouds 3 1013 87 10000 3.6 270 18:45 06.01.2021
4033 Clouds 3 1013 86 10000 2.1 230 18:27 06.01.2021
4034 Clouds 3 1013 86 10000 1.5 240 17:45 06.01.2021
4035 Clouds 3 1013 86 10000 1.5 320 17:26 06.01.2021
4036 Clouds 4 1013 86 10000 1.5 320 16:56 06.01.2021
4037 Clouds 4 1013 83 10000 2.1 20 16:21 06.01.2021
4038 Clouds 4 1012 83 10000 3.1 20 15:58 06.01.2021
4039 Clouds 4 1012 83 10000 3.1 20 15:33 06.01.2021
4040 Clouds 4 1012 81 10000 3.6 10 14:58 06.01.2021
4041 Clouds 4 1012 84 10000 4.6 10 14:30 06.01.2021
4042 Clouds 3 1013 80 10000 4.6 20 13:52 06.01.2021
4043 Clouds 3 1013 88 10000 3.6 10 13:26 06.01.2021
4044 Clouds 3 1013 86 10000 3.1 360 12:55 06.01.2021
4045 Clouds 3 1013 86 10000 3.1 360 12:30 06.01.2021
4046 Clouds 3 1013 86 10000 3.6 360 11:44 06.01.2021
4047 Clouds 3 1013 91 10000 3.6 360 11:21 06.01.2021
4048 Snow 3 1013 91 10000 3.6 10 10:39 06.01.2021
4049 Clouds 3 1013 93 10000 3.1 10 09:52 06.01.2021
4050 Rain 3 1013 93 10000 3.1 360 09:31 06.01.2021
4051 Clouds 2 1013 94 10000 3.1 10 08:52 06.01.2021
4052 Clouds 2 1012 93 10000 3.6 20 08:19 06.01.2021
4053 Clouds 2 1012 93 10000 3.6 20 07:51 06.01.2021
4054 Snow 2 1012 94 10000 3.1 20 06:44 06.01.2021
4055 Snow 2 1013 94 10000 4.6 20 05:28 06.01.2021
4056 Snow 2 1013 93 10000 4.6 20 02:59 06.01.2021
4057 Snow 2 1013 93 10000 5.1 20 02:40 06.01.2021
4058 Snow 1 1013 92 10000 3.6 20 02:19 06.01.2021
4059 Snow 2 1013 90 10000 5.1 20 23:51 05.01.2021
4060 Snow 2 1013 92 10000 4.6 20 22:57 05.01.2021
4061 Rain 2 1013 92 10000 4.6 20 22:38 05.01.2021
4062 Snow 2 1013 91 10000 5.7 30 22:19 05.01.2021
4063 Snow 2 1013 93 10000 5.1 20 21:21 05.01.2021
4064 Clouds 2 1013 93 10000 4.1 20 20:30 05.01.2021
4065 Clouds 2 1014 92 10000 5.1 40 19:55 05.01.2021
4066 Clouds 2 1014 92 10000 5.1 40 19:36 05.01.2021
4067 Snow 2 1013 91 10000 5.1 30 19:18 05.01.2021
4068 Rain 3 1013 85 10000 4.6 30 18:42 05.01.2021
4069 Clouds 3 1013 82 10000 4.6 30 18:18 05.01.2021
4070 Clouds 3 1013 82 10000 5.1 20 17:40 05.01.2021
4071 Clouds 3 1013 82 10000 4.6 20 17:20 05.01.2021
4072 Clouds 3 1013 82 10000 4.6 20 16:39 05.01.2021
4073 Clouds 3 1013 84 10000 4.6 20 16:20 05.01.2021
4074 Clouds 3 1013 84 10000 5.1 20 15:44 05.01.2021
4075 Clouds 3 1013 80 10000 4.6 40 14:49 05.01.2021
4076 Clouds 3 1013 78 10000 4.1 20 14:20 05.01.2021
4077 Clouds 3 1013 78 10000 4.1 20 13:44 05.01.2021
4078 Clouds 3 1013 79 10000 5.7 30 13:21 05.01.2021
4079 Clouds 3 1013 82 10000 4.6 20 12:47 05.01.2021
4080 Clouds 3 1013 83 10000 4.6 30 12:22 05.01.2021
4081 Clouds 2 1014 83 10000 4.6 30 11:39 05.01.2021
4082 Clouds 2 1014 87 10000 4.1 30 10:55 05.01.2021
4083 Clouds 2 1014 87 10000 4.1 30 10:36 05.01.2021
4084 Clouds 2 1013 91 10000 4.1 20 09:49 05.01.2021
4085 Snow 2 1013 93 10000 4.1 20 09:29 05.01.2021
4086 Clouds 2 1013 90 10000 3.6 30 08:27 05.01.2021
4087 Clouds 2 1013 80 10000 5.7 30 07:46 05.01.2021
4088 Clouds 2 1013 80 10000 4.6 30 04:58 05.01.2021
4089 Clouds 2 1013 80 10000 4.1 20 00:59 05.01.2021
4090 Clouds 2 1013 80 10000 4.1 30 00:21 05.01.2021
4091 Clouds 2 1013 80 10000 4.1 30 23:38 04.01.2021
4092 Clouds 2 1013 80 10000 4.1 30 23:19 04.01.2021
4093 Clouds 2 1013 80 10000 4.1 30 22:41 04.01.2021
4094 Clouds 2 1013 80 10000 4.1 30 21:56 04.01.2021
4095 Clouds 2 1013 80 10000 4.6 20 21:37 04.01.2021
4096 Clouds 2 1013 85 10000 3.1 20 20:52 04.01.2021
4097 Clouds 2 1013 85 10000 3.1 20 20:32 04.01.2021
4098 Clouds 2 1013 85 10000 3.1 20 20:32 04.01.2021
4099 Clouds 2 1014 85 10000 3.1 20 19:55 04.01.2021
4100 Clouds 2 1013 85 10000 3.6 30 19:29 04.01.2021
4101 Clouds 2 1013 85 10000 4.1 20 18:58 04.01.2021
4102 Clouds 2 1013 84 10000 4.1 20 18:31 04.01.2021
4103 Clouds 2 1013 84 10000 3.6 20 17:45 04.01.2021
4104 Clouds 2 1013 82 10000 3.6 20 17:27 04.01.2021
4105 Clouds 2 1013 82 10000 3.6 30 16:48 04.01.2021
4106 Clouds 2 1013 81 10000 3.6 30 16:28 04.01.2021
4107 Clouds 2 1013 81 10000 1.5 20 15:52 04.01.2021
4108 Clouds 2 1013 81 10000 1.5 20 15:52 04.01.2021
4109 Clouds 2 1013 79 10000 4.1 20 15:34 04.01.2021
4110 Clouds 2 1013 79 10000 4.1 20 14:52 04.01.2021
4111 Clouds 2 1013 79 10000 4.1 30 13:55 04.01.2021
4112 Clouds 2 1013 81 10000 4.1 30 13:35 04.01.2021
4113 Clouds 2 1014 81 10000 3.6 30 12:51 04.01.2021
4114 Clouds 2 1014 84 10000 3.6 20 12:25 04.01.2021
4115 Clouds 2 1014 84 10000 3.6 20 11:39 04.01.2021
4116 Clouds 1 1014 88 10000 3.1 10 11:18 04.01.2021
4117 Drizzle 1 1014 92 9000 3.1 10 10:42 04.01.2021
4118 Drizzle 1 1014 92 9000 3.1 10 10:21 04.01.2021
4119 Clouds 1 1014 94 9000 3.1 30 09:25 04.01.2021
4120 Clouds 1 1014 94 9000 2.6 20 08:57 04.01.2021
4121 Clouds 1 1014 94 9000 2.6 10 08:22 04.01.2021
4122 Clouds 1 1013 94 9000 3.1 20 07:47 04.01.2021
4123 Snow 1 1013 95 8000 2.6 30 05:37 04.01.2021
4124 Snow 1 1013 96 8000 2.6 50 05:19 04.01.2021
4125 Snow 1 1013 96 10000 2.6 10 02:24 04.01.2021
4126 Snow 1 1013 93 10000 2.1 50 00:20 04.01.2021
4127 Snow 1 1013 93 10000 2.6 20 23:37 03.01.2021
4128 Snow 1 1013 93 10000 2.6 30 22:58 03.01.2021
4129 Snow 1 1013 93 10000 3.1 20 22:39 03.01.2021
4130 Snow 1 1013 93 10000 3.1 20 22:39 03.01.2021
4131 Snow 1 1013 92 10000 3.6 20 22:21 03.01.2021
4132 Snow 1 1012 92 10000 3.6 30 21:41 03.01.2021
4133 Snow 1 1012 92 10000 3.6 20 21:23 03.01.2021
4134 Snow 1 1012 92 10000 3.6 20 20:41 03.01.2021
4135 Snow 1 1012 92 10000 3.1 20 20:19 03.01.2021
4136 Snow 1 1012 92 10000 2.6 30 19:46 03.01.2021
4137 Snow 1 1012 92 10000 2.6 30 19:27 03.01.2021
4138 Snow 1 1012 92 9000 3.6 10 18:50 03.01.2021
4139 Snow 1 1012 92 9000 3.6 10 18:30 03.01.2021
4140 Snow 2 1011 92 10000 4.1 30 17:53 03.01.2021
4141 Snow 2 1011 92 10000 4.1 30 17:27 03.01.2021
4142 Snow 2 1011 92 10000 4.1 20 16:57 03.01.2021
4143 Snow 2 1011 92 10000 4.1 20 16:38 03.01.2021
4144 Snow 2 1011 91 10000 4.1 20 16:19 03.01.2021
4145 Snow 2 1011 91 10000 4.6 20 15:45 03.01.2021
4146 Clouds 2 1011 85 10000 5.1 20 15:19 03.01.2021
4147 Clouds 2 1011 85 10000 5.7 20 14:43 03.01.2021
4148 Clouds 2 1011 81 10000 5.7 20 14:22 03.01.2021
4149 Clouds 3 1011 81 10000 5.7 20 13:38 03.01.2021
4150 Clouds 3 1011 80 10000 5.7 20 13:19 03.01.2021
4151 Clouds 3 1011 85 10000 5.1 30 11:57 03.01.2021
4152 Clouds 3 1011 74 10000 5.1 30 11:39 03.01.2021
4153 Clouds 3 1011 74 10000 5.1 20 11:21 03.01.2021
4154 Clouds 3 1011 74 10000 3.6 10 10:34 03.01.2021
4155 Clouds 3 1011 74 10000 4.1 10 09:55 03.01.2021
4156 Clouds 2 1010 74 10000 4.6 10 09:33 03.01.2021
4157 Rain 2 1011 74 10000 4.1 10 08:34 03.01.2021
4158 Clouds 2 1011 74 10000 2.1 360 07:24 03.01.2021
4159 Clouds 2 1011 74 10000 2.6 20 05:42 03.01.2021
4160 Clouds 1 1011 74 10000 3.6 20 02:27 03.01.2021
4161 Clouds 0 1012 74 10000 3.1 20 00:56 03.01.2021
4162 Clear 1 1012 69 10000 2.6 10 23:54 02.01.2021
4163 Clouds 1 1012 74 10000 4.1 360 23:26 02.01.2021
4164 Clouds 1 1012 80 10000 2.6 360 22:50 02.01.2021
4165 Clouds 1 1012 74 10000 3.1 10 22:31 02.01.2021
4166 Clouds 1 1012 74 10000 2.6 20 21:49 02.01.2021
4167 Clouds 2 1012 74 10000 2.6 20 21:30 02.01.2021
4168 Clouds 2 1012 74 10000 4.1 10 20:49 02.01.2021
4169 Clouds 2 1012 69 10000 3.6 20 20:27 02.01.2021
4170 Clouds 3 1012 69 10000 2.6 10 19:50 02.01.2021
4171 Clouds 3 1013 69 10000 2.1 10 19:20 02.01.2021
4172 Clouds 3 1013 69 10000 2.1 10 18:53 02.01.2021
4173 Clouds 3 1013 69 10000 3.6 20 18:33 02.01.2021
4174 Clouds 3 1013 64 10000 2.6 10 17:57 02.01.2021
4175 Clouds 3 1013 64 10000 4.1 10 17:38 02.01.2021
4176 Clouds 3 1013 64 10000 4.1 30 16:49 02.01.2021
4177 Clouds 3 1013 60 10000 4.1 20 16:23 02.01.2021
4178 Clouds 4 1013 60 10000 4.1 20 15:51 02.01.2021
4179 Clouds 4 1013 60 10000 4.1 40 15:28 02.01.2021
4180 Clouds 4 1013 64 10000 4.6 40 14:54 02.01.2021
4181 Clouds 4 1013 69 10000 3.1 360 14:34 02.01.2021
4182 Clouds 3 1013 69 10000 2.1 30 13:44 02.01.2021
4183 Clouds 3 1014 74 10000 1 30 13:18 02.01.2021
4184 Clouds 3 1014 74 10000 2.6 20 12:43 02.01.2021
4185 Clouds 3 1014 76 10000 3.1 20 12:24 02.01.2021
4186 Clouds 3 1014 76 10000 3.6 20 11:43 02.01.2021
4187 Clouds 2 1014 81 10000 3.1 360 11:21 02.01.2021
4188 Clouds 2 1014 81 10000 2.6 10 10:42 02.01.2021
4189 Clouds 2 1014 86 10000 2.1 20 10:24 02.01.2021
4190 Clouds 1 1014 86 9000 2.1 20 09:43 02.01.2021
4191 Clouds 1 1013 90 7000 1.5 10 09:21 02.01.2021
4192 Clouds 1 1013 90 7000 1.5 10 08:49 02.01.2021
4193 Clouds 1 1013 90 7000 2.6 80 08:21 02.01.2021
4194 Clouds 1 1013 100 7000 1.5 60 07:43 02.01.2021
4195 Clouds 1 1013 100 7000 1.5 60 07:19 02.01.2021
4196 Clouds 1 1013 87 7000 1.5 60 06:25 02.01.2021
4197 Clouds 1 1013 84 6000 0.5 80 04:27 02.01.2021
4198 Clouds 2 1012 93 10000 1.5 340 00:55 02.01.2021
4199 Clouds 2 1012 93 10000 2.1 320 00:35 02.01.2021
4200 Drizzle 2 1012 100 10000 1.5 300 23:51 01.01.2021
4201 Drizzle 2 1012 93 10000 0.5 0 23:20 01.01.2021
4202 Clouds 2 1011 93 10000 0.5 0 22:47 01.01.2021
4203 Clouds 2 1011 93 10000 0.5 0 22:24 01.01.2021
4204 Clouds 2 1011 93 10000 1 240 21:44 01.01.2021
4205 Clouds 2 1011 93 10000 1 240 21:22 01.01.2021
4206 Clouds 2 1011 93 10000 1 240 21:22 01.01.2021
4207 Clouds 2 1011 93 10000 0.5 0 20:53 01.01.2021
4208 Clouds 2 1011 93 10000 0.5 0 20:22 01.01.2021
4209 Clouds 2 1010 93 10000 2.1 320 19:43 01.01.2021
4210 Clouds 3 1010 100 10000 1.5 320 19:24 01.01.2021
4211 Clouds 2 1010 100 10000 1.5 320 18:59 01.01.2021
4212 Clouds 3 1010 93 10000 2.1 300 18:40 01.01.2021
4213 Clouds 3 1010 93 10000 1.5 280 18:20 01.01.2021
4214 Clouds 3 1009 93 10000 2.1 310 17:42 01.01.2021
4215 Clouds 3 1009 86 10000 3.1 340 17:22 01.01.2021
4216 Clouds 3 1009 86 10000 2.1 320 16:45 01.01.2021
4217 Clouds 4 1009 86 10000 1 0 15:57 01.01.2021
4218 Clouds 4 1008 86 10000 1.5 300 15:39 01.01.2021
4219 Clouds 4 1008 80 10000 1.5 250 14:42 01.01.2021
4220 Clouds 4 1008 80 10000 2.1 250 14:21 01.01.2021
4221 Clouds 3 1008 93 10000 2.1 260 13:37 01.01.2021
4222 Clouds 3 1008 93 10000 2.1 270 12:51 01.01.2021
4223 Clouds 3 1008 86 10000 1.5 260 12:27 01.01.2021
4224 Clouds 3 1008 93 9000 1.5 220 11:42 01.01.2021
4225 Clouds 3 1008 93 7000 2.1 240 11:19 01.01.2021
4226 Clouds 3 1007 100 6000 1.5 190 10:56 01.01.2021
4227 Clouds 3 1007 100 6000 1.5 190 10:28 01.01.2021
4228 Mist 3 1007 100 4500 0.5 0 09:31 01.01.2021
4229 Drizzle 2 1006 93 4500 1.5 260 08:49 01.01.2021
4230 Drizzle 2 1006 93 4500 1.5 270 08:25 01.01.2021
4231 Drizzle 3 1005 93 5000 1.5 240 04:51 01.01.2021
4232 Clouds 3 1004 100 7000 2.1 240 01:58 01.01.2021
4233 Snow 3 1004 93 6000 2.1 230 00:35 01.01.2021
4234 Clouds 3 1004 93 7000 2.1 200 23:56 31.12.2020
4235 Clouds 3 1004 93 7000 2.1 190 23:22 31.12.2020
4236 Clouds 3 1004 93 7000 2.1 190 22:55 31.12.2020
4237 Snow 3 1003 93 7000 1.5 180 22:37 31.12.2020
4238 Clouds 3 1003 93 7000 1 0 22:19 31.12.2020
4239 Snow 3 1003 93 7000 1.5 0 21:44 31.12.2020
4240 Snow 3 1003 93 7000 1.5 0 21:21 31.12.2020
4241 Snow 3 1003 93 9000 1 0 20:47 31.12.2020
4242 Snow 3 1003 93 9000 1 0 19:59 31.12.2020
4243 Snow 3 1003 93 9000 1 150 19:38 31.12.2020
4244 Snow 3 1003 93 9000 1 150 19:20 31.12.2020
4245 Clouds 3 1003 93 10000 2.1 160 18:42 31.12.2020
4246 Clouds 3 1003 86 10000 2.6 170 18:23 31.12.2020
4247 Clouds 2 1003 93 10000 2.6 180 17:42 31.12.2020
4248 Clouds 2 1003 93 10000 2.6 160 17:21 31.12.2020
4249 Clouds 2 1003 93 10000 2.6 170 16:40 31.12.2020
4250 Clouds 2 1003 93 10000 2.6 170 16:21 31.12.2020
4251 Clouds 2 1003 93 10000 2.6 170 15:45 31.12.2020
4252 Clouds 2 1003 93 10000 1.5 130 15:21 31.12.2020
4253 Snow 2 1003 93 10000 1.5 130 14:56 31.12.2020
4254 Clouds 2 1003 93 9000 2.1 140 14:37 31.12.2020
4255 Snow 2 1003 100 9000 3.1 160 14:19 31.12.2020
4256 Snow 2 1003 100 9000 3.1 160 14:19 31.12.2020
4257 Rain 2 1004 90 7000 3.1 150 13:38 31.12.2020
4258 Snow 2 1004 92 6000 3.6 150 13:19 31.12.2020
4259 Snow 2 1004 92 6000 3.6 150 12:53 31.12.2020
4260 Snow 2 1004 86 4700 3.1 160 12:34 31.12.2020
4261 Snow 2 1005 83 10000 4.6 180 11:51 31.12.2020
4262 Clouds 2 1005 82 10000 4.6 180 11:32 31.12.2020
4263 Snow 2 1005 82 10000 4.6 180 11:32 31.12.2020
4264 Clouds 2 1005 82 10000 3.6 170 10:49 31.12.2020
4265 Clouds 2 1005 85 10000 3.6 170 10:29 31.12.2020
4266 Rain 2 1005 85 10000 4.1 180 09:57 31.12.2020
4267 Rain 3 1005 85 10000 4.1 180 09:35 31.12.2020
4268 Rain 2 1005 88 10000 3.6 170 08:51 31.12.2020
4269 Rain 2 1005 88 10000 3.6 170 08:32 31.12.2020
4270 Rain 2 1005 88 10000 2.1 180 07:59 31.12.2020
4271 Clouds 2 1005 93 10000 2.6 180 07:32 31.12.2020
4272 Clear 2 1005 88 10000 2.6 180 05:56 31.12.2020
4273 Clear 2 1006 88 10000 3.6 180 05:28 31.12.2020
4274 Clouds 2 1007 86 10000 2.1 160 02:57 31.12.2020
4275 Clouds 2 1007 86 10000 2.6 170 02:25 31.12.2020
4276 Clouds 2 1007 93 10000 3.6 180 01:46 31.12.2020
4277 Clouds 2 1007 93 10000 3.6 180 01:27 31.12.2020
4278 Clouds 2 1007 93 10000 3.6 180 01:27 31.12.2020
4279 Clear 2 1007 80 10000 3.6 190 00:48 31.12.2020
4280 Clear 2 1007 80 10000 3.6 170 23:53 30.12.2020
4281 Clouds 2 1007 86 10000 3.1 180 23:20 30.12.2020
4282 Clouds 2 1007 86 10000 3.1 180 22:52 30.12.2020
4283 Clouds 2 1006 86 10000 1.5 160 22:32 30.12.2020
4284 Clouds 2 1006 80 10000 2.1 180 21:48 30.12.2020
4285 Clouds 2 1006 82 10000 2.1 180 21:25 30.12.2020
4286 Clear 2 1006 82 10000 1 0 20:52 30.12.2020
4287 Clear 2 1006 81 10000 2.1 190 20:24 30.12.2020
4288 Clear 3 1005 81 10000 2.1 200 19:42 30.12.2020
4289 Clear 3 1005 81 10000 2.1 200 19:23 30.12.2020
4290 Clouds 3 1005 81 10000 3.6 210 18:57 30.12.2020
4291 Clouds 4 1005 83 10000 4.1 210 18:37 30.12.2020
4292 Clouds 4 1005 80 10000 3.6 220 18:19 30.12.2020
4293 Clouds 4 1004 75 10000 3.1 220 17:41 30.12.2020
4294 Clouds 5 1004 80 10000 2.6 200 17:21 30.12.2020
4295 Clouds 5 1004 80 10000 2.6 200 16:43 30.12.2020
4296 Clouds 5 1003 75 10000 3.6 220 15:51 30.12.2020
4297 Clouds 5 1003 75 10000 3.6 220 15:30 30.12.2020
4298 Clouds 5 1003 80 10000 3.6 210 14:52 30.12.2020
4299 Clouds 5 1003 80 10000 3.6 210 14:29 30.12.2020
4300 Clouds 5 1003 81 10000 3.1 190 13:59 30.12.2020
4301 Clouds 5 1003 81 10000 3.6 200 13:18 30.12.2020
4302 Clouds 5 1003 86 10000 4.1 210 12:26 30.12.2020
4303 Clouds 5 1002 93 10000 3.1 190 11:44 30.12.2020
4304 Clouds 4 1002 93 10000 4.1 190 11:21 30.12.2020
4305 Clouds 4 1002 93 10000 4.1 190 10:57 30.12.2020
4306 Clouds 4 1002 93 10000 3.1 190 10:37 30.12.2020
4307 Clouds 4 1002 93 10000 2.6 180 10:18 30.12.2020
4308 Clouds 4 1001 93 10000 3.6 190 09:41 30.12.2020
4309 Clouds 4 1001 93 10000 3.6 190 09:41 30.12.2020
4310 Clouds 4 1001 93 10000 2.6 180 08:49 30.12.2020
4311 Clouds 3 1000 100 10000 2.6 180 07:51 30.12.2020
4312 Clouds 3 1000 100 10000 3.1 190 07:24 30.12.2020
4313 Clouds 3 999 100 10000 3.1 180 06:40 30.12.2020
4314 Rain 3 999 93 10000 2.6 180 05:48 30.12.2020
4315 Clouds 3 999 93 10000 2.6 180 05:29 30.12.2020
4316 Clouds 3 999 93 10000 1 0 03:43 30.12.2020
4317 Clouds 3 999 93 10000 1 0 03:23 30.12.2020
4318 Clouds 3 998 100 10000 1.5 180 02:34 30.12.2020
4319 Clouds 3 998 93 10000 0.5 0 01:46 30.12.2020
4320 Clouds 3 998 93 10000 0.5 0 01:46 30.12.2020
4321 Clouds 3 998 93 10000 0.5 0 01:46 30.12.2020
4322 Clouds 3 998 93 10000 0.5 0 01:46 30.12.2020
4323 Clouds 3 998 93 10000 0.5 0 01:28 30.12.2020
4324 Clouds 3 998 93 10000 1 0 00:45 30.12.2020
4325 Clouds 3 998 93 10000 2.1 150 00:26 30.12.2020
4326 Clouds 3 998 93 10000 2.1 150 23:50 29.12.2020
4327 Clouds 3 998 93 10000 1.5 160 23:32 29.12.2020
4328 Clouds 3 997 93 10000 1.5 220 22:49 29.12.2020
4329 Clouds 3 997 93 10000 1.5 220 22:31 29.12.2020
4330 Clouds 3 997 93 10000 1.5 190 21:56 29.12.2020
4331 Clouds 3 997 93 10000 2.1 200 21:37 29.12.2020
4332 Clouds 3 996 86 10000 2.1 200 21:19 29.12.2020
4333 Clouds 4 996 80 10000 3.6 180 20:42 29.12.2020
4334 Clouds 4 995 80 10000 2.6 170 20:22 29.12.2020
4335 Clouds 4 995 80 10000 3.1 190 19:45 29.12.2020
4336 Clouds 4 995 80 10000 3.1 190 19:21 29.12.2020
4337 Clouds 4 995 80 10000 3.6 190 18:50 29.12.2020
4338 Clouds 4 995 80 10000 3.6 190 18:28 29.12.2020
4339 Clouds 5 994 75 10000 2.6 170 17:47 29.12.2020
4340 Clouds 5 994 75 10000 2.6 170 17:23 29.12.2020
4341 Clouds 5 994 75 10000 3.6 210 16:55 29.12.2020
4342 Clouds 5 993 70 10000 7.2 210 16:27 29.12.2020
4343 Clouds 5 993 70 10000 7.2 210 15:51 29.12.2020
4344 Clouds 5 993 70 10000 6.2 220 15:33 29.12.2020
4345 Clouds 5 992 75 10000 5.1 200 14:45 29.12.2020
4346 Clouds 5 992 75 10000 5.1 200 14:27 29.12.2020
4347 Clouds 5 991 75 10000 6.7 220 13:56 29.12.2020
4348 Clouds 5 991 75 10000 6.2 220 13:25 29.12.2020
4349 Clouds 5 990 86 10000 5.7 220 12:56 29.12.2020
4350 Clouds 5 990 86 10000 5.7 220 12:36 29.12.2020
4351 Clouds 4 990 80 10000 5.1 230 12:18 29.12.2020
4352 Clouds 4 989 86 10000 6.2 230 11:45 29.12.2020
4353 Clouds 3 989 86 10000 6.2 230 11:24 29.12.2020
4354 Clouds 3 987 86 10000 5.1 210 10:22 29.12.2020
4355 Clouds 3 986 86 10000 5.7 220 09:41 29.12.2020
4356 Clouds 3 985 86 10000 4.6 210 09:19 29.12.2020
4357 Clouds 3 985 86 10000 4.6 210 08:49 29.12.2020
4358 Clouds 3 982 93 10000 6.7 210 07:41 29.12.2020
4359 Clouds 3 982 86 10000 6.2 190 07:20 29.12.2020
4360 Rain 3 981 93 10000 1.5 50 05:50 29.12.2020
4361 Clouds 2 981 93 10000 1 40 02:41 29.12.2020
4362 Rain 2 981 93 10000 1 0 00:44 29.12.2020
4363 Clouds 2 981 93 10000 2.1 130 23:39 28.12.2020
4364 Clouds 2 981 93 10000 2.6 150 22:56 28.12.2020
4365 Clouds 2 981 93 10000 2.6 150 22:23 28.12.2020
4366 Clouds 2 981 93 10000 2.6 150 21:44 28.12.2020
4367 Clouds 2 980 86 10000 3.1 180 21:23 28.12.2020
4368 Clouds 3 980 93 10000 3.1 170 20:40 28.12.2020
4369 Clouds 3 980 93 10000 3.1 170 20:22 28.12.2020
4370 Clouds 3 980 93 10000 2.1 180 19:42 28.12.2020
4371 Clouds 3 980 93 10000 2.6 180 19:23 28.12.2020
4372 Clouds 3 980 93 10000 2.6 180 18:51 28.12.2020
4373 Clouds 4 980 93 10000 2.6 190 18:28 28.12.2020
4374 Clouds 4 980 93 10000 4.1 180 17:45 28.12.2020
4375 Clouds 4 979 93 10000 4.6 170 17:25 28.12.2020
4376 Clouds 5 979 86 10000 4.6 170 16:45 28.12.2020
4377 Clouds 5 979 86 10000 4.6 170 16:24 28.12.2020
4378 Rain 5 979 93 10000 4.1 180 15:50 28.12.2020
4379 Rain 6 979 87 10000 3.1 120 15:26 28.12.2020
4380 Clouds 6 979 87 10000 3.1 100 14:23 28.12.2020
4381 Clouds 6 979 87 10000 2.6 110 13:38 28.12.2020
4382 Clouds 6 979 87 10000 3.1 100 13:19 28.12.2020
4383 Clouds 5 980 87 10000 2.6 110 12:25 28.12.2020
4384 Clouds 5 980 93 10000 2.6 150 11:48 28.12.2020
4385 Clouds 5 980 93 10000 2.6 150 11:29 28.12.2020
4386 Clouds 5 980 93 10000 2.1 140 10:56 28.12.2020
4387 Clouds 4 980 93 10000 2.6 110 10:29 28.12.2020
4388 Clouds 4 980 93 10000 1.5 160 09:57 28.12.2020
4389 Clouds 4 980 93 10000 2.6 170 09:37 28.12.2020
4390 Clouds 5 980 93 10000 1.5 190 09:18 28.12.2020
4391 Clouds 5 980 86 10000 3.6 170 06:53 28.12.2020
4392 Clouds 5 980 86 10000 4.6 180 05:18 28.12.2020
4393 Rain 5 980 93 10000 5.7 180 03:34 28.12.2020
4394 Clouds 5 981 93 10000 4.6 180 01:54 28.12.2020
4395 Rain 5 981 86 10000 5.1 170 23:52 27.12.2020
4396 Rain 5 982 75 10000 6.2 170 23:29 27.12.2020
4397 Rain 5 982 80 10000 6.2 170 22:36 27.12.2020
4398 Clouds 5 982 80 10000 6.7 180 21:55 27.12.2020
4399 Clouds 5 983 75 10000 5.1 180 21:22 27.12.2020
4400 Rain 4 983 86 10000 6.2 170 20:32 27.12.2020
4401 Rain 5 984 56 10000 7.7 180 19:24 27.12.2020
4402 Snow 5 986 71 10000 6.2 170 18:50 27.12.2020
4403 Snow 5 986 71 10000 5.1 170 18:21 27.12.2020
4404 Snow 5 986 71 10000 5.1 170 17:58 27.12.2020
4405 Snow 4 987 71 10000 6.7 180 17:37 27.12.2020
4406 Rain 5 988 65 10000 5.1 180 17:18 27.12.2020
4407 Rain 4 989 69 10000 5.1 170 16:25 27.12.2020
4408 Rain 4 991 69 10000 6.2 180 15:34 27.12.2020
4409 Rain 3 992 69 10000 6.2 180 14:56 27.12.2020
4410 Rain 3 993 69 10000 6.7 170 14:38 27.12.2020
4411 Rain 3 995 69 10000 7.2 170 13:39 27.12.2020
4412 Clouds 2 997 69 10000 7.2 180 12:59 27.12.2020
4413 Clouds 2 997 69 10000 7.2 180 12:38 27.12.2020
4414 Clouds 2 999 74 10000 7.7 170 11:43 27.12.2020
4415 Clouds 2 999 74 10000 8.2 170 11:23 27.12.2020
4416 Clouds 1 1000 74 10000 7.2 170 10:49 27.12.2020
4417 Clouds 1 1001 74 10000 8.2 170 10:23 27.12.2020
4418 Clouds 1 1002 74 10000 7.2 170 09:39 27.12.2020
4419 Clouds 1 1003 74 10000 7.2 180 08:29 27.12.2020
4420 Clouds 1 1004 85 10000 6.7 180 07:58 27.12.2020
4421 Clouds 1 1005 85 10000 6.7 190 07:25 27.12.2020
4422 Clouds 0 1008 86 10000 5.7 180 05:39 27.12.2020
4423 Clouds 1 1012 74 10000 6.2 190 03:26 27.12.2020
4424 Clouds 1 1013 74 10000 5.7 180 02:40 27.12.2020
4425 Clouds 2 1015 74 10000 6.7 180 01:21 27.12.2020
4426 Clouds 2 1017 74 10000 6.7 190 23:45 26.12.2020
4427 Clouds 2 1017 74 10000 6.7 190 23:26 26.12.2020
4428 Clouds 2 1019 80 10000 6.2 190 22:47 26.12.2020
4429 Clouds 2 1019 74 10000 5.1 200 22:20 26.12.2020
4430 Clouds 2 1019 74 10000 5.1 200 21:55 26.12.2020
4431 Clouds 2 1020 80 10000 5.1 190 21:33 26.12.2020
4432 Clouds 2 1020 80 10000 5.7 200 20:58 26.12.2020
4433 Clouds 2 1020 85 10000 6.7 190 20:36 26.12.2020
4434 Clouds 2 1020 85 10000 6.7 190 20:36 26.12.2020
4435 Clouds 2 1021 84 10000 5.7 190 20:18 26.12.2020
4436 Clouds 2 1021 83 10000 5.7 190 19:25 26.12.2020
4437 Clouds 2 1021 80 10000 5.7 190 18:49 26.12.2020
4438 Clouds 3 1023 74 10000 6.2 210 18:27 26.12.2020
4439 Clouds 2 1022 80 10000 6.2 200 17:40 26.12.2020
4440 Clouds 2 1023 74 10000 6.2 210 17:20 26.12.2020
4441 Clouds 3 1023 76 10000 5.7 210 16:35 26.12.2020
4442 Clouds 4 1023 80 10000 4.6 190 15:27 26.12.2020
4443 Clouds 4 1023 80 10000 4.6 190 15:27 26.12.2020
4444 Clouds 4 1023 80 10000 4.6 190 15:27 26.12.2020
4445 Clouds 3 1024 86 10000 4.6 200 14:51 26.12.2020
4446 Clouds 3 1024 86 10000 4.6 200 14:28 26.12.2020
4447 Clouds 3 1024 86 10000 4.6 210 13:51 26.12.2020
4448 Clouds 3 1024 86 10000 4.1 190 13:31 26.12.2020
4449 Clouds 2 1025 73 10000 2.6 180 12:48 26.12.2020
4450 Clouds 2 1025 73 10000 2.6 180 12:30 26.12.2020
4451 Clouds 2 1025 75 10000 2.6 180 12:30 26.12.2020
4452 Clouds 2 1026 75 10000 1.5 190 11:51 26.12.2020
4453 Clouds 2 1026 79 10000 1.5 190 11:22 26.12.2020
4454 Clouds 1 1026 79 10000 2.1 200 10:55 26.12.2020
4455 Clouds 1 1025 84 10000 2.6 210 10:27 26.12.2020
4456 Clouds 0 1025 84 10000 2.1 200 09:51 26.12.2020
4457 Clouds 0 1025 87 10000 2.1 200 09:31 26.12.2020
4458 Clear 0 1025 87 10000 1.5 190 08:39 26.12.2020
4459 Clear 0 1025 88 10000 1.5 200 07:55 26.12.2020
4460 Clouds 0 1025 86 10000 2.1 190 06:47 26.12.2020
4461 Clear 0 1025 92 10000 2.1 200 03:52 26.12.2020
4462 Clear 0 1024 100 10000 1 0 01:49 26.12.2020
4463 Clouds 1 1025 92 10000 1 0 00:28 26.12.2020
4464 Clouds 0 1024 100 10000 1 0 23:43 25.12.2020
4465 Clouds 0 1024 100 10000 1 0 23:25 25.12.2020
4466 Clouds 1 1024 100 10000 1 0 22:51 25.12.2020
4467 Clouds -1 1024 100 10000 1 0 22:25 25.12.2020
4468 Clouds 0 1024 84 10000 1 0 21:41 25.12.2020
4469 Rain 0 1024 83 10000 2.1 340 21:23 25.12.2020
4470 Clear 1 1024 83 10000 2.6 330 20:44 25.12.2020
4471 Clouds 1 1023 86 10000 2.6 340 20:26 25.12.2020
4472 Clouds 2 1023 74 10000 2.1 330 19:42 25.12.2020
4473 Clouds 2 1023 80 10000 3.6 310 18:43 25.12.2020
4474 Clouds 2 1023 77 10000 3.6 310 18:25 25.12.2020
4475 Clouds 3 1022 69 10000 3.6 300 17:35 25.12.2020
4476 Clouds 4 1022 65 10000 4.1 310 16:51 25.12.2020
4477 Clouds 5 1022 65 10000 4.1 310 16:24 25.12.2020
4478 Clouds 5 1021 52 10000 2.6 310 15:49 25.12.2020
4479 Clouds 6 1021 52 10000 2.6 310 15:26 25.12.2020
4480 Clouds 5 1021 52 10000 4.1 10 14:32 25.12.2020
4481 Clouds 5 1021 52 10000 4.1 30 13:57 25.12.2020
4482 Clouds 5 1021 65 10000 3.1 10 13:37 25.12.2020
4483 Clouds 4 1022 69 10000 4.6 30 13:18 25.12.2020
4484 Clouds 4 1022 60 10000 5.7 20 12:27 25.12.2020
4485 Clouds 4 1021 65 10000 4.1 30 11:48 25.12.2020
4486 Clouds 4 1021 65 10000 4.1 30 11:25 25.12.2020
4487 Clouds 3 1021 74 10000 4.6 10 10:49 25.12.2020
4488 Clouds 3 1021 74 10000 4.6 10 10:21 25.12.2020
4489 Clouds 4 1019 76 10000 4.1 320 09:27 25.12.2020
4490 Clouds 4 1019 76 10000 4.6 310 08:45 25.12.2020
4491 Clouds 4 1018 75 10000 4.6 350 07:45 25.12.2020
4492 Clouds 4 1017 80 10000 3.1 320 06:44 25.12.2020
4493 Clouds 5 1015 86 10000 2.1 280 02:36 25.12.2020
4494 Rain 5 1014 86 10000 3.1 280 00:48 25.12.2020
4495 Rain 4 1014 86 10000 3.6 280 23:58 24.12.2020
4496 Rain 4 1014 93 10000 4.6 300 23:22 24.12.2020
4497 Clouds 4 1013 93 10000 2.1 270 22:37 24.12.2020
4498 Rain 4 1013 93 10000 2.1 270 22:18 24.12.2020
4499 Rain 4 1013 93 10000 2.6 310 21:32 24.12.2020
4500 Rain 4 1012 86 10000 5.1 360 20:20 24.12.2020
4501 Rain 5 1011 86 10000 3.1 360 18:40 24.12.2020
4502 Rain 5 1011 86 10000 3.1 20 18:18 24.12.2020
4503 Rain 5 1010 86 10000 4.6 10 17:36 24.12.2020
4504 Rain 6 1009 75 10000 4.6 360 16:45 24.12.2020
4505 Clouds 7 1009 75 10000 2.6 220 16:20 24.12.2020
4506 Clouds 7 1009 70 10000 3.6 250 15:42 24.12.2020
4507 Clouds 9 1008 70 10000 4.1 250 15:19 24.12.2020
4508 Clouds 9 1009 70 10000 4.1 250 14:42 24.12.2020
4509 Clouds 9 1009 70 10000 5.1 260 14:24 24.12.2020
4510 Clouds 9 1009 76 10000 4.1 250 13:42 24.12.2020
4511 Clouds 9 1009 76 10000 4.6 240 13:22 24.12.2020
4512 Clouds 9 1009 81 10000 4.6 230 12:43 24.12.2020
4513 Clouds 8 1009 81 10000 4.6 230 12:21 24.12.2020
4514 Clouds 8 1008 87 10000 4.6 220 11:41 24.12.2020
4515 Clouds 7 1008 87 10000 5.1 210 11:20 24.12.2020
4516 Rain 7 1008 87 10000 5.1 210 10:53 24.12.2020
4517 Rain 7 1008 87 10000 4.6 220 10:34 24.12.2020
4518 Clouds 7 1008 87 10000 5.1 210 09:52 24.12.2020
4519 Clouds 7 1008 87 10000 5.1 210 09:52 24.12.2020
4520 Rain 8 1008 87 10000 2.6 210 09:25 24.12.2020
4521 Rain 7 1008 87 10000 4.1 200 08:39 24.12.2020
4522 Rain 8 1008 75 10000 4.6 200 07:42 24.12.2020
4523 Rain 8 1008 75 10000 3.6 190 07:20 24.12.2020
4524 Clouds 9 1009 75 10000 4.1 210 05:49 24.12.2020
4525 Clouds 10 1010 71 10000 6.7 220 02:26 24.12.2020
4526 Clouds 11 1010 71 10000 6.7 220 01:43 24.12.2020
4527 Clouds 11 1010 81 10000 6.7 210 01:18 24.12.2020
4528 Clouds 12 1009 81 10000 5.7 180 00:22 24.12.2020
4529 Clouds 12 1009 81 10000 5.1 190 23:49 23.12.2020
4530 Clouds 12 1009 81 10000 5.1 190 23:49 23.12.2020
4531 Clouds 11 1009 87 10000 4.6 190 23:30 23.12.2020
4532 Clouds 11 1010 87 10000 5.7 190 22:57 23.12.2020
4533 Clouds 11 1010 87 10000 5.7 190 22:39 23.12.2020
4534 Clouds 11 1010 87 10000 5.7 210 22:18 23.12.2020
4535 Clouds 11 1010 87 10000 5.7 200 21:31 23.12.2020
4536 Clouds 12 1010 93 10000 5.7 200 20:56 23.12.2020
4537 Rain 12 1010 93 10000 5.1 200 20:37 23.12.2020
4538 Rain 12 1009 93 10000 5.7 180 20:19 23.12.2020
4539 Clouds 12 1010 100 10000 3.6 190 19:40 23.12.2020
4540 Rain 12 1010 100 10000 3.6 190 19:21 23.12.2020
4541 Rain 12 1010 93 10000 5.1 200 18:51 23.12.2020
4542 Rain 12 1010 93 10000 5.1 200 18:33 23.12.2020
4543 Rain 12 1010 93 8000 3.6 190 17:43 23.12.2020
4544 Rain 12 1010 93 6000 5.1 210 17:22 23.12.2020
4545 Rain 12 1010 93 6000 5.1 210 16:52 23.12.2020
4546 Rain 12 1010 93 4000 3.1 250 16:30 23.12.2020
4547 Rain 12 1010 93 10000 3.1 180 15:59 23.12.2020
4548 Rain 12 1010 100 7000 4.1 170 15:39 23.12.2020
4549 Clouds 12 1011 93 6000 4.1 200 15:21 23.12.2020
4550 Rain 13 1011 87 10000 3.6 180 14:45 23.12.2020
4551 Rain 13 1011 87 10000 4.6 190 14:23 23.12.2020
4552 Clouds 13 1012 87 10000 4.6 190 13:46 23.12.2020
4553 Clouds 13 1012 93 10000 4.1 190 13:20 23.12.2020
4554 Rain 12 1012 93 10000 4.1 190 12:58 23.12.2020
4555 Clouds 13 1012 93 10000 3.6 190 12:37 23.12.2020
4556 Clouds 12 1013 100 10000 3.1 190 12:18 23.12.2020
4557 Clouds 12 1013 100 10000 3.1 200 11:43 23.12.2020
4558 Rain 12 1014 100 10000 3.1 190 10:57 23.12.2020
4559 Rain 12 1014 100 8000 3.1 190 10:57 23.12.2020
4560 Rain 12 1014 100 8000 3.1 190 10:39 23.12.2020
4561 Clouds 12 1014 100 10000 3.1 190 10:19 23.12.2020
4562 Rain 12 1014 100 10000 3.6 180 09:26 23.12.2020
4563 Rain 12 1014 93 10000 1.5 170 08:42 23.12.2020
4564 Rain 12 1014 100 10000 2.1 180 07:51 23.12.2020
4565 Rain 12 1015 100 10000 2.6 190 07:20 23.12.2020
4566 Rain 12 1015 100 10000 2.1 170 06:38 23.12.2020
4567 Rain 12 1015 100 10000 2.6 190 05:25 23.12.2020
4568 Rain 12 1015 100 10000 2.1 180 04:51 23.12.2020
4569 Clouds 13 1015 100 10000 2.6 210 00:34 23.12.2020
4570 Rain 13 1015 93 6000 2.1 260 23:46 22.12.2020
4571 Rain 13 1015 93 6000 2.1 260 23:27 22.12.2020
4572 Rain 13 1016 93 10000 3.1 200 22:44 22.12.2020
4573 Rain 13 1016 93 4800 2.6 230 22:25 22.12.2020
4574 Rain 13 1016 93 4800 2.6 230 21:57 22.12.2020
4575 Rain 13 1016 93 7000 4.1 210 21:38 22.12.2020
4576 Rain 13 1016 93 10000 3.1 200 21:19 22.12.2020
4577 Drizzle 13 1016 93 10000 4.1 200 20:48 22.12.2020
4578 Clouds 13 1016 93 10000 5.1 190 20:21 22.12.2020
4579 Clouds 13 1016 93 10000 5.1 190 20:21 22.12.2020
4580 Rain 13 1016 93 10000 4.6 190 19:44 22.12.2020
4581 Clouds 13 1016 87 10000 5.1 200 19:22 22.12.2020
4582 Clouds 13 1016 87 10000 5.1 200 18:55 22.12.2020
4583 Clouds 13 1016 87 10000 5.7 210 18:30 22.12.2020
4584 Clouds 13 1016 87 10000 5.1 200 17:59 22.12.2020
4585 Clouds 14 1016 82 10000 5.1 200 17:36 22.12.2020
4586 Clouds 14 1016 82 10000 5.1 200 17:18 22.12.2020
4587 Clouds 14 1016 82 10000 7.2 210 16:42 22.12.2020
4588 Clouds 14 1016 82 10000 6.2 200 16:19 22.12.2020
4589 Clouds 14 1015 82 10000 6.2 200 15:43 22.12.2020
4590 Clouds 14 1015 82 10000 6.2 200 15:24 22.12.2020
4591 Clouds 14 1015 82 10000 7.2 200 14:46 22.12.2020
4592 Clouds 14 1015 82 10000 7.2 200 14:27 22.12.2020
4593 Clouds 14 1015 77 10000 6.7 200 13:54 22.12.2020
4594 Clouds 14 1015 77 10000 6.7 200 13:36 22.12.2020
4595 Clouds 14 1015 82 10000 6.2 200 13:18 22.12.2020
4596 Clouds 14 1015 82 10000 6.2 200 13:18 22.12.2020
4597 Clouds 13 1015 82 10000 6.7 200 12:42 22.12.2020
4598 Clouds 13 1015 82 10000 6.7 200 12:20 22.12.2020
4599 Clouds 13 1015 82 10000 7.2 200 11:55 22.12.2020
4600 Clouds 13 1015 82 10000 7.7 200 11:37 22.12.2020
4601 Clouds 13 1015 82 10000 7.7 210 11:18 22.12.2020
4602 Clouds 12 1014 82 10000 7.7 200 10:45 22.12.2020
4603 Clouds 12 1014 82 10000 7.7 200 10:23 22.12.2020
4604 Clouds 12 1014 87 10000 6.2 210 09:49 22.12.2020
4605 Clouds 12 1014 87 10000 6.7 200 09:21 22.12.2020
4606 Clouds 12 1014 87 10000 7.2 200 08:45 22.12.2020
4607 Clouds 12 1014 87 10000 7.2 200 08:25 22.12.2020
4608 Clouds 12 1014 87 10000 8.7 200 07:47 22.12.2020
4609 Clouds 11 1013 93 10000 6.2 200 06:38 22.12.2020
4610 Clouds 11 1013 87 10000 6.2 200 05:39 22.12.2020
4611 Clouds 10 1014 93 10000 6.7 190 02:39 22.12.2020
4612 Clouds 9 1015 93 10000 5.7 190 00:44 22.12.2020
4613 Clouds 9 1015 100 8000 5.1 190 23:52 21.12.2020
4614 Clouds 8 1014 93 10000 5.1 180 23:29 21.12.2020
4615 Rain 8 1015 93 10000 5.1 190 22:38 21.12.2020
4616 Clouds 8 1015 93 9000 4.1 180 22:19 21.12.2020
4617 Rain 8 1015 93 9000 4.1 180 21:57 21.12.2020
4618 Rain 8 1015 93 9000 4.1 190 21:39 21.12.2020
4619 Rain 8 1015 93 10000 3.6 180 21:18 21.12.2020
4620 Clouds 8 1016 93 10000 3.6 180 20:27 21.12.2020
4621 Rain 8 1016 93 10000 3.1 180 19:58 21.12.2020
4622 Rain 8 1016 93 10000 2.6 160 19:39 21.12.2020
4623 Rain 8 1017 93 10000 1.5 150 19:19 21.12.2020
4624 Clouds 8 1017 93 10000 1.5 150 18:51 21.12.2020
4625 Rain 7 1017 100 10000 1.5 120 18:33 21.12.2020
4626 Rain 8 1018 100 10000 3.1 160 17:43 21.12.2020
4627 Rain 7 1018 100 10000 3.1 160 17:24 21.12.2020
4628 Rain 8 1018 87 10000 3.6 170 16:47 21.12.2020
4629 Rain 8 1018 87 10000 3.6 170 16:27 21.12.2020
4630 Rain 8 1018 87 10000 4.1 170 15:57 21.12.2020
4631 Rain 9 1018 87 10000 4.1 160 15:37 21.12.2020
4632 Clouds 9 1019 87 10000 3.6 170 14:57 21.12.2020
4633 Clouds 8 1020 93 10000 3.6 180 14:21 21.12.2020
4634 Clouds 9 1021 93 10000 2.6 160 13:45 21.12.2020
4635 Clouds 7 1021 93 10000 1.5 190 13:26 21.12.2020
4636 Clouds 8 1021 100 6000 2.6 160 12:45 21.12.2020
4637 Clouds 7 1022 93 6000 1.5 190 12:25 21.12.2020
4638 Clouds 7 1022 93 6000 1.5 190 11:58 21.12.2020
4639 Clouds 7 1022 93 6000 1.5 160 11:40 21.12.2020
4640 Clouds 6 1022 93 6000 1.5 160 11:22 21.12.2020
4641 Mist 6 1023 100 3200 0.5 0 10:55 21.12.2020
4642 Fog 6 1023 100 1000 0.5 0 10:36 21.12.2020
4643 Fog 5 1023 93 400 0.5 0 09:51 21.12.2020
4644 Fog 6 1023 100 400 1 0 09:27 21.12.2020
4645 Fog 6 1023 100 400 0.5 0 08:58 21.12.2020
4646 Fog 5 1023 100 800 1 240 08:18 21.12.2020
4647 Fog 6 1023 100 500 1.5 250 06:48 21.12.2020
4648 Fog 6 1023 100 400 2.6 220 04:58 21.12.2020
4649 Fog 6 1023 100 500 1 0 03:46 21.12.2020
4650 Fog 6 1023 100 400 0.5 0 00:35 21.12.2020
4651 Fog 6 1023 93 500 0.5 0 23:39 20.12.2020
4652 Fog 6 1023 93 500 0.5 0 23:20 20.12.2020
4653 Fog 6 1023 100 500 0.5 0 22:43 20.12.2020
4654 Fog 6 1023 100 500 0.5 0 22:22 20.12.2020
4655 Fog 6 1023 100 700 1 50 21:41 20.12.2020
4656 Fog 6 1023 100 700 1 50 21:22 20.12.2020
4657 Fog 6 1022 100 2800 1 0 20:57 20.12.2020
4658 Mist 6 1022 100 4500 1.5 70 20:37 20.12.2020
4659 Mist 6 1022 100 5000 1 0 20:18 20.12.2020
4660 Clouds 5 1022 100 7000 1.5 70 19:41 20.12.2020
4661 Clouds 5 1022 100 6000 1 0 19:20 20.12.2020
4662 Rain 5 1021 100 6000 2.1 60 18:47 20.12.2020
4663 Rain 5 1021 100 6000 2.1 60 18:29 20.12.2020
4664 Rain 5 1021 100 5000 1.5 70 17:47 20.12.2020
4665 Rain 5 1021 100 5000 1.5 70 17:28 20.12.2020
4666 Rain 5 1021 100 5000 1.5 70 17:28 20.12.2020
4667 Rain 5 1021 100 5000 1.5 50 16:48 20.12.2020
4668 Rain 6 1021 100 6000 2.1 60 16:29 20.12.2020
4669 Rain 6 1021 100 6000 2.1 60 15:51 20.12.2020
4670 Rain 5 1020 100 7000 2.1 70 15:28 20.12.2020
4671 Rain 5 1020 93 10000 1.5 60 14:56 20.12.2020
4672 Rain 5 1020 100 9000 2.6 80 14:36 20.12.2020
4673 Rain 6 1020 93 9000 2.6 80 13:56 20.12.2020
4674 Clouds 6 1020 93 10000 2.6 80 13:37 20.12.2020
4675 Clouds 6 1020 93 10000 2.6 30 13:18 20.12.2020
4676 Rain 6 1021 93 10000 2.1 360 12:44 20.12.2020
4677 Rain 6 1021 93 10000 2.1 360 12:22 20.12.2020
4678 Rain 6 1021 86 10000 2.1 50 11:49 20.12.2020
4679 Clouds 5 1020 93 9000 2.1 60 11:26 20.12.2020
4680 Rain 6 1020 93 8000 2.6 40 10:49 20.12.2020
4681 Rain 5 1020 93 8000 2.6 40 10:21 20.12.2020
4682 Drizzle 5 1020 93 8000 2.6 60 09:55 20.12.2020
4683 Rain 5 1020 93 4500 3.1 40 09:36 20.12.2020
4684 Rain 5 1020 93 10000 3.1 20 09:18 20.12.2020
4685 Rain 5 1020 93 10000 2.6 20 08:44 20.12.2020
4686 Rain 5 1020 93 10000 2.6 20 08:25 20.12.2020
4687 Rain 5 1019 93 10000 2.6 30 07:21 20.12.2020
4688 Clouds 6 1019 86 10000 3.6 50 03:44 20.12.2020
4689 Clouds 6 1019 80 10000 2.6 30 01:25 20.12.2020
4690 Clouds 6 1019 86 10000 2.1 40 23:58 19.12.2020
4691 Clouds 6 1019 86 10000 2.6 30 23:18 19.12.2020
4692 Clouds 6 1019 86 10000 3.1 40 22:44 19.12.2020
4693 Clouds 6 1019 86 10000 3.1 40 22:25 19.12.2020
4694 Clear 6 1019 86 10000 3.6 50 21:58 19.12.2020
4695 Clear 6 1019 86 10000 3.6 50 21:58 19.12.2020
4696 Clouds 5 1019 86 10000 2.6 40 21:39 19.12.2020
4697 Clouds 6 1019 86 10000 2.6 40 21:39 19.12.2020
4698 Clouds 6 1019 86 10000 2.1 20 21:21 19.12.2020
4699 Clear 6 1019 86 10000 3.6 50 20:40 19.12.2020
4700 Clear 6 1019 86 10000 3.6 50 20:18 19.12.2020
4701 Clear 6 1019 86 10000 2.6 20 19:50 19.12.2020
4702 Clear 6 1019 86 10000 2.6 20 19:29 19.12.2020
4703 Clouds 6 1019 86 10000 3.6 60 18:38 19.12.2020
4704 Clouds 6 1019 86 10000 3.6 60 18:20 19.12.2020
4705 Clouds 7 1018 87 10000 4.1 60 17:45 19.12.2020
4706 Clouds 7 1018 87 10000 4.1 60 17:23 19.12.2020
4707 Clear 7 1018 81 10000 3.1 60 16:44 19.12.2020
4708 Clear 7 1018 87 10000 2.6 60 16:26 19.12.2020
4709 Clear 8 1018 87 10000 2.6 60 15:55 19.12.2020
4710 Clear 8 1018 81 10000 2.6 70 15:34 19.12.2020
4711 Clouds 8 1018 81 10000 2.1 10 14:41 19.12.2020
4712 Clouds 8 1018 81 10000 1 0 14:22 19.12.2020
4713 Clouds 6 1019 87 10000 1 0 13:41 19.12.2020
4714 Clouds 6 1019 87 10000 2.1 70 13:20 19.12.2020
4715 Clouds 6 1019 87 10000 2.1 80 12:44 19.12.2020
4716 Clear 7 1019 81 10000 1.5 60 12:26 19.12.2020
4717 Clear 7 1019 81 10000 1.5 60 11:58 19.12.2020
4718 Clear 6 1019 86 10000 2.1 70 11:40 19.12.2020
4719 Clouds 5 1019 93 10000 2.1 60 10:45 19.12.2020
4720 Fog 5 1019 100 10000 1 0 10:27 19.12.2020
4721 Fog 5 1019 100 10000 1 0 09:58 19.12.2020
4722 Fog 5 1019 100 6000 1 0 09:38 19.12.2020
4723 Fog 4 1019 93 10000 2.1 70 08:37 19.12.2020
4724 Clear 5 1019 100 10000 2.1 60 07:55 19.12.2020
4725 Clouds 5 1019 93 10000 1 0 07:18 19.12.2020
4726 Clouds 5 1019 93 10000 1.5 60 06:39 19.12.2020
4727 Clouds 5 1019 93 9000 1.5 70 05:19 19.12.2020
4728 Clouds 4 1020 93 10000 1 0 03:29 19.12.2020
4729 Mist 5 1021 100 4300 2.6 30 00:41 19.12.2020
4730 Mist 5 1021 100 3200 2.6 50 00:20 19.12.2020
4731 Mist 5 1022 100 2700 3.1 60 23:49 18.12.2020
4732 Mist 5 1022 100 2700 3.1 60 23:25 18.12.2020
4733 Mist 5 1022 100 2600 3.1 40 22:57 18.12.2020
4734 Mist 5 1022 100 2600 3.1 40 22:38 18.12.2020
4735 Fog 5 1022 100 2400 2.1 60 22:19 18.12.2020
4736 Fog 3 1022 100 2400 2.1 60 21:41 18.12.2020
4737 Mist 5 1022 100 1200 2.6 70 21:22 18.12.2020
4738 Fog 5 1022 100 1500 2.1 90 20:25 18.12.2020
4739 Fog 5 1023 100 1000 1.5 80 19:49 18.12.2020
4740 Fog 5 1023 100 1000 1.5 80 19:24 18.12.2020
4741 Fog 6 1023 93 400 1 0 18:47 18.12.2020
4742 Fog 6 1023 100 400 2.6 80 18:28 18.12.2020
4743 Fog 6 1023 100 400 2.6 80 17:52 18.12.2020
4744 Mist 6 1023 100 1000 1.5 140 17:21 18.12.2020
4745 Mist 6 1023 100 1200 2.1 160 16:48 18.12.2020
4746 Mist 6 1024 100 2000 2.1 150 16:22 18.12.2020
4747 Mist 6 1024 100 2000 2.1 150 15:54 18.12.2020
4748 Mist 6 1024 100 1600 2.1 210 15:34 18.12.2020
4749 Mist 7 1024 100 1400 1 0 14:58 18.12.2020
4750 Fog 6 1024 100 900 1 0 14:39 18.12.2020
4751 Fog 6 1024 100 700 1.5 240 14:19 18.12.2020
4752 Fog 6 1024 100 700 1 0 13:42 18.12.2020
4753 Fog 6 1024 100 700 1 0 13:23 18.12.2020
4754 Fog 6 1025 100 350 1.5 190 12:44 18.12.2020
4755 Fog 6 1025 100 400 1 0 11:38 18.12.2020
4756 Fog 6 1025 100 400 0.5 0 11:19 18.12.2020
4757 Fog 5 1025 100 400 1.5 130 10:38 18.12.2020
4758 Fog 5 1025 100 300 0.5 0 10:20 18.12.2020
4759 Fog 5 1025 100 300 1 0 09:38 18.12.2020
4760 Fog 5 1025 93 300 2.1 160 09:20 18.12.2020
4761 Fog 5 1025 93 300 2.1 160 08:52 18.12.2020
4762 Fog 5 1025 100 350 1.5 200 08:26 18.12.2020
4763 Fog 5 1025 100 300 1.5 230 07:36 18.12.2020
4764 Fog 5 1025 100 300 1.5 270 07:18 18.12.2020
4765 Fog 6 1025 100 400 1.5 270 06:41 18.12.2020
4766 Fog 5 1025 100 300 1.5 180 05:38 18.12.2020
4767 Fog 5 1025 100 400 1.5 160 04:51 18.12.2020
4768 Mist 4 1025 100 3500 0.5 0 01:58 18.12.2020
4769 Fog 5 1025 93 3200 1 0 01:38 18.12.2020
4770 Fog 5 1025 100 6000 1.5 280 23:58 17.12.2020
4771 Fog 5 1025 100 8000 1 0 23:25 17.12.2020
4772 Fog 5 1025 100 10000 1 0 22:54 17.12.2020
4773 Fog 5 1025 93 10000 1.5 220 22:29 17.12.2020
4774 Fog 5 1025 93 10000 1.5 220 21:57 17.12.2020
4775 Fog 5 1024 100 10000 1 0 21:37 17.12.2020
4776 Fog 6 1024 93 10000 0.5 340 21:19 17.12.2020
4777 Fog 6 1024 93 10000 0.5 340 20:41 17.12.2020
4778 Clouds 6 1024 93 10000 1.5 200 20:19 17.12.2020
4779 Clouds 6 1024 100 10000 2.1 240 19:48 17.12.2020
4780 Clouds 7 1024 100 10000 0.5 0 19:24 17.12.2020
4781 Clouds 7 1023 100 10000 1.5 270 18:42 17.12.2020
4782 Clouds 7 1023 100 10000 1.5 270 18:42 17.12.2020
4783 Clouds 7 1023 100 10000 1.5 230 18:24 17.12.2020
4784 Clouds 7 1023 100 10000 1.5 230 17:54 17.12.2020
4785 Clouds 7 1023 93 10000 1.5 300 17:33 17.12.2020
4786 Clouds 7 1023 100 10000 1.5 260 16:54 17.12.2020
4787 Clouds 8 1022 93 10000 2.6 180 16:36 17.12.2020
4788 Clouds 8 1022 93 10000 1 0 16:18 17.12.2020
4789 Clouds 8 1022 93 10000 2.1 160 15:40 17.12.2020
4790 Clouds 9 1022 87 10000 2.1 150 15:18 17.12.2020
4791 Clouds 8 1022 87 10000 2.1 150 14:47 17.12.2020
4792 Clouds 8 1022 93 10000 2.1 210 14:19 17.12.2020
4793 Clouds 7 1022 93 10000 2.6 200 13:42 17.12.2020
4794 Clouds 7 1022 100 10000 3.1 210 12:58 17.12.2020
4795 Clouds 7 1022 93 10000 2.6 220 12:39 17.12.2020
4796 Clouds 6 1022 93 10000 2.6 210 12:21 17.12.2020
4797 Clouds 6 1021 93 10000 1.5 240 11:41 17.12.2020
4798 Clouds 6 1021 93 10000 0.5 0 11:20 17.12.2020
4799 Clouds 6 1021 93 10000 0.5 0 10:40 17.12.2020
4800 Clouds 5 1020 100 10000 2.1 60 09:37 17.12.2020
4801 Clouds 5 1020 93 9000 2.6 70 08:52 17.12.2020
4802 Clouds 5 1019 100 7000 1.5 70 07:44 17.12.2020
4803 Clouds 5 1019 100 7000 1.5 70 07:25 17.12.2020
4804 Fog 5 1019 100 6000 1.5 90 06:49 17.12.2020
4805 Fog 5 1019 100 6000 1.5 90 06:30 17.12.2020
4806 Fog 5 1018 93 500 1.5 60 03:30 17.12.2020
4807 Mist 6 1018 93 2000 1 0 00:27 17.12.2020
4808 Fog 6 1018 93 4000 1 100 23:42 16.12.2020
4809 Fog 6 1018 100 6000 1.5 100 23:19 16.12.2020
4810 Clouds 6 1018 93 7000 2.1 80 22:49 16.12.2020
4811 Clouds 6 1018 93 7000 2.1 80 22:31 16.12.2020
4812 Clouds 6 1018 100 7000 2.1 30 21:45 16.12.2020
4813 Fog 5 1018 100 7000 2.6 40 21:25 16.12.2020
4814 Fog 5 1018 100 7000 2.6 40 20:52 16.12.2020
4815 Fog 6 1018 93 6000 2.6 50 20:20 16.12.2020
4816 Fog 7 1018 93 7000 3.1 60 19:43 16.12.2020
4817 Fog 7 1018 93 7000 3.1 60 19:43 16.12.2020
4818 Clear 7 1018 93 10000 2.1 50 19:18 16.12.2020
4819 Clear 7 1018 93 10000 1 70 18:51 16.12.2020
4820 Clear 7 1018 93 10000 1 70 18:26 16.12.2020
4821 Clear 7 1018 93 10000 1 70 18:26 16.12.2020
4822 Clouds 8 1017 93 10000 2.1 60 17:42 16.12.2020
4823 Clouds 8 1017 93 10000 2.6 60 16:58 16.12.2020
4824 Clouds 9 1017 93 10000 2.6 60 16:38 16.12.2020
4825 Clouds 10 1017 87 10000 2.1 50 16:19 16.12.2020
4826 Clouds 10 1017 87 10000 2.1 50 15:48 16.12.2020
4827 Clouds 11 1017 81 10000 1.5 70 15:23 16.12.2020
4828 Clouds 10 1017 87 10000 2.1 60 14:46 16.12.2020
4829 Clouds 10 1017 87 10000 2.1 60 14:27 16.12.2020
4830 Clouds 10 1017 87 10000 2.6 70 13:42 16.12.2020
4831 Clouds 10 1018 87 10000 3.6 70 13:21 16.12.2020
4832 Clouds 9 1018 87 10000 3.6 70 12:46 16.12.2020
4833 Clouds 9 1018 93 10000 3.6 70 12:20 16.12.2020
4834 Clouds 9 1018 93 10000 3.1 60 11:38 16.12.2020
4835 Clouds 9 1018 93 10000 3.1 60 11:38 16.12.2020
4836 Clouds 8 1018 93 10000 3.6 60 11:19 16.12.2020
4837 Clouds 8 1018 93 10000 2.1 60 10:43 16.12.2020
4838 Clouds 8 1018 93 10000 2.6 50 10:18 16.12.2020
4839 Clouds 8 1018 93 9000 2.1 60 09:39 16.12.2020
4840 Clouds 8 1017 100 6000 2.6 60 08:24 16.12.2020
4841 Mist 8 1018 100 4000 2.1 60 07:49 16.12.2020
4842 Mist 8 1018 100 2500 2.6 20 07:30 16.12.2020
4843 Fog 7 1018 100 400 0.5 0 06:41 16.12.2020
4844 Fog 7 1017 100 300 2.1 340 02:24 16.12.2020
4845 Clouds 8 1016 93 8000 1.5 150 00:20 16.12.2020
4846 Fog 7 1016 100 4500 1.5 130 23:42 15.12.2020
4847 Clouds 7 1016 100 8000 2.1 220 22:44 15.12.2020
4848 Clouds 8 1016 100 8000 2.1 220 22:24 15.12.2020
4849 Clouds 8 1016 100 8000 1.5 220 21:50 15.12.2020
4850 Clouds 8 1015 100 9000 1 0 21:24 15.12.2020
4851 Drizzle 8 1015 100 6000 2.6 280 20:58 15.12.2020
4852 Drizzle 8 1015 100 6000 2.6 280 20:39 15.12.2020
4853 Clouds 7 1015 100 10000 1 0 20:21 15.12.2020
4854 Clouds 7 1015 100 10000 1 0 19:41 15.12.2020
4855 Clouds 8 1015 100 10000 1 0 19:23 15.12.2020
4856 Clouds 8 1014 100 10000 2.1 200 18:39 15.12.2020
4857 Clouds 8 1014 100 10000 1 0 18:20 15.12.2020
4858 Clouds 7 1014 100 10000 0.5 0 17:43 15.12.2020
4859 Clouds 7 1014 100 10000 0.5 0 17:43 15.12.2020
4860 Clouds 8 1013 100 10000 1.5 230 17:23 15.12.2020
4861 Rain 7 1013 93 10000 1 0 16:38 15.12.2020
4862 Rain 7 1012 93 10000 1 0 16:19 15.12.2020
4863 Rain 8 1012 93 10000 1 0 15:37 15.12.2020
4864 Clouds 7 1012 93 10000 1 0 15:18 15.12.2020
4865 Clouds 7 1012 93 10000 1 0 14:41 15.12.2020
4866 Clouds 7 1012 93 4800 0.5 0 14:19 15.12.2020
4867 Rain 7 1012 93 10000 0.5 0 13:48 15.12.2020
4868 Rain 7 1012 93 10000 0.5 0 13:23 15.12.2020
4869 Rain 7 1012 93 10000 1 0 12:45 15.12.2020
4870 Rain 6 1012 100 10000 1 0 12:19 15.12.2020
4871 Clouds 6 1012 100 10000 1 0 11:51 15.12.2020
4872 Clouds 7 1012 93 10000 2.1 100 11:22 15.12.2020
4873 Clouds 7 1012 93 10000 1.5 30 10:48 15.12.2020
4874 Clouds 6 1012 93 10000 1 0 10:20 15.12.2020
4875 Clouds 6 1011 100 10000 1.5 40 09:43 15.12.2020
4876 Clouds 5 1011 100 10000 1.5 40 09:25 15.12.2020
4877 Clouds 5 1011 93 10000 1.5 90 08:46 15.12.2020
4878 Clouds 5 1011 93 10000 1.5 60 08:24 15.12.2020
4879 Rain 6 1011 93 10000 2.1 70 07:47 15.12.2020
4880 Rain 6 1011 93 10000 2.1 70 07:18 15.12.2020
4881 Rain 5 1011 93 10000 1.5 60 06:26 15.12.2020
4882 Clear 5 1012 86 10000 2.1 20 00:54 15.12.2020
4883 Clear 5 1012 86 10000 2.1 20 00:34 15.12.2020
4884 Clear 5 1012 86 10000 3.1 50 23:23 14.12.2020
4885 Clear 4 1012 93 10000 3.1 50 22:47 14.12.2020
4886 Clear 5 1012 93 10000 3.1 50 22:26 14.12.2020
4887 Clear 5 1012 87 10000 2.6 50 21:42 14.12.2020
4888 Clouds 5 1012 86 10000 2.6 40 21:20 14.12.2020
4889 Rain 5 1012 86 10000 2.1 60 20:49 14.12.2020
4890 Clouds 6 1012 86 10000 2.1 60 20:29 14.12.2020
4891 Clouds 5 1012 86 10000 3.1 60 19:50 14.12.2020
4892 Clouds 6 1012 86 10000 3.1 60 19:28 14.12.2020
4893 Clouds 5 1012 93 10000 0.5 0 18:44 14.12.2020
4894 Clouds 5 1012 93 10000 0.5 0 18:24 14.12.2020
4895 Clouds 6 1012 86 10000 1.5 360 17:46 14.12.2020
4896 Clear 7 1012 87 10000 1 350 17:23 14.12.2020
4897 Clear 7 1012 87 10000 1 350 16:50 14.12.2020
4898 Clear 7 1012 87 10000 1 350 16:28 14.12.2020
4899 Clear 8 1012 75 10000 1 0 15:35 14.12.2020
4900 Clouds 8 1012 75 10000 1.5 150 14:58 14.12.2020
4901 Clouds 8 1012 70 10000 1.5 150 14:40 14.12.2020
4902 Clouds 8 1012 70 10000 2.1 190 14:21 14.12.2020
4903 Clouds 8 1013 70 10000 2.1 170 13:41 14.12.2020
4904 Clouds 8 1013 75 10000 2.1 170 13:18 14.12.2020
4905 Clouds 8 1013 75 10000 2.1 170 12:52 14.12.2020
4906 Clouds 7 1013 81 10000 2.1 160 12:24 14.12.2020
4907 Clouds 6 1013 81 10000 1 0 11:32 14.12.2020
4908 Clouds 6 1013 93 10000 0.5 0 10:38 14.12.2020
4909 Clouds 5 1013 93 10000 0.5 0 10:19 14.12.2020
4910 Clouds 4 1013 100 10000 1 0 09:31 14.12.2020
4911 Clouds 3 1013 100 10000 1 0 08:47 14.12.2020
4912 Clouds 3 1013 100 10000 1 0 08:28 14.12.2020
4913 Clouds 4 1012 93 10000 0.5 100 07:44 14.12.2020
4914 Clouds 4 1012 100 10000 1 350 06:47 14.12.2020
4915 Clouds 4 1012 83 10000 0.5 120 05:21 14.12.2020
4916 Fog 3 1013 100 10000 1 100 02:26 14.12.2020
4917 Fog 3 1012 100 10000 1 180 00:56 14.12.2020
4918 Clouds 4 1013 100 10000 1 270 00:33 14.12.2020
4919 Clouds 4 1013 93 10000 2.1 150 23:57 13.12.2020
4920 Clouds 4 1013 93 10000 2.1 150 23:36 13.12.2020
4921 Rain 4 1013 93 10000 2.6 170 22:48 13.12.2020
4922 Clouds 4 1014 93 10000 3.1 0 22:20 13.12.2020
4923 Clouds 4 1013 93 10000 1.5 190 21:47 13.12.2020
4924 Clouds 4 1013 93 10000 1.5 190 21:27 13.12.2020
4925 Clouds 3 1013 93 10000 2.1 170 20:40 13.12.2020
4926 Clouds 4 1013 93 10000 2.1 170 20:21 13.12.2020
4927 Clouds 4 1013 93 10000 2.1 170 19:42 13.12.2020
4928 Clouds 4 1013 93 10000 2.1 170 19:20 13.12.2020
4929 Clouds 5 1013 86 10000 3.1 180 18:43 13.12.2020
4930 Clouds 5 1013 86 10000 3.1 180 18:21 13.12.2020
4931 Clouds 7 1013 81 10000 2.6 180 17:47 13.12.2020
4932 Clouds 7 1013 81 10000 2.6 170 17:21 13.12.2020
4933 Clouds 7 1013 81 10000 2.6 170 16:59 13.12.2020
4934 Clouds 7 1013 81 10000 2.6 190 16:39 13.12.2020
4935 Clouds 9 1012 70 10000 4.1 200 16:19 13.12.2020
4936 Clouds 9 1012 71 10000 2.1 210 15:42 13.12.2020
4937 Clouds 9 1012 71 10000 2.1 210 15:23 13.12.2020
4938 Clouds 8 1012 76 10000 3.6 210 14:44 13.12.2020
4939 Clouds 9 1012 81 10000 3.1 210 14:25 13.12.2020
4940 Clouds 8 1012 81 10000 2.6 210 13:44 13.12.2020
4941 Clouds 8 1012 81 10000 2.6 210 13:25 13.12.2020
4942 Clouds 8 1012 87 10000 3.6 230 12:51 13.12.2020
4943 Clouds 8 1012 93 10000 3.1 210 12:23 13.12.2020
4944 Clouds 7 1012 93 10000 3.1 210 11:47 13.12.2020
4945 Clouds 7 1011 100 6000 1 0 11:22 13.12.2020
4946 Mist 7 1011 93 5000 1.5 170 10:40 13.12.2020
4947 Mist 6 1011 93 4500 1 0 09:58 13.12.2020
4948 Mist 5 1010 100 3800 1 180 09:31 13.12.2020
4949 Mist 6 1010 100 3500 1.5 220 08:35 13.12.2020
4950 Mist 6 1009 100 2300 1.5 210 07:52 13.12.2020
4951 Fog 6 1008 100 1600 1.5 210 05:49 13.12.2020
4952 Mist 5 1007 100 3200 0.5 190 02:43 13.12.2020
4953 Mist 5 1006 100 2800 1 240 01:58 13.12.2020
4954 Mist 5 1006 100 2800 1 240 01:33 13.12.2020
4955 Mist 5 1005 100 2800 0.5 0 00:33 13.12.2020
4956 Mist 5 1005 100 2800 1 210 23:33 12.12.2020
4957 Mist 5 1005 100 3200 0.5 0 22:58 12.12.2020
4958 Mist 5 1004 100 3800 0.5 0 22:28 12.12.2020
4959 Mist 5 1004 100 3200 0.5 0 21:46 12.12.2020
4960 Mist 5 1004 100 3200 0.5 0 21:19 12.12.2020
4961 Drizzle 5 1003 100 3800 0.5 360 20:43 12.12.2020
4962 Mist 5 1003 100 4000 1.5 350 20:21 12.12.2020
4963 Mist 5 1003 100 4000 1.5 350 19:51 12.12.2020
4964 Mist 5 1002 100 3800 1.5 320 19:33 12.12.2020
4965 Mist 5 1003 100 4000 1.5 350 19:33 12.12.2020
4966 Mist 5 1002 100 3800 1.5 320 18:55 12.12.2020
4967 Mist 5 1002 100 4000 1 0 18:36 12.12.2020
4968 Mist 5 1002 100 5000 1 0 18:18 12.12.2020
4969 Mist 5 1002 100 5000 1 0 17:40 12.12.2020
4970 Drizzle 5 1000 100 3300 1.5 10 16:42 12.12.2020
4971 Mist 5 1000 100 4800 2.1 40 15:57 12.12.2020
4972 Drizzle 5 999 100 3500 1.5 50 15:39 12.12.2020
4973 Drizzle 5 999 100 2400 3.1 20 14:54 12.12.2020
4974 Drizzle 5 999 93 2800 2.1 360 14:21 12.12.2020
4975 Drizzle 5 998 93 6000 1.5 50 13:41 12.12.2020
4976 Drizzle 5 998 93 6000 1.5 50 13:23 12.12.2020
4977 Drizzle 5 998 93 4800 2.1 60 12:36 12.12.2020
4978 Drizzle 5 997 93 6000 2.6 30 11:20 12.12.2020
4979 Drizzle 4 997 100 6000 2.1 360 10:45 12.12.2020
4980 Drizzle 4 996 100 4000 3.1 50 09:24 12.12.2020
4981 Drizzle 4 995 93 4000 2.1 30 08:25 12.12.2020
4982 Mist 4 994 100 3000 2.6 90 01:41 12.12.2020
4983 Clouds 4 994 93 6000 2.1 60 23:31 11.12.2020
4984 Clouds 3 995 93 3500 1.5 110 20:58 11.12.2020
4985 Clouds 3 995 86 10000 3.6 120 19:44 11.12.2020
4986 Rain 4 995 86 10000 1.5 70 17:30 11.12.2020
4987 Clouds 4 996 75 10000 4.1 70 14:38 11.12.2020
4988 Clouds 4 997 75 10000 3.1 70 13:46 11.12.2020
4989 Clouds 3 998 69 10000 3.1 110 12:29 11.12.2020
4990 Clouds 3 999 74 10000 2.1 130 11:55 11.12.2020
4991 Clouds 3 999 74 10000 2.1 130 11:37 11.12.2020
4992 Clouds 2 999 80 10000 3.1 110 10:40 11.12.2020
4993 Clouds 1 1001 80 10000 3.6 60 07:51 11.12.2020
4994 Clouds 1 1002 80 10000 1.5 110 05:36 11.12.2020
4995 Clouds 1 1003 86 10000 1.5 120 04:47 11.12.2020
4996 Clouds 2 1006 80 10000 1 0 00:59 11.12.2020
4997 Clouds 2 1007 80 10000 1.5 110 23:31 10.12.2020
4998 Clouds 1 1007 74 10000 2.1 80 21:59 10.12.2020
4999 Clouds 1 1007 80 10000 1 130 21:29 10.12.2020
5000 Clouds 1 1007 86 10000 1 0 20:38 10.12.2020
5001 Clouds 1 1007 80 10000 1 160 19:33 10.12.2020
5002 Clouds 1 1007 80 10000 2.1 230 18:50 10.12.2020
5003 Clouds 2 1007 80 10000 1 0 17:36 10.12.2020
5004 Clouds 2 1007 80 10000 1 0 16:24 10.12.2020
5005 Clouds 2 1007 74 10000 1 0 15:24 10.12.2020
5006 Clouds 2 1007 74 10000 2.6 190 14:47 10.12.2020
5007 Clouds 2 1007 74 10000 2.6 190 14:24 10.12.2020
5008 Clouds 3 1007 74 10000 2.1 180 12:33 10.12.2020
5009 Clouds 2 1008 80 10000 2.1 160 11:32 10.12.2020
5010 Clouds 1 1008 86 10000 1 0 08:47 10.12.2020
5011 Clouds 1 1007 86 10000 1 0 07:37 10.12.2020
5012 Clouds 1 1007 80 10000 1 0 06:41 10.12.2020
5013 Clouds 2 1009 86 10000 2.6 190 02:53 10.12.2020
5014 Clouds 2 1009 80 10000 3.1 220 01:58 10.12.2020
5015 Clouds 3 1010 80 10000 2.6 230 23:50 09.12.2020
5016 Rain 3 1010 79 10000 2.1 270 20:43 09.12.2020
5017 Clouds 3 1010 78 10000 2.1 270 20:24 09.12.2020
5018 Clouds 3 1010 78 10000 3.1 270 19:20 09.12.2020
5019 Clouds 3 1010 86 10000 2.6 250 17:39 09.12.2020
5020 Clouds 4 1010 80 10000 2.1 240 16:40 09.12.2020
5021 Clouds 4 1010 80 10000 1 0 16:20 09.12.2020
5022 Clouds 4 1009 86 10000 1 180 14:57 09.12.2020
5023 Clouds 4 1009 86 10000 1 0 14:27 09.12.2020
5024 Clouds 4 1009 86 10000 1 0 13:51 09.12.2020
5025 Clouds 4 1009 86 10000 1 0 13:51 09.12.2020
5026 Clouds 3 1009 93 10000 1.5 190 13:18 09.12.2020
5027 Clouds 4 1010 86 9000 1 0 12:43 09.12.2020
5028 Clouds 3 1010 93 7000 1 0 11:48 09.12.2020
5029 Mist 2 1009 80 5000 0.5 0 10:39 09.12.2020
5030 Clear 0 1008 100 6000 1 0 08:46 09.12.2020
5031 Clear 1 1008 91 7000 1 210 07:43 09.12.2020
5032 Clear 1 1007 88 10000 1 180 05:48 09.12.2020
5033 Clear 1 1007 85 10000 0.5 110 03:26 09.12.2020
5034 Clear 1 1006 92 10000 1.5 250 01:49 09.12.2020
5035 Clear 1 1005 92 10000 1 0 23:41 08.12.2020
5036 Clear 1 1005 100 10000 0.5 0 22:43 08.12.2020
5037 Clear 1 1005 86 10000 1 0 20:54 08.12.2020
5038 Clear 1 1004 84 10000 1.5 200 19:33 08.12.2020
5039 Clear 2 1004 85 10000 0.5 0 18:58 08.12.2020
5040 Clear 2 1003 86 10000 2.1 80 17:33 08.12.2020
5041 Clouds 5 1003 75 10000 4.6 70 15:45 08.12.2020
5042 Clouds 5 1003 75 10000 4.1 70 14:26 08.12.2020
5043 Clouds 5 1002 76 10000 3.6 60 13:24 08.12.2020
5044 Clouds 4 1003 75 10000 5.1 80 12:27 08.12.2020
5045 Clouds 4 1003 75 10000 3.6 80 11:50 08.12.2020
5046 Clouds 3 1003 80 10000 3.1 30 10:47 08.12.2020
5047 Clouds 3 1003 80 10000 3.1 30 10:28 08.12.2020
5048 Clouds 2 1002 89 10000 3.1 50 08:39 08.12.2020
5049 Clouds 2 1002 91 10000 3.6 50 06:52 08.12.2020
5050 Clouds 2 1002 91 10000 3.6 50 06:52 08.12.2020
5051 Clouds 1 1002 90 10000 3.1 70 03:42 08.12.2020
5052 Clouds 3 1002 93 10000 2.6 110 00:47 08.12.2020
5053 Clouds 3 1002 93 10000 2.6 70 00:22 08.12.2020
5054 Clouds 3 1002 93 10000 3.1 80 22:40 07.12.2020
5055 Clouds 3 1002 100 10000 2.1 70 21:56 07.12.2020
5056 Clouds 4 1002 100 10000 0.5 0 20:31 07.12.2020
5057 Clouds 4 1002 93 10000 1 160 18:44 07.12.2020
5058 Clouds 4 1002 86 10000 2.1 140 17:28 07.12.2020
5059 Clouds 4 1002 86 10000 2.6 170 16:55 07.12.2020
5060 Clouds 5 1001 86 10000 3.6 200 15:47 07.12.2020
5061 Clouds 6 1001 93 10000 3.1 200 15:19 07.12.2020
5062 Clouds 6 1001 86 10000 2.6 190 14:24 07.12.2020
5063 Clouds 5 1001 93 10000 3.6 170 13:33 07.12.2020
5064 Clouds 5 1000 93 8000 2.6 180 11:45 07.12.2020
5065 Rain 5 1000 93 8000 3.1 200 11:20 07.12.2020
5066 Clouds 5 999 93 6000 3.6 200 09:57 07.12.2020
5067 Clouds 4 998 93 5000 3.6 190 08:30 07.12.2020
5068 Clouds 4 997 93 8000 3.1 180 06:45 07.12.2020
5069 Clouds 4 996 93 8000 2.1 210 04:58 07.12.2020
5070 Rain 4 997 100 5000 2.1 230 01:57 07.12.2020
5071 Rain 4 997 93 4500 1 200 00:30 07.12.2020
5072 Drizzle 4 998 100 3600 1.5 180 22:45 06.12.2020
5073 Clouds 4 998 100 4700 1 0 21:32 06.12.2020
5074 Clouds 4 998 100 4500 1 220 20:34 06.12.2020
5075 Drizzle 4 998 100 5000 1 220 19:57 06.12.2020
5076 Rain 4 999 100 8000 1.5 230 18:52 06.12.2020
5077 Rain 4 999 100 10000 1.5 180 17:23 06.12.2020
5078 Clouds 5 998 93 10000 1 200 16:27 06.12.2020
5079 Drizzle 5 999 93 4800 1.5 180 14:21 06.12.2020
5080 Mist 4 999 93 4000 2.6 210 12:52 06.12.2020
5081 Mist 4 999 93 5000 1.5 210 12:27 06.12.2020
5082 Mist 4 999 93 4800 1.5 210 11:40 06.12.2020
5083 Mist 4 999 93 4800 1.5 210 11:21 06.12.2020
5084 Mist 4 999 100 5000 1 0 10:31 06.12.2020
5085 Mist 3 999 100 5000 0.5 0 08:57 06.12.2020
5086 Clouds 3 998 100 10000 1 0 07:20 06.12.2020
5087 Rain 3 999 93 10000 2.1 40 04:41 06.12.2020
5088 Rain 3 1001 86 10000 3.1 30 00:45 06.12.2020
5089 Rain 3 1001 86 10000 3.1 30 00:26 06.12.2020
5090 Clouds 3 1000 86 10000 4.1 10 23:55 05.12.2020
5091 Rain 3 1001 86 10000 3.1 360 22:24 05.12.2020
5092 Rain 3 1001 86 10000 3.6 30 21:53 05.12.2020
5093 Clouds 3 1001 93 10000 3.6 30 21:28 05.12.2020
5094 Rain 3 1001 86 10000 3.6 50 19:50 05.12.2020
5095 Clouds 3 1001 93 10000 3.6 60 18:45 05.12.2020
5096 Clouds 4 1001 86 10000 2.6 100 17:36 05.12.2020
5097 Clouds 4 1001 86 10000 3.6 100 16:44 05.12.2020
5098 Clouds 4 1001 86 10000 3.6 100 16:24 05.12.2020
5099 Clouds 5 1000 86 10000 2.1 170 14:30 05.12.2020
5100 Clouds 5 1000 86 10000 2.6 150 12:35 05.12.2020
5101 Clouds 5 1000 93 10000 3.1 150 11:50 05.12.2020
5102 Mist 3 999 100 3400 1.5 180 10:34 05.12.2020
5103 Mist 3 997 93 4000 1.5 180 08:40 05.12.2020
5104 Clouds 2 996 93 5000 0.5 0 07:47 05.12.2020
5105 Snow 2 994 92 6000 2.1 200 05:33 05.12.2020
5106 Clouds 3 991 76 10000 2.6 20 23:59 04.12.2020
5107 Clouds 3 992 86 10000 2.6 20 23:20 04.12.2020
5108 Clouds 3 992 76 10000 2.6 40 21:34 04.12.2020
5109 Rain 3 991 78 10000 3.6 40 19:21 04.12.2020
5110 Rain 3 990 93 10000 3.1 60 18:30 04.12.2020
5111 Rain 3 990 93 10000 4.1 70 17:47 04.12.2020
5112 Rain 5 990 93 10000 3.6 100 16:32 04.12.2020
5113 Rain 6 989 87 10000 3.6 150 15:23 04.12.2020
5114 Clouds 7 989 81 10000 5.1 200 13:37 04.12.2020
5115 Clouds 6 989 70 10000 3.1 160 13:18 04.12.2020
5116 Rain 6 989 70 10000 2.1 140 12:26 04.12.2020
5117 Clouds 6 989 81 10000 3.1 130 10:37 04.12.2020
5118 Clouds 6 989 81 10000 5.1 130 09:25 04.12.2020
5119 Clouds 4 988 93 10000 2.1 50 06:40 04.12.2020
5120 Snow 3 989 93 10000 3.6 40 04:54 04.12.2020
5121 Snow 3 991 74 10000 3.1 110 01:54 04.12.2020
5122 Clouds 3 994 74 10000 3.6 120 22:51 03.12.2020
5123 Clouds 3 995 74 10000 3.6 120 21:38 03.12.2020
5124 Clouds 3 996 74 10000 3.6 100 20:47 03.12.2020
5125 Clouds 3 997 74 10000 3.1 120 19:25 03.12.2020
5126 Clouds 3 998 74 10000 3.6 130 18:48 03.12.2020
5127 Clouds 3 1000 80 10000 3.1 160 17:21 03.12.2020
5128 Clouds 3 1000 80 10000 3.1 160 16:59 03.12.2020
5129 Clouds 4 1001 79 10000 5.1 170 15:39 03.12.2020
5130 Clouds 4 1001 78 10000 5.1 170 15:21 03.12.2020
5131 Clouds 3 1002 78 10000 4.1 170 14:25 03.12.2020
5132 Clouds 3 1004 81 10000 3.1 0 13:24 03.12.2020
5133 Clouds 3 1005 82 10000 3.1 190 12:26 03.12.2020
5134 Clouds 2 1006 84 7000 3.6 180 11:23 03.12.2020
5135 Snow 1 1007 92 4500 3.1 170 08:50 03.12.2020
5136 Snow 1 1010 93 8000 2.6 170 05:18 03.12.2020
5137 Snow 1 1012 87 6000 2.1 190 02:26 03.12.2020
5138 Snow 1 1013 85 8000 2.1 190 00:48 03.12.2020
5139 Clouds 1 1013 80 10000 1.5 190 22:47 02.12.2020
5140 Clouds 1 1014 80 10000 1 220 22:21 02.12.2020
5141 Clouds 1 1014 86 10000 1.5 210 20:57 02.12.2020
5142 Clouds 2 1014 80 10000 1.5 230 20:39 02.12.2020
5143 Clouds 2 1014 80 10000 1.5 200 20:21 02.12.2020
5144 Clouds 2 1015 80 10000 2.6 130 18:33 02.12.2020
5145 Clouds 2 1015 80 10000 2.6 150 17:38 02.12.2020
5146 Clouds 2 1015 80 10000 2.6 150 17:19 02.12.2020
5147 Clouds 2 1015 80 10000 3.6 90 15:21 02.12.2020
5148 Clouds 2 1017 75 10000 2.6 360 12:45 02.12.2020
5149 Clouds 2 1019 84 10000 2.6 360 10:29 02.12.2020
5150 Clouds 2 1019 89 10000 3.1 70 09:27 02.12.2020
5151 Clouds 1 1019 93 7000 2.1 60 04:39 02.12.2020
5152 Mist 1 1019 100 2500 1.5 60 22:21 01.12.2020
5153 Mist 1 1019 100 2500 1.5 60 21:53 01.12.2020
5154 Mist 1 1017 100 4500 1.5 70 19:36 01.12.2020
5155 Mist 1 1017 100 3800 0.5 0 18:18 01.12.2020
5156 Drizzle 2 1016 93 2500 1.5 180 16:37 01.12.2020
5157 Mist 2 1015 100 4500 1.5 180 13:54 01.12.2020
5158 Mist 1 1015 91 3400 2.1 190 12:26 01.12.2020
5159 Mist 1 1015 91 3400 2.1 180 11:28 01.12.2020
5160 Mist 1 1015 91 3200 2.6 200 10:44 01.12.2020
5161 Mist 1 1015 91 3500 2.1 200 10:25 01.12.2020
5162 Rain 0 1014 94 4800 3.1 190 07:19 01.12.2020
5163 Rain 0 1017 90 1000 4.6 190 01:56 01.12.2020
5164 Rain 0 1019 91 3400 4.6 200 00:57 01.12.2020
5165 Rain 0 1020 89 4200 5.1 190 23:22 30.11.2020
5166 Rain 0 1020 89 5000 5.7 200 22:45 30.11.2020
5167 Rain 0 1020 85 5000 5.7 200 22:26 30.11.2020
5168 Rain 0 1021 85 7000 5.1 200 21:56 30.11.2020
5169 Clouds 0 1022 76 10000 3.6 190 19:46 30.11.2020
5170 Clouds 0 1023 76 10000 2.6 200 18:44 30.11.2020
5171 Clouds 1 1023 77 10000 2.1 210 18:21 30.11.2020
5172 Clouds 1 1024 80 10000 2.1 200 17:43 30.11.2020
5173 Clouds 1 1024 80 10000 2.1 200 17:43 30.11.2020
5174 Clouds 2 1024 74 10000 3.1 190 16:44 30.11.2020
5175 Clouds 2 1025 74 10000 3.1 170 14:47 30.11.2020
5176 Clear 2 1026 69 10000 2.6 190 13:55 30.11.2020
5177 Clear 3 1026 74 10000 2.1 210 12:57 30.11.2020
5178 Clear 2 1027 76 10000 1.5 180 12:25 30.11.2020
5179 Clear -1 1027 86 10000 0.5 0 10:59 30.11.2020
5180 Clear -1 1027 86 10000 0.5 0 10:21 30.11.2020
5181 Clear -3 1027 100 10000 0.5 0 08:52 30.11.2020
5182 Clear -2 1027 86 10000 1.5 70 01:25 30.11.2020
5183 Clear -1 1027 86 10000 1 0 23:28 29.11.2020
5184 Clear -1 1027 86 10000 1.5 60 21:44 29.11.2020
5185 Clear -1 1027 86 10000 1.5 60 21:44 29.11.2020
5186 Clear -1 1026 86 10000 1 0 21:25 29.11.2020
5187 Clear -1 1026 80 10000 2.1 10 19:19 29.11.2020
5188 Clouds 2 1025 79 10000 2.6 10 17:34 29.11.2020
5189 Clouds 4 1025 59 10000 2.6 60 14:22 29.11.2020
5190 Clouds 2 1026 69 10000 3.6 90 12:45 29.11.2020
5191 Clouds 2 1026 69 10000 4.6 70 11:37 29.11.2020
5192 Clouds 1 1025 74 10000 3.6 50 08:54 29.11.2020
5193 Clouds 1 1025 74 10000 3.6 50 08:34 29.11.2020
5194 Clouds 2 1024 80 10000 4.6 70 02:32 29.11.2020
5195 Clouds 3 1023 86 10000 4.1 30 22:59 28.11.2020
5196 Clouds 3 1023 86 10000 3.6 20 22:27 28.11.2020
5197 Clouds 2 1022 86 10000 6.7 50 20:24 28.11.2020
5198 Clouds 2 1021 93 10000 5.1 40 19:28 28.11.2020
5199 Clouds 2 1021 74 10000 5.1 50 18:57 28.11.2020
5200 Clouds 3 1021 71 10000 5.1 40 18:21 28.11.2020
5201 Clear 3 1021 69 10000 3.6 30 16:58 28.11.2020
5202 Clouds 5 1021 60 10000 4.1 40 14:59 28.11.2020
5203 Clouds 4 1021 58 10000 3.1 30 13:55 28.11.2020
5204 Clouds 3 1022 67 7000 3.6 60 11:28 28.11.2020
5205 Mist 0 1021 80 4000 3.6 60 09:27 28.11.2020
5206 Clouds 1 1020 81 6000 3.1 20 03:48 28.11.2020
5207 Fog 1 1021 79 2500 3.6 30 01:54 28.11.2020
5208 Clouds 2 1021 75 10000 2.6 40 23:22 27.11.2020
5209 Clouds 2 1021 86 10000 3.6 50 22:38 27.11.2020
5210 Clear 2 1021 73 10000 4.6 50 20:41 27.11.2020
5211 Clear 3 1020 71 10000 4.1 50 20:23 27.11.2020
5212 Clear 3 1020 100 10000 2.6 60 19:19 27.11.2020
5213 Clouds 5 1020 80 10000 2.6 350 16:58 27.11.2020
5214 Clouds 7 1020 75 10000 1 0 14:45 27.11.2020
5215 Clouds 6 1021 80 10000 1.5 110 13:21 27.11.2020
5216 Clouds 5 1021 80 10000 1.5 110 12:47 27.11.2020
5217 Clouds 5 1022 86 10000 1 0 11:34 27.11.2020
5218 Clouds 4 1022 93 8000 1 0 10:49 27.11.2020
5219 Mist 2 1021 93 5000 1 0 09:53 27.11.2020
5220 Clouds 3 1021 93 10000 1.5 80 05:47 27.11.2020
5221 Clouds 3 1021 82 10000 0.91 101 22:27 26.11.2020
5222 Clouds 3 1022 86 10000 3.1 70 21:56 26.11.2020
5223 Clouds 3 1022 86 10000 3.1 70 20:52 26.11.2020
5224 Clouds 3 1022 93 10000 1.5 60 18:41 26.11.2020
5225 Clouds 3 1022 93 9000 2.1 90 17:50 26.11.2020
5226 Mist 3 1023 93 4000 1 0 14:50 26.11.2020
5227 Mist 4 1023 93 3500 1 0 13:41 26.11.2020
5228 Drizzle 3 1024 93 4000 1 0 12:42 26.11.2020
5229 Mist 3 1024 93 4500 1 0 11:36 26.11.2020
5230 Mist 3 1024 93 3800 1 0 10:33 26.11.2020
5231 Drizzle 3 1024 93 2800 1.5 200 09:46 26.11.2020
5232 Drizzle 2 1024 93 2800 1.5 200 09:27 26.11.2020
5233 Mist 2 1024 93 3200 2.1 110 08:38 26.11.2020
5234 Mist 4 1023 93 5000 1 0 04:42 26.11.2020
5235 Mist 4 1022 100 4400 2.1 220 22:59 25.11.2020
5236 Clouds 4 1021 93 7000 1.5 190 20:43 25.11.2020
5237 Clouds 3 1021 93 7000 1 0 19:46 25.11.2020
5238 Clouds 4 1021 93 9000 0.5 220 18:28 25.11.2020
5239 Clouds 4 1021 86 10000 1 0 16:44 25.11.2020
5240 Clouds 6 1020 80 10000 1.5 290 15:40 25.11.2020
5241 Clouds 5 1021 86 9000 2.6 160 13:57 25.11.2020
5242 Clouds 5 1021 86 6000 3.1 170 13:38 25.11.2020
5243 Fog 5 1021 100 600 2.1 180 11:58 25.11.2020
5244 Mist 4 1021 93 2500 3.6 170 11:18 25.11.2020
5245 Mist 3 1021 93 4500 3.1 200 09:19 25.11.2020
5246 Mist 3 1021 93 5000 1.5 200 08:44 25.11.2020
5247 Clouds 5 1021 86 10000 2.6 150 03:59 25.11.2020
5248 Clouds 6 1021 81 10000 2.6 140 02:53 25.11.2020
5249 Clouds 6 1021 87 10000 1.5 60 00:28 25.11.2020
5250 Clouds 6 1022 87 10000 1.5 70 23:55 24.11.2020
5251 Clouds 6 1022 87 10000 1 80 23:34 24.11.2020
5252 Clouds 6 1022 87 10000 0.5 150 22:18 24.11.2020
5253 Clouds 6 1023 87 10000 1 150 21:31 24.11.2020
5254 Clouds 6 1023 87 10000 1.5 110 20:45 24.11.2020
5255 Clouds 6 1023 81 10000 2.1 90 19:21 24.11.2020
5256 Clouds 6 1023 87 10000 2.6 60 17:31 24.11.2020
5257 Clouds 6 1024 87 10000 2.1 50 16:56 24.11.2020
5258 Clouds 6 1024 81 10000 2.1 50 16:36 24.11.2020
5259 Clouds 6 1024 81 10000 1.5 60 15:55 24.11.2020
5260 Clouds 5 1024 86 10000 3.1 70 15:19 24.11.2020
5261 Clouds 7 1025 87 10000 3.1 90 14:43 24.11.2020
5262 Clouds 6 1026 93 10000 2.1 80 13:20 24.11.2020
5263 Clouds 7 1026 93 10000 2.6 90 12:38 24.11.2020
5264 Clouds 5 1027 93 10000 2.6 100 11:59 24.11.2020
5265 Clouds 5 1027 93 10000 2.1 140 11:22 24.11.2020
5266 Clouds 5 1027 93 10000 2.1 90 10:25 24.11.2020
5267 Clouds 5 1027 93 8000 2.6 80 09:38 24.11.2020
5268 Clouds 5 1027 93 8000 2.6 60 08:57 24.11.2020
5269 Mist 5 1028 93 4000 3.1 80 04:51 24.11.2020
5270 Clouds 6 1029 93 6000 0.5 0 00:41 24.11.2020
5271 Mist 5 1030 93 4800 0.5 0 22:24 23.11.2020
5272 Mist 5 1030 100 4800 1 220 21:29 23.11.2020
5273 Clouds 7 1030 93 9000 1 0 20:29 23.11.2020
5274 Clouds 7 1030 93 9000 0.5 270 19:59 23.11.2020
5275 Clouds 7 1030 93 6000 0.5 0 17:57 23.11.2020
5276 Clouds 7 1029 93 6000 1.5 150 16:56 23.11.2020
5277 Clouds 8 1029 87 10000 1 0 15:18 23.11.2020
5278 Clouds 8 1029 87 10000 1.5 170 14:37 23.11.2020
5279 Clouds 7 1030 87 7000 2.1 190 12:41 23.11.2020
5280 Clouds 7 1030 87 6000 3.1 190 12:20 23.11.2020
5281 Clouds 7 1030 87 6000 3.1 200 11:42 23.11.2020
5282 Mist 6 1029 93 4500 2.6 190 10:22 23.11.2020
5283 Mist 5 1028 93 3800 2.6 200 09:31 23.11.2020
5284 Mist 5 1028 100 3800 2.6 210 08:37 23.11.2020
5285 Drizzle 6 1027 100 7000 2.6 200 06:57 23.11.2020
5286 Clouds 6 1027 87 10000 2.6 190 00:23 23.11.2020
5287 Clouds 6 1027 93 10000 1.5 180 22:46 22.11.2020
5288 Drizzle 6 1027 93 10000 3.1 190 21:37 22.11.2020
5289 Clouds 6 1027 81 10000 3.1 180 20:51 22.11.2020
5290 Clouds 6 1027 81 10000 2.6 190 19:52 22.11.2020
5291 Rain 6 1027 81 10000 2.6 190 18:40 22.11.2020
5292 Clouds 6 1027 81 10000 1.5 190 16:51 22.11.2020
5293 Clouds 7 1027 75 10000 2.6 200 15:33 22.11.2020
5294 Clouds 6 1028 80 10000 2.6 200 14:29 22.11.2020
5295 Clouds 5 1028 80 10000 2.6 210 12:49 22.11.2020
5296 Clouds 5 1029 80 10000 2.6 190 11:56 22.11.2020
5297 Clouds 5 1029 80 10000 3.1 190 11:20 22.11.2020
5298 Clouds 4 1029 64 10000 3.1 210 10:44 22.11.2020
5299 Clouds 2 1029 80 10000 2.6 190 08:51 22.11.2020
5300 Clouds 3 1029 73 10000 3.1 190 01:48 22.11.2020
5301 Clouds 3 1030 86 10000 2.1 190 23:39 21.11.2020
5302 Clouds 4 1031 80 10000 2.6 200 21:57 21.11.2020
5303 Clouds 4 1031 80 10000 1.5 210 21:24 21.11.2020
5304 Clouds 3 1031 93 10000 1.5 230 20:35 21.11.2020
5305 Clouds 3 1031 93 10000 1 0 19:54 21.11.2020
5306 Clouds 3 1031 66 10000 1 0 19:33 21.11.2020
5307 Clear 3 1032 65 10000 1.5 180 18:27 21.11.2020
5308 Clear 4 1032 86 10000 1 260 17:26 21.11.2020
5309 Clear 5 1032 75 10000 1.5 170 16:39 21.11.2020
5310 Clouds 6 1033 75 10000 1.5 180 15:22 21.11.2020
5311 Clouds 6 1033 86 10000 1.5 200 14:43 21.11.2020
5312 Clouds 6 1033 86 10000 1.5 200 14:21 21.11.2020
5313 Clouds 4 1034 93 7000 2.1 220 12:36 21.11.2020
5314 Clouds 3 1034 93 7000 2.1 220 12:18 21.11.2020
5315 Fog 2 1035 66 400 1.5 160 10:51 21.11.2020
5316 Fog 2 1035 71 400 1.5 160 10:26 21.11.2020
5317 Fog 0 1035 100 500 1.5 170 08:51 21.11.2020
5318 Fog 1 1035 81 200 1 180 06:51 21.11.2020
5319 Fog 0 1035 92 250 1 300 04:39 21.11.2020
5320 Fog 0 1036 100 9000 0.5 150 01:32 21.11.2020
5321 Clouds 1 1036 100 10000 1 240 23:59 20.11.2020
5322 Clear 2 1036 73 10000 1 0 22:26 20.11.2020
5323 Clear 3 1036 73 10000 1.5 260 21:42 20.11.2020
5324 Clear 3 1036 93 10000 1 290 21:21 20.11.2020
5325 Clear 3 1036 100 10000 1 0 19:46 20.11.2020
5326 Clear 4 1036 86 10000 1.5 240 18:53 20.11.2020
5327 Clouds 5 1035 75 10000 2.1 290 17:53 20.11.2020
5328 Clouds 5 1035 80 10000 1 250 17:28 20.11.2020
5329 Clouds 5 1034 86 10000 2.1 210 16:40 20.11.2020
5330 Clouds 6 1035 80 10000 1 0 15:59 20.11.2020
5331 Clouds 7 1035 70 10000 2.1 260 15:27 20.11.2020
5332 Clouds 7 1035 75 10000 2.6 270 13:47 20.11.2020
5333 Clouds 7 1035 75 10000 3.1 230 13:19 20.11.2020
5334 Clouds 7 1035 81 10000 2.6 220 12:36 20.11.2020
5335 Clouds 6 1035 81 10000 2.6 190 11:46 20.11.2020
5336 Clouds 6 1035 81 10000 2.6 190 11:20 20.11.2020
5337 Clouds 3 1034 93 10000 1.5 220 09:31 20.11.2020
5338 Clouds 3 1033 76 10000 1.5 220 08:26 20.11.2020
5339 Clouds 3 1033 76 10000 2.1 170 07:34 20.11.2020
5340 Clouds 5 1031 86 10000 2.6 310 03:45 20.11.2020
5341 Clouds 7 1029 81 10000 3.1 280 23:31 19.11.2020
5342 Clouds 7 1028 87 10000 1.5 240 22:27 19.11.2020
5343 Clouds 8 1028 81 10000 3.6 250 21:49 19.11.2020
5344 Clouds 9 1027 81 10000 3.6 240 20:41 19.11.2020
5345 Clouds 9 1026 76 10000 3.6 220 20:19 19.11.2020
5346 Clouds 9 1026 76 10000 3.1 230 19:25 19.11.2020
5347 Clouds 9 1025 70 10000 5.1 240 18:35 19.11.2020
5348 Clouds 9 1024 81 10000 3.6 220 17:18 19.11.2020
5349 Clouds 11 1023 71 10000 5.7 240 15:59 19.11.2020
5350 Clouds 11 1022 66 10000 5.7 240 15:28 19.11.2020
5351 Clouds 11 1022 62 10000 5.7 240 13:47 19.11.2020
5352 Clouds 11 1022 62 10000 5.7 240 13:25 19.11.2020
5353 Clouds 11 1022 62 10000 6.2 240 12:51 19.11.2020
5354 Clouds 11 1022 66 10000 5.7 250 12:25 19.11.2020
5355 Clouds 10 1022 71 10000 5.7 250 11:40 19.11.2020
5356 Clouds 10 1022 71 10000 5.7 250 11:20 19.11.2020
5357 Clouds 9 1021 76 10000 4.6 250 10:29 19.11.2020
5358 Clouds 9 1021 81 10000 5.1 270 09:45 19.11.2020
5359 Rain 9 1021 81 10000 5.1 270 09:26 19.11.2020
5360 Rain 9 1019 93 10000 2.1 260 08:20 19.11.2020
5361 Rain 10 1019 87 10000 2.6 230 07:30 19.11.2020
5362 Clear 7 1020 93 10000 2.6 240 01:46 19.11.2020
5363 Clear 7 1021 93 10000 2.1 210 00:32 19.11.2020
5364 Clear 7 1021 93 10000 1.5 200 23:31 18.11.2020
5365 Clear 7 1021 93 10000 1 200 22:58 18.11.2020
5366 Clear 7 1021 100 10000 1.5 220 22:27 18.11.2020
5367 Clear 7 1022 93 10000 1.5 190 21:43 18.11.2020
5368 Clear 8 1022 100 10000 1.5 250 21:24 18.11.2020
5369 Clear 8 1022 93 10000 1.5 230 20:32 18.11.2020
5370 Clear 8 1022 93 10000 1.5 260 19:42 18.11.2020
5371 Clear 9 1022 93 10000 1.5 230 19:21 18.11.2020
5372 Clear 9 1023 93 10000 2.1 190 18:40 18.11.2020
5373 Clear 10 1023 81 10000 2.1 160 17:44 18.11.2020
5374 Clear 13 1024 66 10000 2.1 200 16:27 18.11.2020
5375 Clear 13 1024 66 10000 2.1 200 15:58 18.11.2020
5376 Clear 13 1024 66 10000 3.1 200 14:41 18.11.2020
5377 Clear 12 1025 62 10000 3.6 220 13:55 18.11.2020
5378 Clear 12 1026 71 10000 3.1 210 13:21 18.11.2020
5379 Clear 12 1026 71 10000 2.6 210 12:43 18.11.2020
5380 Clouds 12 1027 71 10000 3.1 180 11:51 18.11.2020
5381 Clouds 11 1027 76 10000 2.1 210 10:56 18.11.2020
5382 Clouds 10 1027 76 10000 2.1 210 10:27 18.11.2020
5383 Clouds 8 1027 87 10000 3.1 170 08:33 18.11.2020
5384 Clouds 9 1027 87 10000 3.6 170 06:48 18.11.2020
5385 Clouds 10 1027 81 10000 3.1 180 03:48 18.11.2020
5386 Clouds 12 1028 81 10000 3.1 160 00:20 18.11.2020
5387 Clouds 12 1028 76 10000 3.1 200 23:24 17.11.2020
5388 Clouds 12 1028 76 10000 3.6 200 22:44 17.11.2020
5389 Clouds 12 1028 76 10000 3.6 200 22:25 17.11.2020
5390 Clouds 12 1028 76 10000 4.1 200 21:46 17.11.2020
5391 Clouds 12 1028 76 10000 4.1 200 21:22 17.11.2020
5392 Clouds 12 1028 76 10000 3.1 210 20:43 17.11.2020
5393 Clouds 12 1028 81 10000 3.6 210 20:22 17.11.2020
5394 Clouds 12 1028 76 10000 4.1 190 18:56 17.11.2020
5395 Clouds 12 1028 76 10000 4.1 200 18:22 17.11.2020
5396 Clouds 12 1027 81 10000 3.6 190 17:27 17.11.2020
5397 Clouds 12 1027 76 10000 3.6 190 16:33 17.11.2020
5398 Clouds 12 1027 76 10000 4.6 200 15:54 17.11.2020
5399 Clouds 12 1027 76 10000 4.6 200 15:35 17.11.2020
5400 Clouds 12 1027 76 10000 5.1 190 14:58 17.11.2020
5401 Clouds 12 1027 76 10000 5.1 190 14:29 17.11.2020
5402 Clouds 12 1027 76 10000 6.7 200 13:45 17.11.2020
5403 Clouds 12 1027 76 10000 6.7 200 13:20 17.11.2020
5404 Clouds 12 1027 81 10000 5.7 200 12:41 17.11.2020
5405 Clouds 11 1027 81 10000 5.1 190 11:44 17.11.2020
5406 Clouds 10 1027 81 10000 4.1 180 10:57 17.11.2020
5407 Clouds 10 1027 81 10000 4.1 190 10:36 17.11.2020
5408 Clouds 10 1027 81 10000 4.6 190 09:51 17.11.2020
5409 Clouds 10 1027 87 10000 4.1 190 09:30 17.11.2020
5410 Clouds 9 1026 87 10000 4.1 190 08:25 17.11.2020
5411 Clouds 9 1026 87 10000 3.6 190 07:50 17.11.2020
5412 Clouds 9 1025 93 10000 3.6 190 06:59 17.11.2020
5413 Clouds 8 1024 87 10000 2.6 180 04:20 17.11.2020
5414 Clouds 9 1024 81 10000 4.1 220 02:55 17.11.2020
5415 Clouds 9 1024 87 10000 4.1 210 02:21 17.11.2020
5416 Clouds 10 1024 81 10000 5.1 210 00:56 17.11.2020
5417 Clouds 10 1024 81 10000 5.7 220 23:51 16.11.2020
5418 Clouds 11 1023 76 10000 5.1 210 23:29 16.11.2020
5419 Clouds 11 1023 81 10000 4.1 200 22:48 16.11.2020
5420 Clouds 11 1023 81 10000 4.1 200 22:21 16.11.2020
5421 Clouds 11 1022 81 10000 3.1 180 21:49 16.11.2020
5422 Clouds 11 1022 81 10000 3.1 180 21:25 16.11.2020
5423 Clouds 11 1022 81 10000 3.6 180 20:58 16.11.2020
5424 Clouds 11 1022 81 10000 4.1 180 20:25 16.11.2020
5425 Clouds 11 1021 76 10000 6.2 200 19:45 16.11.2020
5426 Clouds 11 1021 76 10000 6.2 200 19:27 16.11.2020
5427 Clouds 12 1020 76 10000 5.7 210 18:47 16.11.2020
5428 Clouds 12 1020 76 10000 6.7 220 17:55 16.11.2020
5429 Clouds 12 1020 76 10000 7.2 220 17:25 16.11.2020
5430 Clouds 12 1019 76 10000 7.2 220 16:57 16.11.2020
5431 Clouds 12 1018 76 10000 5.7 220 16:38 16.11.2020
5432 Clouds 12 1018 76 10000 6.2 230 16:18 16.11.2020
5433 Clouds 12 1018 76 10000 7.7 230 15:41 16.11.2020
5434 Clouds 12 1018 76 10000 7.7 230 15:22 16.11.2020
5435 Clouds 12 1017 71 10000 6.2 210 14:42 16.11.2020
5436 Clouds 12 1017 71 10000 7.2 220 13:35 16.11.2020
5437 Clouds 12 1017 71 10000 6.7 220 12:45 16.11.2020
5438 Clouds 12 1017 71 10000 6.7 220 12:45 16.11.2020
5439 Clouds 12 1017 71 10000 6.7 220 12:23 16.11.2020
5440 Clouds 12 1016 81 10000 5.7 200 11:38 16.11.2020
5441 Clouds 11 1016 81 10000 5.7 190 11:19 16.11.2020
5442 Clouds 11 1015 87 10000 5.1 190 10:41 16.11.2020
5443 Clouds 11 1015 87 10000 5.1 190 10:23 16.11.2020
5444 Clouds 11 1015 81 10000 4.6 200 09:43 16.11.2020
5445 Clouds 11 1014 81 10000 5.1 200 09:22 16.11.2020
5446 Clouds 10 1014 76 10000 5.1 210 08:40 16.11.2020
5447 Clouds 10 1013 76 10000 5.1 200 07:44 16.11.2020
5448 Clouds 11 1013 76 10000 5.7 210 06:50 16.11.2020
5449 Clouds 11 1012 71 10000 6.7 210 06:24 16.11.2020
5450 Clouds 11 1011 71 10000 4.1 210 04:43 16.11.2020
5451 Clouds 11 1009 81 10000 3.1 210 02:30 16.11.2020
5452 Clouds 12 1008 81 10000 6.2 220 01:44 16.11.2020
5453 Clouds 13 1007 93 10000 4.6 190 23:58 15.11.2020
5454 Clouds 13 1007 93 10000 5.1 190 23:26 15.11.2020
5455 Rain 13 1007 87 10000 5.1 180 22:51 15.11.2020
5456 Rain 13 1007 87 10000 5.1 180 22:22 15.11.2020
5457 Rain 13 1007 87 10000 5.1 170 21:47 15.11.2020
5458 Rain 13 1007 87 10000 4.1 170 21:27 15.11.2020
5459 Rain 14 1007 59 10000 4.1 190 20:48 15.11.2020
5460 Rain 14 1007 59 10000 4.1 190 20:28 15.11.2020
5461 Rain 14 1007 59 10000 4.1 180 19:54 15.11.2020
5462 Rain 14 1007 62 10000 4.1 160 19:36 15.11.2020
5463 Rain 14 1007 62 10000 3.6 170 19:18 15.11.2020
5464 Rain 15 1007 62 10000 3.1 170 18:41 15.11.2020
5465 Clear 15 1008 62 10000 3.6 170 18:23 15.11.2020
5466 Clear 14 1008 62 10000 4.1 170 17:47 15.11.2020
5467 Clear 15 1008 62 10000 4.1 170 17:25 15.11.2020
5468 Clear 15 1008 59 10000 5.1 170 16:52 15.11.2020
5469 Clear 16 1008 59 10000 5.1 170 16:23 15.11.2020
5470 Clear 16 1009 59 10000 4.6 180 15:58 15.11.2020
5471 Clear 16 1009 59 10000 4.6 180 15:39 15.11.2020
5472 Clear 17 1009 59 10000 4.6 180 15:21 15.11.2020
5473 Clear 16 1010 59 10000 5.7 160 14:45 15.11.2020
5474 Clear 16 1010 59 10000 5.7 160 14:22 15.11.2020
5475 Clear 16 1012 59 10000 5.7 180 13:41 15.11.2020
5476 Clear 16 1012 62 10000 4.6 190 12:54 15.11.2020
5477 Clear 15 1012 62 10000 6.2 180 12:29 15.11.2020
5478 Clouds 15 1012 67 10000 4.1 170 11:58 15.11.2020
5479 Clouds 13 1013 71 10000 1.5 200 11:40 15.11.2020
5480 Clear 12 1013 76 10000 1 0 11:18 15.11.2020
5481 Clear 13 1014 81 10000 1 0 10:49 15.11.2020
5482 Clear 11 1014 81 10000 1 0 10:30 15.11.2020
5483 Clear 9 1015 93 10000 0.5 0 09:46 15.11.2020
5484 Clear 8 1015 100 10000 1 0 09:23 15.11.2020
5485 Clear 8 1015 100 10000 1 0 08:54 15.11.2020
5486 Clear 8 1015 93 10000 1 0 08:31 15.11.2020
5487 Clear 8 1015 93 10000 1.5 70 07:44 15.11.2020
5488 Clear 8 1016 93 10000 1 0 05:37 15.11.2020
5489 Clear 8 1015 93 10000 1.5 80 04:52 15.11.2020
5490 Clear 9 1016 100 10000 0.5 0 01:37 15.11.2020
5491 Clear 9 1016 100 10000 0.5 0 00:30 15.11.2020
5492 Clear 9 1016 100 10000 1 70 23:42 14.11.2020
5493 Clear 9 1017 100 10000 1.5 90 22:54 14.11.2020
5494 Clear 9 1017 100 10000 1.5 90 22:33 14.11.2020
5495 Clear 9 1017 100 10000 0.5 0 21:56 14.11.2020
5496 Clear 9 1017 93 10000 1 0 21:37 14.11.2020
5497 Clear 10 1017 100 10000 1 80 21:19 14.11.2020
5498 Clear 10 1017 93 10000 0.5 90 20:37 14.11.2020
5499 Clear 10 1017 93 10000 0.5 0 20:19 14.11.2020
5500 Clear 10 1017 93 10000 0.5 0 19:36 14.11.2020
5501 Clear 10 1017 81 10000 2.6 160 18:58 14.11.2020
5502 Clear 11 1017 81 10000 2.1 150 18:39 14.11.2020
5503 Clear 12 1017 76 10000 2.6 160 18:21 14.11.2020
5504 Clear 13 1017 71 10000 2.6 180 17:44 14.11.2020
5505 Clear 14 1017 71 10000 2.6 180 17:25 14.11.2020
5506 Clear 14 1017 67 10000 2.6 180 16:52 14.11.2020
5507 Clear 14 1017 67 10000 2.6 180 16:52 14.11.2020
5508 Clear 14 1017 63 10000 2.6 0 16:31 14.11.2020
5509 Clear 15 1017 63 10000 2.6 160 15:54 14.11.2020
5510 Clear 16 1018 67 10000 2.6 170 15:31 14.11.2020
5511 Clear 15 1018 67 10000 3.1 160 14:56 14.11.2020
5512 Clear 17 1018 63 10000 3.6 210 14:29 14.11.2020
5513 Clouds 16 1018 67 10000 1 0 13:52 14.11.2020
5514 Clouds 15 1019 72 10000 2.6 210 13:30 14.11.2020
5515 Clouds 15 1019 71 10000 2.1 190 12:52 14.11.2020
5516 Clouds 15 1019 71 10000 2.1 190 12:33 14.11.2020
5517 Clouds 14 1020 76 10000 2.6 200 11:56 14.11.2020
5518 Clouds 13 1020 82 10000 2.1 210 11:38 14.11.2020
5519 Clouds 12 1020 87 10000 1 0 10:59 14.11.2020
5520 Clouds 12 1020 87 10000 0.5 260 10:38 14.11.2020
5521 Clouds 11 1020 87 10000 0.5 260 10:20 14.11.2020
5522 Fog 10 1020 100 9000 1.5 290 09:45 14.11.2020
5523 Fog 10 1020 100 9000 1.5 290 09:26 14.11.2020
5524 Fog 9 1020 100 8000 0.5 0 08:41 14.11.2020
5525 Fog 9 1020 100 7000 0.5 0 08:21 14.11.2020
5526 Fog 9 1020 93 7000 1.5 150 07:41 14.11.2020
5527 Fog 9 1019 93 6000 1.5 130 06:58 14.11.2020
5528 Mist 10 1020 100 4800 1 0 06:21 14.11.2020
5529 Mist 10 1019 93 4500 0.5 0 05:18 14.11.2020
5530 Clouds 10 1020 100 7000 2.1 260 01:59 14.11.2020
5531 Clouds 9 1020 100 7000 1.5 200 00:28 14.11.2020
5532 Clouds 10 1020 100 7000 1.5 240 23:38 13.11.2020
5533 Clouds 10 1019 93 7000 0.5 0 23:19 13.11.2020
5534 Clouds 10 1019 100 7000 1.5 240 22:41 13.11.2020
5535 Clouds 9 1019 93 7000 2.1 210 22:22 13.11.2020
5536 Clouds 9 1019 93 7000 1.5 250 21:51 13.11.2020
5537 Clouds 9 1019 93 7000 1.5 250 21:27 13.11.2020
5538 Mist 10 1019 93 5000 1.5 220 20:55 13.11.2020
5539 Mist 10 1019 93 5000 1.5 220 20:37 13.11.2020
5540 Mist 10 1019 93 5000 1 220 20:18 13.11.2020
5541 Mist 9 1019 93 5000 1.5 210 19:44 13.11.2020
5542 Rain 10 1019 93 5000 1.5 210 19:44 13.11.2020
5543 Mist 9 1019 93 5000 1.5 230 19:22 13.11.2020
5544 Rain 9 1019 93 5000 1 210 18:50 13.11.2020
5545 Mist 10 1019 93 5000 1 0 17:59 13.11.2020
5546 Mist 10 1019 93 5000 0.5 0 17:39 13.11.2020
5547 Mist 10 1019 93 5000 0.5 0 17:18 13.11.2020
5548 Mist 10 1019 93 5000 1 0 16:46 13.11.2020
5549 Clouds 11 1017 88 10000 2.34 206 16:21 13.11.2020
5550 Clouds 11 1017 88 10000 2.34 206 15:41 13.11.2020
5551 Mist 11 1019 93 3300 2.1 270 15:23 13.11.2020
5552 Mist 11 1019 93 3400 2.6 230 14:40 13.11.2020
5553 Mist 10 1019 93 3200 2.1 220 14:19 13.11.2020
5554 Clouds 10 1020 92 10000 2.8 190 13:40 13.11.2020
5555 Clouds 10 1020 92 10000 2.65 198 13:21 13.11.2020
5556 Mist 9 1020 100 3500 1.5 240 12:45 13.11.2020
5557 Mist 9 1020 100 3500 1.5 240 12:24 13.11.2020
5558 Mist 8 1021 93 3000 2.1 240 11:48 13.11.2020
5559 Mist 8 1020 100 2000 1 0 11:24 13.11.2020
5560 Mist 8 1020 100 2000 1 0 10:54 13.11.2020
5561 Fog 8 1021 100 500 1 0 10:34 13.11.2020
5562 Fog 7 1021 93 400 0.5 0 09:56 13.11.2020
5563 Fog 7 1021 100 150 1 0 09:32 13.11.2020
5564 Fog 7 1021 100 150 1 0 09:32 13.11.2020
5565 Fog 7 1020 100 150 0.5 0 08:57 13.11.2020
5566 Fog 7 1021 100 200 2.1 270 08:33 13.11.2020
5567 Fog 6 1020 100 200 2.1 330 07:55 13.11.2020
5568 Fog 6 1020 100 200 1 0 07:37 13.11.2020
5569 Fog 6 1020 100 200 1 0 07:18 13.11.2020
5570 Fog 6 1020 100 400 1.5 10 06:42 13.11.2020
5571 Fog 5 1021 100 400 1 0 05:42 13.11.2020
5572 Fog 5 1021 100 400 1 320 04:57 13.11.2020
5573 Fog 6 1022 100 300 1 0 01:45 13.11.2020
5574 Fog 7 1022 100 400 1.5 280 00:37 13.11.2020
5575 Fog 7 1022 100 400 1 0 00:18 13.11.2020
5576 Fog 6 1022 100 400 1 0 23:37 12.11.2020
5577 Fog 6 1022 100 250 1 0 23:18 12.11.2020
5578 Fog 7 1022 100 400 1 0 22:42 12.11.2020
5579 Fog 7 1022 100 700 2.6 200 22:22 12.11.2020
5580 Fog 6 1021 93 3800 1 0 21:42 12.11.2020
5581 Fog 6 1021 93 3800 1 0 21:24 12.11.2020
5582 Fog 7 1022 100 4800 2.6 250 20:58 12.11.2020
5583 Mist 7 1021 100 4800 2.1 0 20:39 12.11.2020
5584 Mist 8 1021 100 4800 2.1 0 20:19 12.11.2020
5585 Clear 9 1021 93 10000 3.6 170 19:44 12.11.2020
5586 Clear 9 1021 93 10000 3.6 170 19:26 12.11.2020
5587 Clouds 9 1021 93 10000 3.1 170 18:48 12.11.2020
5588 Clouds 10 1021 93 10000 3.1 180 18:23 12.11.2020
5589 Clouds 10 1020 93 10000 3.1 170 17:45 12.11.2020
5590 Clouds 11 1020 87 10000 3.1 180 17:26 12.11.2020
5591 Clouds 11 1020 81 10000 4.1 180 16:47 12.11.2020
5592 Clouds 12 1020 81 10000 4.1 180 16:27 12.11.2020
5593 Clouds 12 1020 81 10000 3.6 180 15:59 12.11.2020
5594 Clouds 12 1020 81 10000 3.6 190 15:40 12.11.2020
5595 Clouds 12 1020 81 10000 3.6 200 15:20 12.11.2020
5596 Clouds 12 1020 81 10000 3.6 200 14:46 12.11.2020
5597 Clouds 11 1020 87 10000 3.6 180 14:25 12.11.2020
5598 Clouds 11 1020 87 10000 3.6 180 13:55 12.11.2020
5599 Clouds 10 1020 93 9000 4.1 190 13:36 12.11.2020
5600 Clouds 10 1020 87 10000 4.1 190 13:18 12.11.2020
5601 Clouds 10 1020 87 10000 4.1 180 12:42 12.11.2020
5602 Clouds 11 1020 87 10000 4.1 180 12:19 12.11.2020
5603 Clouds 10 1020 93 10000 4.1 170 11:46 12.11.2020
5604 Clouds 10 1020 93 10000 4.1 170 11:27 12.11.2020
5605 Drizzle 9 1020 93 7000 3.6 170 10:41 12.11.2020
5606 Clouds 9 1020 93 9000 3.6 180 10:23 12.11.2020
5607 Clouds 9 1020 93 9000 4.1 180 09:47 12.11.2020
5608 Clouds 9 1020 93 9000 4.1 180 09:23 12.11.2020
5609 Drizzle 9 1020 93 8000 3.6 170 08:57 12.11.2020
5610 Drizzle 9 1020 100 7000 3.1 180 08:39 12.11.2020
5611 Drizzle 9 1020 100 7000 3.1 180 08:39 12.11.2020
5612 Clouds 8 1020 100 7000 4.1 170 08:19 12.11.2020
5613 Clouds 8 1020 100 7000 4.1 170 07:48 12.11.2020
5614 Drizzle 8 1020 100 4800 3.1 190 07:22 12.11.2020
5615 Clouds 8 1020 100 7000 2.6 160 06:49 12.11.2020
5616 Clouds 8 1020 100 7000 2.6 160 06:49 12.11.2020
5617 Drizzle 8 1020 100 5000 2.1 90 05:35 12.11.2020
5618 Drizzle 8 1021 93 3800 1 0 03:23 12.11.2020
5619 Drizzle 8 1021 100 3500 1.5 80 02:41 12.11.2020
5620 Drizzle 8 1023 93 4500 2.6 80 23:59 11.11.2020
5621 Mist 8 1023 93 5000 2.6 70 23:26 11.11.2020
5622 Drizzle 8 1023 93 7000 2.6 70 22:59 11.11.2020
5623 Drizzle 8 1023 93 7000 2.6 70 22:40 11.11.2020
5624 Drizzle 8 1023 93 7000 2.6 70 22:21 11.11.2020
5625 Clouds 8 1023 93 9000 2.1 100 21:56 11.11.2020
5626 Clouds 8 1023 93 6000 3.6 80 21:36 11.11.2020
5627 Mist 8 1024 100 5000 2.1 50 21:18 11.11.2020
5628 Drizzle 8 1024 100 4800 2.6 60 20:41 11.11.2020
5629 Clouds 8 1024 93 6000 3.1 60 20:21 11.11.2020
5630 Clouds 8 1024 93 6000 3.1 60 19:50 11.11.2020
5631 Clouds 8 1024 93 8000 2.6 60 19:32 11.11.2020
5632 Clouds 8 1024 93 10000 2.1 40 18:55 11.11.2020
5633 Clouds 8 1024 93 10000 2.1 40 18:36 11.11.2020
5634 Clouds 8 1024 93 10000 1.5 60 17:45 11.11.2020
5635 Clouds 8 1024 93 10000 1.5 60 17:24 11.11.2020
5636 Clouds 8 1024 87 10000 3.1 60 16:59 11.11.2020
5637 Clouds 8 1025 87 10000 2.1 60 16:37 11.11.2020
5638 Clouds 8 1025 87 10000 2.6 70 16:19 11.11.2020
5639 Drizzle 9 1025 87 7000 2.1 80 15:39 11.11.2020
5640 Drizzle 9 1025 87 7000 2.1 80 15:21 11.11.2020
5641 Clouds 9 1025 93 6000 0.5 0 14:43 11.11.2020
5642 Clouds 9 1026 93 6000 0.5 0 14:23 11.11.2020
5643 Clouds 9 1026 93 6000 0.5 0 13:48 11.11.2020
5644 Drizzle 9 1026 93 4800 0.5 0 13:23 11.11.2020
5645 Clouds 7 1027 93 6000 1 0 12:21 11.11.2020
5646 Clouds 7 1027 93 6000 1 0 11:51 11.11.2020
5647 Clouds 7 1027 93 6000 1 0 11:33 11.11.2020
5648 Mist 7 1027 93 3100 0.5 0 10:46 11.11.2020
5649 Mist 7 1027 93 3100 0.5 0 10:28 11.11.2020
5650 Mist 7 1028 93 2000 1 0 09:59 11.11.2020
5651 Mist 6 1028 100 2200 1 200 09:39 11.11.2020
5652 Mist 6 1028 100 2200 1 200 09:21 11.11.2020
5653 Fog 6 1028 100 1100 0.5 0 08:43 11.11.2020
5654 Fog 6 1028 100 1100 0.5 0 08:24 11.11.2020
5655 Mist 6 1027 93 5000 1.5 60 07:44 11.11.2020
5656 Mist 6 1027 100 5000 1.5 70 06:32 11.11.2020
5657 Drizzle 5 1028 100 1000 2.1 70 05:45 11.11.2020
5658 Drizzle 5 1028 100 600 1 150 01:58 11.11.2020
5659 Drizzle 6 1028 100 700 2.1 80 00:58 11.11.2020
5660 Drizzle 5 1028 100 2300 1.5 80 00:25 11.11.2020
5661 Drizzle 5 1028 100 2900 2.1 70 23:40 10.11.2020
5662 Drizzle 6 1028 100 2900 2.1 70 23:22 10.11.2020
5663 Drizzle 6 1028 100 4000 1.5 70 22:50 10.11.2020
5664 Clouds 7 1028 93 8000 1 0 22:26 10.11.2020
5665 Clouds 7 1028 93 8000 1 0 22:26 10.11.2020
5666 Clouds 7 1028 93 10000 1 180 21:42 10.11.2020
5667 Clouds 7 1028 93 10000 1 180 21:23 10.11.2020
5668 Clouds 7 1028 93 10000 1 0 20:58 10.11.2020
5669 Clouds 6 1028 93 10000 1.5 170 20:40 10.11.2020
5670 Clouds 7 1028 93 10000 1.5 170 20:22 10.11.2020
5671 Clouds 7 1028 93 10000 1.5 140 19:46 10.11.2020
5672 Clouds 7 1028 93 10000 1.5 80 19:25 10.11.2020
5673 Clouds 7 1028 93 10000 1 0 18:56 10.11.2020
5674 Clouds 7 1028 93 10000 0.5 0 18:37 10.11.2020
5675 Clouds 7 1028 93 10000 1.5 50 18:18 10.11.2020
5676 Clouds 7 1028 93 10000 1.5 50 18:18 10.11.2020
5677 Clouds 7 1028 93 10000 0.5 0 17:42 10.11.2020
5678 Clouds 7 1028 93 10000 0.5 0 17:24 10.11.2020
5679 Clouds 7 1027 93 10000 0.5 0 16:42 10.11.2020
5680 Clouds 7 1027 93 10000 0.5 0 16:24 10.11.2020
5681 Clouds 7 1027 93 10000 0.5 0 15:55 10.11.2020
5682 Clouds 7 1027 93 10000 1 0 15:37 10.11.2020
5683 Clouds 7 1027 93 10000 1 0 15:19 10.11.2020
5684 Clouds 7 1027 87 10000 1 0 14:41 10.11.2020
5685 Clouds 7 1027 87 10000 1 0 14:20 10.11.2020
5686 Clouds 7 1028 93 10000 2.1 100 13:41 10.11.2020
5687 Clouds 7 1028 93 10000 2.1 100 13:22 10.11.2020
5688 Clouds 7 1028 93 10000 1 0 12:58 10.11.2020
5689 Clouds 7 1028 93 10000 1.5 90 12:38 10.11.2020
5690 Clouds 7 1028 93 10000 2.1 50 12:20 10.11.2020
5691 Clouds 7 1028 93 10000 2.1 60 11:38 10.11.2020
5692 Clouds 7 1028 93 9000 2.6 60 11:19 10.11.2020
5693 Clouds 7 1027 93 9000 1.5 120 10:42 10.11.2020
5694 Clouds 7 1027 100 9000 2.1 110 10:24 10.11.2020
5695 Clouds 7 1027 93 9000 2.6 50 09:49 10.11.2020
5696 Clouds 5 1027 93 10000 3.1 40 09:26 10.11.2020
5697 Clouds 6 1027 93 10000 3.1 40 08:57 10.11.2020
5698 Clouds 6 1027 93 10000 3.1 50 08:30 10.11.2020
5699 Clouds 6 1026 93 8000 2.6 50 07:56 10.11.2020
5700 Clouds 5 1026 93 8000 2.6 50 07:37 10.11.2020
5701 Clouds 5 1026 93 7000 3.1 40 07:18 10.11.2020
5702 Clouds 6 1026 93 7000 2.6 40 06:38 10.11.2020
5703 Clouds 6 1026 93 6000 2.6 50 05:27 10.11.2020
5704 Clouds 5 1026 93 6000 3.6 50 02:59 10.11.2020
5705 Clear 5 1026 93 10000 3.6 50 01:41 10.11.2020
5706 Clear 6 1025 93 10000 3.1 40 00:50 10.11.2020
5707 Clear 8 1025 87 10000 2.6 10 23:42 09.11.2020
5708 Clear 8 1025 81 10000 2.6 10 22:59 09.11.2020
5709 Clear 7 1025 87 10000 2.1 10 22:41 09.11.2020
5710 Clear 7 1025 87 10000 2.1 10 22:22 09.11.2020
5711 Clear 8 1025 87 10000 2.6 60 21:43 09.11.2020
5712 Clear 8 1025 87 10000 2.6 60 21:25 09.11.2020
5713 Clear 8 1025 87 10000 2.6 60 21:25 09.11.2020
5714 Clear 8 1025 87 10000 3.6 50 20:42 09.11.2020
5715 Clear 7 1025 87 10000 3.6 50 20:22 09.11.2020
5716 Clear 8 1024 93 10000 1 0 19:48 09.11.2020
5717 Clear 8 1024 93 10000 1 0 19:24 09.11.2020
5718 Clear 9 1024 93 10000 0.5 0 18:58 09.11.2020
5719 Clear 9 1024 87 10000 0.5 0 18:39 09.11.2020
5720 Clear 10 1024 87 10000 2.1 10 18:19 09.11.2020
5721 Clear 11 1024 87 10000 1.5 70 17:44 09.11.2020
5722 Clear 10 1024 87 10000 1.5 70 17:25 09.11.2020
5723 Clear 12 1024 71 10000 1.5 340 16:44 09.11.2020
5724 Clear 12 1024 71 10000 1.5 340 16:23 09.11.2020
5725 Clear 13 1024 67 10000 0.5 150 15:47 09.11.2020
5726 Clear 14 1024 67 10000 0.5 150 15:28 09.11.2020
5727 Clear 14 1024 67 10000 1 0 14:51 09.11.2020
5728 Clear 14 1024 67 10000 1.5 70 14:29 09.11.2020
5729 Clear 13 1024 62 10000 1 0 13:59 09.11.2020
5730 Clear 13 1024 71 10000 1 0 13:38 09.11.2020
5731 Clear 12 1024 71 10000 1.5 0 13:18 09.11.2020
5732 Clear 11 1024 76 10000 2.1 70 12:41 09.11.2020
5733 Clear 11 1025 76 10000 2.1 50 12:21 09.11.2020
5734 Clouds 11 1025 81 10000 2.1 20 11:43 09.11.2020
5735 Clouds 10 1025 81 10000 2.1 20 11:24 09.11.2020
5736 Clouds 9 1025 87 10000 2.1 70 10:58 09.11.2020
5737 Clouds 9 1025 87 10000 2.1 60 10:40 09.11.2020
5738 Clouds 9 1025 87 10000 2.1 60 10:21 09.11.2020
5739 Clear 8 1025 87 10000 2.1 80 09:30 09.11.2020
5740 Clear 7 1024 93 10000 2.6 80 08:55 09.11.2020
5741 Clear 7 1024 93 10000 2.1 70 08:28 09.11.2020
5742 Fog 7 1024 93 10000 1.5 80 07:57 09.11.2020
5743 Fog 7 1024 93 10000 1.5 70 07:24 09.11.2020
5744 Fog 7 1024 93 10000 1 0 06:55 09.11.2020
5745 Clear 8 1024 93 10000 1.5 360 05:38 09.11.2020
5746 Clear 8 1024 93 10000 2.6 60 01:59 09.11.2020
5747 Rain 8 1024 100 10000 1 0 01:41 09.11.2020
5748 Clear 8 1024 100 10000 1 0 00:56 09.11.2020
5749 Clear 8 1024 100 10000 0.5 0 23:48 08.11.2020
5750 Clear 9 1024 100 10000 0.5 0 23:28 08.11.2020
5751 Clouds 8 1024 87 10000 0.5 0 22:43 08.11.2020
5752 Clouds 9 1024 87 10000 0.5 0 22:22 08.11.2020
5753 Clouds 8 1024 87 10000 0.5 0 21:48 08.11.2020
5754 Clear 8 1024 87 10000 0.5 200 21:24 08.11.2020
5755 Clear 8 1024 87 10000 1 200 20:57 08.11.2020
5756 Clear 8 1024 87 10000 0.5 0 20:38 08.11.2020
5757 Clear 8 1024 87 10000 1 230 20:20 08.11.2020
5758 Clear 9 1024 93 10000 0.5 0 19:45 08.11.2020
5759 Clear 9 1024 93 10000 0.5 0 19:45 08.11.2020
5760 Clear 9 1024 93 10000 1.5 250 19:23 08.11.2020
5761 Clear 9 1024 93 10000 1.5 250 18:58 08.11.2020
5762 Clear 9 1024 87 10000 1 0 18:40 08.11.2020
5763 Clear 9 1024 81 10000 1.5 260 18:20 08.11.2020
5764 Clear 9 1024 81 10000 1 300 17:56 08.11.2020
5765 Clear 10 1024 81 10000 1 300 17:36 08.11.2020
5766 Clear 10 1024 76 10000 1.5 280 17:18 08.11.2020
5767 Clear 11 1024 71 10000 1.5 270 16:38 08.11.2020
5768 Clear 11 1024 71 10000 1.5 270 16:20 08.11.2020
5769 Clear 11 1024 76 10000 1.5 320 15:46 08.11.2020
5770 Clear 11 1024 76 10000 1.5 320 15:28 08.11.2020
5771 Clear 12 1024 71 10000 2.6 230 14:44 08.11.2020
5772 Clear 12 1024 71 10000 2.6 230 14:24 08.11.2020
5773 Clear 12 1024 66 10000 0.5 0 13:57 08.11.2020
5774 Clear 12 1025 71 10000 1 0 13:39 08.11.2020
5775 Clear 12 1025 76 10000 1.5 300 13:20 08.11.2020
5776 Clouds 11 1025 76 10000 0.5 0 12:41 08.11.2020
5777 Clouds 9 1025 87 10000 1 0 12:23 08.11.2020
5778 Clouds 9 1025 87 10000 1 0 11:56 08.11.2020
5779 Clear 8 1026 87 10000 1 0 11:38 08.11.2020
5780 Clear 8 1025 86 10000 0.5 0 11:19 08.11.2020
5781 Clouds 7 1025 93 10000 1 0 10:47 08.11.2020
5782 Clouds 6 1025 93 9000 1 0 10:18 08.11.2020
5783 Clouds 5 1025 93 6000 1 0 09:42 08.11.2020
5784 Clouds 5 1025 93 6000 1 0 09:42 08.11.2020
5785 Clouds 5 1025 93 6000 1 0 09:24 08.11.2020
5786 Fog 3 1025 70 3800 1 0 08:49 08.11.2020
5787 Fog 3 1025 75 3800 1 0 08:30 08.11.2020
5788 Fog 3 1025 75 3700 1.5 140 07:53 08.11.2020
5789 Fog 3 1025 76 2000 1 160 07:33 08.11.2020
5790 Clouds 3 1025 75 10000 1.5 130 06:50 08.11.2020
5791 Clouds 4 1024 93 10000 0.5 0 05:55 08.11.2020
5792 Clear 4 1024 93 10000 1.5 90 05:26 08.11.2020
5793 Clear 4 1024 93 10000 2.1 90 03:46 08.11.2020
5794 Clear 5 1024 93 10000 1 0 01:49 08.11.2020
5795 Clear 5 1024 93 10000 1.5 60 01:18 08.11.2020
5796 Clear 5 1024 93 10000 2.1 70 00:24 08.11.2020
5797 Clear 7 1024 81 10000 3.1 40 23:45 07.11.2020
5798 Clear 7 1024 81 10000 3.1 40 23:27 07.11.2020
5799 Clear 6 1025 93 10000 3.1 10 22:41 07.11.2020
5800 Clear 7 1024 86 10000 2.6 10 22:23 07.11.2020
5801 Clouds 7 1024 87 10000 3.6 60 21:45 07.11.2020
5802 Clear 7 1024 86 10000 2.6 10 21:45 07.11.2020
5803 Clouds 7 1024 87 10000 3.6 60 21:22 07.11.2020
5804 Clouds 7 1025 87 10000 2.6 60 20:50 07.11.2020
5805 Clouds 7 1025 87 10000 2.6 60 20:32 07.11.2020
5806 Clouds 8 1025 87 10000 3.6 60 19:59 07.11.2020
5807 Clear 7 1025 75 10000 3.1 70 19:39 07.11.2020
5808 Clear 8 1025 70 10000 3.6 60 19:20 07.11.2020
5809 Clear 9 1024 75 10000 2.6 10 18:39 07.11.2020
5810 Clear 9 1024 75 10000 2.6 10 18:20 07.11.2020
5811 Clear 9 1024 70 10000 2.1 20 17:46 07.11.2020
5812 Clear 9 1024 70 10000 2.1 20 17:26 07.11.2020
5813 Clear 11 1024 62 10000 2.6 50 16:44 07.11.2020
5814 Clear 12 1024 62 10000 2.6 50 16:24 07.11.2020
5815 Clear 12 1024 58 10000 2.6 30 15:48 07.11.2020
5816 Clear 13 1025 54 10000 3.1 60 15:24 07.11.2020
5817 Clear 12 1025 54 10000 2.1 50 14:58 07.11.2020
5818 Clear 12 1025 62 10000 2.6 60 14:40 07.11.2020
5819 Clear 12 1026 57 10000 2.6 60 14:19 07.11.2020
5820 Clear 11 1026 61 10000 2.6 60 13:39 07.11.2020
5821 Clear 11 1026 61 10000 2.6 60 13:39 07.11.2020
5822 Clear 11 1026 61 10000 2.6 60 13:21 07.11.2020
5823 Clear 10 1027 66 10000 3.1 40 12:35 07.11.2020
5824 Clear 10 1027 66 10000 3.1 40 12:35 07.11.2020
5825 Clear 9 1027 65 10000 4.6 70 11:47 07.11.2020
5826 Clear 8 1027 65 10000 4.6 70 11:25 07.11.2020
5827 Clear 8 1027 70 10000 4.6 50 10:59 07.11.2020
5828 Clear 7 1028 75 10000 4.6 50 10:40 07.11.2020
5829 Clear 6 1028 75 10000 4.6 40 10:22 07.11.2020
5830 Clear 5 1028 75 10000 4.6 40 09:48 07.11.2020
5831 Clear 4 1028 93 10000 4.1 40 09:23 07.11.2020
5832 Clear 4 1028 93 10000 2.6 20 08:49 07.11.2020
5833 Clear 3 1028 93 10000 2.6 20 08:30 07.11.2020
5834 Clear 3 1028 72 10000 1 0 07:48 07.11.2020
5835 Clear 2 1028 73 10000 1.5 20 06:54 07.11.2020
5836 Clear 3 1028 72 10000 1 0 05:55 07.11.2020
5837 Clear 4 1028 70 10000 2.1 80 04:22 07.11.2020
5838 Clear 3 1029 86 10000 2.6 70 02:46 07.11.2020
5839 Clear 3 1029 80 10000 2.6 60 01:27 07.11.2020
5840 Clear 3 1029 67 10000 3.6 70 00:39 07.11.2020
5841 Clear 3 1029 80 10000 3.1 80 23:45 06.11.2020
5842 Clear 4 1029 80 10000 3.1 80 23:19 06.11.2020
5843 Clear 4 1030 64 10000 3.1 70 22:40 06.11.2020
5844 Clear 4 1030 63 10000 3.1 70 22:18 06.11.2020
5845 Clear 5 1030 63 10000 2.1 70 21:43 06.11.2020
5846 Clear 5 1030 61 10000 2.1 70 21:21 06.11.2020
5847 Clear 6 1030 61 10000 2.1 60 20:51 06.11.2020
5848 Clear 6 1030 75 10000 2.1 60 20:20 06.11.2020
5849 Clear 6 1030 75 10000 2.1 60 20:20 06.11.2020
5850 Clear 6 1030 75 10000 2.1 60 19:55 06.11.2020
5851 Clear 7 1030 65 10000 2.1 60 19:37 06.11.2020
5852 Clear 8 1030 57 10000 2.1 110 19:19 06.11.2020
5853 Clear 8 1031 57 10000 1.5 100 18:44 06.11.2020
5854 Clear 8 1031 61 10000 3.1 90 18:22 06.11.2020
5855 Clear 9 1031 61 10000 3.1 90 17:50 06.11.2020
5856 Clear 10 1031 52 10000 2.1 100 17:25 06.11.2020
5857 Clear 9 1031 53 10000 3.1 60 16:48 06.11.2020
5858 Clear 12 1031 47 10000 3.6 70 16:25 06.11.2020
5859 Clear 11 1032 47 10000 4.6 70 15:49 06.11.2020
5860 Clear 12 1032 43 10000 4.6 70 15:28 06.11.2020
5861 Clear 11 1032 50 10000 5.1 70 14:53 06.11.2020
5862 Clear 11 1032 50 10000 4.6 70 14:26 06.11.2020
5863 Clear 11 1033 57 10000 2.6 50 13:45 06.11.2020
5864 Clear 10 1033 57 10000 2.6 50 13:24 06.11.2020
5865 Clear 9 1034 65 10000 3.1 50 12:46 06.11.2020
5866 Clear 8 1034 65 10000 3.1 50 12:23 06.11.2020
5867 Clear 9 1035 70 10000 4.6 70 11:49 06.11.2020
5868 Clear 7 1035 75 10000 3.6 70 11:28 06.11.2020
5869 Clear 6 1035 80 10000 2.1 90 10:46 06.11.2020
5870 Clear 6 1035 80 10000 2.1 90 10:25 06.11.2020
5871 Clear 3 1035 59 10000 3.1 90 09:49 06.11.2020
5872 Clear 3 1035 65 10000 3.1 90 09:22 06.11.2020
5873 Clear 3 1035 65 10000 3.1 90 09:22 06.11.2020
5874 Clear 2 1035 65 10000 3.6 80 08:51 06.11.2020
5875 Clear 2 1035 71 10000 3.6 70 08:29 06.11.2020
5876 Clear 2 1035 71 10000 3.6 70 08:29 06.11.2020
5877 Clear 1 1035 71 10000 3.6 80 07:54 06.11.2020
5878 Clear 2 1035 71 10000 3.6 80 07:34 06.11.2020
5879 Clouds 2 1035 71 10000 3.6 70 06:58 06.11.2020
5880 Clear 2 1035 70 10000 2.1 70 06:24 06.11.2020
5881 Clear 2 1035 70 10000 1.5 60 05:36 06.11.2020
5882 Clear 3 1036 93 10000 3.1 80 01:23 06.11.2020
5883 Clear 4 1036 64 10000 2.6 80 00:23 06.11.2020
5884 Clear 4 1037 86 10000 2.1 90 23:39 05.11.2020
5885 Clear 4 1037 93 10000 2.1 70 22:59 05.11.2020
5886 Clear 4 1037 93 10000 2.1 70 22:41 05.11.2020
5887 Clear 4 1037 93 10000 1 0 22:22 05.11.2020
5888 Clear 4 1037 86 10000 0.5 0 21:44 05.11.2020
5889 Clear 4 1037 86 10000 0.5 0 21:24 05.11.2020
5890 Clear 4 1037 86 10000 1 0 20:59 05.11.2020
5891 Clear 5 1037 93 10000 2.1 70 20:41 05.11.2020
5892 Clear 5 1037 93 10000 2.1 70 20:41 05.11.2020
5893 Clear 4 1037 93 10000 2.1 70 20:21 05.11.2020
5894 Clear 5 1037 86 10000 2.1 350 19:43 05.11.2020
5895 Clear 5 1037 86 10000 2.1 350 19:25 05.11.2020
5896 Clear 6 1037 86 10000 2.6 10 18:55 05.11.2020
5897 Clear 6 1037 81 10000 2.6 10 18:37 05.11.2020
5898 Clear 7 1036 81 10000 3.1 20 18:18 05.11.2020
5899 Clouds 9 1037 70 10000 3.1 30 17:41 05.11.2020
5900 Clouds 9 1037 61 10000 3.1 50 17:23 05.11.2020
5901 Clouds 10 1037 53 10000 3.1 40 16:45 05.11.2020
5902 Clouds 11 1037 53 10000 3.1 40 16:24 05.11.2020
5903 Clouds 11 1037 53 10000 4.1 40 15:50 05.11.2020
5904 Clouds 11 1037 53 10000 4.1 40 15:50 05.11.2020
5905 Clouds 11 1037 57 10000 3.1 50 15:26 05.11.2020
5906 Clouds 11 1037 57 10000 3.1 30 14:50 05.11.2020
5907 Clouds 11 1037 57 10000 3.1 30 14:50 05.11.2020
5908 Clouds 11 1037 57 10000 3.1 50 14:31 05.11.2020
5909 Clouds 11 1037 57 10000 3.1 50 14:31 05.11.2020
5910 Clouds 10 1038 57 10000 2.6 60 13:59 05.11.2020
5911 Clouds 10 1038 66 10000 2.1 40 13:39 05.11.2020
5912 Clouds 9 1038 66 10000 2.1 60 12:54 05.11.2020
5913 Clouds 9 1039 70 10000 3.6 70 12:30 05.11.2020
5914 Clouds 9 1039 76 10000 3.6 60 11:59 05.11.2020
5915 Clouds 8 1039 75 10000 2.1 60 11:41 05.11.2020
5916 Clouds 7 1039 75 10000 2.1 60 11:22 05.11.2020
5917 Clear 7 1039 81 10000 2.1 80 10:47 05.11.2020
5918 Clear 6 1039 81 10000 2.1 80 10:26 05.11.2020
5919 Clear 5 1039 80 10000 2.6 80 09:49 05.11.2020
5920 Clear 4 1039 93 10000 1 0 09:24 05.11.2020
5921 Clear 3 1039 93 10000 1 0 08:49 05.11.2020
5922 Clear 2 1039 79 10000 1.5 60 08:31 05.11.2020
5923 Clear 2 1038 79 10000 1.5 10 07:55 05.11.2020
5924 Clear 2 1038 79 10000 1.5 10 07:27 05.11.2020
5925 Clear 2 1038 79 10000 1.5 80 06:43 05.11.2020
5926 Clear 2 1038 78 10000 1 0 06:20 05.11.2020
5927 Clear 3 1037 77 10000 1.5 80 03:27 05.11.2020
5928 Clear 4 1036 86 10000 1 0 00:37 05.11.2020
5929 Clear 3 1036 93 10000 1 0 00:18 05.11.2020
5930 Clear 5 1036 86 10000 2.6 10 23:36 04.11.2020
5931 Clear 5 1036 93 10000 2.1 20 23:18 04.11.2020
5932 Clear 4 1036 86 10000 1 0 22:41 04.11.2020
5933 Clear 4 1036 86 10000 0.5 0 22:21 04.11.2020
5934 Clear 5 1036 86 10000 0.5 0 21:47 04.11.2020
5935 Clear 5 1035 86 10000 1 0 21:27 04.11.2020
5936 Clear 6 1035 86 10000 0.5 0 20:54 04.11.2020
5937 Clear 6 1035 86 10000 2.1 350 20:35 04.11.2020
5938 Clear 6 1035 86 10000 2.1 350 20:35 04.11.2020
5939 Clear 6 1034 80 10000 2.6 330 19:59 04.11.2020
5940 Clear 7 1034 80 10000 2.1 330 19:40 04.11.2020
5941 Clear 7 1034 80 10000 2.1 330 19:22 04.11.2020
5942 Clear 8 1033 81 10000 2.6 10 18:41 04.11.2020
5943 Clouds 9 1033 70 10000 2.6 20 18:23 04.11.2020
5944 Clouds 8 1033 70 10000 2.6 20 17:48 04.11.2020
5945 Clouds 9 1032 57 10000 2.6 20 17:27 04.11.2020
5946 Clouds 9 1032 57 10000 2.6 20 17:27 04.11.2020
5947 Clouds 10 1032 66 10000 4.1 40 16:57 04.11.2020
5948 Clouds 11 1032 61 10000 4.6 40 16:37 04.11.2020
5949 Clouds 11 1032 57 10000 3.1 30 16:18 04.11.2020
5950 Clouds 11 1031 62 10000 4.1 30 15:42 04.11.2020
5951 Clouds 11 1031 62 10000 4.1 30 15:23 04.11.2020
5952 Clouds 11 1031 58 10000 3.1 40 14:46 04.11.2020
5953 Clouds 11 1031 58 10000 3.1 40 14:25 04.11.2020
5954 Clouds 11 1032 58 10000 3.6 20 13:54 04.11.2020
5955 Clouds 11 1031 62 10000 2.1 360 13:36 04.11.2020
5956 Clouds 11 1032 57 10000 2.1 0 13:18 04.11.2020
5957 Clouds 10 1032 61 10000 1.5 40 12:42 04.11.2020
5958 Clouds 10 1032 61 10000 1.5 40 12:24 04.11.2020
5959 Clouds 9 1032 70 10000 2.1 30 11:46 04.11.2020
5960 Clouds 10 1032 70 10000 2.1 30 11:24 04.11.2020
5961 Clouds 10 1031 75 10000 2.6 20 10:51 04.11.2020
5962 Clouds 7 1031 87 10000 2.1 10 10:24 04.11.2020
5963 Clouds 6 1031 93 10000 1 0 09:58 04.11.2020
5964 Clouds 7 1031 100 10000 0.5 0 09:40 04.11.2020
5965 Clouds 6 1031 93 10000 1 0 09:20 04.11.2020
5966 Clouds 6 1030 93 10000 1 0 08:41 04.11.2020
5967 Clouds 5 1030 93 10000 1.5 200 08:18 04.11.2020
5968 Clouds 6 1029 93 10000 1.5 240 07:42 04.11.2020
5969 Clouds 6 1029 93 10000 1.5 240 07:23 04.11.2020
5970 Clouds 6 1029 93 10000 1.5 240 06:41 04.11.2020
5971 Clouds 6 1029 93 10000 1 270 05:39 04.11.2020
5972 Clouds 7 1027 87 10000 2.1 190 02:31 04.11.2020
5973 Clouds 8 1027 87 10000 2.6 190 01:40 04.11.2020
5974 Clouds 8 1027 87 10000 3.1 190 00:27 04.11.2020
5975 Clouds 9 1026 81 10000 2.1 190 23:33 03.11.2020
5976 Clouds 10 1026 76 10000 3.1 230 22:59 03.11.2020
5977 Clouds 10 1026 76 10000 4.1 250 22:40 03.11.2020
5978 Clouds 10 1026 71 10000 4.1 250 22:20 03.11.2020
5979 Clouds 10 1025 71 10000 4.1 240 21:55 03.11.2020
5980 Clouds 10 1025 71 10000 4.1 240 21:36 03.11.2020
5981 Clouds 11 1025 71 10000 6.2 220 21:18 03.11.2020
5982 Clouds 12 1024 71 10000 4.1 200 20:41 03.11.2020
5983 Clouds 11 1024 71 10000 4.1 200 20:19 03.11.2020
5984 Clear 11 1024 76 10000 4.1 210 19:42 03.11.2020
5985 Clear 11 1024 76 10000 4.1 210 19:19 03.11.2020
5986 Clouds 12 1024 66 10000 3.6 210 18:41 03.11.2020
5987 Clouds 12 1024 66 10000 3.6 210 18:41 03.11.2020
5988 Clouds 12 1023 66 10000 3.6 210 18:20 03.11.2020
5989 Clouds 12 1023 66 10000 3.6 210 17:55 03.11.2020
5990 Clouds 12 1023 62 10000 3.6 210 17:36 03.11.2020
5991 Clouds 12 1023 62 10000 2.6 210 16:54 03.11.2020
5992 Clouds 13 1023 58 10000 4.1 220 16:36 03.11.2020
5993 Clouds 13 1023 58 10000 4.1 220 16:18 03.11.2020
5994 Clouds 13 1023 54 10000 6.2 230 15:41 03.11.2020
5995 Clouds 13 1023 62 10000 4.1 230 15:22 03.11.2020
5996 Clouds 14 1023 62 10000 4.1 220 14:46 03.11.2020
5997 Clouds 14 1024 62 10000 4.1 250 14:27 03.11.2020
5998 Clouds 14 1024 62 10000 4.1 250 14:27 03.11.2020
5999 Clouds 14 1023 62 10000 4.1 240 13:44 03.11.2020
6000 Clouds 14 1023 62 10000 4.1 240 13:23 03.11.2020
6001 Clouds 14 1024 62 10000 4.1 210 12:56 03.11.2020
6002 Clouds 14 1024 62 10000 4.1 230 12:36 03.11.2020
6003 Clouds 14 1024 62 10000 3.6 240 12:18 03.11.2020
6004 Clouds 13 1024 66 10000 3.1 250 11:41 03.11.2020
6005 Clouds 13 1024 62 10000 3.6 240 11:20 03.11.2020
6006 Clouds 13 1024 67 10000 3.1 210 10:39 03.11.2020
6007 Clouds 13 1024 76 10000 1.5 230 10:20 03.11.2020
6008 Clouds 12 1024 76 10000 1.5 230 09:51 03.11.2020
6009 Clouds 12 1024 71 10000 1.5 210 09:33 03.11.2020
6010 Clouds 12 1024 71 10000 1.5 210 09:33 03.11.2020
6011 Clouds 12 1023 71 10000 1.5 210 08:55 03.11.2020
6012 Rain 12 1023 71 10000 2.1 230 08:35 03.11.2020
6013 Rain 12 1023 71 10000 3.1 240 07:49 03.11.2020
6014 Rain 12 1023 71 10000 2.6 220 07:22 03.11.2020
6015 Rain 12 1022 71 10000 2.6 220 06:46 03.11.2020
6016 Clouds 13 1022 66 10000 3.1 240 05:38 03.11.2020
6017 Clouds 13 1020 71 10000 2.6 250 02:20 03.11.2020
6018 Clouds 14 1018 87 10000 3.1 290 00:41 03.11.2020
6019 Clouds 14 1018 87 10000 5.1 310 23:52 02.11.2020
6020 Clouds 14 1017 93 8000 6.7 320 23:33 02.11.2020
6021 Rain 17 1016 68 10000 4.1 230 22:55 02.11.2020
6022 Rain 18 1015 72 10000 3.1 240 22:36 02.11.2020
6023 Clouds 19 1015 68 10000 4.1 200 21:59 02.11.2020
6024 Clouds 19 1014 68 10000 4.6 200 21:38 02.11.2020
6025 Clouds 19 1014 68 10000 4.6 200 21:19 02.11.2020
6026 Clear 19 1014 68 10000 6.2 200 20:40 02.11.2020
6027 Clear 19 1014 68 10000 6.2 200 20:20 02.11.2020
6028 Clear 19 1013 64 10000 6.7 200 19:49 02.11.2020
6029 Clear 19 1013 64 10000 6.7 200 19:27 02.11.2020
6030 Clear 19 1013 64 10000 5.1 200 18:57 02.11.2020
6031 Clear 20 1013 64 10000 5.7 210 18:39 02.11.2020
6032 Clear 20 1013 64 10000 5.1 220 18:20 02.11.2020
6033 Clouds 20 1013 64 10000 3.6 210 17:43 02.11.2020
6034 Clouds 20 1013 64 10000 3.6 210 17:25 02.11.2020
6035 Clouds 21 1012 60 10000 7.2 210 16:56 02.11.2020
6036 Clouds 21 1012 60 10000 7.2 210 16:37 02.11.2020
6037 Clouds 21 1012 60 10000 7.2 210 16:18 02.11.2020
6038 Clouds 22 1012 56 10000 7.7 220 15:39 02.11.2020
6039 Clouds 22 1013 56 10000 9.3 220 15:20 02.11.2020
6040 Clouds 22 1013 56 10000 9.8 220 14:51 02.11.2020
6041 Clouds 22 1013 60 10000 8.2 220 14:20 02.11.2020
6042 Clouds 22 1013 60 10000 8.7 210 13:52 02.11.2020
6043 Clouds 22 1013 60 10000 8.7 210 13:23 02.11.2020
6044 Clouds 21 1013 60 10000 8.7 210 12:55 02.11.2020
6045 Clouds 21 1014 60 10000 9.3 220 12:30 02.11.2020
6046 Clouds 20 1014 68 10000 7.7 210 11:56 02.11.2020
6047 Clouds 20 1014 68 10000 8.2 210 11:37 02.11.2020
6048 Clouds 19 1014 72 10000 7.2 210 11:18 02.11.2020
6049 Clouds 19 1014 72 10000 7.2 200 10:41 02.11.2020
6050 Clouds 19 1014 72 10000 7.2 200 10:18 02.11.2020
6051 Clouds 18 1013 72 10000 7.2 200 09:48 02.11.2020
6052 Clouds 18 1012 79 10000 1.34 37 09:23 02.11.2020
6053 Clouds 18 1013 77 10000 7.2 200 08:40 02.11.2020
6054 Clouds 18 1013 77 10000 6.7 200 08:20 02.11.2020
6055 Clouds 18 1013 77 10000 5.7 200 07:49 02.11.2020
6056 Clouds 17 1013 82 10000 5.1 190 06:49 02.11.2020
6057 Clouds 17 1011 84 10000 4.93 218 06:24 02.11.2020
6058 Clouds 16 1013 87 10000 4.6 190 01:40 02.11.2020
6059 Clouds 16 1013 87 10000 4.6 190 01:22 02.11.2020
6060 Rain 16 1014 87 10000 4.1 190 00:33 02.11.2020
6061 Clouds 16 1014 82 10000 3.6 190 23:41 01.11.2020
6062 Clouds 16 1014 82 10000 3.6 190 23:23 01.11.2020
6063 Clouds 16 1014 82 10000 5.1 200 22:46 01.11.2020
6064 Clouds 16 1014 82 10000 5.1 200 22:25 01.11.2020
6065 Clouds 16 1014 82 10000 6.2 200 21:58 01.11.2020
6066 Clouds 16 1013 82 10000 6.7 200 21:38 01.11.2020
6067 Clouds 15 1013 82 10000 6.7 200 21:20 01.11.2020
6068 Clouds 15 1014 93 10000 5.7 200 20:40 01.11.2020
6069 Clouds 15 1014 93 10000 4.6 190 20:20 01.11.2020
6070 Clouds 16 1014 87 10000 5.7 200 19:41 01.11.2020
6071 Clouds 16 1014 87 10000 5.7 200 19:23 01.11.2020
6072 Clouds 15 1014 93 10000 4.6 190 18:43 01.11.2020
6073 Clouds 15 1014 93 10000 4.1 190 18:20 01.11.2020
6074 Clouds 15 1014 93 10000 4.1 190 18:20 01.11.2020
6075 Clouds 15 1014 93 10000 4.1 190 17:58 01.11.2020
6076 Clouds 15 1013 93 10000 5.1 190 17:40 01.11.2020
6077 Clouds 15 1013 93 10000 5.1 190 17:21 01.11.2020
6078 Clouds 15 1014 93 10000 4.6 190 16:41 01.11.2020
6079 Clouds 15 1014 93 10000 4.6 190 16:21 01.11.2020
6080 Clouds 15 1014 93 10000 4.6 180 15:54 01.11.2020
6081 Clouds 15 1014 93 10000 4.6 180 15:36 01.11.2020
6082 Rain 15 1014 93 10000 4.6 180 15:18 01.11.2020
6083 Clouds 14 1015 93 10000 5.1 180 14:43 01.11.2020
6084 Rain 14 1015 93 10000 4.6 180 14:21 01.11.2020
6085 Rain 14 1015 93 10000 4.6 180 13:49 01.11.2020
6086 Clouds 14 1015 93 10000 5.1 190 13:31 01.11.2020
6087 Clouds 14 1016 93 10000 5.7 190 12:44 01.11.2020
6088 Clouds 14 1016 93 10000 5.7 190 12:44 01.11.2020
6089 Clouds 14 1016 93 10000 5.7 190 12:26 01.11.2020
6090 Clouds 14 1016 93 10000 5.1 190 11:55 01.11.2020
6091 Clouds 14 1016 93 10000 5.1 180 11:37 01.11.2020
6092 Clouds 13 1016 93 9000 6.2 170 11:18 01.11.2020
6093 Clouds 13 1017 93 7000 5.7 180 10:41 01.11.2020
6094 Clouds 13 1017 93 7000 5.7 180 10:22 01.11.2020
6095 Rain 13 1017 93 10000 5.7 180 09:47 01.11.2020
6096 Rain 13 1016 93 10000 4.1 180 08:52 01.11.2020
6097 Rain 12 1016 100 10000 4.6 180 08:33 01.11.2020
6098 Rain 12 1017 93 10000 3.1 200 07:45 01.11.2020
6099 Rain 12 1017 93 10000 3.1 210 06:23 01.11.2020
6100 Rain 11 1018 93 5000 2.1 180 01:58 01.11.2020
6101 Clouds 11 1018 93 6000 3.1 190 01:23 01.11.2020
6102 Rain 11 1018 87 10000 2.6 210 23:42 31.10.2020
6103 Rain 12 1018 87 10000 2.6 210 23:23 31.10.2020
6104 Clear 12 1018 81 10000 2.6 200 22:44 31.10.2020
6105 Rain 12 1018 81 10000 2.6 200 22:23 31.10.2020
6106 Rain 12 1018 81 10000 3.1 190 21:46 31.10.2020
6107 Clear 12 1018 81 10000 3.6 180 21:21 31.10.2020
6108 Clear 11 1018 87 10000 2.6 190 20:41 31.10.2020
6109 Clear 11 1018 87 10000 2.6 190 20:20 31.10.2020
6110 Clear 11 1018 93 10000 2.1 160 19:44 31.10.2020
6111 Clear 11 1018 93 10000 2.1 160 19:24 31.10.2020
6112 Clear 12 1019 87 10000 2.6 180 18:59 31.10.2020
6113 Clear 12 1019 93 10000 2.1 170 18:41 31.10.2020
6114 Clear 13 1019 76 10000 2.1 160 17:47 31.10.2020
6115 Clear 14 1019 76 10000 2.1 160 17:27 31.10.2020
6116 Clear 15 1019 72 10000 2.1 190 16:59 31.10.2020
6117 Clear 15 1019 63 10000 2.6 170 16:39 31.10.2020
6118 Clear 17 1019 63 10000 3.6 190 15:56 31.10.2020
6119 Clear 17 1020 59 10000 3.6 180 15:36 31.10.2020
6120 Clouds 17 1020 59 10000 3.6 180 15:18 31.10.2020
6121 Clouds 17 1020 59 10000 3.6 170 14:44 31.10.2020
6122 Clouds 17 1020 59 10000 3.6 170 14:26 31.10.2020
6123 Clouds 16 1021 63 10000 4.1 160 13:49 31.10.2020
6124 Clouds 16 1021 63 10000 4.1 160 13:21 31.10.2020
6125 Clouds 15 1022 62 10000 5.1 190 12:32 31.10.2020
6126 Clouds 15 1023 62 10000 3.6 180 11:48 31.10.2020
6127 Clouds 15 1023 62 10000 5.1 150 11:28 31.10.2020
6128 Clouds 14 1023 62 10000 3.6 180 10:56 31.10.2020
6129 Clouds 13 1023 76 10000 3.1 180 10:33 31.10.2020
6130 Clouds 13 1024 82 10000 2.1 180 09:42 31.10.2020
6131 Clouds 12 1024 87 10000 1.5 220 09:22 31.10.2020
6132 Clouds 11 1024 93 10000 1.5 240 08:32 31.10.2020
6133 Clouds 11 1024 100 10000 1 0 07:50 31.10.2020
6134 Clouds 11 1024 100 10000 1 0 07:27 31.10.2020
6135 Clouds 12 1024 100 10000 1.5 230 06:39 31.10.2020
6136 Clouds 12 1024 93 10000 1 0 05:20 31.10.2020
6137 Clouds 12 1025 81 10000 2.1 170 03:46 31.10.2020
6138 Clouds 13 1025 82 10000 3.1 210 01:30 31.10.2020
6139 Clouds 13 1025 82 10000 3.6 210 00:47 31.10.2020
6140 Clouds 13 1025 82 10000 3.1 210 23:52 30.10.2020
6141 Clouds 13 1025 82 10000 3.6 210 23:25 30.10.2020
6142 Clouds 13 1024 82 10000 4.6 210 22:48 30.10.2020
6143 Clouds 13 1024 82 10000 4.6 210 22:26 30.10.2020
6144 Clouds 13 1024 87 10000 4.1 200 21:58 30.10.2020
6145 Clouds 13 1024 87 10000 4.1 200 21:38 30.10.2020
6146 Clouds 13 1024 93 10000 3.6 180 21:19 30.10.2020
6147 Clouds 13 1024 87 10000 4.1 200 20:42 30.10.2020
6148 Clouds 13 1024 87 10000 4.1 200 20:23 30.10.2020
6149 Clouds 14 1024 93 10000 4.6 210 19:49 30.10.2020
6150 Clouds 14 1024 82 10000 5.7 220 19:19 30.10.2020
6151 Clouds 14 1024 82 10000 5.1 210 18:52 30.10.2020
6152 Clouds 14 1023 82 10000 5.7 210 18:33 30.10.2020
6153 Clouds 14 1023 82 10000 5.1 210 17:56 30.10.2020
6154 Clouds 14 1023 82 10000 5.7 210 17:36 30.10.2020
6155 Clouds 15 1023 77 10000 5.7 210 17:18 30.10.2020
6156 Clouds 15 1023 77 10000 5.7 210 16:49 30.10.2020
6157 Clouds 15 1022 77 10000 3.6 220 16:19 30.10.2020
6158 Clouds 15 1022 77 10000 6.2 210 15:41 30.10.2020
6159 Clouds 15 1022 77 10000 4.1 210 15:20 30.10.2020
6160 Clouds 15 1022 77 10000 5.7 200 14:45 30.10.2020
6161 Clouds 15 1022 77 10000 5.7 200 14:26 30.10.2020
6162 Clouds 15 1022 77 10000 6.2 210 13:55 30.10.2020
6163 Rain 15 1022 77 10000 5.1 210 13:37 30.10.2020
6164 Clouds 15 1022 77 10000 5.7 210 13:18 30.10.2020
6165 Clouds 15 1022 82 10000 6.2 210 12:24 30.10.2020
6166 Clouds 14 1022 77 10000 5.7 200 11:59 30.10.2020
6167 Clouds 14 1022 77 10000 6.2 210 11:40 30.10.2020
6168 Clouds 14 1022 77 10000 6.2 210 11:19 30.10.2020
6169 Clouds 14 1022 87 10000 5.1 200 10:47 30.10.2020
6170 Clouds 14 1021 93 10000 4.1 200 10:23 30.10.2020
6171 Rain 13 1021 87 10000 5.1 200 09:45 30.10.2020
6172 Rain 13 1021 87 10000 5.1 200 09:24 30.10.2020
6173 Rain 13 1020 93 10000 5.7 220 08:46 30.10.2020
6174 Rain 13 1020 93 10000 5.7 220 08:26 30.10.2020
6175 Rain 13 1020 87 10000 6.2 220 07:50 30.10.2020
6176 Rain 12 1020 100 10000 5.7 210 07:31 30.10.2020
6177 Clouds 12 1020 93 10000 5.1 220 06:47 30.10.2020
6178 Clouds 12 1019 93 10000 6.2 200 05:22 30.10.2020
6179 Clouds 11 1019 93 10000 5.7 200 02:28 30.10.2020
6180 Clouds 11 1019 93 10000 5.1 190 00:46 30.10.2020
6181 Clouds 11 1020 93 10000 5.1 200 23:54 29.10.2020
6182 Rain 11 1020 93 10000 5.1 190 23:36 29.10.2020
6183 Rain 11 1020 100 9000 4.6 190 23:18 29.10.2020
6184 Rain 11 1020 100 10000 4.1 190 22:42 29.10.2020
6185 Rain 11 1020 100 10000 4.1 190 22:23 29.10.2020
6186 Rain 11 1020 100 10000 3.6 200 21:40 29.10.2020
6187 Rain 10 1020 100 10000 3.6 190 21:21 29.10.2020
6188 Rain 10 1021 100 10000 3.6 200 20:42 29.10.2020
6189 Rain 11 1021 100 10000 3.6 200 20:20 29.10.2020
6190 Rain 11 1021 93 10000 4.1 220 19:45 29.10.2020
6191 Rain 11 1021 93 10000 4.1 220 19:22 29.10.2020
6192 Rain 11 1020 93 10000 4.1 220 18:58 29.10.2020
6193 Rain 11 1020 93 10000 5.1 230 18:39 29.10.2020
6194 Rain 11 1020 93 10000 4.6 230 18:20 29.10.2020
6195 Rain 11 1020 93 10000 2.1 230 17:41 29.10.2020
6196 Rain 11 1020 93 10000 2.1 230 17:21 29.10.2020
6197 Rain 11 1020 93 10000 2.1 240 16:48 29.10.2020
6198 Rain 11 1019 87 10000 2.6 210 16:22 29.10.2020
6199 Rain 11 1019 87 10000 2.6 210 15:57 29.10.2020
6200 Rain 11 1019 93 10000 2.6 200 15:38 29.10.2020
6201 Rain 10 1019 87 10000 2.1 250 15:20 29.10.2020
6202 Rain 11 1019 87 10000 2.1 250 14:46 29.10.2020
6203 Clouds 11 1019 87 10000 3.1 230 14:24 29.10.2020
6204 Clouds 12 1019 87 10000 3.1 230 13:49 29.10.2020
6205 Rain 12 1019 87 10000 5.7 240 13:28 29.10.2020
6206 Rain 12 1019 81 10000 6.2 220 12:59 29.10.2020
6207 Clouds 13 1017 71 10000 1.34 45 12:39 29.10.2020
6208 Clouds 13 1018 76 10000 6.7 230 12:19 29.10.2020
6209 Clouds 12 1018 76 10000 6.2 220 11:44 29.10.2020
6210 Clouds 12 1018 76 10000 6.2 220 11:24 29.10.2020
6211 Clouds 12 1017 71 10000 6.2 220 10:37 29.10.2020
6212 Clouds 12 1017 76 10000 4.6 200 10:19 29.10.2020
6213 Clouds 12 1017 76 10000 4.6 200 09:53 29.10.2020
6214 Clouds 12 1016 76 10000 5.1 230 09:28 29.10.2020
6215 Clouds 10 1016 81 10000 4.6 220 08:55 29.10.2020
6216 Clouds 10 1015 81 10000 5.1 220 08:33 29.10.2020
6217 Rain 10 1014 93 10000 4.6 190 07:54 29.10.2020
6218 Clouds 10 1014 100 10000 5.1 190 07:35 29.10.2020
6219 Clouds 10 1014 87 10000 4.1 210 06:57 29.10.2020
6220 Rain 11 1013 87 10000 4.6 210 05:35 29.10.2020
6221 Rain 12 1012 87 10000 5.7 220 04:45 29.10.2020
6222 Clouds 13 1009 82 10000 1.34 66 01:24 29.10.2020
6223 Clouds 13 1010 79 10000 7.1 224 00:31 29.10.2020
6224 Clouds 13 1010 75 10000 6.66 219 23:48 28.10.2020
6225 Rain 13 1010 76 10000 1.79 347 23:22 28.10.2020
6226 Clouds 13 1012 66 10000 5.7 190 22:45 28.10.2020
6227 Clouds 13 1012 66 10000 5.7 190 22:26 28.10.2020
6228 Rain 13 1012 66 10000 5.7 190 21:59 28.10.2020
6229 Rain 13 1012 66 10000 6.2 190 21:40 28.10.2020
6230 Clouds 13 1012 66 10000 6.2 190 21:20 28.10.2020
6231 Clear 12 1012 66 10000 5.1 200 20:42 28.10.2020
6232 Clear 13 1012 66 10000 5.1 200 20:22 28.10.2020
6233 Clear 13 1012 66 10000 6.2 200 19:51 28.10.2020
6234 Clear 13 1012 66 10000 6.2 200 19:29 28.10.2020
6235 Clouds 13 1012 62 10000 6.2 200 18:49 28.10.2020
6236 Clouds 13 1012 62 10000 4.6 210 18:22 28.10.2020
6237 Clouds 13 1012 62 10000 4.6 210 17:57 28.10.2020
6238 Clouds 13 1012 62 10000 4.6 210 17:39 28.10.2020
6239 Clouds 14 1012 58 10000 5.7 220 17:18 28.10.2020
6240 Clouds 14 1012 58 10000 7.2 230 16:44 28.10.2020
6241 Clouds 14 1012 62 10000 6.7 230 16:22 28.10.2020
6242 Clouds 14 1012 62 10000 8.7 220 15:38 28.10.2020
6243 Clouds 14 1011 67 10000 3.13 358 15:19 28.10.2020
6244 Clouds 14 1011 82 10000 4.1 220 14:43 28.10.2020
6245 Clouds 14 1011 82 10000 4.1 220 14:24 28.10.2020
6246 Clouds 12 1010 86 10000 0.89 21 12:49 28.10.2020
6247 Rain 13 1010 87 10000 1.34 327 12:27 28.10.2020
6248 Rain 13 1010 91 10000 5.52 230 11:59 28.10.2020
6249 Rain 12 1010 90 10000 5.52 230 11:41 28.10.2020
6250 Rain 13 1010 91 10000 4.34 223 11:20 28.10.2020
6251 Clouds 12 1011 93 10000 3.1 180 10:50 28.10.2020
6252 Clouds 12 1011 93 10000 3.1 180 10:32 28.10.2020
6253 Clouds 11 1011 93 10000 3.6 180 09:45 28.10.2020
6254 Clouds 11 1011 93 10000 3.6 180 09:24 28.10.2020
6255 Clouds 11 1010 93 10000 3.1 180 08:51 28.10.2020
6256 Clouds 10 1010 93 10000 3.6 180 08:33 28.10.2020
6257 Rain 10 1010 93 10000 4.6 190 07:55 28.10.2020
6258 Rain 10 1009 93 10000 4.1 180 07:37 28.10.2020
6259 Clouds 10 1009 93 10000 4.1 180 07:19 28.10.2020
6260 Clouds 10 1009 93 10000 3.6 180 06:39 28.10.2020
6261 Rain 10 1009 87 10000 4.1 180 05:48 28.10.2020
6262 Clouds 10 1008 81 10000 4.6 180 04:52 28.10.2020
6263 Clouds 10 1008 76 10000 4.6 190 04:23 28.10.2020
6264 Clouds 10 1009 76 10000 4.1 190 02:25 28.10.2020
6265 Clouds 10 1009 71 10000 4.1 190 00:39 28.10.2020
6266 Clouds 10 1009 71 10000 5.7 180 23:51 27.10.2020
6267 Clouds 10 1009 71 10000 6.2 180 23:22 27.10.2020
6268 Clouds 10 1009 71 10000 5.7 180 22:55 27.10.2020
6269 Clouds 10 1009 71 10000 5.7 180 22:37 27.10.2020
6270 Clouds 10 1009 71 10000 5.7 180 22:18 27.10.2020
6271 Clouds 10 1009 71 10000 5.7 180 21:54 27.10.2020
6272 Clouds 10 1009 71 10000 5.1 180 21:36 27.10.2020
6273 Clouds 10 1009 76 10000 4.6 180 21:18 27.10.2020
6274 Clouds 10 1009 76 10000 5.1 180 20:39 27.10.2020
6275 Clouds 10 1009 76 10000 4.6 180 20:20 27.10.2020
6276 Clouds 10 1009 76 10000 4.1 170 19:39 27.10.2020
6277 Clouds 10 1009 71 10000 4.1 180 19:21 27.10.2020
6278 Clouds 10 1009 71 10000 4.1 180 18:58 27.10.2020
6279 Clouds 10 1009 71 10000 4.1 180 18:40 27.10.2020
6280 Clouds 11 1009 71 10000 4.6 180 18:18 27.10.2020
6281 Clouds 11 1009 71 10000 4.6 180 17:43 27.10.2020
6282 Clouds 11 1009 71 10000 4.6 180 17:21 27.10.2020
6283 Clouds 12 1009 71 10000 6.2 170 16:48 27.10.2020
6284 Clouds 12 1009 71 10000 6.2 170 16:28 27.10.2020
6285 Clouds 12 1009 66 10000 5.7 180 15:55 27.10.2020
6286 Clouds 12 1009 66 10000 5.7 180 15:37 27.10.2020
6287 Clouds 12 1009 71 10000 5.1 190 15:18 27.10.2020
6288 Rain 12 1010 76 10000 4.6 190 14:41 27.10.2020
6289 Clouds 12 1010 71 10000 5.1 190 14:22 27.10.2020
6290 Rain 12 1010 71 10000 6.2 180 13:46 27.10.2020
6291 Clouds 12 1010 71 10000 6.7 190 13:22 27.10.2020
6292 Clouds 12 1010 76 10000 5.7 190 12:40 27.10.2020
6293 Clouds 11 1010 76 10000 5.1 190 12:22 27.10.2020
6294 Clouds 11 1010 76 10000 5.1 190 11:42 27.10.2020
6295 Clouds 11 1010 76 10000 5.1 190 11:23 27.10.2020
6296 Clouds 10 1009 81 10000 4.6 190 10:47 27.10.2020
6297 Clouds 9 1009 87 10000 4.6 180 10:29 27.10.2020
6298 Clouds 9 1009 87 10000 4.1 210 09:47 27.10.2020
6299 Clouds 8 1009 93 10000 4.1 180 09:26 27.10.2020
6300 Clouds 8 1009 87 10000 4.6 180 08:44 27.10.2020
6301 Clouds 8 1009 87 10000 4.6 180 08:26 27.10.2020
6302 Clouds 8 1009 87 10000 5.1 180 07:47 27.10.2020
6303 Clouds 8 1009 87 10000 4.1 180 07:28 27.10.2020
6304 Clouds 7 1008 93 10000 4.6 180 06:38 27.10.2020
6305 Clouds 7 1008 93 10000 3.6 190 06:19 27.10.2020
6306 Clouds 7 1008 93 10000 3.6 180 05:43 27.10.2020
6307 Clouds 7 1008 93 10000 4.1 180 04:51 27.10.2020
6308 Clouds 7 1008 93 10000 2.6 210 02:35 27.10.2020
6309 Clouds 8 1008 100 10000 3.1 190 00:59 27.10.2020
6310 Clouds 7 1008 93 10000 4.1 210 23:57 26.10.2020
6311 Clouds 7 1008 100 10000 2.1 210 23:36 26.10.2020
6312 Clouds 8 1007 93 10000 2.6 200 22:55 26.10.2020
6313 Clouds 8 1007 93 10000 3.6 200 22:29 26.10.2020
6314 Clouds 8 1007 93 10000 3.6 190 21:51 26.10.2020
6315 Clouds 8 1007 93 10000 3.6 190 21:21 26.10.2020
6316 Clouds 8 1007 93 10000 4.1 190 20:59 26.10.2020
6317 Clouds 9 1006 87 10000 4.6 180 20:41 26.10.2020
6318 Clouds 9 1006 87 10000 4.6 180 20:22 26.10.2020
6319 Clouds 9 1006 93 10000 4.1 180 19:48 26.10.2020
6320 Clouds 9 1006 93 10000 4.1 180 19:28 26.10.2020
6321 Clouds 9 1006 93 10000 4.1 170 18:55 26.10.2020
6322 Clouds 10 1006 81 10000 3.1 180 18:36 26.10.2020
6323 Clouds 10 1005 76 10000 3.1 190 18:18 26.10.2020
6324 Clouds 10 1005 76 10000 3.1 180 17:40 26.10.2020
6325 Clouds 11 1005 71 10000 3.1 190 17:22 26.10.2020
6326 Clouds 11 1006 71 10000 3.6 220 16:44 26.10.2020
6327 Clouds 11 1005 71 10000 5.1 230 16:22 26.10.2020
6328 Clouds 11 1005 76 10000 4.1 210 15:45 26.10.2020
6329 Clouds 11 1005 76 10000 4.1 210 15:26 26.10.2020
6330 Clouds 11 1005 76 10000 4.6 210 14:59 26.10.2020
6331 Clouds 12 1005 71 10000 5.7 210 14:38 26.10.2020
6332 Clouds 12 1005 81 10000 3.6 200 14:18 26.10.2020
6333 Clouds 11 1005 81 10000 4.1 200 13:38 26.10.2020
6334 Clouds 11 1005 87 10000 5.1 220 13:20 26.10.2020
6335 Clouds 11 1005 87 10000 3.6 200 12:42 26.10.2020
6336 Clouds 11 1005 87 10000 3.6 200 12:23 26.10.2020
6337 Clouds 11 1005 87 10000 4.1 210 11:47 26.10.2020
6338 Clouds 11 1005 87 10000 4.1 210 11:25 26.10.2020
6339 Rain 11 1005 93 10000 4.1 200 10:58 26.10.2020
6340 Rain 11 1005 93 10000 4.1 200 10:58 26.10.2020
6341 Rain 11 1004 93 10000 4.6 200 10:40 26.10.2020
6342 Rain 11 1004 93 10000 4.1 200 10:19 26.10.2020
6343 Rain 10 1004 100 10000 2.6 180 09:43 26.10.2020
6344 Rain 10 1004 100 10000 3.6 210 09:21 26.10.2020
6345 Rain 11 1004 93 9000 6.2 210 08:29 26.10.2020
6346 Rain 11 1003 93 8000 4.1 0 07:53 26.10.2020
6347 Rain 11 1003 93 9000 3.6 190 07:34 26.10.2020
6348 Rain 11 1003 93 9000 2.6 180 06:37 26.10.2020
6349 Rain 11 1004 93 10000 2.6 180 04:22 26.10.2020
6350 Rain 11 1004 93 10000 2.1 180 03:42 26.10.2020
6351 Rain 11 1004 93 10000 1.5 170 01:40 26.10.2020
6352 Rain 11 1004 93 10000 0.5 0 00:57 26.10.2020
6353 Rain 11 1005 93 10000 1 220 00:32 26.10.2020
6354 Clouds 11 1004 93 10000 2.6 110 23:41 25.10.2020
6355 Rain 11 1005 93 10000 1 0 23:21 25.10.2020
6356 Rain 11 1005 93 10000 2.1 160 22:40 25.10.2020
6357 Rain 11 1005 93 10000 3.6 150 22:21 25.10.2020
6358 Clouds 11 1005 100 10000 3.1 150 21:43 25.10.2020
6359 Rain 11 1005 100 10000 3.1 150 21:24 25.10.2020
6360 Rain 12 1006 100 10000 2.6 150 20:56 25.10.2020
6361 Rain 12 1006 100 10000 3.1 160 20:37 25.10.2020
6362 Rain 13 1006 93 10000 2.6 190 20:18 25.10.2020
6363 Rain 13 1006 87 9000 6.2 260 19:48 25.10.2020
6364 Rain 14 1005 82 10000 3.6 290 19:22 25.10.2020
6365 Rain 14 1005 82 10000 3.6 290 18:55 25.10.2020
6366 Clouds 14 1005 87 10000 2.6 290 18:36 25.10.2020
6367 Clouds 14 1004 87 10000 0.5 0 18:18 25.10.2020
6368 Clouds 15 1003 80 10000 2.93 186 17:39 25.10.2020
6369 Clouds 15 1005 87 10000 1 200 17:21 25.10.2020
6370 Clouds 16 1003 78 10000 2.75 200 16:58 25.10.2020
6371 Clouds 16 1005 72 10000 3.1 170 16:38 25.10.2020
6372 Rain 16 1005 72 10000 3.1 170 16:18 25.10.2020
6373 Rain 16 1005 63 10000 5.1 170 15:46 25.10.2020
6374 Rain 17 1005 63 10000 5.1 170 15:25 25.10.2020
6375 Clouds 17 1006 59 10000 4.6 200 14:46 25.10.2020
6376 Clouds 17 1006 59 10000 4.6 200 14:28 25.10.2020
6377 Clear 17 1006 63 10000 6.2 170 13:43 25.10.2020
6378 Clouds 17 1007 59 10000 3.6 180 13:21 25.10.2020
6379 Clear 17 1006 63 10000 6.2 170 13:21 25.10.2020
6380 Clouds 17 1007 59 10000 3.6 180 12:49 25.10.2020
6381 Clouds 16 1007 63 10000 4.1 190 12:27 25.10.2020
6382 Clouds 16 1007 63 10000 4.1 190 12:27 25.10.2020
6383 Clouds 17 1007 62 10000 3.1 180 11:57 25.10.2020
6384 Clouds 16 1008 67 10000 3.6 190 11:39 25.10.2020
6385 Clouds 16 1008 67 10000 3.6 190 11:39 25.10.2020
6386 Clouds 15 1008 71 10000 3.6 200 11:18 25.10.2020
6387 Clouds 14 1008 71 10000 2.6 170 10:44 25.10.2020
6388 Clouds 13 1008 71 10000 2.6 170 10:25 25.10.2020
6389 Clouds 13 1009 76 10000 1.5 220 09:48 25.10.2020
6390 Clouds 11 1009 87 10000 0.5 0 09:20 25.10.2020
6391 Clouds 11 1009 93 10000 1 280 08:51 25.10.2020
6392 Clouds 10 1009 93 10000 1 0 08:32 25.10.2020
6393 Clouds 10 1009 93 10000 0.5 0 07:53 25.10.2020
6394 Clouds 10 1009 93 10000 0.5 0 07:34 25.10.2020
6395 Clear 10 1009 93 10000 0.5 0 06:52 25.10.2020
6396 Clear 10 1009 87 10000 0.5 0 06:19 25.10.2020
6397 Clouds 11 1010 81 10000 3.6 180 04:53 25.10.2020
6398 Clouds 11 1011 81 10000 4.1 170 03:53 25.10.2020
6399 Clouds 12 1012 76 10000 4.1 170 02:19 25.10.2020
6400 Clouds 13 1013 76 10000 5.7 170 00:49 25.10.2020
6401 Clouds 13 1013 76 10000 3.6 190 00:26 25.10.2020
6402 Clouds 13 1013 76 10000 3.6 180 23:54 24.10.2020
6403 Clouds 13 1013 76 10000 3.6 180 23:29 24.10.2020
6404 Clouds 14 1013 76 10000 3.6 180 22:57 24.10.2020
6405 Clouds 14 1014 71 10000 3.6 180 22:38 24.10.2020
6406 Clouds 14 1014 71 10000 4.1 180 22:20 24.10.2020
6407 Clouds 14 1014 71 10000 2.6 190 21:43 24.10.2020
6408 Clouds 14 1014 71 10000 2.6 190 21:21 24.10.2020
6409 Clouds 14 1014 71 10000 2.6 190 21:21 24.10.2020
6410 Clouds 14 1014 67 10000 4.1 190 20:49 24.10.2020
6411 Clouds 14 1014 71 10000 5.1 190 20:25 24.10.2020
6412 Clouds 14 1014 71 10000 5.1 170 19:58 24.10.2020
6413 Clouds 14 1015 67 10000 4.6 0 19:40 24.10.2020
6414 Clouds 14 1015 67 10000 4.6 0 19:22 24.10.2020
6415 Clouds 15 1015 67 10000 4.6 210 18:47 24.10.2020
6416 Clouds 15 1015 67 10000 4.6 210 18:27 24.10.2020
6417 Clouds 15 1015 67 10000 4.1 190 17:43 24.10.2020
6418 Clouds 15 1015 67 10000 4.1 190 17:25 24.10.2020
6419 Clouds 15 1016 67 10000 6.7 190 16:48 24.10.2020
6420 Clouds 15 1016 67 10000 6.2 200 16:30 24.10.2020
6421 Clouds 15 1016 67 10000 7.2 220 15:42 24.10.2020
6422 Clouds 16 1016 72 10000 6.7 230 15:20 24.10.2020
6423 Clouds 16 1016 72 10000 6.7 230 14:57 24.10.2020
6424 Clouds 16 1016 72 10000 6.7 240 14:29 24.10.2020
6425 Clouds 15 1016 72 10000 6.2 210 13:55 24.10.2020
6426 Clouds 15 1017 87 10000 4.6 200 13:36 24.10.2020
6427 Clouds 15 1017 87 10000 4.6 200 13:18 24.10.2020
6428 Clouds 14 1016 87 10000 3.1 190 12:37 24.10.2020
6429 Clouds 14 1016 93 10000 4.6 190 12:19 24.10.2020
6430 Clouds 14 1016 87 10000 4.6 170 11:49 24.10.2020
6431 Clouds 13 1016 93 10000 4.1 180 11:20 24.10.2020
6432 Clouds 13 1016 93 10000 3.6 180 10:44 24.10.2020
6433 Clouds 12 1016 93 10000 3.6 180 10:26 24.10.2020
6434 Clouds 12 1016 100 10000 3.6 200 09:45 24.10.2020
6435 Clouds 11 1016 100 10000 3.6 200 09:26 24.10.2020
6436 Clouds 11 1016 100 8000 1.5 220 08:56 24.10.2020
6437 Fog 10 1015 93 3000 0.5 0 08:19 24.10.2020
6438 Fog 10 1015 93 3000 0.5 0 07:51 24.10.2020
6439 Fog 10 1015 93 4800 1 0 07:21 24.10.2020
6440 Fog 11 1015 100 4800 1 0 06:50 24.10.2020
6441 Fog 11 1015 100 3200 0.5 0 05:46 24.10.2020
6442 Clouds 13 1014 100 10000 3.1 180 02:26 24.10.2020
6443 Clouds 13 1014 93 10000 2.6 200 00:57 24.10.2020
6444 Clouds 14 1014 93 10000 3.1 200 00:37 24.10.2020
6445 Clouds 14 1014 93 10000 3.1 200 00:37 24.10.2020
6446 Clouds 14 1014 93 10000 3.6 200 00:19 24.10.2020
6447 Clouds 14 1014 93 10000 4.1 200 23:43 23.10.2020
6448 Clouds 14 1014 93 10000 4.1 200 23:22 23.10.2020
6449 Clouds 14 1013 93 10000 4.6 180 22:42 23.10.2020
6450 Clouds 14 1013 93 10000 4.6 180 22:22 23.10.2020
6451 Clouds 14 1013 93 10000 4.6 180 22:22 23.10.2020
6452 Clouds 14 1013 93 10000 5.1 190 21:59 23.10.2020
6453 Clouds 14 1013 93 10000 3.6 190 21:39 23.10.2020
6454 Clouds 14 1013 93 10000 3.6 190 21:21 23.10.2020
6455 Clouds 14 1013 100 10000 3.6 200 20:39 23.10.2020
6456 Clouds 14 1012 100 10000 4.1 180 20:20 23.10.2020
6457 Clouds 15 1012 100 10000 3.6 190 19:48 23.10.2020
6458 Rain 15 1012 100 10000 3.6 190 19:29 23.10.2020
6459 Clouds 15 1012 93 10000 3.1 180 18:49 23.10.2020
6460 Clouds 15 1012 93 10000 3.1 180 18:30 23.10.2020
6461 Clouds 15 1011 93 10000 3.1 180 17:47 23.10.2020
6462 Clouds 15 1011 93 10000 3.1 170 17:23 23.10.2020
6463 Rain 15 1011 93 10000 3.1 170 16:56 23.10.2020
6464 Rain 15 1011 93 10000 3.1 170 16:56 23.10.2020
6465 Rain 15 1011 93 10000 3.1 170 16:56 23.10.2020
6466 Clouds 15 1012 93 10000 2.6 190 16:36 23.10.2020
6467 Clouds 15 1012 93 10000 3.1 190 15:59 23.10.2020
6468 Rain 15 1012 93 10000 3.1 200 15:41 23.10.2020
6469 Rain 15 1012 93 10000 4.1 200 15:23 23.10.2020
6470 Clouds 15 1012 93 10000 3.1 190 14:50 23.10.2020
6471 Rain 15 1012 93 10000 3.1 190 14:32 23.10.2020
6472 Rain 15 1012 93 10000 3.6 190 13:55 23.10.2020
6473 Rain 15 1012 93 10000 3.6 190 13:36 23.10.2020
6474 Rain 15 1012 93 10000 2.6 180 13:18 23.10.2020
6475 Rain 15 1012 87 10000 3.1 180 12:42 23.10.2020
6476 Rain 15 1012 87 10000 3.1 180 12:23 23.10.2020
6477 Clouds 15 1013 87 10000 3.1 180 11:42 23.10.2020
6478 Clouds 15 1013 87 10000 3.1 180 11:20 23.10.2020
6479 Clouds 15 1013 87 10000 3.6 170 10:43 23.10.2020
6480 Clouds 15 1013 87 10000 3.6 170 10:23 23.10.2020
6481 Clouds 14 1013 93 10000 4.6 170 09:43 23.10.2020
6482 Clouds 14 1012 93 10000 4.1 170 09:23 23.10.2020
6483 Clouds 14 1012 93 10000 4.1 170 08:52 23.10.2020
6484 Clouds 14 1012 93 10000 4.1 170 08:28 23.10.2020
6485 Clouds 14 1013 93 10000 3.6 180 07:30 23.10.2020
6486 Clouds 14 1013 93 10000 3.1 190 06:54 23.10.2020
6487 Clouds 14 1013 93 10000 4.1 180 06:20 23.10.2020
6488 Clouds 14 1014 93 10000 3.6 180 04:45 23.10.2020
6489 Clouds 14 1014 100 10000 3.1 170 02:32 23.10.2020
6490 Clouds 15 1014 93 10000 2.6 190 01:23 23.10.2020
6491 Rain 16 1015 93 10000 3.1 180 00:36 23.10.2020
6492 Rain 17 1015 77 10000 3.6 190 23:40 22.10.2020
6493 Rain 17 1015 77 10000 3.6 190 23:40 22.10.2020
6494 Rain 17 1015 77 10000 3.6 190 23:22 22.10.2020
6495 Clouds 17 1015 77 10000 5.1 210 22:48 22.10.2020
6496 Clouds 17 1016 78 10000 1.34 235 22:26 22.10.2020
6497 Clouds 17 1014 77 10000 4.6 200 21:58 22.10.2020
6498 Clouds 18 1014 72 10000 6.7 200 21:40 22.10.2020
6499 Clouds 18 1014 72 10000 5.1 190 21:20 22.10.2020
6500 Clouds 17 1014 77 10000 3.1 180 20:45 22.10.2020
6501 Rain 18 1014 77 10000 3.1 180 20:25 22.10.2020
6502 Clouds 18 1014 68 10000 3.1 180 19:58 22.10.2020
6503 Rain 18 1014 63 10000 3.6 180 19:39 22.10.2020
6504 Clouds 18 1013 63 10000 2.6 180 19:18 22.10.2020
6505 Clear 19 1013 63 10000 3.1 180 18:41 22.10.2020
6506 Clear 19 1013 60 10000 2.6 170 18:19 22.10.2020
6507 Clouds 20 1013 60 10000 3.6 170 17:45 22.10.2020
6508 Clouds 20 1013 60 10000 3.6 170 17:22 22.10.2020
6509 Clouds 20 1013 60 10000 3.6 170 16:46 22.10.2020
6510 Clouds 20 1013 60 10000 4.1 180 16:25 22.10.2020
6511 Clouds 20 1013 56 10000 5.1 160 15:57 22.10.2020
6512 Clouds 20 1014 56 10000 4.6 180 15:38 22.10.2020
6513 Clouds 20 1014 56 10000 4.6 180 15:19 22.10.2020
6514 Clouds 20 1014 56 10000 4.6 190 14:45 22.10.2020
6515 Clouds 20 1014 56 10000 4.6 190 14:24 22.10.2020
6516 Clouds 19 1015 59 10000 4.1 200 13:45 22.10.2020
6517 Clouds 19 1015 59 10000 4.1 200 13:23 22.10.2020
6518 Clouds 18 1015 67 10000 3.6 200 12:47 22.10.2020
6519 Clouds 17 1015 67 10000 3.6 200 12:23 22.10.2020
6520 Clouds 17 1016 72 10000 3.6 200 11:50 22.10.2020
6521 Rain 16 1015 72 10000 2.1 200 11:20 22.10.2020
6522 Rain 16 1015 72 10000 1.5 190 10:51 22.10.2020
6523 Clouds 15 1015 87 10000 1 0 10:27 22.10.2020
6524 Clouds 13 1015 87 10000 2.1 220 09:52 22.10.2020
6525 Clouds 14 1014 87 10000 2.1 200 09:33 22.10.2020
6526 Clouds 12 1014 87 10000 2.1 200 08:51 22.10.2020
6527 Clouds 12 1013 93 10000 2.1 190 08:30 22.10.2020
6528 Clouds 12 1013 87 10000 1.5 280 07:57 22.10.2020
6529 Clouds 13 1013 76 10000 2.6 190 07:34 22.10.2020
6530 Clouds 13 1013 76 10000 3.6 180 06:58 22.10.2020
6531 Clouds 13 1013 81 10000 2.6 180 06:27 22.10.2020
6532 Clouds 12 1013 76 10000 1 0 05:41 22.10.2020
6533 Clouds 13 1013 76 10000 2.1 210 05:18 22.10.2020
6534 Clouds 14 1012 67 10000 4.1 190 01:46 22.10.2020
6535 Clouds 14 1011 81 10000 1.5 210 00:26 22.10.2020
6536 Clouds 14 1011 81 10000 1.5 210 23:51 21.10.2020
6537 Clouds 14 1011 87 10000 1.5 210 23:32 21.10.2020
6538 Clouds 15 1010 81 10000 1 0 22:43 21.10.2020
6539 Clouds 14 1010 76 10000 1.5 210 22:20 21.10.2020
6540 Clouds 14 1010 76 10000 1.5 210 22:20 21.10.2020
6541 Clouds 14 1010 76 10000 1.5 210 21:57 21.10.2020
6542 Clouds 15 1010 76 10000 1.5 250 21:38 21.10.2020
6543 Clear 15 1009 67 10000 2.1 260 21:19 21.10.2020
6544 Clear 15 1009 67 10000 2.1 260 20:48 21.10.2020
6545 Clouds 15 1008 59 10000 2.6 200 20:19 21.10.2020
6546 Clouds 15 1008 59 10000 2.6 200 19:57 21.10.2020
6547 Clouds 16 1008 59 10000 4.6 180 19:37 21.10.2020
6548 Clouds 16 1008 55 10000 5.1 180 19:18 21.10.2020
6549 Clouds 17 1008 55 10000 3.6 180 18:46 21.10.2020
6550 Clouds 17 1008 55 10000 3.6 180 18:21 21.10.2020
6551 Clouds 18 1007 52 10000 4.1 180 17:43 21.10.2020
6552 Clouds 19 1007 55 10000 4.6 180 17:20 21.10.2020
6553 Clouds 19 1007 55 10000 4.6 180 16:55 21.10.2020
6554 Clouds 19 1008 55 10000 3.1 180 16:36 21.10.2020
6555 Clouds 19 1008 55 10000 3.1 180 16:18 21.10.2020
6556 Clouds 19 1008 55 10000 3.6 180 15:42 21.10.2020
6557 Clouds 18 1008 59 10000 2.1 160 15:20 21.10.2020
6558 Clouds 17 1008 67 10000 4.1 140 14:45 21.10.2020
6559 Clouds 17 1009 72 10000 2.6 150 14:27 21.10.2020
6560 Clouds 16 1009 72 10000 2.6 160 13:46 21.10.2020
6561 Clouds 16 1009 72 10000 3.1 150 13:26 21.10.2020
6562 Rain 14 1010 76 10000 1.5 160 12:48 21.10.2020
6563 Clouds 13 1009 82 10000 1 0 12:25 21.10.2020
6564 Clouds 13 1010 82 10000 1 0 11:59 21.10.2020
6565 Clouds 14 1010 82 10000 1 0 11:40 21.10.2020
6566 Clouds 13 1010 82 10000 1 0 11:19 21.10.2020
6567 Clouds 13 1009 87 10000 1 0 10:44 21.10.2020
6568 Clouds 12 1009 93 10000 0.5 0 10:25 21.10.2020
6569 Rain 11 1009 93 10000 0.5 210 09:53 21.10.2020
6570 Clouds 11 1009 93 10000 0.5 210 09:33 21.10.2020
6571 Rain 11 1009 100 10000 1 310 08:56 21.10.2020
6572 Rain 11 1009 100 10000 1 310 08:56 21.10.2020
6573 Rain 11 1009 100 10000 1 310 08:38 21.10.2020
6574 Clouds 10 1009 100 10000 0.5 0 08:19 21.10.2020
6575 Clouds 10 1009 93 10000 1.5 140 07:37 21.10.2020
6576 Rain 10 1009 93 10000 0.5 0 06:55 21.10.2020
6577 Clouds 10 1009 93 10000 1 0 06:29 21.10.2020
6578 Clouds 10 1009 93 10000 1.5 350 04:47 21.10.2020
6579 Rain 11 1011 87 10000 2.1 20 00:57 21.10.2020
6580 Rain 11 1011 93 10000 2.6 350 23:50 20.10.2020
6581 Clouds 11 1012 100 10000 1.5 50 23:19 20.10.2020
6582 Rain 11 1012 87 10000 2.1 360 22:29 20.10.2020
6583 Rain 11 1013 93 10000 1 0 21:50 20.10.2020
6584 Clouds 11 1013 87 10000 2.1 70 21:21 20.10.2020
6585 Rain 11 1013 87 10000 2.1 70 21:21 20.10.2020
6586 Rain 11 1013 87 10000 2.1 70 20:59 20.10.2020
6587 Rain 11 1013 87 10000 2.1 70 20:41 20.10.2020
6588 Rain 11 1014 87 10000 1.5 50 20:22 20.10.2020
6589 Rain 11 1014 93 10000 1 0 19:44 20.10.2020
6590 Rain 11 1014 87 10000 0.5 0 19:22 20.10.2020
6591 Rain 11 1013 87 10000 1.5 10 18:56 20.10.2020
6592 Rain 11 1013 87 10000 2.1 20 18:37 20.10.2020
6593 Rain 11 1013 87 10000 1.5 10 18:37 20.10.2020
6594 Rain 12 1013 87 10000 1.5 360 17:50 20.10.2020
6595 Rain 12 1013 81 10000 1.5 280 17:32 20.10.2020
6596 Rain 13 1013 76 10000 0.5 220 16:56 20.10.2020
6597 Rain 14 1014 66 10000 0.5 0 16:38 20.10.2020
6598 Rain 14 1014 66 10000 0.5 0 16:20 20.10.2020
6599 Rain 14 1014 66 10000 0.5 0 15:41 20.10.2020
6600 Rain 14 1014 66 10000 1 0 15:22 20.10.2020
6601 Clouds 13 1014 66 10000 1.5 170 14:44 20.10.2020
6602 Clouds 13 1014 71 10000 2.6 180 14:24 20.10.2020
6603 Clouds 13 1015 66 10000 2.1 220 13:58 20.10.2020
6604 Clouds 13 1015 66 10000 2.1 220 13:39 20.10.2020
6605 Clouds 13 1015 71 10000 1.5 190 13:19 20.10.2020
6606 Clouds 11 1015 71 10000 1.5 210 12:47 20.10.2020
6607 Clouds 11 1015 71 10000 1 0 12:29 20.10.2020
6608 Clouds 9 1015 76 10000 1 0 11:47 20.10.2020
6609 Clouds 8 1015 81 10000 1 0 11:27 20.10.2020
6610 Clouds 7 1015 87 10000 1 0 10:43 20.10.2020
6611 Clouds 7 1015 86 10000 0.5 0 10:25 20.10.2020
6612 Clouds 5 1015 100 10000 1.5 90 09:44 20.10.2020
6613 Clouds 5 1015 100 10000 0.5 0 09:19 20.10.2020
6614 Clouds 5 1015 93 10000 1 0 08:40 20.10.2020
6615 Clouds 5 1015 93 10000 0.5 0 08:19 20.10.2020
6616 Clouds 5 1015 93 10000 0.5 0 07:44 20.10.2020
6617 Clouds 5 1015 93 10000 0.5 0 07:21 20.10.2020
6618 Clouds 5 1016 93 10000 1 0 06:20 20.10.2020
6619 Clouds 5 1016 93 10000 1.5 70 04:27 20.10.2020
6620 Clouds 5 1017 93 10000 1 360 02:30 20.10.2020
6621 Clouds 6 1018 93 10000 1 0 01:27 20.10.2020
6622 Clouds 6 1018 93 10000 1.5 360 00:51 20.10.2020
6623 Clouds 7 1018 86 10000 2.1 60 00:27 20.10.2020
6624 Clouds 7 1019 75 10000 2.6 70 23:51 19.10.2020
6625 Clouds 7 1019 75 10000 2.6 80 23:26 19.10.2020
6626 Clouds 8 1020 75 10000 3.1 110 22:54 19.10.2020
6627 Clouds 7 1020 81 10000 3.1 110 22:28 19.10.2020
6628 Clouds 8 1020 87 10000 3.1 110 21:58 19.10.2020
6629 Clouds 8 1020 87 10000 3.1 110 21:39 19.10.2020
6630 Clouds 9 1020 76 10000 3.1 110 21:19 19.10.2020
6631 Clouds 9 1020 76 10000 3.1 110 20:43 19.10.2020
6632 Clouds 9 1020 76 10000 2.6 110 20:25 19.10.2020
6633 Clouds 10 1020 66 10000 2.6 100 19:46 19.10.2020
6634 Clouds 10 1020 71 10000 2.6 120 19:20 19.10.2020
6635 Clouds 11 1020 66 10000 3.1 110 18:50 19.10.2020
6636 Clouds 12 1020 66 10000 3.1 120 18:31 19.10.2020
6637 Clouds 13 1021 58 10000 3.6 130 17:49 19.10.2020
6638 Clouds 13 1021 58 10000 2.1 150 17:29 19.10.2020
6639 Clouds 13 1021 58 10000 2.6 190 16:55 19.10.2020
6640 Clouds 13 1021 62 10000 2.1 160 16:30 19.10.2020
6641 Clouds 14 1020 56 10000 2.04 197 15:59 19.10.2020
6642 Clouds 14 1020 54 10000 2.04 197 15:37 19.10.2020
6643 Clouds 13 1023 68 10000 2.16 195 15:19 19.10.2020
6644 Clouds 13 1023 68 10000 0.45 144 14:47 19.10.2020
6645 Clouds 13 1024 68 10000 0.89 187 14:24 19.10.2020
6646 Clouds 13 1021 62 10000 2.21 205 13:48 19.10.2020
6647 Clouds 13 1022 63 10000 2.38 208 13:30 19.10.2020
6648 Clouds 11 1024 79 10000 2.3 204 12:46 19.10.2020
6649 Clouds 12 1022 70 10000 2.2 197 12:28 19.10.2020
6650 Clouds 11 1023 87 10000 1 0 11:51 19.10.2020
6651 Clouds 9 1023 87 10000 1 0 11:25 19.10.2020
6652 Clouds 10 1023 87 10000 1 0 10:56 19.10.2020
6653 Clouds 9 1023 93 10000 1 0 10:36 19.10.2020
6654 Clouds 8 1023 87 10000 1 260 10:18 19.10.2020
6655 Clouds 8 1023 93 10000 0.5 0 09:42 19.10.2020
6656 Clouds 8 1023 93 10000 1 0 09:19 19.10.2020
6657 Clouds 7 1023 93 10000 1.5 190 08:47 19.10.2020
6658 Clouds 7 1023 93 10000 1.5 190 08:21 19.10.2020
6659 Clouds 7 1023 93 10000 1 190 07:37 19.10.2020
6660 Clouds 7 1023 93 10000 1.5 180 07:18 19.10.2020
6661 Clouds 8 1023 87 10000 1.5 240 06:18 19.10.2020
6662 Clouds 8 1023 87 10000 1.5 200 03:48 19.10.2020
6663 Clouds 8 1023 87 10000 1.5 210 02:23 19.10.2020
6664 Clouds 8 1023 87 10000 2.1 190 00:46 19.10.2020
6665 Clouds 8 1023 87 10000 2.1 190 00:20 19.10.2020
6666 Clouds 8 1023 87 10000 2.1 180 23:45 18.10.2020
6667 Clouds 8 1023 87 10000 2.1 180 23:21 18.10.2020
6668 Clouds 9 1023 87 10000 3.1 190 22:48 18.10.2020
6669 Clouds 9 1023 81 10000 2.1 230 22:22 18.10.2020
6670 Clouds 9 1023 81 10000 2.1 230 21:53 18.10.2020
6671 Clouds 9 1023 76 10000 1.5 190 21:30 18.10.2020
6672 Clouds 9 1023 81 10000 1 0 20:58 18.10.2020
6673 Clouds 9 1023 71 10000 2.6 180 20:39 18.10.2020
6674 Clouds 9 1022 81 10000 2.6 170 20:19 18.10.2020
6675 Clouds 9 1022 81 10000 2.6 190 19:42 18.10.2020
6676 Clouds 10 1022 76 10000 1.5 200 19:22 18.10.2020
6677 Clouds 10 1022 76 10000 2.6 190 18:48 18.10.2020
6678 Clouds 10 1022 76 10000 2.6 190 18:26 18.10.2020
6679 Clouds 10 1022 66 10000 3.1 220 17:43 18.10.2020
6680 Clouds 11 1022 66 10000 3.1 220 17:25 18.10.2020
6681 Clouds 11 1022 66 10000 2.6 200 16:45 18.10.2020
6682 Clouds 11 1022 66 10000 2.6 200 16:26 18.10.2020
6683 Clouds 11 1022 71 10000 3.1 210 15:59 18.10.2020
6684 Clouds 11 1023 76 10000 2.6 210 15:41 18.10.2020
6685 Clouds 11 1023 76 10000 2.6 210 15:19 18.10.2020
6686 Clouds 10 1023 76 10000 2.6 210 14:53 18.10.2020
6687 Clouds 10 1023 81 10000 3.1 190 14:28 18.10.2020
6688 Clouds 10 1023 76 10000 2.1 210 13:56 18.10.2020
6689 Clouds 9 1023 81 9000 2.1 200 13:37 18.10.2020
6690 Clouds 9 1023 87 9000 2.1 210 13:19 18.10.2020
6691 Clouds 9 1024 87 8000 1.5 200 12:41 18.10.2020
6692 Clouds 9 1024 87 8000 1.5 200 12:21 18.10.2020
6693 Clouds 7 1023 93 8000 2.1 210 11:42 18.10.2020
6694 Clouds 7 1023 87 7000 2.6 200 11:23 18.10.2020
6695 Clouds 7 1023 93 6000 1.5 180 10:41 18.10.2020
6696 Clouds 7 1023 93 6000 1.5 180 10:21 18.10.2020
6697 Clouds